# Wetter Temperatur Luftdruck Luftfeuchtigkeit Sichtweite Windgeschwindigkeit Windrichtung Zeit
1 Clouds 32 1004 62 10000 7.72 180 10:27 14.08.2022
2 Rain 34 1004 52 10000 7.72 190 08:45 14.08.2022
3 Clouds 33 1004 60 10000 7.2 230 06:21 14.08.2022
4 Clouds 28 1006 78 10000 9.26 200 02:47 14.08.2022
5 Clouds 26 1005 88 10000 6.17 210 23:49 13.08.2022
6 Clouds 26 1005 89 10000 6.69 200 22:52 13.08.2022
7 Clouds 26 1004 91 10000 7.2 190 20:58 13.08.2022
8 Clouds 25 1005 91 10000 5.66 200 20:28 13.08.2022
9 Clouds 25 1005 92 10000 3.6 190 19:29 13.08.2022
10 Clouds 24 1005 92 10000 4.12 280 17:40 13.08.2022
11 Clouds 25 1005 94 10000 6.17 280 15:23 13.08.2022
12 Clouds 25 1004 94 10000 8.23 290 14:27 13.08.2022
13 Rain 25 1002 95 10000 9.77 280 13:39 13.08.2022
14 Rain 25 1003 94 4000 10.29 120 11:52 13.08.2022
15 Rain 25 1007 93 5000 7.72 150 10:21 13.08.2022
16 Rain 25 1008 91 10000 9.26 180 08:23 13.08.2022
17 Rain 25 1010 93 10000 7.2 200 05:22 13.08.2022
18 Clouds 26 1010 85 10000 4.12 180 23:52 12.08.2022
19 Clouds 26 1009 86 10000 7.72 210 21:46 12.08.2022
20 Rain 27 1009 85 10000 7.72 200 20:53 12.08.2022
21 Rain 27 1009 86 10000 9.26 200 19:40 12.08.2022
22 Rain 27 1009 83 10000 8.23 190 18:46 12.08.2022
23 Rain 27 1010 85 10000 6.17 180 17:21 12.08.2022
24 Clouds 27 1011 85 10000 5.14 200 15:52 12.08.2022
25 Rain 27 1011 87 10000 6.17 200 14:41 12.08.2022
26 Rain 27 1010 84 10000 9.26 200 12:55 12.08.2022
27 Rain 29 1009 74 10000 10.8 190 10:45 12.08.2022
28 Rain 30 1009 69 10000 8.23 200 08:31 12.08.2022
29 Clouds 31 1010 65 10000 8.23 190 06:56 12.08.2022
30 Clouds 31 1010 68 10000 8.23 190 03:20 12.08.2022
31 Clouds 29 1009 76 10000 8.23 200 00:27 12.08.2022
32 Clouds 28 1009 79 10000 7.72 200 23:35 11.08.2022
33 Clouds 27 1009 83 10000 8.23 200 22:28 11.08.2022
34 Clouds 27 1009 84 10000 8.23 200 21:43 11.08.2022
35 Clouds 27 1009 84 10000 8.75 200 21:19 11.08.2022
36 Clouds 27 1009 84 10000 7.2 200 20:27 11.08.2022
37 Clouds 27 1009 82 10000 7.72 200 19:33 11.08.2022
38 Clouds 28 1009 82 10000 7.72 200 18:36 11.08.2022
39 Clouds 28 1009 81 10000 8.23 190 16:38 11.08.2022
40 Clouds 28 1010 79 10000 2.68 252 15:37 11.08.2022
41 Clouds 28 1010 78 10000 8.23 200 13:51 11.08.2022
42 Clouds 30 1009 72 10000 8.75 190 11:26 11.08.2022
43 Clouds 33 1009 63 10000 9.77 190 07:56 11.08.2022
44 Clouds 33 1010 65 10000 9.26 180 04:44 11.08.2022
45 Clouds 31 1010 63 10000 1.79 105 01:54 11.08.2022
46 Clouds 28 1010 76 10000 5.14 180 22:38 10.08.2022
47 Clouds 28 1010 79 10000 6.17 190 21:44 10.08.2022
48 Clouds 28 1010 80 10000 6.17 190 20:56 10.08.2022
49 Clouds 28 1010 79 10000 6.69 190 19:44 10.08.2022
50 Clouds 28 1010 80 10000 6.69 200 18:45 10.08.2022
51 Clouds 28 1010 80 10000 7.72 200 17:20 10.08.2022
52 Clouds 29 1010 79 10000 8.75 200 13:49 10.08.2022
53 Clouds 29 1009 76 10000 9.77 190 12:50 10.08.2022
54 Clouds 32 1009 67 10000 11.83 190 10:21 10.08.2022
55 Clouds 34 1008 62 10000 12.35 190 08:36 10.08.2022
56 Clouds 34 1009 58 10000 10.8 180 07:21 10.08.2022
57 Clouds 34 1010 59 10000 10.29 190 04:49 10.08.2022
58 Clouds 31 1009 66 10000 8.23 200 00:49 10.08.2022
59 Clouds 29 1009 69 10000 8.23 200 23:25 09.08.2022
60 Clear 28 1009 72 10000 7.2 200 21:37 09.08.2022
61 Clear 29 1009 69 10000 7.2 200 20:56 09.08.2022
62 Clear 29 1008 69 10000 7.72 200 18:56 09.08.2022
63 Clear 29 1009 70 10000 7.72 200 17:31 09.08.2022
64 Clear 30 1009 70 10000 9.77 200 16:43 09.08.2022
65 Clear 30 1009 69 10000 9.77 200 15:59 09.08.2022
66 Clear 30 1009 69 10000 10.29 200 14:43 09.08.2022
67 Clouds 33 1007 61 10000 10.29 190 10:53 09.08.2022
68 Clouds 34 1007 57 10000 10.8 190 08:52 09.08.2022
69 Clouds 35 1007 55 10000 11.32 190 07:57 09.08.2022
70 Clouds 35 1009 56 10000 9.26 190 04:49 09.08.2022
71 Clouds 30 1010 72 10000 7.72 200 23:58 08.08.2022
72 Clouds 29 1010 74 10000 8.23 200 23:24 08.08.2022
73 Clouds 29 1010 76 10000 7.2 200 22:40 08.08.2022
74 Clouds 28 1010 76 10000 7.2 200 21:44 08.08.2022
75 Clouds 29 1009 75 10000 7.72 190 20:34 08.08.2022
76 Clouds 29 1009 75 10000 7.2 200 19:35 08.08.2022
77 Clouds 29 1010 75 10000 9.26 200 18:18 08.08.2022
78 Clouds 29 1010 73 10000 9.77 200 15:48 08.08.2022
79 Clouds 30 1010 73 10000 9.77 200 15:28 08.08.2022
80 Clouds 30 1010 73 10000 10.29 200 12:30 08.08.2022
81 Clouds 32 1009 66 10000 10.8 200 10:33 08.08.2022
82 Clouds 33 1009 62 10000 10.29 180 07:59 08.08.2022
83 Clouds 33 1012 64 10000 8.23 190 03:45 08.08.2022
84 Clouds 29 1012 79 10000 6.17 200 00:33 08.08.2022
85 Clouds 27 1011 86 10000 6.17 190 21:42 07.08.2022
86 Clouds 27 1011 86 10000 5.66 190 21:19 07.08.2022
87 Clouds 27 1011 85 10000 5.14 190 20:23 07.08.2022
88 Clouds 27 1011 84 10000 5.14 190 19:52 07.08.2022
89 Clouds 28 1011 84 10000 5.66 190 19:22 07.08.2022
90 Clouds 28 1011 83 10000 6.17 180 17:45 07.08.2022
91 Clouds 28 1012 83 10000 5.14 190 16:52 07.08.2022
92 Clouds 28 1012 83 10000 5.14 190 15:40 07.08.2022
93 Clouds 28 1012 80 10000 5.14 190 14:27 07.08.2022
94 Clouds 29 1011 74 10000 6.17 190 12:41 07.08.2022
95 Clouds 30 1010 69 10000 6.17 190 10:53 07.08.2022
96 Clouds 31 1010 68 10000 6.17 190 10:21 07.08.2022
97 Clouds 30 1011 71 10000 2.06 40 04:38 07.08.2022
98 Clouds 28 1012 76 10000 1.54 90 02:35 07.08.2022
99 Clouds 25 1012 84 10000 0.51 0 22:40 06.08.2022
100 Clouds 25 1012 84 10000 0.51 0 22:18 06.08.2022
101 Clouds 25 1011 83 10000 3.6 120 19:48 06.08.2022
102 Clouds 25 1011 83 10000 2.57 100 18:50 06.08.2022
103 Clouds 25 1011 84 10000 3.6 120 17:52 06.08.2022
104 Clouds 26 1012 82 10000 4.12 120 16:30 06.08.2022
105 Clouds 26 1011 73 10000 4.12 180 13:52 06.08.2022
106 Clouds 27 1010 68 10000 4.12 200 12:46 06.08.2022
107 Clouds 27 1009 65 10000 4.12 180 11:21 06.08.2022
108 Clouds 29 1009 60 10000 3.09 150 09:50 06.08.2022
109 Clouds 29 1009 59 10000 2.57 130 07:36 06.08.2022
110 Clouds 25 1011 69 10000 2.57 60 02:22 06.08.2022
111 Clouds 23 1011 75 10000 2.57 80 23:27 05.08.2022
112 Clouds 23 1010 77 10000 4.12 60 21:51 05.08.2022
113 Clouds 23 1009 80 10000 5.14 80 19:29 05.08.2022
114 Clouds 23 1009 79 10000 4.63 70 18:44 05.08.2022
115 Clouds 24 1009 77 10000 4.12 60 17:26 05.08.2022
116 Clouds 24 1009 77 10000 5.14 80 16:43 05.08.2022
117 Clouds 24 1009 76 10000 5.14 60 15:21 05.08.2022
118 Clouds 24 1009 76 10000 7.2 80 13:53 05.08.2022
119 Clouds 25 1009 75 10000 6.69 70 13:22 05.08.2022
120 Clouds 25 1008 74 10000 7.2 70 12:24 05.08.2022
121 Clouds 26 1008 73 10000 5.14 60 10:35 05.08.2022
122 Clouds 27 1007 70 10000 4.63 70 07:58 05.08.2022
123 Clouds 26 1008 72 10000 4.63 60 05:32 05.08.2022
124 Clouds 23 1008 86 10000 4.63 30 00:30 05.08.2022
125 Clouds 22 1008 89 10000 6.17 30 22:26 04.08.2022
126 Clouds 22 1007 91 10000 6.17 20 21:26 04.08.2022
127 Rain 22 1007 91 10000 6.17 30 20:42 04.08.2022
128 Clouds 23 1007 91 10000 4.12 30 19:37 04.08.2022
129 Clouds 23 1007 91 10000 6.17 40 18:36 04.08.2022
130 Clouds 23 1008 92 10000 5.66 50 17:38 04.08.2022
131 Clouds 23 1008 94 8000 5.66 70 14:18 04.08.2022
132 Rain 23 1008 93 10000 5.66 50 12:44 04.08.2022
133 Mist 24 1008 94 4000 3.6 110 11:18 04.08.2022
134 Thunderstorm 26 1008 80 10000 3.09 90 07:53 04.08.2022
135 Clouds 25 1009 93 10000 4.12 60 05:46 04.08.2022
136 Clouds 26 1009 80 10000 2.57 60 02:29 04.08.2022
137 Thunderstorm 25 1009 83 10000 5.66 50 23:45 03.08.2022
138 Thunderstorm 25 1009 82 10000 5.66 40 22:55 03.08.2022
139 Clouds 26 1008 81 10000 8.23 40 20:50 03.08.2022
140 Thunderstorm 27 1007 79 10000 8.23 60 19:44 03.08.2022
141 Clouds 29 1007 75 10000 7.2 70 18:37 03.08.2022
142 Clouds 31 1007 71 10000 2.57 40 16:25 03.08.2022
143 Clouds 32 1006 70 10000 3.09 140 15:32 03.08.2022
144 Clouds 34 1005 62 10000 4.12 180 12:41 03.08.2022
145 Thunderstorm 35 1005 58 10000 7.2 190 08:54 03.08.2022
146 Clouds 35 1007 59 8000 5.66 170 04:51 03.08.2022
147 Clouds 35 1008 60 10000 4.63 160 03:52 03.08.2022
148 Clouds 33 1009 67 10000 2.06 190 01:45 03.08.2022
149 Clouds 30 1010 77 10000 1.54 160 23:41 02.08.2022
150 Clouds 29 1009 81 10000 2.57 180 21:59 02.08.2022
151 Clouds 29 1009 81 10000 3.09 180 21:40 02.08.2022
152 Clouds 30 1009 79 10000 3.6 190 20:20 02.08.2022
153 Clouds 31 1010 72 10000 4.12 190 16:49 02.08.2022
154 Clouds 33 1010 66 10000 5.66 190 13:40 02.08.2022
155 Clouds 36 1010 52 10000 6.69 190 10:34 02.08.2022
156 Clouds 36 1009 58 10000 6.69 190 08:29 02.08.2022
157 Clouds 37 1009 53 10000 7.2 190 07:50 02.08.2022
158 Clouds 36 1011 57 10000 7.2 180 04:56 02.08.2022
159 Clouds 33 1012 66 10000 4.63 160 02:20 02.08.2022
160 Clouds 30 1012 73 10000 3.6 180 23:25 01.08.2022
161 Clouds 29 1012 74 10000 1.54 220 21:42 01.08.2022
162 Clouds 29 1011 72 10000 2.57 130 20:19 01.08.2022
163 Rain 29 1012 73 10000 4.63 350 18:56 01.08.2022
164 Rain 31 1012 72 10000 3.6 190 16:58 01.08.2022
165 Rain 30 1012 76 10000 4.63 190 16:39 01.08.2022
166 Rain 31 1012 76 10000 4.12 200 15:45 01.08.2022
167 Clouds 31 1012 75 10000 5.66 180 14:57 01.08.2022
168 Clouds 31 1012 70 10000 5.66 180 13:32 01.08.2022
169 Clouds 33 1010 64 10000 6.69 180 11:18 01.08.2022
170 Clouds 34 1011 60 10000 8.23 180 09:34 01.08.2022
171 Clouds 35 1010 61 10000 7.72 180 08:18 01.08.2022
172 Clouds 34 1013 62 10000 6.69 180 04:43 01.08.2022
173 Clouds 33 1013 61 10000 4.63 150 02:24 01.08.2022
174 Clouds 29 1013 73 10000 0.51 120 22:54 31.07.2022
175 Clouds 29 1013 72 10000 1.54 70 22:36 31.07.2022
176 Clouds 29 1013 73 10000 3.6 330 20:46 31.07.2022
177 Clouds 28 1013 75 10000 3.09 330 18:52 31.07.2022
178 Clouds 29 1013 76 10000 1.79 257 17:34 31.07.2022
179 Clouds 30 1013 77 10000 4.63 190 15:30 31.07.2022
180 Clouds 32 1012 70 10000 6.69 170 13:21 31.07.2022
181 Clouds 33 1011 63 10000 6.69 180 11:44 31.07.2022
182 Clouds 35 1011 54 10000 7.2 190 09:18 31.07.2022
183 Clouds 35 1011 58 10000 7.2 180 06:37 31.07.2022
184 Clouds 33 1012 62 10000 6.17 170 02:56 31.07.2022
185 Clouds 29 1013 77 10000 2.06 210 23:23 30.07.2022
186 Clouds 28 1013 80 10000 2.06 270 22:19 30.07.2022
187 Clear 28 1012 79 10000 2.06 250 21:40 30.07.2022
188 Clouds 29 1013 78 10000 3.09 240 20:51 30.07.2022
189 Clear 29 1012 77 10000 2.06 230 19:57 30.07.2022
190 Clear 29 1013 76 10000 4.63 190 18:26 30.07.2022
191 Clear 30 1013 75 10000 4.12 190 16:54 30.07.2022
192 Clear 30 1013 75 10000 5.14 200 15:35 30.07.2022
193 Clear 30 1013 74 10000 6.17 190 14:32 30.07.2022
194 Clouds 30 1013 74 10000 6.69 190 12:47 30.07.2022
195 Clouds 31 1013 71 10000 6.17 180 11:55 30.07.2022
196 Clouds 32 1012 65 10000 7.72 180 10:25 30.07.2022
197 Clouds 33 1013 63 10000 7.2 180 09:45 30.07.2022
198 Clouds 34 1013 60 10000 8.23 180 07:47 30.07.2022
199 Clouds 32 1015 68 10000 6.17 180 02:34 30.07.2022
200 Clouds 32 1015 69 10000 5.66 190 01:43 30.07.2022
201 Clouds 28 1015 81 10000 2.06 260 22:25 29.07.2022
202 Clouds 28 1015 78 10000 3.09 240 20:59 29.07.2022
203 Clouds 28 1015 76 10000 4.63 210 19:48 29.07.2022
204 Clouds 28 1015 75 10000 6.69 200 17:52 29.07.2022
205 Clouds 29 1015 77 10000 7.2 200 15:21 29.07.2022
206 Clouds 29 1015 75 10000 7.72 190 12:59 29.07.2022
207 Clouds 32 1013 65 10000 7.72 190 10:35 29.07.2022
208 Clouds 33 1014 61 10000 8.75 190 08:49 29.07.2022
209 Clouds 33 1014 61 10000 9.77 180 07:40 29.07.2022
210 Clouds 30 1016 69 10000 4.63 190 01:47 29.07.2022
211 Clouds 26 1016 81 10000 2.06 300 22:41 28.07.2022
212 Clouds 26 1015 84 10000 5.14 200 20:59 28.07.2022
213 Clouds 27 1015 81 10000 4.63 190 20:30 28.07.2022
214 Clouds 27 1015 84 10000 0.89 327 19:42 28.07.2022
215 Clouds 27 1015 82 10000 4.63 180 18:48 28.07.2022
216 Clouds 27 1015 82 10000 5.66 190 17:43 28.07.2022
217 Clouds 27 1015 82 10000 6.17 220 16:42 28.07.2022
218 Rain 27 1015 85 10000 6.69 200 15:24 28.07.2022
219 Rain 29 1015 76 10000 5.66 200 12:58 28.07.2022
220 Clouds 31 1013 68 10000 8.23 190 10:36 28.07.2022
221 Clouds 33 1013 60 10000 8.23 180 06:25 28.07.2022
222 Clouds 33 1013 62 10000 7.72 180 05:27 28.07.2022
223 Clouds 29 1013 76 10000 5.66 190 00:49 28.07.2022
224 Clouds 27 1013 82 10000 6.69 200 22:40 27.07.2022
225 Clouds 27 1012 82 10000 7.2 200 21:27 27.07.2022
226 Clouds 27 1012 81 10000 6.69 200 19:41 27.07.2022
227 Clouds 28 1012 83 10000 7.72 200 17:49 27.07.2022
228 Clouds 28 1013 79 10000 7.2 190 15:52 27.07.2022
229 Clouds 28 1013 77 10000 6.69 190 14:57 27.07.2022
230 Clouds 28 1013 77 10000 7.72 190 14:34 27.07.2022
231 Clouds 29 1011 75 10000 8.23 190 12:50 27.07.2022
232 Clouds 32 1010 64 10000 8.75 200 07:54 27.07.2022
233 Clouds 33 1010 62 10000 9.26 190 06:56 27.07.2022
234 Clouds 30 1010 70 10000 7.72 190 01:59 27.07.2022
235 Clouds 27 1010 84 10000 6.69 200 22:29 26.07.2022
236 Clouds 27 1010 87 10000 6.69 190 21:21 26.07.2022
237 Clouds 27 1010 87 10000 7.2 190 20:31 26.07.2022
238 Clouds 27 1010 88 10000 7.2 200 18:44 26.07.2022
239 Clouds 27 1010 89 10000 7.2 200 17:59 26.07.2022
240 Clouds 27 1010 88 10000 8.23 190 16:32 26.07.2022
241 Clouds 27 1010 87 10000 7.72 200 15:36 26.07.2022
242 Clouds 27 1010 85 10000 6.17 190 13:46 26.07.2022
243 Rain 28 1009 85 10000 7.72 190 11:39 26.07.2022
244 Clouds 28 1010 84 10000 6.17 190 09:32 26.07.2022
245 Rain 27 1010 90 10000 7.2 210 06:26 26.07.2022
246 Rain 27 1010 91 6000 5.66 200 00:57 26.07.2022
247 Rain 26 1010 96 5000 8.23 180 23:33 25.07.2022
248 Rain 26 1009 95 5000 6.69 180 22:27 25.07.2022
249 Mist 27 1009 92 7000 6.17 180 21:43 25.07.2022
250 Mist 27 1009 91 3500 5.14 190 20:42 25.07.2022
251 Mist 27 1009 86 4500 4.12 200 19:50 25.07.2022
252 Clouds 27 1009 85 10000 5.14 200 18:23 25.07.2022
253 Clouds 27 1009 85 10000 6.17 200 17:31 25.07.2022
254 Clouds 28 1009 83 10000 5.66 190 15:30 25.07.2022
255 Clouds 29 1009 79 10000 6.17 190 12:29 25.07.2022
256 Clouds 30 1008 73 10000 8.75 190 10:38 25.07.2022
257 Clouds 33 1009 59 10000 8.75 190 06:51 25.07.2022
258 Clouds 28 1009 70 10000 5.14 200 23:56 24.07.2022
259 Clouds 27 1009 72 10000 6.69 200 23:19 24.07.2022
260 Clouds 27 1008 75 10000 7.72 200 22:41 24.07.2022
261 Clouds 26 1008 75 10000 6.69 200 21:30 24.07.2022
262 Clouds 27 1008 73 10000 7.2 200 20:56 24.07.2022
263 Clouds 27 1008 73 10000 7.72 200 20:29 24.07.2022
264 Clouds 27 1007 71 10000 7.2 210 18:59 24.07.2022
265 Clouds 28 1007 70 10000 8.23 200 16:53 24.07.2022
266 Clear 28 1007 69 10000 7.2 200 15:53 24.07.2022
267 Clouds 28 1008 69 10000 7.2 210 14:40 24.07.2022
268 Clouds 28 1007 70 10000 9.77 200 13:25 24.07.2022
269 Clouds 29 1007 68 10000 8.23 200 12:19 24.07.2022
270 Clouds 29 1006 65 10000 8.75 180 11:28 24.07.2022
271 Clouds 32 1006 59 10000 9.77 190 09:33 24.07.2022
272 Clouds 32 1006 60 10000 8.75 180 07:53 24.07.2022
273 Clouds 32 1006 57 10000 9.26 180 06:54 24.07.2022
274 Clouds 30 1007 66 10000 5.66 180 02:41 24.07.2022
275 Clouds 26 1005 80 10000 3.09 260 22:37 23.07.2022
276 Clouds 26 1004 79 10000 4.63 190 20:47 23.07.2022
277 Clouds 27 1004 78 10000 5.14 190 18:55 23.07.2022
278 Clouds 27 1004 77 10000 6.17 190 17:58 23.07.2022
279 Clouds 27 1004 75 10000 5.14 190 17:24 23.07.2022
280 Clouds 28 1004 73 10000 5.14 170 16:21 23.07.2022
281 Clouds 28 1004 72 10000 4.12 180 15:21 23.07.2022
282 Clouds 28 1004 72 10000 4.63 190 14:50 23.07.2022
283 Clear 29 1003 69 10000 5.66 190 13:58 23.07.2022
284 Clouds 30 1001 61 10000 6.69 190 11:48 23.07.2022
285 Clouds 31 1001 54 10000 7.72 190 10:36 23.07.2022
286 Clouds 32 1001 55 10000 8.23 200 09:34 23.07.2022
287 Clouds 34 1000 55 10000 8.75 190 06:46 23.07.2022
288 Clouds 32 1000 64 10000 4.12 150 03:37 23.07.2022
289 Clouds 28 999 78 10000 3.09 290 00:34 23.07.2022
290 Clear 26 998 81 10000 4.63 210 21:33 22.07.2022
291 Clear 27 997 77 10000 6.69 210 20:31 22.07.2022
292 Clouds 27 997 77 10000 0.45 65 18:42 22.07.2022
293 Clear 27 997 76 10000 6.69 190 17:40 22.07.2022
294 Clouds 28 997 78 10000 7.2 190 15:48 22.07.2022
295 Clouds 29 997 74 10000 8.75 180 12:47 22.07.2022
296 Clouds 32 996 63 10000 4.63 170 10:22 22.07.2022
297 Clouds 32 996 68 10000 10.29 180 09:21 22.07.2022
298 Clouds 32 997 67 10000 8.75 190 07:58 22.07.2022
299 Clouds 29 999 86 8000 9.77 190 04:23 22.07.2022
300 Clouds 27 1000 81 10000 8.23 180 23:43 21.07.2022
301 Clouds 26 1000 87 10000 7.72 180 21:55 21.07.2022
302 Clouds 26 1001 88 10000 7.2 190 20:28 21.07.2022
303 Clouds 27 1001 85 10000 7.2 180 18:43 21.07.2022
304 Clouds 27 1002 84 10000 6.17 190 17:22 21.07.2022
305 Rain 27 1002 84 10000 6.17 180 16:43 21.07.2022
306 Rain 27 1003 83 10000 7.2 180 14:49 21.07.2022
307 Clouds 28 1003 82 10000 6.69 180 13:58 21.07.2022
308 Clouds 28 1003 82 10000 6.69 180 13:58 21.07.2022
309 Rain 28 1003 81 10000 6.17 180 12:27 21.07.2022
310 Rain 29 1003 70 10000 6.69 200 10:37 21.07.2022
311 Clouds 30 1004 65 10000 7.2 200 08:53 21.07.2022
312 Clouds 31 1004 63 10000 7.72 190 08:35 21.07.2022
313 Clouds 32 1004 56 10000 5.66 200 07:22 21.07.2022
314 Clouds 31 1006 61 10000 3.09 140 03:48 21.07.2022
315 Clouds 27 1005 77 10000 3.6 80 23:22 20.07.2022
316 Clouds 26 1005 78 10000 3.6 90 22:20 20.07.2022
317 Clouds 27 1005 73 10000 3.6 80 20:49 20.07.2022
318 Clouds 27 1005 72 10000 2.06 70 19:47 20.07.2022
319 Clouds 27 1005 70 10000 2.06 70 19:19 20.07.2022
320 Clouds 28 1004 65 10000 3.09 160 18:33 20.07.2022
321 Clear 28 1005 66 10000 4.63 140 17:42 20.07.2022
322 Clouds 29 1004 66 10000 4.12 140 15:43 20.07.2022
323 Clouds 29 1004 67 10000 3.6 140 14:54 20.07.2022
324 Clear 29 1004 62 10000 4.63 140 13:44 20.07.2022
325 Rain 32 1002 44 10000 4.63 350 11:32 20.07.2022
326 Clouds 34 1001 40 10000 6.17 350 07:39 20.07.2022
327 Clouds 32 1001 52 10000 5.14 190 02:44 20.07.2022
328 Clouds 29 1001 72 7000 3.6 260 00:44 20.07.2022
329 Rain 26 1000 87 7000 1.34 274 22:41 19.07.2022
330 Clouds 26 1000 87 7000 1.03 280 22:21 19.07.2022
331 Clouds 26 999 88 10000 2.06 330 20:54 19.07.2022
332 Clouds 26 999 87 10000 1.54 310 20:18 19.07.2022
333 Clouds 26 999 87 10000 2.06 290 18:43 19.07.2022
334 Clouds 27 999 85 10000 2.57 300 17:56 19.07.2022
335 Clouds 27 999 83 10000 5.14 230 16:25 19.07.2022
336 Clouds 27 1000 81 10000 6.17 230 14:20 19.07.2022
337 Clouds 27 999 86 10000 6.69 200 11:35 19.07.2022
338 Rain 27 999 87 10000 6.69 200 10:31 19.07.2022
339 Rain 28 1000 85 10000 7.2 210 08:48 19.07.2022
340 Rain 28 1000 83 10000 7.2 200 08:22 19.07.2022
341 Rain 29 1000 78 10000 8.23 210 07:18 19.07.2022
342 Rain 29 1001 76 10000 8.23 200 05:26 19.07.2022
343 Rain 29 1001 72 10000 7.72 200 04:46 19.07.2022
344 Clouds 28 1003 75 10000 8.23 220 00:34 19.07.2022
345 Clouds 27 1004 78 10000 6.69 210 23:22 18.07.2022
346 Clouds 27 1004 78 10000 6.69 200 22:58 18.07.2022
347 Clouds 27 1003 76 10000 7.2 200 21:58 18.07.2022
348 Rain 28 1003 73 10000 6.69 220 20:50 18.07.2022
349 Clear 28 1003 71 10000 9.26 230 19:25 18.07.2022
350 Clouds 28 1003 71 10000 9.77 220 17:22 18.07.2022
351 Clear 28 1004 72 10000 6.17 200 15:51 18.07.2022
352 Clear 29 1004 72 10000 6.17 200 14:30 18.07.2022
353 Clear 29 1004 66 10000 6.69 200 12:45 18.07.2022
354 Clear 31 1003 61 10000 6.17 190 11:29 18.07.2022
355 Clouds 32 1003 58 10000 7.72 180 08:54 18.07.2022
356 Clouds 32 1003 60 10000 7.2 180 07:28 18.07.2022
357 Clouds 26 1004 83 10000 1.03 50 00:42 18.07.2022
358 Clouds 25 1003 89 10000 1.54 140 22:42 17.07.2022
359 Clouds 24 1002 89 10000 1.03 0 21:57 17.07.2022
360 Clouds 24 1002 89 10000 1.54 150 21:23 17.07.2022
361 Clouds 25 1002 87 10000 1.54 150 20:44 17.07.2022
362 Clouds 25 1001 87 10000 1.03 0 19:34 17.07.2022
363 Clouds 25 1001 87 10000 0.51 290 18:54 17.07.2022
364 Clear 25 1001 83 10000 3.09 300 17:38 17.07.2022
365 Clear 25 1001 82 10000 5.14 280 16:51 17.07.2022
366 Clear 26 1001 80 10000 3.6 220 16:27 17.07.2022
367 Clouds 27 1000 81 10000 5.14 200 14:58 17.07.2022
368 Clouds 28 1000 82 10000 6.17 200 13:32 17.07.2022
369 Clouds 28 998 80 10000 7.2 200 11:50 17.07.2022
370 Clouds 30 998 74 10000 8.75 190 09:30 17.07.2022
371 Clouds 29 999 77 10000 4.63 150 06:37 17.07.2022
372 Clouds 25 1001 85 10000 6.17 190 02:33 17.07.2022
373 Rain 23 1001 92 10000 5.66 210 23:21 16.07.2022
374 Rain 23 1000 94 10000 3.6 260 21:57 16.07.2022
375 Clouds 23 1000 94 10000 3.6 200 20:25 16.07.2022
376 Clouds 23 1002 94 6000 6.17 160 18:41 16.07.2022
377 Rain 23 1001 94 10000 5.66 170 17:20 16.07.2022
378 Rain 24 1003 93 10000 5.14 190 15:23 16.07.2022
379 Rain 25 1003 91 10000 5.66 180 11:54 16.07.2022
380 Rain 25 1002 94 10000 4.12 170 09:37 16.07.2022
381 Rain 25 1002 93 10000 4.63 200 08:58 16.07.2022
382 Rain 25 1002 92 10000 5.66 200 08:33 16.07.2022
383 Clouds 24 1002 94 7000 3.09 180 05:59 16.07.2022
384 Rain 23 1003 94 7000 1.54 310 03:31 16.07.2022
385 Rain 23 1002 97 6000 1.54 350 23:51 15.07.2022
386 Rain 23 1002 95 6000 2.57 280 22:44 15.07.2022
387 Rain 23 1001 97 6000 1.03 110 21:31 15.07.2022
388 Rain 23 1001 97 6000 1.03 110 21:31 15.07.2022
389 Rain 23 1000 97 8000 1.54 170 20:32 15.07.2022
390 Rain 23 1000 97 9000 1.03 80 18:46 15.07.2022
391 Rain 24 1001 96 10000 1.54 190 17:49 15.07.2022
392 Clouds 24 1001 97 10000 3.09 180 16:23 15.07.2022
393 Clouds 24 1001 96 8000 4.12 120 13:48 15.07.2022
394 Thunderstorm 24 1001 97 3000 1.54 100 12:22 15.07.2022
395 Mist 24 1001 96 4000 4.12 150 10:51 15.07.2022
396 Rain 25 1001 92 10000 4.12 90 07:47 15.07.2022
397 Rain 24 1003 88 10000 5.14 160 02:47 15.07.2022
398 Rain 24 1003 92 10000 5.14 130 00:39 15.07.2022
399 Clouds 23 1003 94 10000 3.6 120 22:56 14.07.2022
400 Rain 23 1003 94 10000 4.12 110 21:59 14.07.2022
401 Rain 23 1002 94 10000 4.63 110 21:37 14.07.2022
402 Clouds 23 1002 94 10000 4.12 120 21:18 14.07.2022
403 Rain 23 1003 94 10000 4.12 120 20:41 14.07.2022
404 Clouds 23 1003 94 10000 3.09 110 20:18 14.07.2022
405 Rain 23 1003 95 10000 3.6 100 17:25 14.07.2022
406 Rain 23 1004 94 10000 3.6 90 16:18 14.07.2022
407 Rain 23 1005 96 10000 5.14 60 14:44 14.07.2022
408 Rain 23 1005 95 4500 5.14 60 13:51 14.07.2022
409 Rain 23 1004 95 3500 5.14 70 12:34 14.07.2022
410 Rain 23 1004 94 4000 6.17 60 11:26 14.07.2022
411 Rain 24 1004 94 8000 3.6 40 10:51 14.07.2022
412 Clouds 24 1004 93 8000 4.12 20 08:52 14.07.2022
413 Clouds 26 1005 79 10000 3.09 20 04:44 14.07.2022
414 Clouds 24 1005 89 10000 6.17 50 01:19 14.07.2022
415 Clouds 24 1005 89 10000 6.17 50 00:51 14.07.2022
416 Clouds 23 1005 94 10000 5.14 50 22:31 13.07.2022
417 Clouds 23 1004 93 10000 5.14 40 21:42 13.07.2022
418 Clouds 23 1004 93 10000 5.14 40 20:38 13.07.2022
419 Clouds 23 1005 94 10000 3.6 60 18:36 13.07.2022
420 Clouds 24 1005 94 10000 3.09 60 17:31 13.07.2022
421 Clouds 24 1005 94 10000 3.09 60 17:31 13.07.2022
422 Clouds 23 1005 94 10000 3.09 60 17:31 13.07.2022
423 Clouds 24 1005 92 10000 3.6 80 16:19 13.07.2022
424 Clouds 24 1005 93 10000 6.17 80 14:47 13.07.2022
425 Clouds 24 1004 90 10000 5.14 90 11:54 13.07.2022
426 Clouds 25 1004 91 6000 6.17 80 10:45 13.07.2022
427 Mist 25 1004 92 5000 5.66 90 09:56 13.07.2022
428 Mist 25 1004 92 4000 4.63 80 09:20 13.07.2022
429 Rain 25 1005 90 10000 2.57 350 05:29 13.07.2022
430 Rain 23 1005 96 10000 3.6 120 01:22 13.07.2022
431 Rain 23 1005 95 4000 2.57 130 23:39 12.07.2022
432 Clouds 23 1004 94 8000 3.09 120 21:54 12.07.2022
433 Rain 23 1004 96 8000 3.6 120 21:18 12.07.2022
434 Rain 23 1004 96 6000 2.06 180 20:41 12.07.2022
435 Rain 23 1005 96 3500 4.63 80 19:25 12.07.2022
436 Rain 23 1005 96 2000 5.66 70 17:49 12.07.2022
437 Rain 24 1006 94 3000 6.17 120 15:43 12.07.2022
438 Rain 25 1006 91 10000 4.12 110 14:30 12.07.2022
439 Rain 26 1006 88 10000 5.14 190 12:29 12.07.2022
440 Clouds 26 1006 84 10000 4.12 140 11:22 12.07.2022
441 Clouds 27 1005 75 10000 7.2 120 09:38 12.07.2022
442 Clouds 28 1005 75 10000 3.6 150 08:19 12.07.2022
443 Clouds 28 1006 73 10000 3.6 120 06:29 12.07.2022
444 Clouds 28 1006 73 10000 3.09 120 05:39 12.07.2022
445 Clouds 28 1008 76 10000 4.12 130 02:32 12.07.2022
446 Clouds 26 1008 84 10000 2.57 170 23:28 11.07.2022
447 Rain 25 1008 84 10000 1.54 140 22:30 11.07.2022
448 Rain 25 1008 84 10000 2.57 110 20:41 11.07.2022
449 Clouds 26 1008 83 10000 1.54 130 19:44 11.07.2022
450 Clouds 26 1009 81 10000 2.06 120 18:32 11.07.2022
451 Clouds 26 1009 82 10000 2.06 90 17:49 11.07.2022
452 Clouds 26 1009 81 10000 3.09 100 16:20 11.07.2022
453 Clouds 27 1009 77 10000 4.12 110 14:41 11.07.2022
454 Clouds 29 1008 67 10000 4.63 190 11:59 11.07.2022
455 Clouds 31 1007 62 10000 5.14 200 10:37 11.07.2022
456 Clouds 32 1006 61 10000 5.66 170 09:49 11.07.2022
457 Clouds 33 1006 55 10000 4.63 190 08:34 11.07.2022
458 Clouds 34 1007 51 10000 3.6 150 06:44 11.07.2022
459 Clouds 27 1008 80 10000 2.57 90 00:24 11.07.2022
460 Clouds 26 1008 84 10000 2.06 80 23:32 10.07.2022
461 Clouds 26 1007 86 10000 2.06 160 22:21 10.07.2022
462 Clouds 26 1007 85 10000 2.57 140 20:55 10.07.2022
463 Clouds 26 1007 85 10000 3.09 180 19:55 10.07.2022
464 Clouds 26 1007 85 10000 2.57 170 19:20 10.07.2022
465 Clouds 26 1007 85 10000 2.06 150 17:50 10.07.2022
466 Clouds 26 1007 83 10000 3.09 160 16:59 10.07.2022
467 Clouds 26 1007 82 10000 2.57 180 16:20 10.07.2022
468 Clouds 27 1007 80 10000 4.63 190 14:43 10.07.2022
469 Clouds 27 1006 73 10000 7.2 200 12:42 10.07.2022
470 Clouds 28 1006 66 10000 7.2 190 11:36 10.07.2022
471 Clouds 30 1005 59 10000 7.72 190 09:30 10.07.2022
472 Clouds 31 1005 60 10000 7.72 190 08:42 10.07.2022
473 Clouds 31 1006 63 10000 8.23 190 06:32 10.07.2022
474 Clouds 26 1005 79 10000 5.66 190 23:44 09.07.2022
475 Clouds 25 1005 80 10000 4.63 200 22:26 09.07.2022
476 Rain 25 1005 79 10000 5.14 200 21:40 09.07.2022
477 Clouds 26 1003 74 10000 7.72 200 19:44 09.07.2022
478 Rain 27 1004 75 10000 7.2 200 18:26 09.07.2022
479 Clouds 27 1003 76 10000 6.69 190 17:27 09.07.2022
480 Clouds 26 1003 78 10000 6.69 200 16:25 09.07.2022
481 Rain 26 1004 79 10000 7.2 190 15:38 09.07.2022
482 Clouds 26 1004 79 10000 6.69 200 14:22 09.07.2022
483 Clouds 26 1004 79 10000 6.69 190 13:47 09.07.2022
484 Clouds 27 1002 74 10000 7.72 190 11:54 09.07.2022
485 Clouds 28 1002 66 10000 7.2 190 10:26 09.07.2022
486 Clouds 29 1002 64 10000 8.75 190 09:56 09.07.2022
487 Clouds 31 1002 55 10000 8.23 200 07:44 09.07.2022
488 Clouds 30 1002 53 10000 5.14 150 04:45 09.07.2022
489 Clouds 25 1004 67 10000 1.54 20 23:43 08.07.2022
490 Clouds 24 1004 70 10000 2.06 340 22:34 08.07.2022
491 Clouds 23 1003 70 10000 2.06 280 21:27 08.07.2022
492 Clouds 24 1003 71 10000 2.06 20 20:38 08.07.2022
493 Clouds 24 1003 70 10000 0.89 59 19:38 08.07.2022
494 Clouds 25 1004 69 10000 2.06 50 17:50 08.07.2022
495 Clouds 25 1004 69 10000 3.09 30 16:33 08.07.2022
496 Clouds 25 1005 68 10000 5.14 50 14:50 08.07.2022
497 Clouds 26 1005 64 10000 7.2 60 12:42 08.07.2022
498 Clear 28 1004 57 10000 8.75 70 10:52 08.07.2022
499 Clouds 29 1004 58 10000 9.26 80 09:58 08.07.2022
500 Clouds 31 1004 51 10000 3.09 30 07:55 08.07.2022
501 Clouds 30 1005 57 10000 5.66 70 06:23 08.07.2022
502 Clouds 27 1009 60 10000 4.63 10 00:41 08.07.2022
503 Clouds 24 1008 73 10000 6.17 350 22:57 07.07.2022
504 Clouds 24 1008 77 10000 4.12 350 21:52 07.07.2022
505 Clouds 24 1008 79 10000 6.69 30 19:35 07.07.2022
506 Clouds 24 1009 79 10000 6.69 50 17:50 07.07.2022
507 Clouds 24 1010 79 10000 4.63 40 16:32 07.07.2022
508 Clouds 25 1010 77 10000 6.17 50 14:21 07.07.2022
509 Clouds 26 1010 72 10000 6.69 60 12:45 07.07.2022
510 Clouds 26 1010 70 10000 6.69 60 12:23 07.07.2022
511 Clouds 27 1009 67 10000 6.69 60 11:34 07.07.2022
512 Clouds 28 1009 65 10000 6.17 60 10:46 07.07.2022
513 Clouds 28 1009 65 10000 6.69 60 10:27 07.07.2022
514 Clouds 29 1008 63 10000 7.72 60 09:32 07.07.2022
515 Clouds 29 1009 64 10000 4.63 50 06:31 07.07.2022
516 Clouds 25 1010 79 10000 1.34 290 00:28 07.07.2022
517 Clouds 24 1010 84 10000 6.17 30 23:36 06.07.2022
518 Clouds 24 1010 85 10000 6.17 30 23:18 06.07.2022
519 Clouds 24 1010 85 10000 6.17 30 22:52 06.07.2022
520 Clouds 24 1010 85 10000 6.69 30 22:33 06.07.2022
521 Clouds 24 1009 86 10000 5.14 20 20:23 06.07.2022
522 Clouds 24 1009 86 10000 5.66 20 19:32 06.07.2022
523 Clouds 24 1009 83 10000 7.2 30 17:21 06.07.2022
524 Clouds 24 1010 83 10000 6.17 20 15:58 06.07.2022
525 Clouds 25 1008 83 10000 8.75 50 12:57 06.07.2022
526 Clouds 26 1008 79 10000 8.23 60 12:21 06.07.2022
527 Clouds 26 1007 77 10000 9.26 60 11:44 06.07.2022
528 Clouds 29 1005 69 10000 8.23 50 09:50 06.07.2022
529 Clouds 30 1005 63 10000 9.77 30 07:44 06.07.2022
530 Rain 30 1005 63 10000 9.77 30 07:19 06.07.2022
531 Clouds 26 1005 84 10000 8.23 360 00:38 06.07.2022
532 Clouds 24 1005 91 10000 8.75 10 22:43 05.07.2022
533 Clouds 24 1005 92 10000 7.72 20 20:57 05.07.2022
534 Clouds 24 1005 92 10000 6.69 10 20:33 05.07.2022
535 Clouds 24 1005 91 10000 6.69 10 19:39 05.07.2022
536 Clouds 24 1006 95 10000 6.69 40 18:23 05.07.2022
537 Clouds 24 1006 95 7000 4.63 70 17:39 05.07.2022
538 Mist 24 1007 92 5000 4.12 100 16:36 05.07.2022
539 Clouds 25 1007 88 10000 3.09 120 14:55 05.07.2022
540 Rain 25 1007 88 10000 8.23 190 13:36 05.07.2022
541 Rain 25 1007 89 10000 8.75 180 12:41 05.07.2022
542 Rain 26 1007 83 10000 8.23 190 10:46 05.07.2022
543 Rain 26 1008 82 10000 7.2 190 09:58 05.07.2022
544 Clouds 27 1008 75 10000 8.23 190 08:23 05.07.2022
545 Rain 27 1008 75 10000 8.75 200 07:21 05.07.2022
546 Clouds 31 1009 59 10000 9.26 190 04:40 05.07.2022
547 Clouds 29 1010 63 10000 5.66 190 01:54 05.07.2022
548 Clouds 27 1010 71 10000 6.17 200 23:40 04.07.2022
549 Rain 26 1010 74 10000 5.66 200 22:58 04.07.2022
550 Rain 26 1010 74 10000 1.54 250 22:20 04.07.2022
551 Clear 26 1010 76 10000 3.09 210 20:58 04.07.2022
552 Clear 26 1009 76 10000 2.57 200 20:38 04.07.2022
553 Clear 26 1009 75 10000 2.57 200 20:18 04.07.2022
554 Clear 26 1009 75 10000 2.57 200 19:43 04.07.2022
555 Clear 26 1009 74 10000 3.09 190 19:24 04.07.2022
556 Clear 26 1009 73 10000 3.09 200 17:23 04.07.2022
557 Clear 27 1010 72 10000 5.66 210 15:41 04.07.2022
558 Clouds 27 1009 68 10000 4.12 200 14:39 04.07.2022
559 Clouds 27 1009 68 10000 5.14 200 13:20 04.07.2022
560 Rain 28 1008 69 10000 6.69 200 11:43 04.07.2022
561 Rain 29 1008 64 10000 5.66 190 10:33 04.07.2022
562 Rain 30 1008 65 10000 6.17 190 09:36 04.07.2022
563 Clouds 29 1009 70 10000 5.66 190 06:50 04.07.2022
564 Rain 27 1010 84 10000 3.6 260 03:23 04.07.2022
565 Rain 28 1009 71 10000 3.6 180 00:27 04.07.2022
566 Clouds 27 1009 71 10000 3.6 190 22:55 03.07.2022
567 Clouds 27 1009 70 10000 5.14 210 20:47 03.07.2022
568 Clouds 27 1009 70 10000 5.14 210 20:21 03.07.2022
569 Clouds 28 1009 70 10000 4.63 210 19:26 03.07.2022
570 Rain 28 1009 69 10000 6.69 230 18:32 03.07.2022
571 Clouds 28 1008 69 10000 6.17 220 17:43 03.07.2022
572 Clear 28 1009 68 10000 7.2 200 15:28 03.07.2022
573 Clear 28 1009 67 10000 6.17 200 14:58 03.07.2022
574 Clear 28 1009 66 10000 7.2 200 13:59 03.07.2022
575 Clear 29 1009 63 10000 6.69 200 13:27 03.07.2022
576 Rain 30 1010 62 10000 6.17 190 12:22 03.07.2022
577 Rain 30 1010 66 10000 2.57 210 10:55 03.07.2022
578 Rain 30 1010 65 10000 5.66 190 10:36 03.07.2022
579 Rain 31 1010 63 10000 5.66 190 08:59 03.07.2022
580 Rain 32 1009 62 10000 6.17 190 07:34 03.07.2022
581 Clouds 31 1011 65 10000 2.57 190 01:39 03.07.2022
582 Clouds 29 1012 73 10000 3.09 180 23:50 02.07.2022
583 Clear 28 1012 73 10000 1.54 180 22:32 02.07.2022
584 Clear 27 1012 78 10000 4.12 200 20:37 02.07.2022
585 Clear 27 1012 78 10000 4.12 190 19:51 02.07.2022
586 Clear 27 1011 78 10000 5.14 200 19:19 02.07.2022
587 Clear 28 1012 74 10000 5.66 200 17:41 02.07.2022
588 Clear 28 1012 71 10000 4.63 190 16:38 02.07.2022
589 Clouds 29 1013 69 10000 6.69 190 13:51 02.07.2022
590 Clouds 30 1012 67 10000 7.72 190 12:19 02.07.2022
591 Clouds 31 1012 62 10000 7.72 190 10:54 02.07.2022
592 Clouds 31 1012 62 10000 7.2 190 10:33 02.07.2022
593 Clouds 33 1012 57 10000 8.23 190 08:54 02.07.2022
594 Clouds 34 1012 56 10000 7.72 190 08:19 02.07.2022
595 Clouds 34 1013 56 10000 7.72 190 06:59 02.07.2022
596 Clouds 32 1014 64 10000 5.66 180 01:44 02.07.2022
597 Clouds 28 1015 78 10000 3.09 180 23:37 01.07.2022
598 Clouds 27 1015 81 10000 3.6 200 22:41 01.07.2022
599 Clouds 27 1014 84 10000 3.6 190 21:47 01.07.2022
600 Clouds 27 1014 82 10000 3.6 200 21:27 01.07.2022
601 Clouds 27 1014 83 10000 4.12 190 20:38 01.07.2022
602 Clouds 27 1014 81 10000 5.14 190 19:42 01.07.2022
603 Clouds 28 1015 79 10000 5.66 200 17:53 01.07.2022
604 Clear 28 1014 80 10000 6.69 190 15:54 01.07.2022
605 Clear 28 1014 76 10000 6.69 190 13:54 01.07.2022
606 Clouds 30 1014 66 10000 6.17 190 11:56 01.07.2022
607 Clouds 33 1013 56 10000 8.23 190 10:20 01.07.2022
608 Clouds 33 1013 56 10000 8.23 190 10:20 01.07.2022
609 Clouds 33 1013 53 10000 6.69 190 09:43 01.07.2022
610 Clouds 36 1014 47 10000 5.14 180 04:49 01.07.2022
611 Clear 30 1015 66 10000 1.03 0 00:26 01.07.2022
612 Clouds 28 1015 75 10000 4.12 180 22:59 30.06.2022
613 Clouds 28 1014 75 10000 3.6 190 22:41 30.06.2022
614 Clouds 27 1014 78 10000 3.09 190 22:23 30.06.2022
615 Clear 27 1014 79 10000 4.12 190 21:41 30.06.2022
616 Clear 27 1014 79 10000 4.12 200 20:30 30.06.2022
617 Clear 27 1013 78 10000 4.12 200 19:54 30.06.2022
618 Clouds 27 1013 79 10000 3.6 190 19:25 30.06.2022
619 Clear 28 1013 76 10000 4.12 200 18:42 30.06.2022
620 Clear 27 1013 78 10000 5.66 180 17:44 30.06.2022
621 Clear 28 1013 75 10000 4.63 180 16:55 30.06.2022
622 Clouds 29 1013 72 10000 5.14 180 15:42 30.06.2022
623 Clear 31 1012 61 10000 4.12 180 13:36 30.06.2022
624 Clouds 32 1012 57 10000 4.12 180 12:35 30.06.2022
625 Clouds 32 1011 61 10000 4.12 160 11:43 30.06.2022
626 Clear 35 1010 51 10000 4.63 190 09:55 30.06.2022
627 Clear 36 1010 48 10000 5.14 180 09:35 30.06.2022
628 Clouds 36 1010 46 10000 6.17 190 08:19 30.06.2022
629 Clear 37 1010 45 10000 6.17 190 07:23 30.06.2022
630 Clear 31 1012 70 10000 3.09 150 02:38 30.06.2022
631 Clear 29 1011 73 10000 2.57 190 23:35 29.06.2022
632 Clear 27 1011 78 10000 3.09 190 22:41 29.06.2022
633 Clear 27 1011 78 10000 1.54 180 21:43 29.06.2022
634 Clear 27 1010 77 10000 2.57 190 20:34 29.06.2022
635 Clear 27 1010 76 10000 4.12 190 19:55 29.06.2022
636 Clear 27 1010 78 10000 4.63 190 17:55 29.06.2022
637 Clear 28 1009 74 10000 4.63 180 16:51 29.06.2022
638 Clear 28 1009 73 10000 4.63 190 16:51 29.06.2022
639 Clear 29 1009 71 10000 5.66 190 15:33 29.06.2022
640 Clouds 30 1009 65 10000 7.2 190 13:36 29.06.2022
641 Clouds 31 1008 58 10000 7.2 190 12:24 29.06.2022
642 Clouds 33 1007 54 10000 8.75 190 09:46 29.06.2022
643 Clouds 33 1007 56 10000 8.75 190 09:22 29.06.2022
644 Clouds 34 1008 56 10000 8.75 170 06:28 29.06.2022
645 Clouds 33 1009 55 10000 6.69 190 02:59 29.06.2022
646 Clouds 30 1009 67 10000 5.14 200 00:53 29.06.2022
647 Clouds 29 1008 68 10000 6.17 200 00:33 29.06.2022
648 Clouds 27 1009 76 10000 5.14 190 22:50 28.06.2022
649 Clouds 27 1009 77 10000 5.66 200 21:58 28.06.2022
650 Clouds 27 1009 77 10000 5.66 210 21:39 28.06.2022
651 Clouds 27 1009 77 10000 5.66 210 21:19 28.06.2022
652 Clouds 27 1009 75 10000 6.69 200 19:54 28.06.2022
653 Clouds 28 1009 74 10000 6.69 200 19:28 28.06.2022
654 Clouds 28 1009 75 10000 6.17 200 18:40 28.06.2022
655 Clouds 28 1009 72 10000 6.69 200 16:58 28.06.2022
656 Clouds 28 1010 73 10000 6.69 190 15:55 28.06.2022
657 Clouds 29 1009 69 10000 7.2 180 14:50 28.06.2022
658 Clouds 29 1010 69 10000 7.2 180 14:18 28.06.2022
659 Clouds 29 1009 69 10000 7.72 190 13:45 28.06.2022
660 Clouds 30 1009 67 10000 7.72 170 12:30 28.06.2022
661 Clear 33 1008 57 10000 4.63 160 10:23 28.06.2022
662 Clouds 33 1008 58 10000 7.2 180 08:55 28.06.2022
663 Clouds 34 1008 54 10000 7.72 180 08:33 28.06.2022
664 Clouds 35 1008 52 10000 7.2 190 07:20 28.06.2022
665 Clouds 33 1011 54 10000 3.6 180 03:55 28.06.2022
666 Clouds 28 1012 74 10000 3.09 180 23:51 27.06.2022
667 Clouds 27 1012 76 10000 3.09 190 23:26 27.06.2022
668 Clouds 27 1012 77 10000 2.06 190 22:25 27.06.2022
669 Clouds 27 1012 75 10000 2.57 180 21:29 27.06.2022
670 Clouds 27 1011 77 10000 3.09 170 20:33 27.06.2022
671 Clear 27 1012 77 10000 1.54 330 18:51 27.06.2022
672 Clear 27 1012 75 10000 1.34 286 17:38 27.06.2022
673 Rain 28 1012 71 10000 3.6 110 15:50 27.06.2022
674 Rain 28 1013 67 10000 1.54 0 14:25 27.06.2022
675 Clouds 30 1011 65 10000 6.69 190 12:58 27.06.2022
676 Clouds 32 1010 59 10000 7.2 190 11:40 27.06.2022
677 Clouds 33 1010 56 10000 6.17 180 09:49 27.06.2022
678 Clouds 34 1010 48 10000 7.2 190 08:43 27.06.2022
679 Clouds 35 1010 43 10000 7.72 190 07:52 27.06.2022
680 Clouds 35 1011 45 10000 7.2 190 06:28 27.06.2022
681 Clouds 31 1012 60 10000 5.14 180 01:25 27.06.2022
682 Clouds 27 1013 71 10000 2.57 180 23:27 26.06.2022
683 Clouds 26 1013 76 10000 3.6 200 21:40 26.06.2022
684 Clouds 26 1012 74 10000 5.14 210 20:34 26.06.2022
685 Clouds 26 1012 71 10000 6.17 200 19:19 26.06.2022
686 Clouds 27 1012 70 10000 6.17 210 18:23 26.06.2022
687 Clouds 27 1012 69 10000 7.2 200 15:38 26.06.2022
688 Clouds 28 1012 69 10000 9.26 180 14:33 26.06.2022
689 Clouds 30 1012 60 10000 1.34 161 13:27 26.06.2022
690 Clouds 31 1011 56 10000 6.17 180 12:37 26.06.2022
691 Clear 32 1011 53 10000 7.2 200 10:53 26.06.2022
692 Clear 32 1011 55 10000 7.72 190 10:22 26.06.2022
693 Clouds 30 1011 59 10000 10.29 180 08:45 26.06.2022
694 Clouds 35 1009 42 10000 8.75 200 07:18 26.06.2022
695 Clouds 30 1012 53 10000 7.72 200 00:45 26.06.2022
696 Clouds 30 1012 54 10000 6.69 210 00:20 26.06.2022
697 Clouds 28 1012 62 10000 7.2 200 23:33 25.06.2022
698 Clear 27 1012 63 10000 7.72 200 22:51 25.06.2022
699 Clear 27 1012 62 10000 5.14 190 22:25 25.06.2022
700 Clear 27 1011 63 10000 6.17 200 21:22 25.06.2022
701 Clear 27 1011 64 10000 7.72 200 20:54 25.06.2022
702 Clear 27 1010 65 10000 7.72 200 20:25 25.06.2022
703 Clear 27 1010 74 10000 6.69 200 18:42 25.06.2022
704 Clear 27 1010 77 10000 6.69 190 17:28 25.06.2022
705 Clear 27 1010 76 10000 9.26 170 16:31 25.06.2022
706 Clear 30 1009 68 10000 8.23 200 14:47 25.06.2022
707 Clouds 30 1007 65 10000 9.77 190 12:56 25.06.2022
708 Clouds 31 1007 64 10000 8.23 200 12:37 25.06.2022
709 Clouds 33 1005 56 10000 9.26 190 10:30 25.06.2022
710 Clouds 34 1005 52 10000 9.26 180 08:56 25.06.2022
711 Clouds 34 1005 52 10000 9.26 180 08:28 25.06.2022
712 Clouds 35 1005 48 10000 10.8 200 06:53 25.06.2022
713 Clouds 34 1006 52 10000 8.23 230 03:26 25.06.2022
714 Clouds 29 1005 67 10000 8.23 210 00:21 25.06.2022
715 Clouds 27 1004 78 10000 8.23 220 22:31 24.06.2022
716 Clouds 26 1003 80 10000 13.89 200 21:31 24.06.2022
717 Clouds 27 1002 77 10000 10.8 210 20:25 24.06.2022
718 Clouds 27 1003 77 10000 7.72 190 19:52 24.06.2022
719 Clouds 27 1002 77 10000 11.32 220 19:19 24.06.2022
720 Clouds 27 1003 76 10000 11.83 220 18:47 24.06.2022
721 Clouds 27 1003 75 10000 12.35 220 18:29 24.06.2022
722 Clouds 27 1003 74 10000 9.26 220 16:52 24.06.2022
723 Clouds 27 1003 72 10000 10.29 210 15:28 24.06.2022
724 Clouds 28 1003 72 10000 9.26 200 14:25 24.06.2022
725 Clouds 28 1003 70 10000 10.8 210 13:53 24.06.2022
726 Clouds 29 1002 65 10000 12.35 210 11:42 24.06.2022
727 Clouds 30 1002 62 10000 11.32 200 10:43 24.06.2022
728 Clouds 31 1002 58 10000 12.35 210 09:42 24.06.2022
729 Clouds 32 1002 56 10000 10.8 210 08:58 24.06.2022
730 Clouds 32 1002 56 10000 13.38 200 08:40 24.06.2022
731 Clouds 32 1003 57 10000 11.83 200 06:47 24.06.2022
732 Clouds 32 1003 57 10000 11.83 200 06:27 24.06.2022
733 Clouds 31 1004 61 10000 10.8 200 05:51 24.06.2022
734 Clouds 27 1007 81 8000 8.75 200 00:57 24.06.2022
735 Clouds 23 1008 92 10000 5.66 190 22:44 23.06.2022
736 Clouds 23 1008 90 10000 5.14 190 21:43 23.06.2022
737 Clouds 23 1008 89 10000 6.17 180 20:53 23.06.2022
738 Clouds 23 1008 90 10000 6.69 190 20:31 23.06.2022
739 Clouds 23 1009 86 10000 3.09 190 18:43 23.06.2022
740 Clouds 23 1010 85 10000 2.57 150 17:44 23.06.2022
741 Clouds 24 1010 84 10000 3.6 190 16:34 23.06.2022
742 Clouds 24 1011 85 10000 4.12 180 15:27 23.06.2022
743 Clouds 24 1011 84 10000 3.6 170 14:51 23.06.2022
744 Clouds 24 1011 83 10000 2.06 140 11:54 23.06.2022
745 Clouds 24 1011 82 10000 3.6 140 11:19 23.06.2022
746 Clouds 25 1011 78 10000 5.14 130 09:20 23.06.2022
747 Clouds 26 1011 74 10000 2.06 80 05:51 23.06.2022
748 Clouds 23 1012 85 10000 2.57 30 01:29 23.06.2022
749 Clouds 22 1012 90 10000 2.57 40 00:25 23.06.2022
750 Clouds 22 1011 91 10000 4.12 40 23:23 22.06.2022
751 Clouds 22 1011 91 10000 4.63 40 21:45 22.06.2022
752 Clouds 22 1011 91 10000 4.63 40 21:45 22.06.2022
753 Clouds 22 1011 91 9000 4.12 40 20:57 22.06.2022
754 Clouds 22 1011 91 9000 4.12 30 20:20 22.06.2022
755 Clouds 22 1011 91 10000 5.14 50 19:44 22.06.2022
756 Clouds 22 1011 90 10000 4.12 60 17:50 22.06.2022
757 Clouds 22 1011 89 10000 4.12 70 17:20 22.06.2022
758 Clouds 23 1011 90 7000 4.63 80 15:46 22.06.2022
759 Clouds 23 1011 90 8000 3.6 100 15:22 22.06.2022
760 Clouds 23 1011 89 7000 3.09 140 13:50 22.06.2022
761 Clouds 24 1011 87 7000 3.09 130 13:25 22.06.2022
762 Clouds 24 1010 85 10000 3.09 100 12:44 22.06.2022
763 Clouds 24 1010 83 10000 3.6 100 11:47 22.06.2022
764 Mist 24 1010 84 3500 2.57 100 10:53 22.06.2022
765 Mist 25 1009 80 10000 4.12 100 09:44 22.06.2022
766 Clouds 27 1009 73 10000 4.63 120 07:56 22.06.2022
767 Clouds 25 1009 79 10000 2.57 50 03:25 22.06.2022
768 Clouds 23 1009 91 10000 5.14 20 01:21 22.06.2022
769 Clouds 22 1009 94 10000 5.66 30 23:39 21.06.2022
770 Clouds 22 1008 95 9000 3.09 20 21:31 21.06.2022
771 Rain 22 1008 94 7000 2.57 140 19:47 21.06.2022
772 Rain 22 1008 94 10000 3.09 180 18:30 21.06.2022
773 Clouds 23 1009 92 10000 4.12 190 16:52 21.06.2022
774 Rain 25 1008 82 9000 4.12 160 12:40 21.06.2022
775 Clouds 25 1008 81 7000 5.66 210 11:30 21.06.2022
776 Clouds 26 1007 76 7000 6.17 200 09:48 21.06.2022
777 Rain 29 1007 61 10000 4.12 150 08:22 21.06.2022
778 Rain 29 1007 60 10000 4.12 150 08:22 21.06.2022
779 Clouds 30 1007 56 10000 2.57 70 05:41 21.06.2022
780 Clouds 25 1008 78 8000 1.03 0 00:43 21.06.2022
781 Clouds 23 1007 89 8000 3.6 60 22:25 20.06.2022
782 Clouds 23 1006 88 10000 3.6 20 21:50 20.06.2022
783 Clouds 23 1006 87 10000 1.54 350 20:32 20.06.2022
784 Clear 24 1005 86 10000 2.57 200 19:38 20.06.2022
785 Clear 24 1005 85 10000 2.57 190 18:44 20.06.2022
786 Clear 24 1005 85 10000 2.06 170 17:52 20.06.2022
787 Clear 24 1005 85 10000 1.54 190 17:29 20.06.2022
788 Clear 24 1005 83 10000 3.09 150 15:55 20.06.2022
789 Clear 25 1004 79 10000 5.66 180 12:44 20.06.2022
790 Clear 27 1003 72 10000 6.17 180 10:58 20.06.2022
791 Rain 27 1003 73 10000 7.72 190 09:41 20.06.2022
792 Rain 27 1003 73 10000 7.72 190 09:41 20.06.2022
793 Clouds 28 1003 68 10000 7.72 190 08:44 20.06.2022
794 Clouds 30 1004 64 10000 8.23 180 06:19 20.06.2022
795 Clear 27 1005 71 10000 4.63 180 02:29 20.06.2022
796 Clear 25 1006 77 10000 3.6 200 00:26 20.06.2022
797 Clouds 23 1005 84 10000 3.09 190 22:59 19.06.2022
798 Clear 23 1005 83 10000 3.09 200 21:58 19.06.2022
799 Clear 23 1005 83 10000 4.63 200 21:40 19.06.2022
800 Clear 23 1005 82 10000 4.63 200 20:39 19.06.2022
801 Clear 23 1005 83 10000 4.63 200 19:48 19.06.2022
802 Clear 24 1005 83 10000 4.63 200 19:19 19.06.2022
803 Rain 24 1005 81 10000 4.63 240 18:30 19.06.2022
804 Clear 24 1006 80 10000 6.17 220 17:22 19.06.2022
805 Clear 24 1006 79 10000 6.69 200 16:36 19.06.2022
806 Clear 24 1006 78 10000 6.69 200 15:43 19.06.2022
807 Clear 24 1006 78 10000 6.69 200 15:24 19.06.2022
808 Clouds 24 1006 81 10000 7.2 190 14:20 19.06.2022
809 Clear 24 1006 81 10000 6.69 180 13:43 19.06.2022
810 Clouds 25 1005 74 10000 7.2 180 11:52 19.06.2022
811 Clouds 27 1005 69 10000 7.2 190 10:49 19.06.2022
812 Clouds 28 1006 64 10000 7.72 180 08:55 19.06.2022
813 Clouds 28 1006 64 10000 8.23 190 08:30 19.06.2022
814 Clouds 28 1007 64 10000 6.69 190 06:41 19.06.2022
815 Clouds 27 1009 70 10000 5.66 180 03:37 19.06.2022
816 Clouds 23 1009 84 10000 3.09 190 00:27 19.06.2022
817 Clouds 22 1009 90 10000 3.6 180 23:52 18.06.2022
818 Clouds 22 1009 92 10000 3.6 180 23:34 18.06.2022
819 Clouds 21 1009 94 10000 1.03 0 21:54 18.06.2022
820 Clouds 21 1008 94 10000 2.57 260 20:50 18.06.2022
821 Clouds 21 1008 94 10000 2.06 260 20:18 18.06.2022
822 Clouds 21 1008 95 10000 2.06 240 18:55 18.06.2022
823 Clouds 21 1008 95 10000 1.03 250 18:30 18.06.2022
824 Clouds 21 1008 95 10000 2.06 340 17:29 18.06.2022
825 Clouds 22 1008 95 10000 2.57 60 15:46 18.06.2022
826 Rain 22 1008 94 10000 2.06 20 14:50 18.06.2022
827 Rain 22 1009 94 10000 1.03 100 13:58 18.06.2022
828 Rain 23 1009 92 10000 3.6 190 12:28 18.06.2022
829 Rain 23 1008 87 10000 7.2 180 11:20 18.06.2022
830 Rain 24 1009 83 10000 5.14 200 09:39 18.06.2022
831 Rain 25 1009 78 10000 6.17 190 08:46 18.06.2022
832 Rain 26 1009 76 10000 6.69 180 07:34 18.06.2022
833 Rain 26 1011 71 8000 5.66 190 05:20 18.06.2022
834 Mist 24 1011 79 4000 1.03 0 01:50 18.06.2022
835 Clouds 24 1011 78 6000 2.06 0 01:21 18.06.2022
836 Clouds 23 1011 83 7000 1.03 0 00:23 18.06.2022
837 Rain 23 1011 83 7000 0.51 0 00:23 18.06.2022
838 Clouds 22 1011 84 7000 0.51 0 23:37 17.06.2022
839 Clouds 21 1011 89 8000 1.54 220 22:29 17.06.2022
840 Rain 21 1011 88 10000 2.57 240 20:29 17.06.2022
841 Clouds 22 1010 87 10000 1.03 300 19:24 17.06.2022
842 Clouds 22 1010 86 10000 1.54 350 17:58 17.06.2022
843 Clouds 22 1010 85 10000 1.03 0 16:50 17.06.2022
844 Clouds 22 1010 85 10000 1.03 0 16:25 17.06.2022
845 Clouds 23 1010 83 10000 1.54 120 15:40 17.06.2022
846 Clouds 23 1010 80 10000 2.57 120 14:23 17.06.2022
847 Clouds 24 1009 78 10000 3.09 130 13:59 17.06.2022
848 Clouds 24 1009 78 10000 4.63 150 13:39 17.06.2022
849 Clouds 25 1009 70 10000 5.14 180 12:29 17.06.2022
850 Clouds 26 1009 67 10000 6.17 190 11:55 17.06.2022
851 Clouds 26 1008 65 10000 6.17 190 11:34 17.06.2022
852 Clouds 27 1008 62 10000 5.66 180 09:46 17.06.2022
853 Clouds 27 1008 66 10000 5.14 170 08:26 17.06.2022
854 Mist 26 1008 70 5000 2.57 160 06:51 17.06.2022
855 Mist 26 1008 70 5000 2.57 160 06:51 17.06.2022
856 Rain 25 1009 72 6000 1.54 120 04:49 17.06.2022
857 Mist 23 1008 79 4000 1.54 80 01:57 17.06.2022
858 Clouds 21 1009 84 10000 2.57 290 00:26 17.06.2022
859 Clouds 20 1008 88 10000 3.09 210 22:42 16.06.2022
860 Clouds 20 1008 87 10000 4.63 200 21:23 16.06.2022
861 Clouds 20 1008 87 10000 5.14 210 20:56 16.06.2022
862 Clouds 20 1008 87 10000 6.69 210 20:36 16.06.2022
863 Clouds 20 1008 87 10000 6.69 210 20:36 16.06.2022
864 Clouds 20 1008 89 10000 4.12 200 19:45 16.06.2022
865 Rain 21 1008 87 10000 3.09 190 18:26 16.06.2022
866 Rain 21 1008 87 10000 5.66 210 17:43 16.06.2022
867 Clouds 21 1009 85 10000 4.12 230 16:39 16.06.2022
868 Clouds 22 1009 84 10000 5.66 200 15:22 16.06.2022
869 Clouds 22 1009 83 10000 6.17 210 14:37 16.06.2022
870 Clouds 22 1008 80 10000 5.66 210 13:32 16.06.2022
871 Rain 23 1008 80 10000 6.69 200 12:36 16.06.2022
872 Rain 23 1008 80 10000 5.66 180 11:52 16.06.2022
873 Rain 23 1008 79 10000 5.66 180 10:56 16.06.2022
874 Rain 23 1008 79 10000 7.2 180 10:27 16.06.2022
875 Clouds 24 1008 75 10000 5.66 180 09:22 16.06.2022
876 Clouds 23 1009 73 6000 4.12 180 08:36 16.06.2022
877 Clouds 23 1009 73 4500 4.12 180 07:28 16.06.2022
878 Mist 22 1010 77 5000 3.09 140 05:29 16.06.2022
879 Clouds 20 1011 83 7000 1.54 140 02:50 16.06.2022
880 Clouds 19 1011 83 8000 1.54 150 01:51 16.06.2022
881 Clouds 19 1011 83 10000 0.51 0 01:51 16.06.2022
882 Clouds 19 1011 83 10000 0.51 0 01:21 16.06.2022
883 Clouds 19 1011 83 10000 0.51 0 01:21 16.06.2022
884 Clouds 19 1010 85 10000 1.54 50 23:47 15.06.2022
885 Clouds 19 1010 85 10000 0.51 0 22:42 15.06.2022
886 Clouds 18 1010 86 10000 1.54 60 21:23 15.06.2022
887 Clouds 18 1010 86 10000 2.06 20 20:56 15.06.2022
888 Clouds 18 1009 86 10000 2.06 20 20:35 15.06.2022
889 Clouds 18 1009 85 10000 2.57 10 19:30 15.06.2022
890 Clouds 18 1010 87 10000 3.09 10 17:58 15.06.2022
891 Clouds 18 1010 87 10000 3.09 20 17:33 15.06.2022
892 Clouds 18 1011 88 10000 2.06 10 15:46 15.06.2022
893 Clouds 18 1011 89 10000 3.09 350 14:30 15.06.2022
894 Clouds 18 1011 90 10000 3.09 350 12:57 15.06.2022
895 Clouds 18 1011 91 10000 3.6 340 12:32 15.06.2022
896 Clouds 18 1012 93 10000 3.6 350 10:53 15.06.2022
897 Clouds 18 1012 92 10000 4.12 360 10:20 15.06.2022
898 Mist 18 1012 89 4000 4.63 360 08:57 15.06.2022
899 Rain 18 1013 90 5000 3.6 340 07:21 15.06.2022
900 Mist 18 1014 92 2200 5.14 360 04:51 15.06.2022
901 Mist 18 1016 84 10000 4.63 50 02:31 15.06.2022
902 Rain 17 1017 88 10000 4.63 30 01:33 15.06.2022
903 Clouds 16 1017 95 7000 4.12 20 23:55 14.06.2022
904 Clouds 16 1017 95 6000 4.12 40 23:37 14.06.2022
905 Rain 16 1017 94 4000 4.63 10 22:33 14.06.2022
906 Rain 16 1017 91 6000 5.66 10 21:42 14.06.2022
907 Clouds 15 1017 92 10000 5.66 10 20:57 14.06.2022
908 Mist 16 1017 92 10000 6.17 10 20:36 14.06.2022
909 Rain 16 1017 92 10000 5.66 10 19:32 14.06.2022
910 Rain 16 1017 92 10000 5.66 20 18:33 14.06.2022
911 Clouds 16 1017 89 10000 5.66 20 16:50 14.06.2022
912 Rain 16 1017 89 10000 6.69 20 16:25 14.06.2022
913 Rain 16 1018 88 10000 6.69 30 15:36 14.06.2022
914 Rain 16 1018 87 10000 6.17 30 14:53 14.06.2022
915 Rain 17 1018 85 10000 5.66 20 13:57 14.06.2022
916 Rain 17 1018 84 10000 7.2 50 12:58 14.06.2022
917 Rain 17 1018 82 10000 6.17 50 11:56 14.06.2022
918 Rain 17 1017 81 8000 7.72 50 10:51 14.06.2022
919 Rain 17 1017 80 8000 6.69 50 10:28 14.06.2022
920 Rain 18 1018 78 10000 6.17 40 09:18 14.06.2022
921 Rain 18 1018 77 10000 7.2 50 08:24 14.06.2022
922 Clouds 18 1018 76 10000 5.66 40 06:20 14.06.2022
923 Rain 18 1018 77 10000 6.69 50 03:45 14.06.2022
924 Clouds 18 1018 76 10000 6.17 30 01:37 14.06.2022
925 Rain 18 1018 76 10000 6.17 30 00:21 14.06.2022
926 Clouds 17 1018 78 10000 6.69 20 22:45 13.06.2022
927 Clouds 17 1018 78 10000 6.69 20 22:22 13.06.2022
928 Clouds 17 1017 78 10000 6.17 20 21:39 13.06.2022
929 Clouds 18 1017 77 10000 5.14 40 19:59 13.06.2022
930 Clouds 19 1017 72 10000 5.66 60 18:54 13.06.2022
931 Clouds 19 1017 68 10000 6.17 60 17:56 13.06.2022
932 Clouds 19 1017 66 10000 6.69 60 17:24 13.06.2022
933 Clouds 19 1016 63 10000 6.17 60 16:30 13.06.2022
934 Rain 20 1017 59 10000 5.66 80 14:49 13.06.2022
935 Rain 20 1017 58 10000 6.69 80 14:31 13.06.2022
936 Clouds 20 1016 62 10000 8.23 90 13:33 13.06.2022
937 Clouds 20 1015 62 10000 7.2 90 12:22 13.06.2022
938 Clouds 21 1013 59 10000 8.75 100 10:56 13.06.2022
939 Clouds 22 1013 60 10000 8.23 100 10:26 13.06.2022
940 Clouds 24 1012 53 10000 10.29 110 08:52 13.06.2022
941 Clouds 26 1012 44 10000 7.2 120 06:37 13.06.2022
942 Clouds 26 1012 42 10000 7.2 130 05:35 13.06.2022
943 Clouds 23 1012 42 10000 7.2 20 01:55 13.06.2022
944 Clouds 23 1012 42 10000 6.17 10 01:34 13.06.2022
945 Clouds 20 1011 49 10000 8.75 340 23:49 12.06.2022
946 Clouds 19 1010 54 10000 2.06 270 22:44 12.06.2022
947 Clouds 18 1010 55 10000 1.54 320 21:53 12.06.2022
948 Clouds 18 1009 56 10000 0.51 0 20:53 12.06.2022
949 Clouds 18 1009 53 10000 2.06 30 20:18 12.06.2022
950 Clouds 19 1009 50 10000 3.09 320 19:30 12.06.2022
951 Clouds 20 1010 44 10000 6.17 320 17:40 12.06.2022
952 Clouds 21 1010 45 10000 9.77 330 15:54 12.06.2022
953 Clouds 21 1010 46 10000 7.2 340 14:51 12.06.2022
954 Clouds 21 1010 48 10000 4.12 350 14:20 12.06.2022
955 Clouds 22 1010 58 10000 4.12 270 13:49 12.06.2022
956 Clouds 22 1008 72 10000 1.54 170 12:32 12.06.2022
957 Clouds 23 1007 74 10000 4.12 90 11:22 12.06.2022
958 Clouds 24 1006 69 10000 4.12 70 10:21 12.06.2022
959 Clouds 24 1006 68 10000 6.17 60 08:54 12.06.2022
960 Clouds 23 1006 70 10000 6.17 40 08:35 12.06.2022
961 Clouds 22 1006 77 10000 7.72 20 07:31 12.06.2022
962 Clouds 23 1006 73 10000 5.14 350 04:35 12.06.2022
963 Clouds 22 1006 75 10000 5.66 360 02:33 12.06.2022
964 Clouds 21 1006 82 10000 6.17 360 01:36 12.06.2022
965 Clouds 21 1007 84 10000 7.2 360 00:58 12.06.2022
966 Clouds 20 1007 88 10000 6.69 350 00:20 12.06.2022
967 Clouds 19 1007 90 10000 5.66 10 23:29 11.06.2022
968 Clouds 19 1007 88 10000 6.17 20 22:38 11.06.2022
969 Clouds 19 1007 90 10000 5.66 10 21:37 11.06.2022
970 Clouds 19 1007 89 10000 4.63 10 20:34 11.06.2022
971 Rain 19 1007 87 10000 4.63 10 19:46 11.06.2022
972 Rain 20 1008 88 10000 4.63 10 19:19 11.06.2022
973 Rain 20 1008 88 10000 4.63 50 18:33 11.06.2022
974 Rain 20 1009 89 10000 3.09 90 17:50 11.06.2022
975 Rain 20 1009 89 10000 3.09 90 17:26 11.06.2022
976 Rain 20 1009 90 10000 2.57 120 16:52 11.06.2022
977 Rain 20 1010 90 10000 4.12 120 16:26 11.06.2022
978 Rain 21 1011 88 10000 4.12 120 15:28 11.06.2022
979 Rain 21 1011 83 10000 2.57 110 13:53 11.06.2022
980 Clouds 22 1012 75 10000 3.6 120 12:37 11.06.2022
981 Clouds 23 1012 68 10000 3.6 130 10:46 11.06.2022
982 Rain 23 1012 66 10000 5.14 150 09:48 11.06.2022
983 Rain 24 1012 64 10000 5.66 190 09:18 11.06.2022
984 Clouds 24 1013 66 10000 3.6 180 07:40 11.06.2022
985 Rain 25 1014 65 10000 4.63 150 06:25 11.06.2022
986 Clouds 24 1015 70 10000 3.09 180 04:23 11.06.2022
987 Clouds 22 1016 77 10000 3.09 110 01:52 11.06.2022
988 Rain 22 1017 76 10000 1.54 100 01:27 11.06.2022
989 Clouds 21 1017 83 10000 2.57 140 23:34 10.06.2022
990 Clouds 21 1016 85 10000 2.06 130 22:31 10.06.2022
991 Clouds 21 1016 86 10000 2.06 140 21:50 10.06.2022
992 Clouds 21 1016 85 10000 3.09 140 20:40 10.06.2022
993 Rain 21 1016 84 10000 2.57 140 20:21 10.06.2022
994 Clouds 21 1016 85 10000 3.09 140 20:21 10.06.2022
995 Clouds 21 1016 83 10000 2.57 130 19:20 10.06.2022
996 Clouds 21 1016 83 10000 2.57 130 18:55 10.06.2022
997 Rain 21 1017 83 10000 2.57 140 17:58 10.06.2022
998 Clouds 21 1017 82 10000 3.09 140 17:35 10.06.2022
999 Clouds 21 1017 80 10000 3.6 150 16:50 10.06.2022
1000 Clouds 21 1017 79 10000 3.6 160 15:44 10.06.2022
1001 Clouds 22 1017 76 10000 3.6 180 14:51 10.06.2022
1002 Clouds 22 1016 76 10000 3.6 120 13:26 10.06.2022
1003 Rain 23 1016 69 10000 5.66 190 12:21 10.06.2022
1004 Clouds 23 1016 65 10000 5.66 200 11:30 10.06.2022
1005 Clouds 24 1016 63 10000 5.66 190 10:36 10.06.2022
1006 Clouds 25 1015 62 10000 6.69 190 09:26 10.06.2022
1007 Clouds 25 1015 62 10000 6.17 180 07:58 10.06.2022
1008 Clouds 25 1015 61 10000 4.63 180 06:50 10.06.2022
1009 Clouds 25 1016 61 10000 4.12 180 06:31 10.06.2022
1010 Clouds 24 1016 63 10000 3.09 140 05:34 10.06.2022
1011 Clouds 22 1017 72 10000 2.57 50 02:50 10.06.2022
1012 Clouds 20 1018 80 10000 2.06 30 01:37 10.06.2022
1013 Clouds 18 1017 88 10000 2.57 80 23:58 09.06.2022
1014 Clouds 18 1017 89 8000 3.09 90 22:47 09.06.2022
1015 Clouds 18 1017 89 6000 4.12 70 21:46 09.06.2022
1016 Mist 18 1017 89 7000 4.12 80 21:28 09.06.2022
1017 Clouds 18 1016 89 10000 4.63 70 20:40 09.06.2022
1018 Clouds 19 1016 87 10000 4.12 70 19:51 09.06.2022
1019 Clouds 19 1016 88 10000 4.63 80 18:41 09.06.2022
1020 Clouds 19 1016 88 10000 4.63 70 17:56 09.06.2022
1021 Clouds 19 1017 85 10000 4.63 100 16:38 09.06.2022
1022 Clouds 19 1017 84 10000 4.12 100 15:42 09.06.2022
1023 Clouds 20 1017 80 10000 4.63 120 14:34 09.06.2022
1024 Clouds 20 1017 79 10000 5.14 130 13:46 09.06.2022
1025 Clouds 20 1016 79 10000 5.14 120 13:25 09.06.2022
1026 Clouds 21 1015 74 10000 5.66 110 11:53 09.06.2022
1027 Clouds 22 1014 67 10000 4.63 90 10:36 09.06.2022
1028 Clouds 23 1014 64 10000 5.66 120 09:41 09.06.2022
1029 Clouds 23 1014 64 10000 5.66 120 09:22 09.06.2022
1030 Clouds 23 1015 67 10000 3.09 140 07:29 09.06.2022
1031 Clouds 20 1016 79 10000 3.09 30 04:47 09.06.2022
1032 Clouds 18 1016 88 10000 4.12 20 01:44 09.06.2022
1033 Clouds 16 1016 90 10000 4.63 20 23:24 08.06.2022
1034 Clouds 16 1015 90 10000 5.14 30 22:50 08.06.2022
1035 Clouds 16 1015 90 10000 4.12 20 22:25 08.06.2022
1036 Clouds 16 1015 90 10000 3.09 20 21:48 08.06.2022
1037 Clouds 16 1014 90 10000 3.09 20 20:33 08.06.2022
1038 Clouds 17 1014 89 10000 4.12 20 19:49 08.06.2022
1039 Clouds 17 1014 87 10000 4.12 40 18:58 08.06.2022
1040 Clouds 17 1014 86 10000 4.12 30 18:40 08.06.2022
1041 Clouds 17 1014 84 10000 3.09 20 16:34 08.06.2022
1042 Clouds 18 1014 83 10000 5.14 50 14:54 08.06.2022
1043 Clouds 18 1013 81 10000 6.17 50 13:36 08.06.2022
1044 Clouds 18 1012 78 10000 6.69 60 11:50 08.06.2022
1045 Clouds 19 1012 76 10000 7.2 70 11:24 08.06.2022
1046 Clouds 20 1011 74 10000 5.66 70 09:47 08.06.2022
1047 Clouds 20 1010 73 10000 6.69 70 09:20 08.06.2022
1048 Clouds 20 1010 74 10000 6.69 70 08:18 08.06.2022
1049 Clouds 19 1011 74 8000 4.63 70 05:22 08.06.2022
1050 Clouds 17 1011 79 8000 4.12 40 02:38 08.06.2022
1051 Clouds 16 1011 84 10000 4.12 30 00:21 08.06.2022
1052 Clouds 15 1011 85 10000 5.14 30 23:25 07.06.2022
1053 Clouds 15 1010 86 10000 4.63 30 22:42 07.06.2022
1054 Clouds 15 1010 85 10000 5.14 30 21:59 07.06.2022
1055 Clouds 15 1010 86 10000 5.66 20 21:27 07.06.2022
1056 Clouds 15 1009 87 10000 5.14 20 20:46 07.06.2022
1057 Clouds 15 1009 86 10000 5.14 20 20:24 07.06.2022
1058 Clouds 15 1009 86 8000 5.14 30 19:19 07.06.2022
1059 Clouds 16 1008 86 10000 5.14 30 17:57 07.06.2022
1060 Clouds 16 1008 86 10000 4.63 30 17:19 07.06.2022
1061 Clouds 16 1008 86 10000 5.14 40 16:39 07.06.2022
1062 Clouds 16 1008 86 10000 6.17 40 15:42 07.06.2022
1063 Clouds 16 1008 86 10000 6.17 40 15:23 07.06.2022
1064 Clouds 16 1007 86 10000 7.2 60 14:46 07.06.2022
1065 Clouds 16 1007 86 10000 8.23 60 13:58 07.06.2022
1066 Clouds 16 1007 85 10000 8.75 60 13:29 07.06.2022
1067 Rain 17 1006 83 10000 7.72 60 12:44 07.06.2022
1068 Rain 17 1005 82 10000 8.23 60 11:22 07.06.2022
1069 Rain 18 1004 82 10000 6.69 60 10:19 07.06.2022
1070 Clouds 18 1002 84 10000 6.69 50 08:49 07.06.2022
1071 Clouds 18 1002 84 10000 2.06 50 07:23 07.06.2022
1072 Clouds 19 1000 75 10000 4.12 360 05:56 07.06.2022
1073 Clouds 19 998 71 10000 5.66 20 03:18 07.06.2022
1074 Clouds 18 996 83 10000 5.66 350 00:42 07.06.2022
1075 Clouds 17 996 91 10000 7.2 350 23:35 06.06.2022
1076 Clouds 16 995 93 10000 5.66 340 22:47 06.06.2022
1077 Clouds 16 994 93 10000 5.14 320 21:49 06.06.2022
1078 Clouds 16 994 96 10000 6.17 320 20:21 06.06.2022
1079 Clouds 16 993 96 8000 6.17 330 19:23 06.06.2022
1080 Clouds 16 993 96 8000 6.17 330 18:46 06.06.2022
1081 Mist 16 993 96 4000 7.2 340 17:52 06.06.2022
1082 Rain 16 993 94 3500 7.72 350 16:48 06.06.2022
1083 Rain 16 994 94 10000 7.72 10 15:40 06.06.2022
1084 Clouds 16 994 94 6000 7.72 30 14:57 06.06.2022
1085 Rain 16 995 96 7000 8.23 60 13:40 06.06.2022
1086 Rain 16 995 94 5000 9.77 60 12:59 06.06.2022
1087 Rain 17 995 94 7000 9.26 70 12:27 06.06.2022
1088 Mist 17 996 94 4000 9.77 80 11:45 06.06.2022
1089 Mist 17 997 95 3500 9.26 100 09:46 06.06.2022
1090 Rain 17 998 94 3500 12.35 110 08:36 06.06.2022
1091 Rain 17 999 94 4000 10.29 110 07:43 06.06.2022
1092 Rain 17 999 92 10000 12.86 120 06:49 06.06.2022
1093 Rain 17 1002 94 8000 8.75 80 04:36 06.06.2022
1094 Rain 16 1004 95 3500 8.23 40 01:31 06.06.2022
1095 Rain 16 1005 94 4000 7.72 30 00:55 06.06.2022
1096 Rain 16 1005 95 4000 7.72 20 00:33 06.06.2022
1097 Rain 17 1005 94 9000 6.69 60 22:58 05.06.2022
1098 Rain 17 1005 94 10000 6.69 60 22:19 05.06.2022
1099 Rain 17 1007 92 10000 6.69 60 20:23 05.06.2022
1100 Rain 18 1008 89 10000 8.23 60 18:57 05.06.2022
1101 Rain 18 1008 88 10000 6.69 70 18:18 05.06.2022
1102 Clouds 19 1008 86 10000 7.72 70 17:38 05.06.2022
1103 Rain 19 1008 86 10000 7.72 70 17:20 05.06.2022
1104 Rain 19 1009 86 10000 7.72 80 16:47 05.06.2022
1105 Rain 20 1009 83 10000 7.2 90 15:25 05.06.2022
1106 Clouds 20 1009 82 10000 6.69 90 14:18 05.06.2022
1107 Clouds 22 1008 79 10000 6.17 170 11:58 05.06.2022
1108 Rain 23 1008 74 10000 6.69 190 10:45 05.06.2022
1109 Clouds 23 1008 73 10000 7.72 190 10:24 05.06.2022
1110 Rain 24 1008 69 10000 7.72 190 09:33 05.06.2022
1111 Clouds 25 1008 65 10000 8.75 180 08:23 05.06.2022
1112 Clouds 25 1008 61 10000 6.69 180 06:23 05.06.2022
1113 Rain 26 1009 56 10000 3.6 130 05:19 05.06.2022
1114 Clouds 23 1010 63 10000 2.06 40 02:43 05.06.2022
1115 Clouds 22 1011 66 10000 2.06 350 01:23 05.06.2022
1116 Clouds 22 1011 66 10000 2.06 350 01:23 05.06.2022
1117 Clouds 20 1011 75 10000 3.09 270 22:51 04.06.2022
1118 Rain 20 1011 74 10000 5.66 210 21:30 04.06.2022
1119 Clouds 20 1010 74 10000 4.63 160 19:36 04.06.2022
1120 Clouds 20 1010 73 10000 5.14 160 17:21 04.06.2022
1121 Clouds 20 1011 70 10000 5.66 170 16:20 04.06.2022
1122 Clouds 20 1011 69 10000 5.66 180 15:45 04.06.2022
1123 Clouds 20 1011 64 10000 5.66 170 14:18 04.06.2022
1124 Clouds 22 1011 58 10000 6.69 200 11:43 04.06.2022
1125 Clouds 23 1011 58 10000 6.17 200 10:55 04.06.2022
1126 Clouds 24 1010 55 10000 8.75 130 09:59 04.06.2022
1127 Clouds 24 1010 54 10000 8.75 130 09:38 04.06.2022
1128 Clouds 25 1010 49 10000 7.2 120 08:39 04.06.2022
1129 Clouds 26 1011 45 10000 3.6 130 07:18 04.06.2022
1130 Clouds 24 1011 48 10000 5.14 140 04:29 04.06.2022
1131 Clouds 20 1012 71 10000 2.57 40 00:24 04.06.2022
1132 Clouds 19 1012 79 10000 3.09 30 23:28 03.06.2022
1133 Clouds 18 1012 84 10000 3.6 30 22:20 03.06.2022
1134 Clouds 18 1011 85 10000 3.09 20 20:42 03.06.2022
1135 Clouds 18 1011 85 10000 3.09 20 20:42 03.06.2022
1136 Clouds 18 1011 85 10000 4.12 20 19:58 03.06.2022
1137 Clouds 19 1010 84 10000 5.66 50 17:00 03.06.2022
1138 Clouds 19 1010 84 10000 5.14 40 16:34 03.06.2022
1139 Clouds 19 1010 87 10000 5.14 50 14:52 03.06.2022
1140 Rain 19 1008 87 10000 5.14 30 12:28 03.06.2022
1141 Clouds 19 1007 88 10000 7.2 30 10:36 03.06.2022
1142 Thunderstorm 23 1006 65 10000 6.17 220 09:31 03.06.2022
1143 Clouds 24 1005 64 10000 3.09 160 07:54 03.06.2022
1144 Rain 23 1006 68 10000 4.12 200 07:26 03.06.2022
1145 Thunderstorm 24 1006 68 10000 7.72 190 06:31 03.06.2022
1146 Clouds 26 1006 59 10000 4.63 200 04:40 03.06.2022
1147 Clouds 22 1008 75 10000 2.06 340 00:22 03.06.2022
1148 Clouds 20 1007 81 10000 2.57 310 22:35 02.06.2022
1149 Clear 20 1006 81 10000 2.57 270 21:34 02.06.2022
1150 Clear 20 1006 78 10000 3.09 300 20:22 02.06.2022
1151 Clear 20 1006 78 10000 4.63 250 19:42 02.06.2022
1152 Clear 20 1005 77 10000 4.63 250 19:23 02.06.2022
1153 Clear 22 1006 69 10000 6.69 200 16:47 02.06.2022
1154 Clear 22 1006 69 10000 6.69 200 16:27 02.06.2022
1155 Clouds 23 1006 71 10000 8.23 190 13:56 02.06.2022
1156 Clouds 23 1007 71 10000 8.23 190 13:29 02.06.2022
1157 Clouds 24 1006 68 10000 9.26 190 11:24 02.06.2022
1158 Clouds 25 1006 62 10000 11.32 190 10:20 02.06.2022
1159 Clouds 26 1006 58 10000 10.29 200 09:27 02.06.2022
1160 Clouds 26 1006 55 10000 9.77 200 08:26 02.06.2022
1161 Clouds 27 1006 51 10000 8.23 200 07:21 02.06.2022
1162 Clouds 26 1008 56 10000 6.69 190 04:49 02.06.2022
1163 Clouds 25 1009 62 10000 4.12 190 02:37 02.06.2022
1164 Clouds 20 1009 69 10000 1.54 280 23:47 01.06.2022
1165 Clouds 19 1009 76 10000 1.03 0 22:31 01.06.2022
1166 Clouds 19 1008 76 10000 1.54 150 21:35 01.06.2022
1167 Clouds 19 1008 77 10000 2.06 140 20:58 01.06.2022
1168 Clouds 20 1008 75 10000 2.57 180 20:37 01.06.2022
1169 Clouds 20 1007 75 10000 3.09 200 19:25 01.06.2022
1170 Clear 20 1007 72 10000 4.12 170 17:44 01.06.2022
1171 Clear 21 1008 71 10000 3.6 160 16:34 01.06.2022
1172 Clear 21 1008 66 10000 4.12 190 14:54 01.06.2022
1173 Clouds 22 1008 62 10000 5.14 190 13:53 01.06.2022
1174 Clouds 22 1008 56 10000 5.66 190 12:26 01.06.2022
1175 Clouds 22 1008 57 10000 5.66 190 12:26 01.06.2022
1176 Clouds 25 1007 36 10000 6.17 190 09:48 01.06.2022
1177 Clouds 26 1007 37 10000 3.6 150 08:53 01.06.2022
1178 Clouds 27 1007 27 10000 3.6 120 07:24 01.06.2022
1179 Clouds 27 1007 27 10000 4.63 100 05:52 01.06.2022
1180 Clouds 21 1009 49 10000 3.6 350 00:40 01.06.2022
1181 Clouds 20 1008 61 10000 2.57 350 23:30 31.05.2022
1182 Clouds 20 1008 61 10000 2.57 350 23:30 31.05.2022
1183 Clouds 19 1008 79 10000 3.6 20 22:37 31.05.2022
1184 Clouds 19 1008 84 10000 3.6 30 21:46 31.05.2022
1185 Clouds 19 1007 86 10000 4.12 20 20:45 31.05.2022
1186 Clouds 19 1007 86 10000 4.12 20 20:20 31.05.2022
1187 Clouds 19 1007 86 10000 3.6 30 18:53 31.05.2022
1188 Clouds 19 1006 86 10000 3.09 20 17:50 31.05.2022
1189 Clouds 19 1006 85 10000 2.57 40 16:57 31.05.2022
1190 Clouds 20 1006 83 10000 3.09 10 15:41 31.05.2022
1191 Clouds 20 1005 83 10000 6.17 60 14:18 31.05.2022
1192 Clouds 21 1004 77 10000 4.63 50 12:21 31.05.2022
1193 Clouds 21 1003 75 10000 3.6 10 10:55 31.05.2022
1194 Clouds 21 1003 75 10000 3.6 10 10:55 31.05.2022
1195 Clouds 21 1003 76 10000 4.63 40 09:31 31.05.2022
1196 Clouds 21 1003 75 10000 4.12 10 07:28 31.05.2022
1197 Clouds 20 1004 80 10000 2.57 350 05:23 31.05.2022
1198 Mist 17 1005 93 4000 1.54 320 01:35 31.05.2022
1199 Rain 17 1005 95 3000 2.57 20 23:27 30.05.2022
1200 Rain 17 1005 93 4000 4.12 20 22:57 30.05.2022
1201 Rain 17 1004 93 4000 5.14 50 22:21 30.05.2022
1202 Rain 17 1005 94 10000 6.17 40 21:34 30.05.2022
1203 Rain 17 1005 92 10000 7.72 50 20:20 30.05.2022
1204 Rain 19 1006 85 10000 6.17 60 18:41 30.05.2022
1205 Rain 20 1006 80 10000 7.72 70 17:41 30.05.2022
1206 Rain 20 1007 79 10000 8.75 70 16:45 30.05.2022
1207 Clouds 20 1007 77 10000 7.72 70 15:22 30.05.2022
1208 Clouds 21 1007 74 10000 7.2 90 12:37 30.05.2022
1209 Clouds 23 1006 67 10000 7.2 90 10:47 30.05.2022
1210 Clouds 24 1005 63 10000 10.8 120 09:39 30.05.2022
1211 Clouds 27 1005 58 10000 7.72 100 07:24 30.05.2022
1212 Clouds 27 1006 57 10000 6.69 80 05:50 30.05.2022
1213 Clear 26 1007 55 10000 5.14 50 02:33 30.05.2022
1214 Clouds 22 1005 65 10000 3.6 60 23:24 29.05.2022
1215 Clouds 21 1005 64 10000 0 0 22:39 29.05.2022
1216 Clouds 21 1005 68 10000 0.51 0 21:31 29.05.2022
1217 Clouds 21 1004 74 10000 1.03 0 19:48 29.05.2022
1218 Clouds 21 1004 73 10000 1.54 210 19:27 29.05.2022
1219 Clouds 22 1005 73 10000 2.06 180 17:41 29.05.2022
1220 Clouds 23 1005 68 10000 3.6 210 15:50 29.05.2022
1221 Clouds 23 1005 66 10000 4.63 200 15:32 29.05.2022
1222 Clouds 23 1005 65 10000 4.12 180 14:31 29.05.2022
1223 Clouds 26 1004 50 10000 7.2 200 11:55 29.05.2022
1224 Clear 28 1003 41 10000 6.17 200 10:45 29.05.2022
1225 Clouds 29 1004 40 10000 7.72 190 09:52 29.05.2022
1226 Clouds 31 1004 30 10000 8.23 200 07:28 29.05.2022
1227 Clear 29 1005 34 10000 6.69 180 04:50 29.05.2022
1228 Clear 29 1005 35 10000 6.17 190 04:31 29.05.2022
1229 Clear 23 1005 48 10000 2.06 0 00:48 29.05.2022
1230 Clear 21 1005 53 10000 2.57 220 23:42 28.05.2022
1231 Clear 20 1005 55 10000 3.09 190 22:56 28.05.2022
1232 Clear 19 1005 54 10000 1.03 210 21:46 28.05.2022
1233 Clouds 19 1004 50 10000 2.06 270 20:40 28.05.2022
1234 Clouds 20 1004 49 10000 2.06 260 19:19 28.05.2022
1235 Clouds 21 1005 46 10000 2.06 360 18:21 28.05.2022
1236 Clouds 22 1005 46 10000 5.66 360 17:30 28.05.2022
1237 Clouds 22 1004 42 10000 5.14 330 15:45 28.05.2022
1238 Clouds 22 1004 41 10000 4.63 330 15:19 28.05.2022
1239 Clouds 24 1003 44 10000 2.57 200 13:27 28.05.2022
1240 Clouds 25 1002 47 10000 2.57 200 12:42 28.05.2022
1241 Clouds 26 1001 43 10000 3.6 190 11:28 28.05.2022
1242 Clouds 27 1001 44 10000 3.6 190 10:34 28.05.2022
1243 Clouds 27 1001 46 10000 5.14 190 09:54 28.05.2022
1244 Clouds 27 1000 48 10000 6.69 200 08:21 28.05.2022
1245 Clouds 26 1000 50 10000 6.69 190 06:33 28.05.2022
1246 Clouds 26 1000 46 10000 4.12 130 04:43 28.05.2022
1247 Clouds 23 1000 63 10000 4.12 150 01:46 28.05.2022
1248 Clouds 20 1000 75 10000 1.54 140 23:55 27.05.2022
1249 Clouds 19 999 85 10000 0.51 0 22:38 27.05.2022
1250 Clouds 19 999 85 10000 0.51 0 22:38 27.05.2022
1251 Clouds 18 998 87 10000 3.09 30 21:22 27.05.2022
1252 Clouds 18 998 86 10000 3.6 10 20:43 27.05.2022
1253 Clouds 18 998 87 10000 3.09 360 20:18 27.05.2022
1254 Clouds 19 998 86 10000 2.06 360 19:37 27.05.2022
1255 Clouds 19 997 88 10000 2.57 350 19:19 27.05.2022
1256 Clouds 19 997 88 10000 2.57 350 19:19 27.05.2022
1257 Clouds 20 997 86 10000 6.69 20 16:53 27.05.2022
1258 Clouds 21 997 87 10000 1.34 242 15:55 27.05.2022
1259 Clouds 22 996 87 10000 2.06 170 14:53 27.05.2022
1260 Clouds 22 996 86 10000 4.63 180 13:40 27.05.2022
1261 Clouds 23 996 83 10000 5.66 180 11:55 27.05.2022
1262 Clouds 24 996 81 10000 5.66 190 11:30 27.05.2022
1263 Clouds 24 996 80 10000 6.69 180 10:38 27.05.2022
1264 Clouds 24 996 80 10000 7.72 180 09:59 27.05.2022
1265 Clouds 24 996 80 10000 7.2 170 09:29 27.05.2022
1266 Clouds 24 997 83 10000 6.69 190 07:39 27.05.2022
1267 Rain 20 999 94 4000 12.86 170 03:59 27.05.2022
1268 Rain 20 1000 93 5000 11.83 150 01:27 27.05.2022
1269 Rain 20 1002 89 10000 9.26 150 23:23 26.05.2022
1270 Rain 20 1003 82 10000 8.23 140 21:57 26.05.2022
1271 Clouds 20 1003 81 10000 7.2 150 21:27 26.05.2022
1272 Rain 20 1005 82 10000 7.2 150 19:34 26.05.2022
1273 Clouds 21 1006 83 10000 7.72 170 18:51 26.05.2022
1274 Clouds 20 1007 83 10000 7.2 170 17:36 26.05.2022
1275 Rain 21 1008 77 10000 6.69 170 16:18 26.05.2022
1276 Rain 21 1009 75 10000 5.66 170 15:28 26.05.2022
1277 Rain 22 1009 71 10000 5.14 170 14:19 26.05.2022
1278 Clouds 22 1009 68 10000 5.14 200 12:18 26.05.2022
1279 Rain 23 1009 62 10000 8.23 200 11:20 26.05.2022
1280 Rain 24 1009 57 10000 8.23 200 09:39 26.05.2022
1281 Clouds 25 1008 56 10000 8.75 200 08:48 26.05.2022
1282 Rain 26 1009 49 10000 7.2 190 06:47 26.05.2022
1283 Clouds 24 1011 60 10000 3.6 200 02:51 26.05.2022
1284 Clouds 21 1012 75 10000 1.54 110 23:58 25.05.2022
1285 Clouds 19 1012 81 10000 2.57 140 22:58 25.05.2022
1286 Clouds 19 1011 82 10000 2.57 160 21:44 25.05.2022
1287 Clouds 18 1011 83 10000 2.06 160 20:50 25.05.2022
1288 Clouds 19 1011 81 10000 3.09 160 19:56 25.05.2022
1289 Clouds 19 1011 79 10000 3.09 180 18:48 25.05.2022
1290 Clouds 19 1012 79 10000 3.6 150 17:26 25.05.2022
1291 Clouds 20 1012 77 10000 4.63 150 16:34 25.05.2022
1292 Clouds 20 1012 76 10000 5.14 170 15:49 25.05.2022
1293 Clouds 21 1013 75 10000 5.14 180 14:51 25.05.2022
1294 Clouds 21 1013 74 10000 4.63 160 14:32 25.05.2022
1295 Clouds 21 1013 71 10000 6.17 180 13:27 25.05.2022
1296 Clouds 22 1012 62 10000 1.79 107 11:51 25.05.2022
1297 Clouds 23 1011 55 10000 7.2 200 10:42 25.05.2022
1298 Clouds 24 1011 52 10000 8.23 200 09:53 25.05.2022
1299 Clouds 26 1011 44 10000 0.89 188 08:22 25.05.2022
1300 Clouds 27 1012 47 10000 1.79 124 06:45 25.05.2022
1301 Clouds 24 1014 61 10000 6.69 180 02:55 25.05.2022
1302 Clouds 21 1015 77 10000 5.14 190 23:53 24.05.2022
1303 Clouds 21 1015 78 10000 5.14 190 23:23 24.05.2022
1304 Clouds 19 1015 83 10000 5.14 190 22:19 24.05.2022
1305 Clouds 19 1014 84 10000 4.12 180 21:38 24.05.2022
1306 Clouds 19 1014 84 10000 4.63 190 21:19 24.05.2022
1307 Clouds 19 1015 84 10000 4.12 190 19:37 24.05.2022
1308 Clouds 20 1015 83 10000 5.14 180 18:49 24.05.2022
1309 Clouds 20 1015 81 10000 6.17 180 16:41 24.05.2022
1310 Clouds 20 1015 80 10000 6.17 180 16:18 24.05.2022
1311 Clouds 21 1016 78 10000 5.66 170 14:50 24.05.2022
1312 Clouds 21 1016 75 10000 6.17 190 13:48 24.05.2022
1313 Clouds 21 1015 72 10000 7.2 190 12:46 24.05.2022
1314 Clouds 23 1014 63 10000 8.23 190 10:29 24.05.2022
1315 Clouds 24 1014 61 10000 9.77 190 09:43 24.05.2022
1316 Clouds 24 1014 59 10000 9.26 190 08:49 24.05.2022
1317 Clouds 25 1015 54 10000 8.23 190 06:56 24.05.2022
1318 Clouds 24 1016 55 10000 5.66 180 03:48 24.05.2022
1319 Clouds 22 1017 61 10000 4.63 180 01:50 24.05.2022
1320 Clouds 21 1017 65 10000 3.09 160 01:19 24.05.2022
1321 Clouds 19 1017 74 10000 0.51 0 22:51 23.05.2022
1322 Clouds 18 1016 76 10000 1.54 170 21:55 23.05.2022
1323 Clouds 18 1016 76 10000 2.06 180 21:29 23.05.2022
1324 Clouds 18 1016 78 10000 2.06 150 20:29 23.05.2022
1325 Clouds 18 1016 78 10000 3.09 140 19:31 23.05.2022
1326 Clouds 18 1016 78 10000 3.09 130 18:57 23.05.2022
1327 Clouds 18 1016 77 10000 3.09 140 18:29 23.05.2022
1328 Clouds 18 1016 78 10000 3.09 140 17:20 23.05.2022
1329 Clouds 18 1016 76 10000 4.63 120 15:23 23.05.2022
1330 Clouds 19 1014 71 10000 4.12 140 13:21 23.05.2022
1331 Clouds 20 1013 66 10000 4.63 110 11:31 23.05.2022
1332 Clouds 23 1011 57 10000 7.2 80 09:51 23.05.2022
1333 Clouds 23 1011 56 10000 7.2 80 09:30 23.05.2022
1334 Clouds 25 1010 48 10000 5.14 70 08:31 23.05.2022
1335 Clouds 25 1009 51 10000 5.66 40 06:46 23.05.2022
1336 Clouds 23 1009 57 10000 4.63 10 05:31 23.05.2022
1337 Clouds 19 1009 70 10000 5.66 60 02:34 23.05.2022
1338 Clouds 19 1009 74 10000 5.66 30 01:39 23.05.2022
1339 Clouds 17 1008 79 10000 4.63 30 00:23 23.05.2022
1340 Clouds 16 1007 83 10000 8.23 70 22:40 22.05.2022
1341 Clouds 17 1007 84 10000 8.23 60 21:55 22.05.2022
1342 Clouds 17 1006 85 10000 8.23 60 21:36 22.05.2022
1343 Clouds 17 1006 84 10000 3.6 90 20:32 22.05.2022
1344 Rain 17 1006 85 10000 3.6 130 19:57 22.05.2022
1345 Rain 18 1005 84 10000 4.63 130 18:56 22.05.2022
1346 Clouds 18 1006 83 10000 6.17 120 18:28 22.05.2022
1347 Clouds 18 1005 83 10000 4.12 100 17:39 22.05.2022
1348 Clouds 18 1005 83 10000 5.14 110 16:50 22.05.2022
1349 Rain 18 1006 86 10000 6.17 130 14:55 22.05.2022
1350 Clouds 19 1006 78 10000 7.2 130 13:57 22.05.2022
1351 Clouds 20 1006 76 10000 5.14 130 12:53 22.05.2022
1352 Clouds 20 1005 73 10000 5.14 70 11:52 22.05.2022
1353 Clouds 22 1003 63 10000 2.06 130 10:29 22.05.2022
1354 Clouds 25 1003 55 10000 3.6 110 09:19 22.05.2022
1355 Clouds 25 1003 51 10000 3.6 360 07:34 22.05.2022
1356 Clouds 24 1003 51 10000 4.12 10 06:41 22.05.2022
1357 Clouds 20 1005 70 10000 5.66 10 03:25 22.05.2022
1358 Clouds 18 1006 81 10000 6.17 360 00:49 22.05.2022
1359 Clouds 16 1006 87 10000 7.72 350 23:56 21.05.2022
1360 Clouds 16 1006 89 10000 6.17 340 23:27 21.05.2022
1361 Clouds 15 1005 89 10000 5.14 360 21:59 21.05.2022
1362 Clouds 15 1005 90 10000 4.12 10 21:34 21.05.2022
1363 Clouds 15 1006 90 10000 4.63 10 20:34 21.05.2022
1364 Clouds 15 1005 91 10000 5.14 350 19:44 21.05.2022
1365 Rain 15 1006 90 10000 4.63 10 18:54 21.05.2022
1366 Rain 16 1008 91 10000 3.09 80 16:57 21.05.2022
1367 Mist 17 1008 92 10000 4.63 200 14:49 21.05.2022
1368 Rain 18 1009 88 6000 6.69 160 13:55 21.05.2022
1369 Rain 18 1008 83 10000 5.14 200 13:25 21.05.2022
1370 Clouds 19 1008 78 10000 2.06 130 12:39 21.05.2022
1371 Clouds 19 1008 75 10000 3.6 130 11:38 21.05.2022
1372 Rain 20 1008 66 10000 2.06 70 10:21 21.05.2022
1373 Rain 20 1009 74 10000 3.09 170 08:59 21.05.2022
1374 Rain 20 1009 74 10000 3.09 190 08:38 21.05.2022
1375 Rain 19 1011 89 10000 0.45 264 06:20 21.05.2022
1376 Rain 20 1013 76 10000 3.6 190 01:42 21.05.2022
1377 Clouds 20 1013 78 10000 4.12 180 23:35 20.05.2022
1378 Clouds 20 1013 78 10000 3.6 190 22:40 20.05.2022
1379 Clouds 20 1013 78 10000 5.14 200 21:58 20.05.2022
1380 Clouds 20 1013 78 10000 5.14 190 21:19 20.05.2022
1381 Rain 20 1012 81 10000 5.66 190 20:47 20.05.2022
1382 Rain 20 1013 82 10000 5.14 200 19:47 20.05.2022
1383 Clouds 20 1013 82 10000 5.14 190 18:53 20.05.2022
1384 Rain 20 1013 82 10000 5.66 200 18:23 20.05.2022
1385 Clouds 20 1013 84 10000 6.69 200 16:27 20.05.2022
1386 Clouds 20 1013 83 10000 6.17 190 15:54 20.05.2022
1387 Clouds 21 1014 83 10000 6.69 190 15:20 20.05.2022
1388 Clouds 21 1014 82 10000 6.17 190 14:27 20.05.2022
1389 Rain 21 1014 80 10000 8.23 180 12:37 20.05.2022
1390 Clouds 23 1013 67 10000 8.23 190 10:48 20.05.2022
1391 Clouds 24 1013 65 10000 8.23 190 09:31 20.05.2022
1392 Clouds 24 1013 60 10000 8.75 190 08:27 20.05.2022
1393 Rain 25 1014 53 10000 5.66 190 06:43 20.05.2022
1394 Rain 26 1014 48 10000 5.66 190 05:52 20.05.2022
1395 Clear 23 1016 59 10000 3.09 150 02:52 20.05.2022
1396 Clear 19 1016 68 10000 0.51 0 23:47 19.05.2022
1397 Clouds 18 1016 73 10000 0.51 0 22:39 19.05.2022
1398 Clouds 18 1016 75 10000 0.51 0 21:52 19.05.2022
1399 Clear 18 1016 76 10000 1.54 270 21:24 19.05.2022
1400 Clear 18 1015 75 10000 3.09 220 20:53 19.05.2022
1401 Clear 19 1016 74 10000 3.6 220 19:57 19.05.2022
1402 Clear 19 1016 73 10000 4.12 210 19:25 19.05.2022
1403 Clear 20 1016 69 10000 5.66 200 17:47 19.05.2022
1404 Clear 20 1016 69 10000 5.66 200 17:47 19.05.2022
1405 Clear 21 1016 63 10000 6.69 200 16:22 19.05.2022
1406 Clear 21 1016 59 10000 5.14 190 14:50 19.05.2022
1407 Clear 21 1016 59 10000 6.17 190 14:21 19.05.2022
1408 Clear 22 1016 42 10000 6.69 190 12:20 19.05.2022
1409 Clouds 23 1015 35 10000 6.17 200 10:35 19.05.2022
1410 Clouds 24 1016 42 10000 7.2 200 08:51 19.05.2022
1411 Clouds 25 1016 35 10000 7.72 190 07:41 19.05.2022
1412 Clouds 25 1018 43 10000 4.12 150 04:38 19.05.2022
1413 Clear 22 1020 53 10000 1.79 312 01:38 19.05.2022
1414 Clouds 17 1020 72 10000 2.57 280 23:49 18.05.2022
1415 Clouds 16 1020 76 10000 3.09 290 22:46 18.05.2022
1416 Clouds 16 1019 83 10000 2.06 270 21:47 18.05.2022
1417 Clouds 16 1019 84 10000 3.6 280 21:24 18.05.2022
1418 Clouds 17 1019 85 10000 2.06 210 20:23 18.05.2022
1419 Clouds 17 1019 84 10000 4.12 200 19:37 18.05.2022
1420 Clouds 18 1019 82 10000 3.6 190 18:21 18.05.2022
1421 Clouds 18 1019 81 10000 4.63 190 17:41 18.05.2022
1422 Clouds 18 1019 80 10000 4.63 190 17:23 18.05.2022
1423 Clouds 18 1019 75 10000 5.66 200 15:59 18.05.2022
1424 Clouds 18 1020 75 10000 5.66 200 15:59 18.05.2022
1425 Clouds 19 1019 73 10000 5.14 200 15:38 18.05.2022
1426 Clouds 19 1019 68 10000 5.66 200 14:30 18.05.2022
1427 Clouds 19 1019 68 10000 5.66 200 14:30 18.05.2022
1428 Clouds 20 1019 64 10000 4.63 200 13:20 18.05.2022
1429 Clouds 20 1018 64 10000 5.14 220 12:39 18.05.2022
1430 Clouds 22 1018 57 10000 6.69 210 11:34 18.05.2022
1431 Clouds 23 1017 51 10000 6.17 200 10:52 18.05.2022
1432 Clouds 24 1017 43 10000 4.63 120 08:29 18.05.2022
1433 Clouds 25 1018 41 10000 4.63 120 07:29 18.05.2022
1434 Clouds 23 1019 55 10000 4.63 150 05:21 18.05.2022
1435 Clouds 18 1020 78 7000 3.09 30 00:52 18.05.2022
1436 Clouds 16 1020 85 8000 1.54 350 00:20 18.05.2022
1437 Clouds 14 1018 91 10000 0.51 0 21:36 17.05.2022
1438 Clouds 14 1018 91 10000 0.51 0 21:18 17.05.2022
1439 Clouds 15 1017 90 10000 3.09 280 19:52 17.05.2022
1440 Clouds 15 1017 90 10000 2.06 260 19:27 17.05.2022
1441 Rain 15 1017 88 10000 2.06 200 17:50 17.05.2022
1442 Clouds 16 1017 88 10000 2.06 0 16:58 17.05.2022
1443 Rain 16 1017 88 10000 1.54 280 16:29 17.05.2022
1444 Rain 16 1017 88 10000 1.54 270 15:24 17.05.2022
1445 Clouds 16 1017 86 10000 2.57 210 14:30 17.05.2022
1446 Clouds 16 1017 86 10000 2.57 210 14:30 17.05.2022
1447 Clouds 16 1017 86 10000 2.57 210 14:30 17.05.2022
1448 Clouds 16 1017 83 10000 2.57 200 13:32 17.05.2022
1449 Clouds 17 1016 79 10000 2.06 150 11:37 17.05.2022
1450 Rain 17 1015 79 10000 0.89 124 09:23 17.05.2022
1451 Rain 17 1014 79 10000 1.54 170 08:23 17.05.2022
1452 Rain 17 1015 80 10000 1.54 330 06:45 17.05.2022
1453 Rain 17 1015 79 10000 1.54 10 03:20 17.05.2022
1454 Clouds 16 1013 82 10000 2.06 30 00:36 17.05.2022
1455 Rain 15 1013 87 10000 2.06 20 22:42 16.05.2022
1456 Clouds 14 1012 89 10000 1.54 310 21:37 16.05.2022
1457 Rain 14 1013 89 10000 1.03 0 20:46 16.05.2022
1458 Clouds 15 1013 89 10000 2.57 10 19:22 16.05.2022
1459 Clouds 15 1012 87 10000 3.6 350 18:20 16.05.2022
1460 Clouds 15 1013 88 10000 3.6 350 15:49 16.05.2022
1461 Rain 15 1012 90 10000 5.66 360 13:56 16.05.2022
1462 Rain 15 1012 89 10000 4.63 10 13:23 16.05.2022
1463 Clouds 15 1012 90 10000 5.66 350 11:20 16.05.2022
1464 Rain 15 1012 90 10000 7.2 350 09:30 16.05.2022
1465 Rain 15 1011 90 10000 6.69 360 06:47 16.05.2022
1466 Rain 15 1013 90 7000 6.17 20 03:58 16.05.2022
1467 Clouds 15 1012 87 10000 5.14 30 23:30 15.05.2022
1468 Rain 15 1012 87 10000 5.66 20 22:30 15.05.2022
1469 Clouds 14 1012 87 10000 6.17 20 21:46 15.05.2022
1470 Rain 15 1012 86 10000 5.14 20 20:54 15.05.2022
1471 Rain 15 1011 88 10000 6.69 360 19:33 15.05.2022
1472 Rain 16 1012 86 10000 4.12 350 17:51 15.05.2022
1473 Rain 16 1012 80 10000 2.57 350 16:29 15.05.2022
1474 Rain 18 1012 69 10000 1.54 100 13:58 15.05.2022
1475 Clouds 18 1011 64 10000 2.06 140 12:50 15.05.2022
1476 Rain 18 1011 62 10000 4.12 100 11:40 15.05.2022
1477 Clouds 19 1010 55 10000 3.6 70 10:27 15.05.2022
1478 Clouds 19 1009 51 10000 3.6 80 08:46 15.05.2022
1479 Clouds 19 1010 58 10000 4.12 90 06:58 15.05.2022
1480 Clouds 19 1010 55 10000 4.63 70 05:52 15.05.2022
1481 Clouds 17 1011 70 10000 6.17 40 00:49 15.05.2022
1482 Clouds 17 1010 68 10000 5.14 60 23:47 14.05.2022
1483 Clouds 17 1010 68 10000 5.14 60 23:29 14.05.2022
1484 Clouds 17 1008 66 10000 9.26 20 21:29 14.05.2022
1485 Clouds 18 1008 66 10000 7.72 20 20:53 14.05.2022
1486 Clouds 19 1007 64 10000 8.23 10 19:40 14.05.2022
1487 Clouds 19 1007 63 10000 8.23 10 19:20 14.05.2022
1488 Clouds 19 1007 67 10000 8.23 10 18:46 14.05.2022
1489 Clouds 20 1006 69 10000 4.12 350 16:56 14.05.2022
1490 Clouds 21 1005 59 10000 2.06 280 15:34 14.05.2022
1491 Clouds 21 1004 70 10000 2.57 190 14:34 14.05.2022
1492 Clouds 22 1003 76 10000 5.14 200 12:49 14.05.2022
1493 Rain 24 1002 74 10000 4.63 190 11:37 14.05.2022
1494 Clouds 24 1001 77 10000 5.14 190 10:22 14.05.2022
1495 Clouds 25 1001 75 10000 4.63 190 09:54 14.05.2022
1496 Clouds 26 1001 72 10000 5.66 190 08:56 14.05.2022
1497 Clouds 25 1000 75 10000 3.09 0 06:52 14.05.2022
1498 Rain 20 1000 95 7000 4.12 350 03:41 14.05.2022
1499 Rain 20 1002 95 4500 7.2 200 23:48 13.05.2022
1500 Rain 20 1002 95 6000 7.72 200 23:22 13.05.2022
1501 Rain 20 1002 93 8000 10.29 200 22:52 13.05.2022
1502 Rain 20 1002 92 6000 11.32 190 22:20 13.05.2022
1503 Rain 21 1002 92 5000 7.72 200 20:56 13.05.2022
1504 Rain 21 1002 89 10000 8.23 200 20:28 13.05.2022
1505 Rain 21 1002 92 10000 9.77 210 19:40 13.05.2022
1506 Rain 21 1002 91 10000 8.75 210 18:44 13.05.2022
1507 Rain 20 1003 94 10000 9.26 210 17:29 13.05.2022
1508 Rain 20 1004 96 8000 6.17 200 16:23 13.05.2022
1509 Rain 19 1004 96 5000 3.6 170 15:45 13.05.2022
1510 Rain 19 1005 96 4000 3.6 160 14:24 13.05.2022
1511 Mist 19 1006 94 4500 2.06 150 12:46 13.05.2022
1512 Rain 20 1007 95 8000 3.09 290 11:36 13.05.2022
1513 Rain 20 1007 94 8000 2.57 330 09:43 13.05.2022
1514 Rain 20 1007 95 7000 3.6 340 08:51 13.05.2022
1515 Mist 20 1008 96 4000 3.6 340 07:50 13.05.2022
1516 Rain 20 1008 94 4000 3.09 340 06:49 13.05.2022
1517 Rain 19 1010 93 7000 3.09 350 04:54 13.05.2022
1518 Rain 18 1012 96 10000 3.09 320 00:42 13.05.2022
1519 Rain 18 1012 96 4000 3.09 350 22:49 12.05.2022
1520 Rain 18 1012 96 3500 2.57 340 22:30 12.05.2022
1521 Rain 18 1012 95 4000 2.57 350 20:49 12.05.2022
1522 Rain 18 1013 95 7000 1.54 40 19:26 12.05.2022
1523 Rain 18 1013 95 8000 1.54 60 18:25 12.05.2022
1524 Rain 18 1014 93 10000 1.54 160 16:39 12.05.2022
1525 Rain 19 1016 91 10000 2.06 160 14:52 12.05.2022
1526 Clouds 19 1016 90 10000 3.6 160 13:48 12.05.2022
1527 Rain 20 1016 86 9000 4.12 190 11:48 12.05.2022
1528 Rain 20 1016 81 10000 4.63 200 10:32 12.05.2022
1529 Rain 21 1015 79 10000 4.63 180 08:52 12.05.2022
1530 Clouds 21 1015 78 10000 4.63 180 08:52 12.05.2022
1531 Clouds 21 1015 79 10000 4.63 180 08:52 12.05.2022
1532 Clouds 21 1015 79 10000 4.63 180 08:52 12.05.2022
1533 Clouds 21 1015 79 10000 4.63 180 08:52 12.05.2022
1534 Rain 21 1015 76 10000 5.66 190 07:59 12.05.2022
1535 Rain 22 1016 69 10000 5.66 200 07:22 12.05.2022
1536 Clouds 23 1018 67 10000 3.09 170 03:50 12.05.2022
1537 Clouds 20 1018 77 10000 1.03 60 01:29 12.05.2022
1538 Mist 18 1018 84 10000 1.03 100 22:59 11.05.2022
1539 Clouds 17 1018 85 10000 0.51 0 22:18 11.05.2022
1540 Clouds 18 1018 84 10000 0.51 0 21:25 11.05.2022
1541 Clouds 18 1018 85 10000 1.54 120 20:20 11.05.2022
1542 Clouds 18 1019 83 10000 2.06 130 17:33 11.05.2022
1543 Clouds 19 1019 80 10000 2.06 130 16:19 11.05.2022
1544 Clouds 20 1020 73 10000 3.09 200 14:48 11.05.2022
1545 Clouds 20 1020 73 10000 3.09 200 14:25 11.05.2022
1546 Clouds 21 1019 66 10000 4.63 170 12:54 11.05.2022
1547 Clouds 21 1018 59 10000 2.57 210 11:48 11.05.2022
1548 Clouds 24 1018 50 10000 3.09 200 09:29 11.05.2022
1549 Clouds 22 1019 48 10000 3.09 140 06:36 11.05.2022
1550 Clouds 19 1020 52 10000 3.09 350 02:18 11.05.2022
1551 Clear 14 1021 68 10000 4.63 10 22:58 10.05.2022
1552 Clear 14 1021 68 10000 4.63 10 22:58 10.05.2022
1553 Clear 14 1020 67 10000 4.63 20 22:30 10.05.2022
1554 Clear 14 1020 68 10000 3.6 10 21:40 10.05.2022
1555 Clear 14 1020 68 10000 3.6 10 20:47 10.05.2022
1556 Clear 15 1020 68 10000 3.6 20 18:57 10.05.2022
1557 Clear 16 1021 67 10000 3.6 10 17:38 10.05.2022
1558 Clear 16 1021 63 10000 2.06 50 16:35 10.05.2022
1559 Clear 17 1021 49 10000 4.63 110 13:37 10.05.2022
1560 Clouds 19 1019 38 10000 4.63 80 11:54 10.05.2022
1561 Clouds 19 1019 35 10000 4.12 80 11:34 10.05.2022
1562 Clouds 20 1019 33 10000 4.12 80 10:56 10.05.2022
1563 Clouds 22 1018 33 10000 5.66 80 09:52 10.05.2022
1564 Clouds 22 1018 38 10000 6.17 80 08:22 10.05.2022
1565 Clouds 22 1019 42 10000 4.12 60 06:20 10.05.2022
1566 Clear 16 1021 68 10000 6.69 340 02:23 10.05.2022
1567 Clouds 13 1021 83 10000 6.17 340 23:55 09.05.2022
1568 Clouds 12 1020 89 10000 7.2 360 22:41 09.05.2022
1569 Clouds 12 1020 87 10000 6.17 350 21:42 09.05.2022
1570 Clouds 12 1019 89 10000 6.69 350 20:22 09.05.2022
1571 Clouds 12 1019 92 10000 5.66 360 18:29 09.05.2022
1572 Rain 12 1019 91 9000 6.69 10 17:27 09.05.2022
1573 Rain 12 1019 93 10000 6.69 360 16:21 09.05.2022
1574 Rain 12 1019 92 10000 6.69 360 15:47 09.05.2022
1575 Rain 12 1020 92 10000 6.69 30 14:41 09.05.2022
1576 Rain 12 1019 90 10000 6.69 10 13:59 09.05.2022
1577 Rain 12 1019 91 10000 6.69 10 13:32 09.05.2022
1578 Rain 12 1018 90 10000 7.72 360 11:53 09.05.2022
1579 Clouds 13 1018 87 7000 7.72 360 10:50 09.05.2022
1580 Rain 13 1018 87 7000 7.72 360 10:29 09.05.2022
1581 Rain 15 1017 74 10000 7.72 20 07:57 09.05.2022
1582 Clouds 15 1018 73 10000 6.69 20 06:42 09.05.2022
1583 Clouds 15 1019 73 10000 6.17 360 02:37 09.05.2022
1584 Clouds 15 1019 73 10000 6.17 360 02:37 09.05.2022
1585 Clouds 15 1019 73 10000 6.17 360 02:37 09.05.2022
1586 Clouds 15 1019 73 10000 6.17 360 02:37 09.05.2022
1587 Clouds 15 1019 73 10000 5.66 20 23:29 08.05.2022
1588 Rain 15 1019 70 10000 5.14 20 22:47 08.05.2022
1589 Clouds 15 1018 66 10000 3.6 360 21:47 08.05.2022
1590 Rain 16 1018 63 10000 4.63 60 20:31 08.05.2022
1591 Rain 16 1018 59 10000 3.09 70 19:37 08.05.2022
1592 Clouds 17 1017 53 10000 4.12 60 18:49 08.05.2022
1593 Clouds 17 1018 55 10000 4.63 70 17:52 08.05.2022
1594 Clouds 16 1018 55 10000 2.06 110 16:30 08.05.2022
1595 Clouds 17 1018 54 10000 1.54 150 15:25 08.05.2022
1596 Clouds 17 1018 55 10000 5.66 120 14:27 08.05.2022
1597 Rain 17 1016 54 10000 6.17 120 11:53 08.05.2022
1598 Clouds 18 1015 54 10000 6.17 130 10:27 08.05.2022
1599 Clouds 18 1015 55 10000 9.26 140 09:55 08.05.2022
1600 Clouds 20 1014 49 10000 6.69 140 08:37 08.05.2022
1601 Clouds 20 1014 48 10000 3.6 150 06:32 08.05.2022
1602 Clouds 21 1015 35 10000 6.17 10 03:25 08.05.2022
1603 Clouds 19 1014 40 10000 8.23 350 01:25 08.05.2022
1604 Clouds 18 1014 50 10000 7.2 350 00:20 08.05.2022
1605 Clouds 18 1014 53 10000 6.69 350 23:46 07.05.2022
1606 Clouds 17 1013 65 10000 5.66 330 22:46 07.05.2022
1607 Clouds 17 1013 79 10000 4.12 320 21:57 07.05.2022
1608 Clouds 17 1012 87 10000 1.54 350 21:32 07.05.2022
1609 Clouds 18 1012 88 10000 0.51 0 20:27 07.05.2022
1610 Clouds 18 1012 87 10000 3.09 10 18:59 07.05.2022
1611 Clouds 18 1012 86 10000 1.54 30 17:31 07.05.2022
1612 Clouds 18 1013 85 10000 2.57 50 15:18 07.05.2022
1613 Clouds 19 1013 82 10000 4.12 80 12:23 07.05.2022
1614 Clouds 21 1013 73 10000 5.14 90 10:23 07.05.2022
1615 Clouds 21 1014 74 10000 5.14 120 08:37 07.05.2022
1616 Clouds 21 1015 75 10000 3.6 90 07:37 07.05.2022
1617 Clouds 21 1015 79 10000 3.09 100 06:43 07.05.2022
1618 Clouds 21 1017 76 8000 3.09 80 04:24 07.05.2022
1619 Clouds 18 1018 85 10000 4.63 340 00:50 07.05.2022
1620 Clouds 16 1019 91 10000 4.63 320 22:55 06.05.2022
1621 Rain 16 1019 89 3000 4.12 280 22:21 06.05.2022
1622 Rain 17 1019 80 7000 3.09 50 21:36 06.05.2022
1623 Clouds 18 1018 77 10000 3.09 40 20:20 06.05.2022
1624 Clouds 18 1019 78 10000 2.06 90 19:28 06.05.2022
1625 Clouds 17 1019 78 10000 3.09 100 18:54 06.05.2022
1626 Clouds 18 1020 75 10000 2.57 120 17:38 06.05.2022
1627 Clouds 18 1021 73 10000 2.57 150 15:56 06.05.2022
1628 Clouds 19 1021 72 10000 2.57 130 15:33 06.05.2022
1629 Clouds 19 1021 68 10000 3.09 160 14:22 06.05.2022
1630 Clouds 19 1021 65 10000 4.12 160 12:52 06.05.2022
1631 Clouds 19 1021 64 10000 4.12 180 12:30 06.05.2022
1632 Clouds 20 1020 61 10000 4.12 200 11:33 06.05.2022
1633 Clouds 22 1020 58 10000 7.2 200 09:48 06.05.2022
1634 Clouds 22 1020 57 10000 7.2 200 09:19 06.05.2022
1635 Clouds 24 1021 53 10000 6.69 200 07:56 06.05.2022
1636 Clouds 24 1021 54 10000 4.63 170 06:28 06.05.2022
1637 Clouds 23 1022 54 10000 5.14 200 04:32 06.05.2022
1638 Clouds 22 1023 65 10000 3.6 160 02:40 06.05.2022
1639 Clouds 18 1023 78 10000 3.6 180 23:25 05.05.2022
1640 Clouds 17 1023 83 10000 3.09 180 21:52 05.05.2022
1641 Clouds 17 1022 82 10000 2.57 150 20:48 05.05.2022
1642 Clouds 18 1022 75 10000 3.6 180 19:42 05.05.2022
1643 Clear 19 1022 63 10000 5.14 180 16:51 05.05.2022
1644 Clear 19 1022 65 10000 5.14 190 15:52 05.05.2022
1645 Clear 20 1022 67 10000 5.66 180 14:37 05.05.2022
1646 Clear 20 1022 70 10000 6.69 190 13:18 05.05.2022
1647 Clear 21 1022 67 10000 6.17 190 12:24 05.05.2022
1648 Clouds 23 1021 52 10000 7.72 190 10:30 05.05.2022
1649 Clear 24 1021 50 10000 6.69 190 09:34 05.05.2022
1650 Clear 25 1021 44 10000 6.69 180 07:19 05.05.2022
1651 Clear 21 1023 55 10000 3.09 20 02:33 05.05.2022
1652 Clear 21 1023 56 10000 1.54 40 01:47 05.05.2022
1653 Clear 20 1023 62 10000 1.54 40 01:22 05.05.2022
1654 Clear 16 1023 76 10000 2.06 320 23:31 04.05.2022
1655 Clear 15 1022 77 10000 2.06 290 22:25 04.05.2022
1656 Clear 16 1022 77 10000 1.03 0 21:49 04.05.2022
1657 Clear 16 1022 77 10000 1.03 0 21:26 04.05.2022
1658 Clear 16 1021 72 10000 1.54 280 20:22 04.05.2022
1659 Clear 16 1021 72 10000 2.57 300 19:51 04.05.2022
1660 Clear 17 1021 70 10000 2.57 200 18:49 04.05.2022
1661 Clear 17 1021 70 10000 2.57 200 18:21 04.05.2022
1662 Clear 18 1021 67 10000 5.14 200 17:29 04.05.2022
1663 Clear 19 1021 59 10000 6.17 200 15:38 04.05.2022
1664 Clear 19 1020 57 10000 6.17 200 15:00 04.05.2022
1665 Clear 19 1020 55 10000 6.17 200 14:20 04.05.2022
1666 Clouds 20 1019 50 10000 6.17 200 13:20 04.05.2022
1667 Clouds 20 1019 47 10000 7.72 200 12:29 04.05.2022
1668 Clouds 22 1018 42 10000 7.72 190 10:40 04.05.2022
1669 Clouds 24 1018 39 10000 8.23 180 09:40 04.05.2022
1670 Clouds 24 1018 37 10000 8.23 200 08:34 04.05.2022
1671 Clouds 24 1019 38 10000 8.75 190 06:31 04.05.2022
1672 Clear 19 1021 51 10000 4.12 160 02:53 04.05.2022
1673 Clear 14 1021 69 10000 2.57 340 23:58 03.05.2022
1674 Clouds 12 1021 74 10000 2.57 290 22:30 03.05.2022
1675 Clouds 13 1020 73 10000 2.57 300 21:43 03.05.2022
1676 Clear 13 1020 70 10000 2.57 200 20:53 03.05.2022
1677 Clear 14 1020 73 10000 3.6 180 19:49 03.05.2022
1678 Clear 14 1020 73 10000 4.63 180 18:52 03.05.2022
1679 Clear 14 1020 70 10000 5.14 180 18:20 03.05.2022
1680 Clear 15 1019 67 10000 4.63 190 16:38 03.05.2022
1681 Clear 16 1020 65 10000 6.69 180 15:35 03.05.2022
1682 Clouds 16 1018 54 10000 7.2 170 12:47 03.05.2022
1683 Clouds 17 1018 55 10000 7.2 200 12:27 03.05.2022
1684 Clouds 18 1017 43 10000 8.23 200 10:57 03.05.2022
1685 Clouds 18 1017 42 10000 8.23 200 10:57 03.05.2022
1686 Clouds 20 1016 32 10000 5.14 200 09:34 03.05.2022
1687 Clouds 20 1016 36 10000 5.14 150 07:33 03.05.2022
1688 Clouds 20 1016 35 10000 4.63 150 06:44 03.05.2022
1689 Clouds 14 1016 72 10000 2.57 360 00:54 03.05.2022
1690 Clouds 11 1014 86 10000 3.09 10 22:38 02.05.2022
1691 Clouds 11 1014 85 10000 4.12 10 21:52 02.05.2022
1692 Clouds 11 1013 85 10000 4.12 10 20:51 02.05.2022
1693 Clouds 11 1012 84 10000 5.14 30 18:44 02.05.2022
1694 Clouds 11 1012 84 10000 5.14 30 18:25 02.05.2022
1695 Clouds 12 1011 83 10000 3.6 10 17:37 02.05.2022
1696 Clouds 12 1011 84 10000 4.12 10 16:22 02.05.2022
1697 Clouds 13 1010 83 10000 7.2 360 15:31 02.05.2022
1698 Clouds 13 1010 85 10000 4.63 90 13:51 02.05.2022
1699 Thunderstorm 14 1008 81 8000 7.72 30 12:20 02.05.2022
1700 Rain 16 1008 66 10000 6.17 170 10:51 02.05.2022
1701 Clouds 17 1008 51 10000 8.23 190 09:29 02.05.2022
1702 Clouds 18 1008 45 10000 7.72 190 07:51 02.05.2022
1703 Clouds 16 1010 51 10000 2.57 130 04:36 02.05.2022
1704 Clouds 13 1009 63 10000 5.14 30 00:25 02.05.2022
1705 Clouds 11 1009 70 10000 4.63 20 23:52 01.05.2022
1706 Clouds 11 1008 76 10000 6.17 20 22:33 01.05.2022
1707 Clouds 10 1008 86 10000 5.66 40 21:22 01.05.2022
1708 Clouds 11 1007 88 10000 7.2 40 19:53 01.05.2022
1709 Clouds 11 1007 89 10000 6.69 30 18:58 01.05.2022
1710 Clouds 12 1007 86 10000 6.17 20 18:39 01.05.2022
1711 Clouds 12 1007 86 10000 5.66 10 17:38 01.05.2022
1712 Clouds 12 1008 89 10000 7.2 10 16:23 01.05.2022
1713 Clouds 12 1008 91 10000 8.23 340 15:36 01.05.2022
1714 Rain 12 1008 94 4000 7.2 350 13:52 01.05.2022
1715 Rain 12 1008 94 4000 5.66 350 11:28 01.05.2022
1716 Rain 13 1007 95 4000 4.63 320 09:32 01.05.2022
1717 Rain 14 1008 84 10000 3.6 340 08:42 01.05.2022
1718 Clouds 17 1011 61 10000 2.06 360 04:31 01.05.2022
1719 Clouds 13 1015 65 10000 2.57 30 00:34 01.05.2022
1720 Clouds 12 1015 67 10000 3.09 100 21:51 30.04.2022
1721 Clouds 12 1016 65 10000 2.57 110 21:19 30.04.2022
1722 Clouds 13 1017 62 10000 2.57 100 19:45 30.04.2022
1723 Clouds 13 1018 59 10000 2.06 130 18:45 30.04.2022
1724 Clouds 13 1018 59 10000 3.09 140 16:54 30.04.2022
1725 Clouds 13 1019 60 10000 4.12 140 15:48 30.04.2022
1726 Clouds 13 1020 58 10000 4.12 130 14:54 30.04.2022
1727 Clouds 13 1019 58 10000 4.12 130 14:53 30.04.2022
1728 Clouds 12 1019 58 10000 5.66 130 13:30 30.04.2022
1729 Clouds 13 1018 55 10000 6.69 120 11:34 30.04.2022
1730 Clouds 14 1017 52 10000 7.72 120 10:49 30.04.2022
1731 Clouds 16 1016 50 10000 10.29 120 09:50 30.04.2022
1732 Clouds 18 1016 44 10000 8.23 110 07:31 30.04.2022
1733 Clouds 15 1017 50 10000 7.2 20 03:34 30.04.2022
1734 Clouds 10 1015 73 10000 7.72 50 23:53 29.04.2022
1735 Clouds 8 1013 81 10000 8.75 60 22:34 29.04.2022
1736 Clouds 8 1011 82 10000 8.23 50 21:54 29.04.2022
1737 Clouds 9 1010 85 10000 9.26 30 20:51 29.04.2022
1738 Clouds 9 1009 84 10000 7.2 30 19:48 29.04.2022
1739 Clouds 9 1007 84 10000 7.72 30 18:47 29.04.2022
1740 Clouds 10 1005 84 10000 10.29 10 17:26 29.04.2022
1741 Clouds 10 1003 92 10000 9.26 20 15:52 29.04.2022
1742 Clouds 10 1003 93 10000 12.86 360 14:34 29.04.2022
1743 Rain 10 1003 93 4900 11.83 350 13:27 29.04.2022
1744 Rain 11 1002 93 4500 10.8 10 12:26 29.04.2022
1745 Rain 13 1003 95 3500 7.2 10 09:48 29.04.2022
1746 Rain 13 1006 94 4000 7.72 20 07:42 29.04.2022
1747 Rain 14 1007 93 4000 7.72 20 07:23 29.04.2022
1748 Rain 15 1009 88 3000 5.66 10 05:55 29.04.2022
1749 Clouds 16 1015 67 10000 5.14 10 00:51 29.04.2022
1750 Clouds 15 1016 69 10000 4.63 20 23:49 28.04.2022
1751 Clouds 14 1016 69 10000 4.63 360 22:45 28.04.2022
1752 Clouds 14 1016 70 10000 5.14 10 21:59 28.04.2022
1753 Clouds 14 1016 72 10000 4.63 20 21:37 28.04.2022
1754 Clouds 14 1016 72 10000 4.12 30 20:41 28.04.2022
1755 Clouds 14 1016 70 10000 3.6 20 19:49 28.04.2022
1756 Clouds 14 1017 69 10000 4.12 10 19:23 28.04.2022
1757 Clouds 15 1017 68 10000 4.12 10 18:38 28.04.2022
1758 Clouds 15 1018 66 10000 3.09 60 17:32 28.04.2022
1759 Clouds 15 1019 67 10000 3.6 40 16:50 28.04.2022
1760 Clouds 15 1019 66 10000 3.6 60 16:20 28.04.2022
1761 Clouds 15 1019 66 10000 3.6 60 16:20 28.04.2022
1762 Clouds 15 1019 63 10000 4.63 60 15:41 28.04.2022
1763 Clouds 16 1019 61 10000 4.63 50 14:55 28.04.2022
1764 Clouds 16 1019 58 10000 5.14 60 13:23 28.04.2022
1765 Clouds 17 1018 53 10000 4.12 70 12:28 28.04.2022
1766 Clouds 18 1017 48 10000 4.63 80 10:59 28.04.2022
1767 Clouds 19 1017 48 10000 5.14 70 10:26 28.04.2022
1768 Clouds 19 1017 49 10000 6.17 90 09:43 28.04.2022
1769 Clouds 18 1018 50 10000 7.2 70 07:40 28.04.2022
1770 Clouds 19 1019 45 10000 5.66 50 06:38 28.04.2022
1771 Clouds 18 1019 40 10000 6.69 40 05:40 28.04.2022
1772 Clouds 17 1020 44 10000 8.23 50 04:42 28.04.2022
1773 Clouds 15 1021 62 10000 8.75 60 00:52 28.04.2022
1774 Clouds 16 1018 65 10000 8.75 50 23:18 27.04.2022
1775 Clouds 16 1018 66 10000 8.23 50 21:58 27.04.2022
1776 Clouds 17 1017 65 10000 8.75 60 21:32 27.04.2022
1777 Clouds 17 1017 63 10000 8.23 40 20:44 27.04.2022
1778 Clouds 17 1016 68 10000 7.2 60 19:42 27.04.2022
1779 Clouds 18 1016 68 10000 7.2 60 19:22 27.04.2022
1780 Clouds 18 1015 69 10000 8.23 60 18:38 27.04.2022
1781 Clouds 19 1014 67 10000 9.26 60 17:41 27.04.2022
1782 Clouds 20 1013 71 10000 6.17 50 15:56 27.04.2022
1783 Clouds 23 1008 75 10000 3.6 190 12:50 27.04.2022
1784 Clouds 23 1008 73 10000 4.63 180 11:24 27.04.2022
1785 Rain 24 1007 72 10000 1.54 180 10:27 27.04.2022
1786 Rain 26 1006 67 10000 6.69 180 07:53 27.04.2022
1787 Clouds 26 1006 71 10000 7.72 200 06:41 27.04.2022
1788 Clouds 22 1005 84 8000 9.26 200 02:26 27.04.2022
1789 Rain 22 1004 84 7000 8.23 200 01:21 27.04.2022
1790 Rain 22 1004 83 10000 8.75 210 00:27 27.04.2022
1791 Rain 22 1003 81 10000 9.26 190 23:24 26.04.2022
1792 Rain 23 1002 80 10000 8.75 200 22:45 26.04.2022
1793 Clouds 22 1002 79 10000 7.72 200 21:59 26.04.2022
1794 Rain 22 1003 80 10000 10.8 230 21:19 26.04.2022
1795 Clouds 22 1002 84 10000 12.35 210 20:37 26.04.2022
1796 Rain 22 1002 86 10000 12.86 200 19:45 26.04.2022
1797 Rain 22 1002 89 8000 13.89 210 19:26 26.04.2022
1798 Rain 23 1002 86 10000 16.46 210 18:31 26.04.2022
1799 Rain 22 1003 86 10000 13.89 200 17:39 26.04.2022
1800 Clouds 22 1005 86 10000 12.35 190 15:32 26.04.2022
1801 Rain 22 1006 87 10000 12.35 200 13:40 26.04.2022
1802 Rain 22 1006 87 10000 10.8 200 12:47 26.04.2022
1803 Rain 22 1006 89 10000 11.32 210 11:23 26.04.2022
1804 Clouds 22 1007 92 6000 9.26 190 10:30 26.04.2022
1805 Rain 22 1007 84 10000 9.26 190 08:33 26.04.2022
1806 Mist 21 1011 85 2500 5.66 190 04:53 26.04.2022
1807 Mist 22 1012 82 6000 7.2 200 04:22 26.04.2022
1808 Clouds 20 1014 85 9000 2.57 140 00:46 26.04.2022
1809 Clouds 19 1015 88 9000 3.09 140 23:50 25.04.2022
1810 Clouds 18 1015 88 10000 3.09 130 21:53 25.04.2022
1811 Clouds 18 1015 89 10000 1.03 0 21:26 25.04.2022
1812 Clouds 19 1015 87 10000 2.06 140 19:53 25.04.2022
1813 Clouds 19 1016 87 10000 2.57 180 18:34 25.04.2022
1814 Clouds 19 1016 87 10000 3.6 180 17:40 25.04.2022
1815 Clouds 19 1016 85 10000 3.6 190 16:42 25.04.2022
1816 Clouds 20 1016 84 10000 4.12 190 15:22 25.04.2022
1817 Clouds 20 1016 82 10000 4.63 190 14:32 25.04.2022
1818 Clouds 21 1015 73 10000 5.66 200 12:49 25.04.2022
1819 Clouds 24 1014 56 10000 5.14 190 10:44 25.04.2022
1820 Clouds 26 1013 52 10000 6.17 190 09:42 25.04.2022
1821 Clouds 26 1013 50 10000 4.63 150 07:49 25.04.2022
1822 Clouds 26 1015 50 10000 3.6 160 05:54 25.04.2022
1823 Clear 20 1014 76 10000 2.57 180 01:28 25.04.2022
1824 Clear 17 1013 84 10000 1.03 0 23:56 24.04.2022
1825 Clouds 15 1013 89 10000 2.06 190 23:25 24.04.2022
1826 Clouds 15 1013 91 10000 1.54 200 22:39 24.04.2022
1827 Clouds 15 1012 90 10000 1.03 0 21:56 24.04.2022
1828 Clouds 15 1012 89 10000 1.54 200 21:22 24.04.2022
1829 Clouds 15 1011 89 10000 1.03 170 20:46 24.04.2022
1830 Clouds 15 1011 89 10000 1.54 250 20:21 24.04.2022
1831 Clouds 15 1010 88 10000 1.54 360 18:44 24.04.2022
1832 Clouds 15 1011 88 10000 2.06 10 17:49 24.04.2022
1833 Clouds 15 1011 89 10000 2.57 350 17:21 24.04.2022
1834 Clouds 15 1011 89 10000 2.57 350 17:21 24.04.2022
1835 Clouds 16 1011 90 10000 2.57 360 16:55 24.04.2022
1836 Rain 16 1011 89 10000 5.14 340 16:29 24.04.2022
1837 Rain 16 1012 89 10000 4.12 360 15:43 24.04.2022
1838 Rain 16 1012 91 8000 4.12 30 14:36 24.04.2022
1839 Rain 16 1012 90 4500 2.57 20 13:38 24.04.2022
1840 Rain 16 1012 90 5000 2.57 10 13:18 24.04.2022
1841 Rain 16 1012 90 7000 1.54 80 11:50 24.04.2022
1842 Rain 16 1012 88 7000 2.06 80 10:48 24.04.2022
1843 Rain 17 1013 85 7000 2.06 40 09:47 24.04.2022
1844 Rain 18 1013 79 10000 1.03 0 08:18 24.04.2022
1845 Rain 19 1014 62 10000 3.09 350 05:46 24.04.2022
1846 Clouds 19 1016 63 10000 6.17 10 02:48 24.04.2022
1847 Clouds 18 1016 64 10000 6.17 360 00:47 24.04.2022
1848 Clouds 18 1017 67 10000 6.17 30 23:55 23.04.2022
1849 Clouds 18 1016 67 10000 5.66 20 23:25 23.04.2022
1850 Clouds 18 1016 66 10000 5.66 20 22:39 23.04.2022
1851 Clouds 18 1016 67 10000 6.69 20 21:47 23.04.2022
1852 Clouds 18 1016 67 10000 6.17 40 21:29 23.04.2022
1853 Clouds 18 1014 71 10000 5.14 50 19:56 23.04.2022
1854 Clouds 18 1014 72 10000 5.14 70 19:20 23.04.2022
1855 Clouds 19 1014 71 10000 5.14 60 18:54 23.04.2022
1856 Clouds 19 1014 70 10000 6.17 70 18:32 23.04.2022
1857 Clouds 19 1014 70 10000 6.17 70 18:32 23.04.2022
1858 Clouds 19 1014 71 10000 6.17 80 17:47 23.04.2022
1859 Clouds 20 1014 69 10000 5.66 80 16:46 23.04.2022
1860 Rain 21 1013 73 10000 7.2 70 15:51 23.04.2022
1861 Clouds 22 1012 54 10000 2.57 180 13:33 23.04.2022
1862 Clouds 24 1010 53 10000 4.12 200 11:30 23.04.2022
1863 Clouds 25 1008 48 10000 4.63 200 10:32 23.04.2022
1864 Clouds 26 1007 54 10000 5.66 190 08:18 23.04.2022
1865 Mist 22 1009 73 5000 2.06 50 03:57 23.04.2022
1866 Mist 22 1009 75 5000 2.57 50 03:27 23.04.2022
1867 Clouds 18 1009 88 7000 1.54 30 23:37 22.04.2022
1868 Clouds 17 1009 89 8000 1.54 60 23:18 22.04.2022
1869 Clouds 17 1009 91 7000 1.03 20 21:58 22.04.2022
1870 Mist 17 1008 91 7000 1.54 20 21:39 22.04.2022
1871 Clear 17 1008 88 10000 0.51 280 20:34 22.04.2022
1872 Clouds 18 1008 88 10000 2.57 190 19:26 22.04.2022
1873 Clouds 18 1008 87 10000 3.6 190 18:56 22.04.2022
1874 Clouds 18 1008 86 10000 3.6 190 18:24 22.04.2022
1875 Clouds 18 1009 83 10000 4.12 170 16:57 22.04.2022
1876 Clouds 19 1009 80 10000 3.6 180 15:59 22.04.2022
1877 Clear 19 1009 79 10000 4.63 180 15:24 22.04.2022
1878 Clouds 20 1009 76 10000 5.14 190 14:38 22.04.2022
1879 Clear 21 1009 73 10000 5.14 190 13:41 22.04.2022
1880 Clouds 21 1008 72 10000 5.14 180 12:47 22.04.2022
1881 Clouds 23 1007 65 10000 5.14 190 11:23 22.04.2022
1882 Clouds 24 1007 63 10000 5.14 190 10:56 22.04.2022
1883 Clouds 24 1007 62 10000 5.14 180 10:34 22.04.2022
1884 Clouds 25 1007 61 10000 6.17 180 09:57 22.04.2022
1885 Clouds 25 1007 60 10000 6.69 180 09:21 22.04.2022
1886 Clouds 25 1007 57 10000 7.2 190 08:42 22.04.2022
1887 Clouds 25 1007 56 10000 6.17 190 06:42 22.04.2022
1888 Clouds 18 1009 81 10000 1.54 70 01:24 22.04.2022
1889 Clouds 15 1009 93 10000 2.57 310 23:33 21.04.2022
1890 Clouds 14 1009 94 10000 5.14 310 22:43 21.04.2022
1891 Clouds 14 1008 96 10000 5.14 290 21:42 21.04.2022
1892 Rain 14 1007 96 4000 6.69 340 20:31 21.04.2022
1893 Rain 15 1010 95 3500 4.63 110 18:49 21.04.2022
1894 Rain 16 1010 94 4000 4.63 130 18:28 21.04.2022
1895 Rain 16 1012 94 6000 2.06 130 17:20 21.04.2022
1896 Rain 16 1013 94 4800 0.51 0 16:19 21.04.2022
1897 Rain 15 1015 92 3200 1.54 40 15:19 21.04.2022
1898 Mist 16 1016 91 3000 1.03 0 14:28 21.04.2022
1899 Rain 17 1017 85 10000 2.06 140 13:22 21.04.2022
1900 Rain 18 1017 78 10000 2.06 170 12:29 21.04.2022
1901 Rain 19 1018 58 10000 4.12 200 09:58 21.04.2022
1902 Rain 20 1018 58 7000 4.12 190 08:47 21.04.2022
1903 Clouds 20 1019 59 8000 3.6 150 06:46 21.04.2022
1904 Clouds 20 1021 63 8000 4.12 140 04:21 21.04.2022
1905 Clouds 18 1021 65 10000 2.06 80 03:23 21.04.2022
1906 Clouds 17 1021 66 8000 2.57 10 02:45 21.04.2022
1907 Clouds 14 1022 73 8000 3.6 350 00:35 21.04.2022
1908 Clouds 13 1022 78 10000 3.09 320 23:46 20.04.2022
1909 Clouds 13 1022 79 10000 3.09 320 23:21 20.04.2022
1910 Clouds 12 1022 79 9000 3.6 330 22:41 20.04.2022
1911 Clouds 13 1021 78 10000 4.63 340 21:57 20.04.2022
1912 Clouds 13 1021 77 10000 5.14 350 20:50 20.04.2022
1913 Clouds 13 1021 78 10000 4.63 350 20:22 20.04.2022
1914 Clouds 13 1021 77 10000 4.63 360 19:47 20.04.2022
1915 Clouds 13 1021 76 10000 4.12 350 18:52 20.04.2022
1916 Clouds 14 1021 77 10000 4.63 330 17:53 20.04.2022
1917 Clouds 14 1021 77 10000 5.14 360 16:39 20.04.2022
1918 Clouds 13 1021 77 10000 5.66 350 15:39 20.04.2022
1919 Clouds 14 1021 78 10000 4.12 360 12:47 20.04.2022
1920 Clouds 14 1020 78 10000 4.63 360 11:43 20.04.2022
1921 Clouds 14 1020 78 10000 3.6 350 10:53 20.04.2022
1922 Clouds 14 1020 77 7000 4.12 360 09:45 20.04.2022
1923 Clouds 14 1020 75 10000 3.09 10 08:54 20.04.2022
1924 Clouds 14 1020 75 10000 3.09 10 08:20 20.04.2022
1925 Clouds 14 1020 75 10000 3.09 10 08:20 20.04.2022
1926 Clouds 13 1021 75 7000 3.6 360 06:49 20.04.2022
1927 Clouds 12 1022 81 7000 5.14 360 03:33 20.04.2022
1928 Clouds 11 1021 87 10000 6.17 360 00:22 20.04.2022
1929 Clouds 11 1021 88 10000 6.17 10 23:35 19.04.2022
1930 Clouds 10 1021 89 8000 5.66 360 22:24 19.04.2022
1931 Rain 10 1021 88 7000 6.17 360 21:55 19.04.2022
1932 Clouds 10 1020 88 10000 7.2 360 21:19 19.04.2022
1933 Rain 11 1020 86 7000 6.69 10 20:41 19.04.2022
1934 Rain 11 1020 84 10000 6.69 50 19:52 19.04.2022
1935 Clouds 12 1019 82 10000 8.23 60 18:47 19.04.2022
1936 Clouds 13 1019 83 10000 8.75 70 17:28 19.04.2022
1937 Clouds 13 1019 84 10000 8.75 80 16:43 19.04.2022
1938 Clouds 14 1019 84 10000 8.75 80 16:21 19.04.2022
1939 Rain 15 1018 74 10000 7.2 100 14:48 19.04.2022
1940 Clouds 16 1017 63 10000 5.66 120 13:35 19.04.2022
1941 Clouds 16 1017 61 10000 6.69 120 12:50 19.04.2022
1942 Clouds 17 1016 63 10000 5.14 130 11:55 19.04.2022
1943 Clouds 18 1014 57 10000 5.14 200 10:25 19.04.2022
1944 Clouds 19 1013 45 10000 6.17 190 09:18 19.04.2022
1945 Clouds 18 1014 58 10000 3.6 160 04:56 19.04.2022
1946 Clouds 17 1014 76 10000 3.09 140 03:26 19.04.2022
1947 Clouds 14 1015 83 10000 2.06 360 00:55 19.04.2022
1948 Clouds 12 1014 92 10000 2.57 30 23:30 18.04.2022
1949 Clouds 11 1013 94 10000 2.57 40 21:30 18.04.2022
1950 Clouds 11 1013 94 10000 3.09 40 20:55 18.04.2022
1951 Clouds 11 1013 94 10000 3.09 50 20:32 18.04.2022
1952 Clouds 12 1012 94 10000 3.6 40 19:51 18.04.2022
1953 Clouds 12 1012 94 10000 5.14 50 18:57 18.04.2022
1954 Clouds 12 1013 94 10000 4.63 20 17:57 18.04.2022
1955 Clouds 12 1013 94 10000 4.63 20 17:34 18.04.2022
1956 Clouds 12 1013 94 10000 4.63 350 16:59 18.04.2022
1957 Clouds 12 1013 94 10000 6.17 60 16:31 18.04.2022
1958 Rain 12 1013 96 7000 7.72 20 14:51 18.04.2022
1959 Rain 13 1014 94 3000 8.75 340 13:39 18.04.2022
1960 Rain 13 1013 95 2400 10.29 340 12:32 18.04.2022
1961 Rain 13 1014 93 3000 8.23 360 11:35 18.04.2022
1962 Rain 14 1014 90 3000 5.66 10 10:32 18.04.2022
1963 Rain 15 1014 83 6000 4.63 350 09:31 18.04.2022
1964 Clouds 15 1015 82 8000 4.12 350 08:18 18.04.2022
1965 Rain 17 1017 69 10000 3.6 110 05:45 18.04.2022
1966 Clouds 16 1020 69 10000 3.09 40 00:49 18.04.2022
1967 Clouds 13 1020 81 10000 1.54 20 22:42 17.04.2022
1968 Clouds 13 1020 81 10000 1.03 80 21:50 17.04.2022
1969 Clouds 14 1020 81 10000 2.06 70 21:27 17.04.2022
1970 Clouds 14 1019 79 10000 1.54 100 20:50 17.04.2022
1971 Clouds 14 1020 78 10000 2.06 100 19:40 17.04.2022
1972 Clouds 14 1020 77 10000 2.06 110 18:21 17.04.2022
1973 Clouds 14 1020 76 10000 2.06 170 16:32 17.04.2022
1974 Clouds 14 1020 76 10000 3.6 100 15:28 17.04.2022
1975 Clouds 15 1020 75 10000 3.6 100 14:27 17.04.2022
1976 Clouds 15 1020 75 10000 3.09 120 13:20 17.04.2022
1977 Rain 15 1019 73 10000 3.09 140 12:28 17.04.2022
1978 Rain 15 1018 70 10000 4.63 160 10:47 17.04.2022
1979 Rain 15 1018 69 10000 4.63 160 10:28 17.04.2022
1980 Clouds 16 1018 60 10000 5.14 130 09:37 17.04.2022
1981 Clouds 16 1018 56 10000 3.09 190 08:54 17.04.2022
1982 Clouds 16 1018 54 10000 3.09 190 08:26 17.04.2022
1983 Clouds 15 1019 52 10000 3.09 130 04:52 17.04.2022
1984 Clouds 13 1020 58 10000 4.12 40 01:39 17.04.2022
1985 Clouds 11 1019 63 10000 4.12 20 23:57 16.04.2022
1986 Clouds 10 1019 64 10000 5.66 60 22:50 16.04.2022
1987 Clouds 11 1018 65 10000 6.69 80 21:42 16.04.2022
1988 Clouds 11 1018 67 10000 6.17 80 20:45 16.04.2022
1989 Clouds 11 1017 72 10000 5.14 80 19:20 16.04.2022
1990 Clouds 11 1017 74 10000 4.63 80 18:33 16.04.2022
1991 Clouds 11 1016 73 10000 5.66 90 16:42 16.04.2022
1992 Clouds 12 1016 71 10000 4.63 100 15:46 16.04.2022
1993 Clouds 12 1015 70 10000 4.63 100 14:57 16.04.2022
1994 Clouds 13 1014 70 10000 5.14 100 13:58 16.04.2022
1995 Clouds 13 1014 71 10000 5.14 110 13:40 16.04.2022
1996 Clouds 14 1012 70 10000 6.17 120 12:35 16.04.2022
1997 Clouds 15 1011 67 10000 7.2 110 11:24 16.04.2022
1998 Clouds 17 1008 52 10000 4.63 350 09:59 16.04.2022
1999 Clouds 18 1007 48 10000 4.12 180 09:19 16.04.2022
2000 Clouds 17 1007 56 10000 6.69 360 08:31 16.04.2022
2001 Clouds 17 1006 60 10000 3.6 50 06:59 16.04.2022
2002 Clouds 13 1007 69 10000 4.12 40 04:36 16.04.2022
2003 Clouds 10 1006 85 10000 6.17 10 00:38 16.04.2022
2004 Clouds 9 1006 88 10000 7.2 360 23:40 15.04.2022
2005 Clouds 8 1005 88 10000 6.69 360 22:45 15.04.2022
2006 Clouds 9 1005 88 10000 6.69 360 22:27 15.04.2022
2007 Clouds 9 1005 87 10000 7.2 360 21:20 15.04.2022
2008 Clouds 9 1004 89 10000 9.26 20 20:36 15.04.2022
2009 Clouds 9 1005 92 10000 7.2 360 19:43 15.04.2022
2010 Clouds 9 1004 93 10000 8.23 20 18:57 15.04.2022
2011 Clouds 9 1005 92 10000 9.77 30 18:26 15.04.2022
2012 Clouds 9 1005 93 10000 9.77 30 17:56 15.04.2022
2013 Clouds 9 1006 93 10000 9.26 30 17:23 15.04.2022
2014 Clouds 9 1007 93 6000 11.32 30 16:24 15.04.2022
2015 Clouds 9 1007 95 6000 10.8 30 15:41 15.04.2022
2016 Clouds 9 1007 95 6000 10.8 30 15:41 15.04.2022
2017 Clouds 10 1008 93 10000 10.8 40 13:55 15.04.2022
2018 Rain 9 1008 95 7000 10.29 30 12:50 15.04.2022
2019 Mist 10 1008 95 4500 9.26 30 12:21 15.04.2022
2020 Clouds 11 1008 92 6000 9.26 20 11:42 15.04.2022
2021 Mist 11 1008 92 4000 8.23 30 10:46 15.04.2022
2022 Mist 11 1008 93 5000 8.23 40 09:59 15.04.2022
2023 Mist 11 1008 93 3000 7.2 60 09:22 15.04.2022
2024 Rain 11 1008 92 4500 5.14 40 08:39 15.04.2022
2025 Rain 12 1010 93 5000 6.69 30 06:48 15.04.2022
2026 Rain 11 1012 91 6000 7.2 10 04:43 15.04.2022
2027 Rain 10 1013 93 10000 5.66 20 00:34 15.04.2022
2028 Rain 10 1013 93 10000 4.63 40 23:22 14.04.2022
2029 Rain 10 1013 93 10000 4.63 40 22:45 14.04.2022
2030 Rain 10 1013 93 10000 4.63 30 22:27 14.04.2022
2031 Rain 10 1013 93 10000 5.14 20 21:47 14.04.2022
2032 Rain 10 1015 93 10000 5.14 20 19:41 14.04.2022
2033 Rain 10 1015 93 10000 5.14 20 19:20 14.04.2022
2034 Rain 10 1017 93 7000 5.14 20 17:45 14.04.2022
2035 Rain 10 1017 95 5000 6.17 40 16:51 14.04.2022
2036 Rain 10 1018 93 7000 6.17 40 15:52 14.04.2022
2037 Rain 10 1018 94 5000 6.17 40 13:54 14.04.2022
2038 Rain 10 1018 93 5000 5.66 40 13:25 14.04.2022
2039 Clouds 11 1018 90 10000 6.69 30 12:33 14.04.2022
2040 Rain 11 1018 89 10000 6.17 40 11:47 14.04.2022
2041 Rain 11 1018 88 10000 7.72 50 11:18 14.04.2022
2042 Mist 12 1018 88 4000 8.23 50 10:31 14.04.2022
2043 Clouds 12 1018 89 10000 7.72 40 09:30 14.04.2022
2044 Rain 12 1019 89 10000 7.72 30 08:35 14.04.2022
2045 Clouds 12 1020 87 10000 8.75 30 05:58 14.04.2022
2046 Clouds 13 1020 82 10000 8.75 40 01:23 14.04.2022
2047 Clouds 15 1018 79 10000 7.2 50 22:38 13.04.2022
2048 Clouds 15 1018 79 10000 7.2 50 22:38 13.04.2022
2049 Clouds 15 1017 77 10000 7.2 50 21:43 13.04.2022
2050 Clouds 16 1016 75 10000 7.72 50 20:45 13.04.2022
2051 Clouds 16 1016 74 10000 9.77 50 19:54 13.04.2022
2052 Clouds 16 1016 74 10000 9.77 50 19:54 13.04.2022
2053 Clouds 18 1015 79 7000 10.29 50 18:43 13.04.2022
2054 Clouds 19 1014 82 10000 4.63 50 17:52 13.04.2022
2055 Clouds 20 1013 82 10000 1.34 77 17:23 13.04.2022
2056 Clouds 20 1013 82 10000 1.54 92 16:18 13.04.2022
2057 Clouds 21 1013 80 10000 0.45 91 15:31 13.04.2022
2058 Clouds 21 1012 81 10000 3.6 190 14:43 13.04.2022
2059 Clouds 21 1012 80 10000 4.12 190 13:57 13.04.2022
2060 Clouds 21 1012 79 10000 5.66 190 12:58 13.04.2022
2061 Clouds 22 1011 77 10000 6.17 190 12:19 13.04.2022
2062 Clouds 23 1010 73 10000 7.72 190 10:44 13.04.2022
2063 Clouds 24 1010 66 10000 7.72 190 08:50 13.04.2022
2064 Clouds 25 1010 61 10000 7.2 190 08:28 13.04.2022
2065 Clouds 26 1010 49 10000 7.2 190 06:50 13.04.2022
2066 Clouds 26 1010 46 10000 6.17 180 06:25 13.04.2022
2067 Clear 22 1012 57 10000 3.6 180 02:37 13.04.2022
2068 Clear 19 1012 71 10000 1.54 330 00:20 13.04.2022
2069 Clear 17 1011 80 10000 2.57 270 22:45 12.04.2022
2070 Clouds 17 1011 80 10000 2.06 250 21:57 12.04.2022
2071 Clouds 17 1011 81 10000 2.06 260 20:49 12.04.2022
2072 Clouds 18 1011 80 10000 2.57 260 20:27 12.04.2022
2073 Clouds 18 1011 81 10000 3.6 210 19:41 12.04.2022
2074 Clouds 18 1011 81 10000 4.63 200 19:19 12.04.2022
2075 Clouds 18 1011 79 10000 4.12 200 17:50 12.04.2022
2076 Clouds 18 1012 78 10000 4.63 190 16:53 12.04.2022
2077 Clouds 19 1011 77 10000 6.69 200 15:52 12.04.2022
2078 Clouds 19 1011 77 10000 5.14 190 15:25 12.04.2022
2079 Clouds 19 1011 76 10000 6.17 160 13:54 12.04.2022
2080 Clouds 20 1011 73 10000 6.17 180 13:27 12.04.2022
2081 Clouds 20 1011 70 10000 5.14 190 12:31 12.04.2022
2082 Clouds 21 1011 64 10000 6.69 190 11:40 12.04.2022
2083 Clouds 23 1011 51 10000 5.14 170 10:29 12.04.2022
2084 Clouds 24 1011 50 10000 7.72 190 08:54 12.04.2022
2085 Clouds 24 1011 50 10000 7.72 190 08:54 12.04.2022
2086 Clouds 24 1011 50 10000 7.72 190 08:54 12.04.2022
2087 Clouds 25 1011 50 10000 8.75 190 07:50 12.04.2022
2088 Clouds 25 1012 48 10000 8.23 190 05:49 12.04.2022
2089 Clouds 23 1013 56 10000 6.69 180 03:28 12.04.2022
2090 Clouds 18 1014 73 10000 3.6 200 23:36 11.04.2022
2091 Clouds 17 1014 76 10000 3.09 210 22:44 11.04.2022
2092 Clouds 17 1014 74 10000 5.14 200 21:36 11.04.2022
2093 Clouds 18 1014 72 10000 5.66 200 20:54 11.04.2022
2094 Clouds 18 1014 72 10000 6.17 200 20:28 11.04.2022
2095 Clear 18 1014 70 10000 4.63 180 19:36 11.04.2022
2096 Rain 18 1014 71 10000 4.63 180 19:18 11.04.2022
2097 Clear 18 1015 71 10000 6.17 190 18:37 11.04.2022
2098 Clear 18 1015 72 10000 6.69 200 17:44 11.04.2022
2099 Clear 18 1016 73 10000 7.72 200 16:54 11.04.2022
2100 Clouds 18 1016 74 10000 7.2 180 15:24 11.04.2022
2101 Clear 19 1016 74 10000 7.2 180 13:51 11.04.2022
2102 Clear 19 1016 73 10000 9.77 180 12:43 11.04.2022
2103 Clear 19 1016 73 10000 9.77 180 12:22 11.04.2022
2104 Clouds 20 1016 69 10000 8.75 160 10:58 11.04.2022
2105 Clouds 21 1016 65 10000 9.77 180 09:58 11.04.2022
2106 Clouds 22 1016 59 10000 9.26 180 08:24 11.04.2022
2107 Clouds 23 1018 53 10000 7.72 180 05:26 11.04.2022
2108 Clouds 19 1020 65 10000 4.12 180 00:57 11.04.2022
2109 Clouds 16 1019 79 9000 3.6 200 22:33 10.04.2022
2110 Clouds 16 1019 80 10000 4.12 200 21:54 10.04.2022
2111 Clouds 16 1019 78 10000 3.09 200 21:26 10.04.2022
2112 Clouds 17 1019 80 10000 5.66 200 20:25 10.04.2022
2113 Clouds 17 1020 79 10000 5.66 200 19:37 10.04.2022
2114 Clouds 17 1019 80 10000 5.14 200 18:50 10.04.2022
2115 Clouds 17 1019 79 10000 5.66 200 18:30 10.04.2022
2116 Clouds 17 1020 78 10000 5.66 190 17:49 10.04.2022
2117 Clouds 18 1020 75 10000 5.14 190 16:59 10.04.2022
2118 Clouds 18 1020 71 10000 5.14 190 15:53 10.04.2022
2119 Clouds 19 1020 72 10000 5.14 190 14:49 10.04.2022
2120 Clouds 20 1020 63 10000 5.66 190 13:45 10.04.2022
2121 Clouds 21 1019 56 10000 6.69 200 12:33 10.04.2022
2122 Clouds 22 1018 48 10000 5.14 190 11:44 10.04.2022
2123 Clouds 23 1018 46 10000 5.14 190 11:24 10.04.2022
2124 Clear 24 1017 40 10000 6.17 190 10:38 10.04.2022
2125 Clouds 25 1018 37 10000 5.66 190 09:46 10.04.2022
2126 Clouds 25 1017 36 10000 6.17 190 08:55 10.04.2022
2127 Clouds 26 1017 34 10000 6.69 190 08:20 10.04.2022
2128 Clouds 26 1018 32 10000 5.14 180 06:59 10.04.2022
2129 Clear 22 1019 58 10000 4.12 150 04:36 10.04.2022
2130 Clouds 20 1019 56 7000 1.54 130 02:19 10.04.2022
2131 Clear 16 1019 72 10000 1.03 0 23:54 09.04.2022
2132 Clouds 15 1019 77 10000 1.03 0 23:25 09.04.2022
2133 Clear 14 1019 80 9000 2.06 280 22:39 09.04.2022
2134 Clear 15 1018 80 10000 2.06 260 21:28 09.04.2022
2135 Clear 15 1018 79 10000 2.57 290 20:31 09.04.2022
2136 Clear 15 1018 80 10000 3.6 280 19:59 09.04.2022
2137 Clear 15 1018 77 10000 4.12 280 19:41 09.04.2022
2138 Clear 16 1018 70 10000 3.09 190 18:26 09.04.2022
2139 Clear 17 1017 68 10000 3.09 210 17:52 09.04.2022
2140 Clear 17 1017 66 10000 3.6 220 17:18 09.04.2022
2141 Clear 17 1017 65 10000 5.14 210 16:42 09.04.2022
2142 Clear 18 1017 65 10000 6.69 200 15:52 09.04.2022
2143 Clear 18 1017 64 10000 6.69 200 15:26 09.04.2022
2144 Clear 18 1016 63 10000 7.2 200 14:26 09.04.2022
2145 Clear 18 1016 61 10000 7.72 200 13:34 09.04.2022
2146 Clear 19 1016 61 10000 8.75 200 12:57 09.04.2022
2147 Clear 19 1015 61 10000 9.26 200 11:52 09.04.2022
2148 Clear 20 1014 62 10000 9.77 180 10:53 09.04.2022
2149 Clear 21 1014 59 10000 10.29 170 10:19 09.04.2022
2150 Clouds 21 1014 56 10000 11.32 180 09:24 09.04.2022
2151 Clouds 22 1014 53 10000 10.29 170 08:35 09.04.2022
2152 Clouds 22 1016 53 10000 9.26 190 05:35 09.04.2022
2153 Clouds 14 1020 65 10000 1.03 0 00:36 09.04.2022
2154 Clouds 14 1020 65 10000 1.03 0 00:36 09.04.2022
2155 Clouds 12 1019 70 10000 2.06 280 23:24 08.04.2022
2156 Clouds 12 1019 73 10000 2.57 280 21:57 08.04.2022
2157 Clouds 13 1019 74 10000 3.09 200 20:47 08.04.2022
2158 Clouds 13 1019 77 10000 3.6 160 19:57 08.04.2022
2159 Clouds 13 1019 73 10000 1.54 170 18:59 08.04.2022
2160 Clouds 13 1019 74 10000 1.54 130 18:25 08.04.2022
2161 Clouds 14 1019 74 10000 2.06 120 17:38 08.04.2022
2162 Clouds 14 1020 73 10000 2.06 120 17:19 08.04.2022
2163 Clouds 14 1020 72 10000 2.06 130 16:35 08.04.2022
2164 Clouds 15 1020 69 10000 2.57 140 15:53 08.04.2022
2165 Clouds 15 1020 67 10000 3.6 130 15:23 08.04.2022
2166 Clouds 15 1020 65 10000 3.6 140 14:26 08.04.2022
2167 Clouds 15 1020 63 10000 3.6 140 13:44 08.04.2022
2168 Clouds 15 1020 63 10000 3.6 140 13:25 08.04.2022
2169 Clouds 16 1018 58 10000 3.6 160 11:53 08.04.2022
2170 Clouds 18 1017 52 10000 8.75 200 10:32 08.04.2022
2171 Clouds 20 1016 46 10000 7.72 200 09:26 08.04.2022
2172 Clouds 20 1016 42 10000 5.66 190 08:34 08.04.2022
2173 Clouds 20 1016 38 10000 4.63 150 06:47 08.04.2022
2174 Clouds 20 1016 38 10000 4.63 150 06:47 08.04.2022
2175 Clouds 19 1016 32 10000 3.6 100 04:58 08.04.2022
2176 Clouds 16 1016 43 10000 3.09 340 01:26 08.04.2022
2177 Clouds 14 1015 51 10000 3.6 330 00:22 08.04.2022
2178 Clouds 12 1014 58 10000 2.06 20 22:59 07.04.2022
2179 Clouds 12 1014 61 10000 3.09 20 22:39 07.04.2022
2180 Clouds 12 1014 61 10000 3.09 20 22:20 07.04.2022
2181 Clouds 12 1013 65 10000 4.12 30 21:49 07.04.2022
2182 Clouds 12 1013 69 10000 7.2 350 20:58 07.04.2022
2183 Clouds 12 1012 72 10000 8.75 350 20:31 07.04.2022
2184 Clouds 12 1011 79 10000 3.6 360 18:34 07.04.2022
2185 Clouds 13 1011 78 10000 5.14 350 17:26 07.04.2022
2186 Clouds 13 1011 78 10000 6.69 300 16:44 07.04.2022
2187 Clouds 13 1011 79 10000 6.69 300 16:22 07.04.2022
2188 Clouds 15 1011 81 10000 7.2 190 14:50 07.04.2022
2189 Clouds 15 1011 77 10000 6.17 190 13:43 07.04.2022
2190 Clouds 15 1011 74 10000 3.09 190 12:50 07.04.2022
2191 Clouds 15 1012 71 10000 4.12 180 11:34 07.04.2022
2192 Clouds 16 1013 63 10000 6.17 130 09:42 07.04.2022
2193 Clouds 17 1013 60 10000 4.63 100 08:38 07.04.2022
2194 Clouds 17 1015 56 10000 4.63 120 06:43 07.04.2022
2195 Clouds 15 1019 58 10000 5.66 50 02:58 07.04.2022
2196 Clouds 14 1019 60 10000 6.69 40 02:27 07.04.2022
2197 Clouds 12 1019 71 10000 7.72 40 00:28 07.04.2022
2198 Clouds 12 1018 70 10000 5.66 10 22:52 06.04.2022
2199 Clouds 12 1017 70 10000 5.14 20 22:30 06.04.2022
2200 Clouds 12 1017 71 10000 5.14 20 21:45 06.04.2022
2201 Clear 13 1017 74 10000 4.63 360 20:40 06.04.2022
2202 Clear 13 1017 75 10000 4.63 10 19:57 06.04.2022
2203 Clear 13 1016 78 10000 3.09 10 18:52 06.04.2022
2204 Clear 14 1016 78 10000 3.09 10 18:33 06.04.2022
2205 Clear 14 1016 78 10000 2.06 310 17:35 06.04.2022
2206 Clear 14 1016 76 10000 2.06 150 16:39 06.04.2022
2207 Clear 15 1016 72 10000 2.06 180 15:49 06.04.2022
2208 Clear 15 1016 68 10000 2.06 180 15:30 06.04.2022
2209 Clouds 17 1016 60 10000 4.12 180 13:30 06.04.2022
2210 Clouds 17 1015 59 10000 4.12 180 12:28 06.04.2022
2211 Clouds 19 1014 53 10000 6.17 190 10:57 06.04.2022
2212 Clouds 19 1014 52 10000 5.66 180 10:32 06.04.2022
2213 Clouds 20 1013 53 10000 6.69 180 09:43 06.04.2022
2214 Clouds 20 1014 55 10000 7.72 180 08:39 06.04.2022
2215 Clouds 20 1014 53 10000 7.2 180 07:56 06.04.2022
2216 Clouds 20 1017 45 10000 6.17 170 05:23 06.04.2022
2217 Clouds 13 1019 86 10000 2.57 190 23:58 05.04.2022
2218 Clouds 12 1019 88 10000 2.57 180 23:33 05.04.2022
2219 Clouds 12 1019 88 10000 1.03 0 21:48 05.04.2022
2220 Clouds 12 1019 88 10000 1.03 0 21:48 05.04.2022
2221 Clouds 12 1019 88 10000 1.54 140 20:58 05.04.2022
2222 Clouds 12 1020 87 10000 2.57 160 20:23 05.04.2022
2223 Clouds 12 1020 85 10000 1.54 130 18:28 05.04.2022
2224 Clouds 12 1020 84 10000 2.06 110 17:20 05.04.2022
2225 Clouds 13 1021 82 10000 1.54 120 16:42 05.04.2022
2226 Clouds 13 1021 82 10000 1.54 100 15:51 05.04.2022
2227 Clouds 13 1022 81 10000 1.54 100 15:30 05.04.2022
2228 Clouds 13 1021 79 10000 4.12 140 13:46 05.04.2022
2229 Clouds 14 1021 76 10000 3.6 120 12:29 05.04.2022
2230 Clouds 14 1020 72 10000 3.09 100 11:43 05.04.2022
2231 Clouds 14 1020 71 10000 3.09 100 11:24 05.04.2022
2232 Clouds 16 1019 69 10000 5.14 80 09:31 05.04.2022
2233 Clouds 17 1019 63 10000 5.14 90 08:33 05.04.2022
2234 Clouds 13 1022 80 10000 8.23 340 03:50 05.04.2022
2235 Clouds 10 1021 80 10000 8.75 360 23:42 04.04.2022
2236 Clouds 9 1020 82 10000 9.77 350 22:37 04.04.2022
2237 Clouds 9 1020 87 10000 10.29 360 21:51 04.04.2022
2238 Clouds 9 1020 88 10000 10.29 360 21:20 04.04.2022
2239 Clouds 9 1020 87 10000 10.8 350 20:47 04.04.2022
2240 Rain 9 1020 87 10000 11.32 350 19:30 04.04.2022
2241 Rain 9 1020 89 10000 11.32 350 18:44 04.04.2022
2242 Rain 9 1021 90 10000 11.83 350 17:21 04.04.2022
2243 Rain 9 1021 90 10000 12.35 350 16:34 04.04.2022
2244 Rain 9 1021 90 10000 11.83 350 15:34 04.04.2022
2245 Rain 9 1021 91 10000 11.83 350 14:49 04.04.2022
2246 Rain 9 1021 92 10000 12.35 350 14:31 04.04.2022
2247 Rain 9 1021 92 8000 12.86 350 13:18 04.04.2022
2248 Rain 9 1021 93 8000 11.83 350 11:29 04.04.2022
2249 Rain 9 1021 93 8000 9.26 330 10:29 04.04.2022
2250 Rain 10 1022 91 7000 9.26 340 07:36 04.04.2022
2251 Rain 9 1026 94 6000 8.75 340 03:18 04.04.2022
2252 Rain 8 1026 93 8000 8.75 340 23:48 03.04.2022
2253 Rain 8 1026 93 10000 8.23 330 22:31 03.04.2022
2254 Rain 7 1027 93 10000 9.26 330 21:37 03.04.2022
2255 Rain 7 1027 93 10000 8.75 330 20:40 03.04.2022
2256 Rain 7 1027 92 10000 8.23 330 19:45 03.04.2022
2257 Rain 7 1028 93 10000 6.17 320 18:29 03.04.2022
2258 Rain 8 1028 92 10000 7.2 330 17:44 03.04.2022
2259 Rain 8 1029 92 10000 8.23 330 16:50 03.04.2022
2260 Rain 8 1029 93 10000 8.23 340 16:31 03.04.2022
2261 Rain 8 1029 91 10000 7.2 330 14:32 03.04.2022
2262 Rain 8 1029 92 8000 6.17 330 13:45 03.04.2022
2263 Rain 9 1029 92 10000 6.69 330 12:21 03.04.2022
2264 Rain 9 1028 90 5000 7.2 340 10:58 03.04.2022
2265 Rain 9 1028 87 6000 6.17 340 09:36 03.04.2022
2266 Mist 9 1028 86 8000 6.69 350 07:37 03.04.2022
2267 Rain 10 1030 78 10000 5.14 360 04:37 03.04.2022
2268 Rain 8 1030 71 10000 5.66 350 00:41 03.04.2022
2269 Clouds 8 1029 72 10000 5.66 360 22:57 02.04.2022
2270 Rain 8 1029 71 10000 5.14 340 21:58 02.04.2022
2271 Clouds 8 1029 71 10000 4.12 330 21:36 02.04.2022
2272 Rain 8 1029 69 10000 5.14 350 21:18 02.04.2022
2273 Rain 9 1028 66 10000 3.6 10 19:32 02.04.2022
2274 Clouds 9 1028 66 10000 3.6 10 19:32 02.04.2022
2275 Rain 9 1028 62 10000 4.63 60 18:21 02.04.2022
2276 Rain 9 1029 61 10000 4.12 30 17:53 02.04.2022
2277 Clouds 9 1028 63 10000 4.12 90 16:25 02.04.2022
2278 Clouds 9 1028 62 10000 5.14 110 15:21 02.04.2022
2279 Clouds 9 1028 61 10000 5.66 110 14:49 02.04.2022
2280 Clouds 9 1028 61 10000 5.66 110 14:49 02.04.2022
2281 Clouds 9 1028 59 10000 6.69 120 13:35 02.04.2022
2282 Clouds 10 1028 58 10000 6.17 130 12:47 02.04.2022
2283 Clouds 10 1027 55 10000 6.69 110 11:31 02.04.2022
2284 Clouds 12 1026 42 10000 6.17 120 09:30 02.04.2022
2285 Clouds 12 1027 36 10000 3.6 130 06:51 02.04.2022
2286 Clouds 10 1029 37 10000 3.6 50 03:53 02.04.2022
2287 Clouds 6 1029 50 10000 5.14 40 23:58 01.04.2022
2288 Clouds 6 1029 52 10000 5.14 40 23:30 01.04.2022
2289 Clouds 6 1027 49 10000 8.23 10 21:43 01.04.2022
2290 Clouds 6 1027 47 10000 8.23 350 20:52 01.04.2022
2291 Clouds 6 1026 45 10000 7.72 350 20:30 01.04.2022
2292 Clouds 6 1026 47 10000 8.75 350 19:37 01.04.2022
2293 Clouds 6 1026 47 10000 9.26 350 18:51 01.04.2022
2294 Clouds 6 1026 45 10000 8.75 360 17:54 01.04.2022
2295 Clouds 6 1026 45 10000 7.72 350 17:34 01.04.2022
2296 Clouds 7 1025 39 10000 7.72 360 15:42 01.04.2022
2297 Clouds 7 1025 36 10000 7.2 10 14:26 01.04.2022
2298 Clouds 8 1025 34 10000 9.26 350 13:34 01.04.2022
2299 Clouds 8 1024 32 10000 8.23 360 12:33 01.04.2022
2300 Clouds 8 1024 32 10000 8.23 360 12:33 01.04.2022
2301 Clouds 9 1023 30 10000 9.77 360 11:44 01.04.2022
2302 Clouds 11 1021 24 10000 8.75 360 10:19 01.04.2022
2303 Clouds 12 1021 23 10000 10.29 360 09:29 01.04.2022
2304 Clouds 11 1021 42 10000 7.2 350 06:55 01.04.2022
2305 Clouds 9 1022 61 10000 5.66 350 04:53 01.04.2022
2306 Clouds 9 1022 64 10000 5.66 350 04:34 01.04.2022
2307 Rain 5 1022 88 10000 7.2 70 01:59 01.04.2022
2308 Rain 5 1021 86 10000 8.75 30 00:44 01.04.2022
2309 Rain 5 1020 91 8000 8.75 30 21:55 31.03.2022
2310 Rain 6 1020 90 8000 8.75 30 21:33 31.03.2022
2311 Rain 7 1019 91 4500 10.29 40 20:30 31.03.2022
2312 Rain 7 1018 91 7000 10.29 40 19:50 31.03.2022
2313 Rain 8 1017 92 7000 10.29 50 18:52 31.03.2022
2314 Rain 9 1017 91 7000 9.26 30 17:54 31.03.2022
2315 Rain 10 1017 90 10000 9.26 50 16:40 31.03.2022
2316 Rain 10 1017 90 7000 9.26 40 15:50 31.03.2022
2317 Rain 11 1017 88 10000 7.72 30 15:21 31.03.2022
2318 Rain 12 1016 88 10000 7.2 50 14:44 31.03.2022
2319 Rain 13 1016 80 10000 8.75 70 13:27 31.03.2022
2320 Clouds 15 1014 71 10000 6.17 80 11:29 31.03.2022
2321 Clouds 15 1014 70 10000 5.66 90 10:19 31.03.2022
2322 Rain 17 1013 64 10000 9.77 60 08:52 31.03.2022
2323 Rain 20 1012 59 10000 3.6 160 07:24 31.03.2022
2324 Clouds 16 1014 75 10000 5.66 200 00:46 31.03.2022
2325 Clouds 14 1014 81 10000 5.66 200 23:23 30.03.2022
2326 Clear 14 1016 81 10000 5.66 200 21:50 30.03.2022
2327 Clear 14 1015 81 10000 5.66 200 21:27 30.03.2022
2328 Clouds 14 1016 80 10000 5.14 230 20:22 30.03.2022
2329 Clouds 14 1017 82 10000 6.69 220 19:43 30.03.2022
2330 Clear 15 1017 82 10000 6.17 200 18:41 30.03.2022
2331 Clouds 15 1017 84 10000 6.69 200 17:50 30.03.2022
2332 Clouds 15 1018 85 10000 6.17 200 16:58 30.03.2022
2333 Clouds 15 1019 86 10000 5.14 190 16:39 30.03.2022
2334 Clouds 15 1019 85 10000 5.14 190 15:38 30.03.2022
2335 Clouds 16 1020 83 10000 6.17 200 14:22 30.03.2022
2336 Clouds 16 1020 82 10000 6.17 200 13:20 30.03.2022
2337 Clouds 16 1019 81 10000 7.72 200 11:55 30.03.2022
2338 Clouds 17 1020 79 10000 7.72 190 10:48 30.03.2022
2339 Clouds 18 1020 74 10000 8.23 180 09:30 30.03.2022
2340 Clouds 19 1020 67 7000 9.77 180 07:59 30.03.2022
2341 Clouds 19 1023 63 10000 6.17 170 05:41 30.03.2022
2342 Clouds 19 1023 64 10000 6.17 170 05:23 30.03.2022
2343 Clouds 11 1026 73 8000 1.54 70 00:43 30.03.2022
2344 Mist 10 1026 75 4500 0.45 71 22:38 29.03.2022
2345 Mist 10 1026 71 10000 1.03 0 21:47 29.03.2022
2346 Clouds 10 1025 70 10000 1.54 60 20:55 29.03.2022
2347 Clouds 10 1026 70 10000 2.06 10 20:25 29.03.2022
2348 Clouds 10 1026 70 10000 2.57 20 19:27 29.03.2022
2349 Clouds 10 1027 68 10000 1.54 70 18:53 29.03.2022
2350 Clouds 10 1027 67 10000 2.06 20 17:40 29.03.2022
2351 Clouds 10 1028 67 10000 1.54 40 16:59 29.03.2022
2352 Clouds 10 1028 65 10000 3.09 30 16:25 29.03.2022
2353 Clouds 10 1029 63 10000 2.06 20 14:58 29.03.2022
2354 Clouds 10 1029 62 10000 2.57 30 14:39 29.03.2022
2355 Rain 11 1029 60 10000 3.09 20 13:33 29.03.2022
2356 Clouds 11 1028 56 10000 3.6 20 11:58 29.03.2022
2357 Rain 11 1029 54 10000 4.12 30 10:59 29.03.2022
2358 Clouds 11 1029 54 10000 4.63 20 09:50 29.03.2022
2359 Rain 11 1029 51 10000 5.14 20 08:32 29.03.2022
2360 Clouds 11 1030 49 10000 2.57 30 05:44 29.03.2022
2361 Clouds 10 1031 47 10000 4.63 360 01:31 29.03.2022
2362 Clouds 10 1030 46 10000 5.66 10 23:26 28.03.2022
2363 Clouds 10 1030 45 10000 6.17 20 22:55 28.03.2022
2364 Clouds 10 1029 45 10000 6.17 20 22:30 28.03.2022
2365 Clouds 10 1029 45 10000 5.66 40 21:18 28.03.2022
2366 Clouds 10 1028 44 10000 5.66 40 20:32 28.03.2022
2367 Clouds 11 1028 46 10000 6.17 30 19:47 28.03.2022
2368 Clouds 11 1028 45 10000 5.66 50 19:29 28.03.2022
2369 Clouds 11 1028 44 10000 5.14 50 18:40 28.03.2022
2370 Clouds 11 1028 44 10000 5.66 50 17:40 28.03.2022
2371 Clouds 12 1027 44 10000 6.69 70 16:38 28.03.2022
2372 Clouds 12 1026 44 10000 6.69 80 14:53 28.03.2022
2373 Clouds 12 1026 42 10000 5.14 80 14:23 28.03.2022
2374 Clouds 13 1025 40 10000 6.17 80 12:51 28.03.2022
2375 Clouds 14 1023 43 10000 5.66 110 11:42 28.03.2022
2376 Clouds 15 1021 27 10000 6.17 340 09:47 28.03.2022
2377 Clouds 16 1021 27 10000 6.17 340 09:20 28.03.2022
2378 Clouds 17 1020 27 10000 5.66 350 08:23 28.03.2022
2379 Clouds 17 1019 29 10000 5.14 350 07:56 28.03.2022
2380 Clouds 17 1018 32 10000 5.14 10 05:55 28.03.2022
2381 Clouds 12 1015 70 10000 2.57 360 23:53 27.03.2022
2382 Clouds 11 1013 72 10000 4.63 340 22:25 27.03.2022
2383 Clouds 11 1013 72 10000 4.63 340 22:25 27.03.2022
2384 Clouds 11 1013 72 10000 4.12 10 21:42 27.03.2022
2385 Clouds 12 1012 72 10000 4.12 10 20:58 27.03.2022
2386 Clouds 12 1012 70 10000 4.63 360 20:18 27.03.2022
2387 Clouds 12 1011 69 10000 6.17 360 19:34 27.03.2022
2388 Clouds 11 1012 69 10000 7.2 360 18:29 27.03.2022
2389 Clouds 12 1011 72 10000 7.2 10 17:42 27.03.2022
2390 Clouds 12 1011 73 10000 7.2 10 17:24 27.03.2022
2391 Rain 13 1011 78 10000 6.17 40 15:39 27.03.2022
2392 Clouds 14 1010 77 10000 4.63 70 13:57 27.03.2022
2393 Clouds 14 1009 77 10000 5.14 70 12:50 27.03.2022
2394 Clouds 15 1008 69 10000 4.63 90 11:30 27.03.2022
2395 Clouds 16 1005 69 10000 8.75 120 09:37 27.03.2022
2396 Clouds 18 1003 71 10000 4.12 110 06:54 27.03.2022
2397 Clouds 19 1003 64 10000 6.17 350 01:55 27.03.2022
2398 Clouds 18 1002 66 10000 5.66 350 00:25 27.03.2022
2399 Clouds 14 1000 86 10000 2.06 340 22:45 26.03.2022
2400 Clouds 15 1000 85 10000 4.12 340 21:50 26.03.2022
2401 Clouds 15 999 86 10000 4.12 340 21:28 26.03.2022
2402 Clouds 14 998 89 10000 4.87 327 19:32 26.03.2022
2403 Clouds 15 999 90 10000 5.66 200 18:40 26.03.2022
2404 Clouds 17 999 95 8000 4.63 190 17:34 26.03.2022
2405 Mist 17 1000 95 3000 4.63 190 16:33 26.03.2022
2406 Rain 16 1002 95 3000 7.2 190 15:37 26.03.2022
2407 Rain 16 1005 95 3500 8.75 190 13:55 26.03.2022
2408 Rain 16 1005 94 2500 9.77 200 13:19 26.03.2022
2409 Clouds 16 1007 86 8000 9.77 190 11:48 26.03.2022
2410 Rain 17 1008 86 10000 12.86 190 10:44 26.03.2022
2411 Rain 17 1009 79 10000 9.77 200 08:48 26.03.2022
2412 Rain 18 1012 67 10000 8.23 190 06:38 26.03.2022
2413 Clouds 18 1013 71 10000 10.29 200 05:29 26.03.2022
2414 Clouds 16 1019 66 10000 6.69 190 00:54 26.03.2022
2415 Clouds 13 1021 73 10000 4.63 200 21:58 25.03.2022
2416 Clouds 14 1022 81 10000 6.69 220 20:57 25.03.2022
2417 Rain 14 1022 81 10000 5.66 200 20:26 25.03.2022
2418 Clouds 14 1022 75 10000 4.63 210 19:18 25.03.2022
2419 Clouds 14 1023 70 10000 3.09 190 18:22 25.03.2022
2420 Clouds 14 1024 67 10000 3.09 180 17:28 25.03.2022
2421 Clouds 14 1025 64 10000 5.14 200 16:27 25.03.2022
2422 Clouds 14 1026 62 10000 2.57 180 15:26 25.03.2022
2423 Clouds 13 1026 60 10000 4.12 170 13:28 25.03.2022
2424 Clouds 14 1027 45 10000 6.17 170 10:50 25.03.2022
2425 Clouds 16 1026 35 10000 7.2 200 09:28 25.03.2022
2426 Clouds 16 1026 35 10000 6.69 200 08:43 25.03.2022
2427 Clouds 17 1027 34 10000 5.66 190 07:35 25.03.2022
2428 Clouds 17 1027 34 10000 4.12 150 06:29 25.03.2022
2429 Clear 14 1027 44 10000 3.09 120 02:37 25.03.2022
2430 Clouds 8 1025 62 10000 1.54 250 22:56 24.03.2022
2431 Clouds 7 1025 61 10000 2.57 270 21:56 24.03.2022
2432 Clouds 7 1024 60 10000 2.57 270 20:51 24.03.2022
2433 Clouds 8 1023 59 10000 2.57 330 19:49 24.03.2022
2434 Clouds 9 1023 71 10000 2.06 320 18:44 24.03.2022
2435 Clouds 9 1023 77 10000 2.57 310 17:33 24.03.2022
2436 Clouds 9 1022 79 10000 1.54 160 16:24 24.03.2022
2437 Clouds 10 1021 77 10000 1.54 130 14:51 24.03.2022
2438 Clouds 10 1020 77 10000 1.54 120 14:22 24.03.2022
2439 Clouds 10 1020 72 10000 1.54 120 13:33 24.03.2022
2440 Clouds 11 1019 66 10000 4.63 170 12:24 24.03.2022
2441 Clouds 12 1017 51 10000 4.63 200 10:48 24.03.2022
2442 Clouds 13 1016 47 10000 2.57 190 09:24 24.03.2022
2443 Clouds 13 1015 51 10000 3.6 140 08:32 24.03.2022
2444 Clouds 13 1015 57 10000 5.14 140 05:30 24.03.2022
2445 Clouds 13 1015 57 10000 5.14 140 05:30 24.03.2022
2446 Clouds 6 1016 76 10000 4.63 10 23:59 23.03.2022
2447 Clouds 4 1014 87 10000 5.14 10 22:19 23.03.2022
2448 Clouds 5 1013 87 10000 5.66 20 21:21 23.03.2022
2449 Clouds 5 1013 88 10000 3.6 20 19:56 23.03.2022
2450 Clouds 4 1014 85 10000 4.12 20 19:25 23.03.2022
2451 Rain 4 1016 83 10000 4.63 10 17:48 23.03.2022
2452 Clouds 4 1016 83 10000 4.63 10 17:24 23.03.2022
2453 Clouds 4 1015 85 10000 6.69 20 15:25 23.03.2022
2454 Rain 4 1015 83 10000 6.69 20 14:47 23.03.2022
2455 Rain 6 1017 55 10000 4.12 40 13:30 23.03.2022
2456 Rain 8 1017 45 10000 5.66 50 11:24 23.03.2022
2457 Clouds 10 1017 44 10000 3.09 60 08:29 23.03.2022
2458 Clouds 10 1018 37 10000 4.63 30 05:50 23.03.2022
2459 Clouds 7 1021 53 10000 5.14 360 02:28 23.03.2022
2460 Clouds 4 1022 77 10000 3.6 360 00:26 23.03.2022
2461 Clouds 4 1022 77 10000 3.6 360 00:26 23.03.2022
2462 Clouds 2 1021 86 10000 6.69 10 21:52 22.03.2022
2463 Clouds 2 1021 86 10000 5.66 20 21:23 22.03.2022
2464 Clouds 2 1021 85 10000 8.75 10 20:23 22.03.2022
2465 Clouds 2 1021 84 10000 6.69 10 19:27 22.03.2022
2466 Clouds 2 1020 84 10000 7.72 10 18:48 22.03.2022
2467 Clouds 2 1021 88 10000 6.17 10 17:44 22.03.2022
2468 Clouds 2 1020 87 10000 6.69 10 16:58 22.03.2022
2469 Clouds 3 1021 85 10000 9.26 20 15:42 22.03.2022
2470 Clouds 3 1020 85 10000 9.26 20 15:20 22.03.2022
2471 Clouds 3 1021 86 10000 9.26 20 14:44 22.03.2022
2472 Clouds 3 1021 87 10000 9.77 30 13:42 22.03.2022
2473 Clouds 3 1020 90 10000 8.75 30 12:18 22.03.2022
2474 Clouds 3 1019 89 10000 7.2 20 11:20 22.03.2022
2475 Clouds 3 1019 91 10000 8.75 20 09:42 22.03.2022
2476 Snow 2 1020 92 4500 9.26 20 07:35 22.03.2022
2477 Rain 3 1020 91 7000 6.69 20 03:58 22.03.2022
2478 Rain 4 1020 91 10000 7.2 20 01:27 22.03.2022
2479 Rain 5 1020 90 10000 10.29 30 22:57 21.03.2022
2480 Rain 6 1020 90 7000 7.2 10 21:39 21.03.2022
2481 Rain 6 1020 88 7000 7.2 10 20:44 21.03.2022
2482 Rain 7 1020 87 9000 6.69 10 20:23 21.03.2022
2483 Rain 7 1020 85 10000 6.69 30 19:48 21.03.2022
2484 Rain 8 1020 79 10000 6.69 30 18:59 21.03.2022
2485 Rain 9 1020 73 10000 5.66 30 17:36 21.03.2022
2486 Clouds 10 1020 68 10000 5.14 50 16:59 21.03.2022
2487 Rain 10 1020 67 10000 4.63 120 16:35 21.03.2022
2488 Clouds 10 1020 65 10000 4.63 130 15:44 21.03.2022
2489 Clouds 11 1020 65 10000 4.12 130 14:47 21.03.2022
2490 Clouds 10 1020 66 10000 4.12 140 13:27 21.03.2022
2491 Clouds 11 1021 62 10000 5.66 140 12:22 21.03.2022
2492 Clouds 11 1020 57 10000 6.17 120 11:34 21.03.2022
2493 Clouds 12 1019 40 10000 3.6 180 09:54 21.03.2022
2494 Clouds 13 1020 44 10000 3.09 150 07:54 21.03.2022
2495 Clouds 12 1020 49 10000 4.12 140 06:31 21.03.2022
2496 Clouds 10 1022 57 10000 3.09 10 02:24 21.03.2022
2497 Clouds 7 1021 69 10000 5.14 60 23:32 20.03.2022
2498 Clouds 7 1020 68 10000 5.14 20 22:42 20.03.2022
2499 Clouds 7 1019 70 10000 4.63 20 21:49 20.03.2022
2500 Clouds 7 1019 71 10000 4.63 30 21:20 20.03.2022
2501 Clouds 7 1018 71 10000 5.14 20 20:42 20.03.2022
2502 Clouds 7 1018 71 10000 5.66 10 19:56 20.03.2022
2503 Clouds 7 1018 70 10000 5.66 40 19:26 20.03.2022
2504 Clouds 8 1017 64 10000 6.17 50 17:51 20.03.2022
2505 Clouds 8 1018 64 10000 6.17 50 17:29 20.03.2022
2506 Rain 8 1017 63 10000 7.72 60 16:46 20.03.2022
2507 Clouds 10 1016 62 10000 7.2 60 15:27 20.03.2022
2508 Rain 11 1015 56 10000 7.72 60 13:49 20.03.2022
2509 Clouds 12 1014 53 10000 5.66 90 12:22 20.03.2022
2510 Clouds 13 1013 36 10000 1.54 90 10:42 20.03.2022
2511 Clouds 13 1011 35 10000 3.09 20 08:42 20.03.2022
2512 Clouds 14 1011 34 10000 4.12 30 06:55 20.03.2022
2513 Clouds 14 1012 36 10000 6.17 350 04:23 20.03.2022
2514 Clouds 11 1011 52 10000 6.69 350 01:29 20.03.2022
2515 Clouds 9 1011 63 10000 4.63 340 00:37 20.03.2022
2516 Clouds 7 1009 78 10000 2.06 340 22:56 19.03.2022
2517 Clouds 7 1008 79 10000 1.34 319 21:27 19.03.2022
2518 Clouds 7 1007 80 10000 1.03 0 20:28 19.03.2022
2519 Clouds 7 1005 87 10000 4.12 110 18:58 19.03.2022
2520 Clouds 7 1005 84 10000 4.63 90 18:23 19.03.2022
2521 Clouds 7 1005 84 10000 4.63 90 17:35 19.03.2022
2522 Clouds 8 1003 88 10000 5.66 70 15:43 19.03.2022
2523 Clouds 8 1002 89 10000 7.72 10 14:34 19.03.2022
2524 Rain 7 1000 89 6000 12.86 330 12:59 19.03.2022
2525 Rain 8 1000 88 8000 12.35 340 12:39 19.03.2022
2526 Rain 9 998 88 4500 10.29 340 11:51 19.03.2022
2527 Mist 10 997 88 3000 7.72 360 10:45 19.03.2022
2528 Clouds 17 995 53 10000 4.12 210 06:29 19.03.2022
2529 Clouds 15 996 59 10000 4.63 180 03:24 19.03.2022
2530 Clouds 12 995 72 10000 3.6 170 01:41 19.03.2022
2531 Clouds 9 995 88 10000 0.51 0 23:43 18.03.2022
2532 Clouds 6 993 93 10000 3.09 10 22:27 18.03.2022
2533 Clouds 6 993 94 10000 3.09 80 21:37 18.03.2022
2534 Clouds 6 992 94 10000 3.09 300 19:51 18.03.2022
2535 Clouds 6 993 94 10000 2.06 310 19:21 18.03.2022
2536 Clouds 5 994 94 9000 8.23 330 17:50 18.03.2022
2537 Rain 5 995 94 6000 8.23 330 16:48 18.03.2022
2538 Rain 4 999 93 6000 8.23 340 14:51 18.03.2022
2539 Rain 4 1000 93 5000 10.29 340 14:21 18.03.2022
2540 Rain 5 1005 94 6000 8.23 360 12:27 18.03.2022
2541 Rain 5 1008 92 6000 9.77 10 10:52 18.03.2022
2542 Rain 5 1010 94 6000 9.77 20 09:29 18.03.2022
2543 Rain 4 1011 89 10000 8.75 20 08:30 18.03.2022
2544 Rain 5 1014 87 10000 8.75 20 06:35 18.03.2022
2545 Clouds 6 1018 79 10000 7.72 30 02:51 18.03.2022
2546 Rain 6 1019 85 10000 9.26 30 00:23 18.03.2022
2547 Clouds 6 1020 86 10000 9.26 30 23:24 17.03.2022
2548 Clouds 6 1019 84 10000 8.75 30 22:24 17.03.2022
2549 Clouds 6 1020 85 10000 9.26 20 21:48 17.03.2022
2550 Rain 7 1019 88 10000 9.26 20 21:23 17.03.2022
2551 Clouds 7 1020 89 10000 8.23 20 20:44 17.03.2022
2552 Rain 7 1020 88 10000 9.26 30 19:48 17.03.2022
2553 Rain 8 1018 93 10000 9.77 30 19:28 17.03.2022
2554 Rain 8 1019 90 10000 9.77 30 18:46 17.03.2022
2555 Rain 10 1020 85 4000 7.72 60 16:58 17.03.2022
2556 Rain 11 1019 73 10000 8.23 80 15:44 17.03.2022
2557 Clouds 12 1019 72 10000 8.23 80 15:25 17.03.2022
2558 Clouds 12 1018 71 10000 6.17 50 14:38 17.03.2022
2559 Clouds 15 1018 72 10000 4.63 90 12:55 17.03.2022
2560 Clouds 16 1018 68 10000 4.63 90 12:25 17.03.2022
2561 Clouds 16 1017 65 10000 4.12 110 11:29 17.03.2022
2562 Clouds 17 1017 57 10000 3.09 160 10:30 17.03.2022
2563 Clouds 18 1015 42 10000 3.6 140 08:40 17.03.2022
2564 Clouds 19 1016 42 10000 3.09 150 07:36 17.03.2022
2565 Clouds 19 1016 39 10000 3.09 60 05:47 17.03.2022
2566 Clouds 15 1017 54 10000 1.03 0 01:37 17.03.2022
2567 Clouds 12 1017 59 10000 1.54 20 23:56 16.03.2022
2568 Clouds 11 1017 65 10000 1.03 0 22:50 16.03.2022
2569 Clear 11 1017 67 10000 1.54 80 22:32 16.03.2022
2570 Clouds 11 1015 67 10000 4.12 70 21:46 16.03.2022
2571 Clouds 11 1015 69 10000 3.09 30 20:26 16.03.2022
2572 Clouds 11 1014 71 10000 2.57 60 19:21 16.03.2022
2573 Clouds 12 1014 72 10000 2.57 90 18:38 16.03.2022
2574 Clouds 12 1014 71 10000 5.14 50 17:43 16.03.2022
2575 Clouds 12 1014 71 10000 4.12 60 17:25 16.03.2022
2576 Clouds 12 1013 72 10000 3.09 50 15:56 16.03.2022
2577 Clouds 14 1013 62 10000 5.14 30 14:28 16.03.2022
2578 Clouds 14 1011 68 10000 5.66 50 13:32 16.03.2022
2579 Clouds 16 1011 68 10000 9.26 40 11:58 16.03.2022
2580 Clouds 15 1011 71 10000 3.6 110 11:21 16.03.2022
2581 Clouds 17 1010 70 10000 4.12 140 10:27 16.03.2022
2582 Clouds 17 1010 67 10000 4.63 180 09:42 16.03.2022
2583 Clouds 20 1011 54 10000 5.66 160 06:27 16.03.2022
2584 Clouds 14 1015 54 10000 3.09 30 01:56 16.03.2022
2585 Clouds 12 1014 58 10000 4.12 60 22:51 15.03.2022
2586 Clouds 12 1014 59 10000 4.12 70 22:32 15.03.2022
2587 Clouds 12 1013 54 10000 4.12 60 20:36 15.03.2022
2588 Clouds 12 1012 53 10000 2.57 70 18:58 15.03.2022
2589 Clouds 12 1012 51 10000 1.03 30 17:35 15.03.2022
2590 Clouds 12 1012 53 10000 2.57 350 16:34 15.03.2022
2591 Clouds 13 1012 62 10000 2.06 40 15:21 15.03.2022
2592 Clouds 13 1011 61 10000 3.6 30 14:46 15.03.2022
2593 Clear 14 1012 53 10000 4.12 90 13:55 15.03.2022
2594 Clear 15 1011 46 10000 1.34 284 12:46 15.03.2022
2595 Clear 16 1010 39 10000 3.6 40 11:32 15.03.2022
2596 Clouds 18 1007 45 10000 4.63 30 09:54 15.03.2022
2597 Clouds 21 1006 39 10000 3.6 30 08:49 15.03.2022
2598 Clouds 21 1005 45 10000 3.09 20 07:53 15.03.2022
2599 Clouds 21 1005 46 10000 3.09 20 07:35 15.03.2022
2600 Clouds 17 1005 60 10000 3.6 10 05:42 15.03.2022
2601 Rain 8 1008 86 10000 3.6 360 23:58 14.03.2022
2602 Rain 8 1008 87 8000 5.66 350 23:25 14.03.2022
2603 Rain 9 1007 86 4500 4.12 10 22:30 14.03.2022
2604 Clouds 9 1006 84 10000 3.6 60 21:35 14.03.2022
2605 Clouds 9 1007 83 10000 4.12 70 20:54 14.03.2022
2606 Clouds 9 1007 81 10000 4.12 40 20:23 14.03.2022
2607 Mist 9 1008 81 4500 4.12 30 19:21 14.03.2022
2608 Clouds 10 1010 78 10000 5.66 360 17:55 14.03.2022
2609 Clouds 10 1010 76 10000 6.17 20 17:24 14.03.2022
2610 Clouds 10 1013 87 10000 6.17 30 16:18 14.03.2022
2611 Clouds 11 1012 73 10000 8.23 50 14:41 14.03.2022
2612 Clouds 12 1012 76 10000 9.77 70 12:54 14.03.2022
2613 Clouds 16 1010 70 10000 9.77 50 10:54 14.03.2022
2614 Clouds 20 1008 62 10000 7.2 160 09:55 14.03.2022
2615 Clouds 21 1009 55 10000 6.17 180 09:22 14.03.2022
2616 Clouds 21 1009 53 10000 6.17 180 08:57 14.03.2022
2617 Clear 23 1008 45 10000 5.66 140 07:43 14.03.2022
2618 Clear 23 1009 49 10000 6.69 180 05:46 14.03.2022
2619 Clouds 18 1010 73 10000 2.57 260 01:58 14.03.2022
2620 Clouds 17 1010 81 10000 4.12 270 01:29 14.03.2022
2621 Mist 14 1009 86 7000 10.29 160 22:56 13.03.2022
2622 Clouds 16 1010 70 10000 10.8 220 21:31 13.03.2022
2623 Rain 17 1010 71 10000 7.2 210 20:59 13.03.2022
2624 Rain 17 1009 71 10000 8.75 200 20:37 13.03.2022
2625 Rain 17 1009 70 10000 8.75 200 20:19 13.03.2022
2626 Rain 17 1008 73 10000 9.26 210 19:39 13.03.2022
2627 Clouds 16 1009 74 10000 8.75 200 19:19 13.03.2022
2628 Clouds 16 1009 74 10000 10.29 210 18:39 13.03.2022
2629 Rain 16 1010 71 10000 11.83 220 17:47 13.03.2022
2630 Clouds 16 1011 70 10000 12.86 210 17:22 13.03.2022
2631 Clouds 16 1011 67 10000 11.32 210 16:43 13.03.2022
2632 Clouds 16 1011 66 10000 11.32 210 16:20 13.03.2022
2633 Clouds 17 1011 65 10000 9.26 230 15:33 13.03.2022
2634 Clouds 17 1012 64 10000 7.2 210 13:53 13.03.2022
2635 Clouds 17 1013 65 10000 7.72 210 13:26 13.03.2022
2636 Clouds 17 1013 64 10000 8.23 210 12:20 13.03.2022
2637 Clouds 18 1013 61 10000 8.23 200 11:36 13.03.2022
2638 Clouds 18 1013 57 10000 8.23 200 10:48 13.03.2022
2639 Clouds 18 1013 56 10000 7.72 200 10:25 13.03.2022
2640 Clouds 18 1013 55 10000 6.69 170 09:41 13.03.2022
2641 Clouds 18 1013 61 10000 5.14 160 08:48 13.03.2022
2642 Clouds 19 1013 58 7000 3.6 180 07:57 13.03.2022
2643 Clouds 17 1015 54 10000 2.57 140 05:55 13.03.2022
2644 Clouds 16 1018 52 10000 2.57 150 03:26 13.03.2022
2645 Clouds 12 1019 58 10000 2.57 360 00:30 13.03.2022
2646 Clouds 10 1019 65 10000 3.6 10 22:44 12.03.2022
2647 Clouds 11 1018 72 10000 5.66 360 20:59 12.03.2022
2648 Clouds 11 1018 76 10000 4.63 20 19:57 12.03.2022
2649 Clouds 11 1018 76 10000 4.63 20 19:57 12.03.2022
2650 Clouds 11 1017 77 10000 4.63 10 19:38 12.03.2022
2651 Clouds 12 1017 74 10000 4.63 360 18:29 12.03.2022
2652 Clouds 12 1018 69 10000 4.63 30 17:39 12.03.2022
2653 Clouds 13 1018 63 10000 3.09 40 16:25 12.03.2022
2654 Clouds 13 1018 54 10000 2.57 60 15:24 12.03.2022
2655 Clouds 13 1018 54 10000 2.57 60 15:24 12.03.2022
2656 Clouds 13 1018 55 10000 2.06 40 14:52 12.03.2022
2657 Clouds 14 1017 50 10000 1.54 200 13:47 12.03.2022
2658 Clouds 16 1017 42 10000 2.57 200 12:18 12.03.2022
2659 Clear 16 1016 39 10000 3.6 210 11:45 12.03.2022
2660 Clear 16 1016 37 10000 3.6 210 11:19 12.03.2022
2661 Clear 18 1015 33 10000 5.66 200 09:58 12.03.2022
2662 Clear 18 1015 32 10000 5.66 200 09:38 12.03.2022
2663 Clear 20 1014 27 10000 4.63 180 07:50 12.03.2022
2664 Clouds 19 1015 35 10000 3.09 150 04:50 12.03.2022
2665 Clear 12 1015 60 10000 1.54 30 00:21 12.03.2022
2666 Clear 11 1016 64 10000 2.57 340 23:28 11.03.2022
2667 Clouds 9 1015 60 10000 2.57 300 21:47 11.03.2022
2668 Clouds 10 1014 57 10000 1.03 290 20:57 11.03.2022
2669 Clouds 10 1014 57 10000 1.54 270 20:37 11.03.2022
2670 Clouds 10 1013 56 10000 2.57 270 19:53 11.03.2022
2671 Clouds 11 1013 56 10000 2.57 290 19:26 11.03.2022
2672 Clouds 12 1014 56 10000 2.57 260 17:37 11.03.2022
2673 Clouds 12 1014 56 10000 3.09 270 17:18 11.03.2022
2674 Clouds 13 1014 56 10000 4.63 260 15:57 11.03.2022
2675 Clouds 14 1014 57 10000 7.72 230 14:22 11.03.2022
2676 Clouds 14 1014 49 10000 9.26 230 12:53 11.03.2022
2677 Clouds 14 1014 46 10000 7.72 230 12:22 11.03.2022
2678 Clouds 15 1014 43 10000 8.75 230 11:56 11.03.2022
2679 Clouds 15 1014 44 10000 7.72 200 10:24 11.03.2022
2680 Clouds 16 1014 46 10000 8.23 200 09:27 11.03.2022
2681 Clouds 17 1014 43 10000 9.26 200 08:24 11.03.2022
2682 Clouds 18 1014 41 10000 9.26 200 07:46 11.03.2022
2683 Clouds 17 1016 52 10000 6.69 190 06:22 11.03.2022
2684 Clouds 15 1019 47 8000 3.6 140 04:24 11.03.2022
2685 Clouds 8 1022 65 10000 2.06 20 00:21 11.03.2022
2686 Clouds 7 1022 67 10000 3.6 20 22:31 10.03.2022
2687 Clouds 7 1022 68 10000 3.6 10 21:50 10.03.2022
2688 Clouds 7 1022 68 10000 3.6 10 21:23 10.03.2022
2689 Clouds 8 1021 69 10000 4.12 10 19:54 10.03.2022
2690 Clouds 8 1021 69 10000 0.45 254 18:56 10.03.2022
2691 Clouds 9 1022 64 10000 3.09 50 17:36 10.03.2022
2692 Clouds 9 1022 67 10000 3.6 60 16:37 10.03.2022
2693 Clouds 9 1022 64 10000 3.6 100 15:27 10.03.2022
2694 Clouds 10 1022 61 10000 4.12 110 13:30 10.03.2022
2695 Clouds 10 1022 60 10000 4.63 130 12:35 10.03.2022
2696 Clouds 11 1021 58 10000 4.63 130 11:23 10.03.2022
2697 Clouds 13 1020 39 10000 4.12 180 09:28 10.03.2022
2698 Clouds 14 1020 34 10000 4.63 180 07:46 10.03.2022
2699 Clouds 13 1021 37 10000 3.09 160 04:59 10.03.2022
2700 Clear 10 1023 46 10000 3.6 40 01:53 10.03.2022
2701 Clouds 6 1023 63 10000 2.06 10 23:30 09.03.2022
2702 Clouds 6 1023 63 10000 2.06 320 21:56 09.03.2022
2703 Clouds 6 1022 63 10000 3.09 350 21:36 09.03.2022
2704 Clouds 6 1022 64 10000 3.6 360 20:31 09.03.2022
2705 Clouds 6 1021 65 10000 4.12 360 18:35 09.03.2022
2706 Clouds 7 1022 63 10000 4.12 10 17:28 09.03.2022
2707 Clouds 7 1022 64 10000 4.63 360 16:35 09.03.2022
2708 Clouds 7 1021 61 10000 4.12 20 15:32 09.03.2022
2709 Clouds 8 1022 57 10000 6.17 60 13:58 09.03.2022
2710 Clouds 8 1021 55 10000 6.69 60 12:59 09.03.2022
2711 Rain 9 1021 52 10000 6.69 70 12:19 09.03.2022
2712 Rain 10 1020 49 10000 6.69 70 11:36 09.03.2022
2713 Rain 11 1019 47 10000 5.14 110 10:39 09.03.2022
2714 Clouds 12 1018 39 10000 1.54 90 09:22 09.03.2022
2715 Clouds 12 1018 35 10000 3.09 170 08:42 09.03.2022
2716 Clouds 12 1019 37 10000 3.6 30 04:47 09.03.2022
2717 Clear 7 1021 58 10000 4.63 10 00:52 09.03.2022
2718 Clouds 5 1021 71 10000 4.63 10 23:18 08.03.2022
2719 Clouds 4 1020 75 10000 4.63 10 22:44 08.03.2022
2720 Clouds 4 1019 76 10000 5.14 20 21:26 08.03.2022
2721 Clouds 5 1019 79 10000 4.12 10 20:54 08.03.2022
2722 Clouds 5 1019 77 10000 6.69 50 19:55 08.03.2022
2723 Clouds 5 1018 75 10000 5.14 10 18:45 08.03.2022
2724 Clouds 5 1018 78 10000 4.63 10 17:50 08.03.2022
2725 Clouds 6 1018 77 10000 5.14 40 16:33 08.03.2022
2726 Clouds 7 1018 77 10000 4.63 50 14:21 08.03.2022
2727 Clouds 7 1018 75 10000 3.6 70 12:44 08.03.2022
2728 Clouds 8 1017 72 10000 5.14 50 11:45 08.03.2022
2729 Clouds 8 1017 72 10000 5.14 60 10:55 08.03.2022
2730 Clouds 8 1017 72 10000 5.66 70 10:22 08.03.2022
2731 Clouds 8 1015 73 10000 5.14 40 07:34 08.03.2022
2732 Clouds 7 1015 75 10000 6.17 360 05:44 08.03.2022
2733 Clouds 5 1018 71 10000 6.69 350 00:43 08.03.2022
2734 Clouds 5 1017 61 10000 5.14 350 22:23 07.03.2022
2735 Rain 6 1017 55 10000 6.17 350 21:35 07.03.2022
2736 Rain 6 1017 54 10000 5.14 360 20:53 07.03.2022
2737 Rain 6 1016 52 10000 5.14 350 20:22 07.03.2022
2738 Clouds 6 1016 48 10000 6.17 360 19:38 07.03.2022
2739 Clouds 6 1016 46 10000 5.14 340 18:47 07.03.2022
2740 Clouds 7 1017 43 10000 5.14 340 17:58 07.03.2022
2741 Clouds 7 1017 41 10000 5.14 10 16:56 07.03.2022
2742 Clouds 8 1017 39 10000 3.6 20 16:30 07.03.2022
2743 Clouds 8 1017 44 10000 3.09 130 14:31 07.03.2022
2744 Clouds 9 1016 39 10000 4.12 110 12:33 07.03.2022
2745 Clouds 10 1015 24 10000 3.6 200 10:45 07.03.2022
2746 Clouds 10 1015 24 10000 3.6 200 10:24 07.03.2022
2747 Clouds 13 1014 24 10000 1.34 323 06:35 07.03.2022
2748 Clouds 7 1014 29 10000 6.17 300 00:23 07.03.2022
2749 Clouds 5 1014 32 10000 6.17 300 23:41 06.03.2022
2750 Clouds 5 1014 32 10000 5.14 290 22:58 06.03.2022
2751 Clouds 5 1013 33 10000 7.2 300 22:24 06.03.2022
2752 Clouds 4 1012 35 10000 7.2 310 20:56 06.03.2022
2753 Clouds 5 1012 33 10000 7.72 310 20:28 06.03.2022
2754 Clouds 5 1012 33 10000 8.23 310 19:29 06.03.2022
2755 Clouds 5 1011 33 10000 8.23 310 18:25 06.03.2022
2756 Clouds 5 1011 34 10000 5.14 310 17:22 06.03.2022
2757 Clouds 5 1011 35 10000 5.14 300 16:44 06.03.2022
2758 Clouds 5 1011 35 10000 5.14 300 16:44 06.03.2022
2759 Clouds 5 1010 36 10000 7.2 310 16:20 06.03.2022
2760 Clouds 5 1010 35 10000 8.23 310 15:19 06.03.2022
2761 Clouds 5 1010 35 10000 8.75 320 14:41 06.03.2022
2762 Clouds 6 1010 35 10000 7.72 330 13:47 06.03.2022
2763 Clouds 6 1009 38 10000 8.23 330 12:36 06.03.2022
2764 Clouds 6 1008 38 10000 9.77 340 11:27 06.03.2022
2765 Clouds 7 1008 34 10000 9.26 340 10:30 06.03.2022
2766 Clouds 10 1005 21 10000 6.69 340 08:51 06.03.2022
2767 Clouds 11 1005 19 10000 6.69 340 08:27 06.03.2022
2768 Clouds 12 1003 22 10000 6.17 130 06:33 06.03.2022
2769 Clouds 9 1006 25 10000 5.66 350 01:32 06.03.2022
2770 Clear 7 1006 31 10000 7.2 340 00:33 06.03.2022
2771 Clear 6 1006 32 10000 7.72 330 23:46 05.03.2022
2772 Clear 6 1006 32 10000 7.72 330 23:18 05.03.2022
2773 Clear 5 1005 32 10000 10.29 330 22:31 05.03.2022
2774 Clear 6 1004 34 10000 10.8 330 21:24 05.03.2022
2775 Clear 7 1002 37 10000 9.77 330 19:56 05.03.2022
2776 Clear 7 1002 41 10000 11.32 350 18:56 05.03.2022
2777 Clear 7 1002 41 10000 10.8 350 18:36 05.03.2022
2778 Clouds 9 1002 41 10000 9.26 10 16:57 05.03.2022
2779 Clouds 10 1002 41 10000 5.66 330 15:49 05.03.2022
2780 Clouds 11 1001 41 10000 5.14 350 14:53 05.03.2022
2781 Clouds 12 1001 41 10000 5.66 340 14:34 05.03.2022
2782 Clear 13 1000 39 10000 4.63 210 13:35 05.03.2022
2783 Clear 15 999 42 10000 10.29 230 12:33 05.03.2022
2784 Clouds 15 999 43 10000 10.29 220 11:20 05.03.2022
2785 Clouds 15 999 42 10000 11.32 220 10:48 05.03.2022
2786 Clouds 16 998 38 10000 10.8 200 09:28 05.03.2022
2787 Clear 18 998 31 10000 10.29 210 07:59 05.03.2022
2788 Clear 17 999 38 10000 10.8 190 06:29 05.03.2022
2789 Clear 15 1003 42 10000 8.75 180 04:54 05.03.2022
2790 Clouds 7 1009 67 10000 3.09 20 23:59 04.03.2022
2791 Clouds 6 1009 67 10000 4.12 20 22:45 04.03.2022
2792 Clouds 6 1009 67 10000 4.12 20 22:24 04.03.2022
2793 Clouds 6 1010 65 10000 3.09 300 21:42 04.03.2022
2794 Clouds 6 1010 69 10000 1.54 350 20:36 04.03.2022
2795 Clouds 7 1010 68 10000 2.57 300 19:36 04.03.2022
2796 Clouds 7 1010 77 10000 2.06 330 18:47 04.03.2022
2797 Clouds 7 1011 77 10000 1.03 180 18:27 04.03.2022
2798 Clouds 8 1011 80 10000 1.54 140 17:29 04.03.2022
2799 Clouds 9 1012 71 10000 2.57 130 15:48 04.03.2022
2800 Clouds 9 1013 66 10000 1.54 120 14:45 04.03.2022
2801 Clouds 9 1014 64 10000 2.06 160 13:34 04.03.2022
2802 Clouds 9 1014 60 10000 5.14 150 11:59 04.03.2022
2803 Clouds 9 1014 59 10000 6.17 130 11:28 04.03.2022
2804 Clouds 9 1014 58 10000 6.17 120 10:24 04.03.2022
2805 Clouds 10 1014 52 10000 4.12 120 09:27 04.03.2022
2806 Clouds 11 1015 40 10000 5.14 150 07:47 04.03.2022
2807 Clouds 11 1016 33 10000 3.09 160 05:49 04.03.2022
2808 Clouds 7 1019 39 10000 3.6 50 01:23 04.03.2022
2809 Clouds 5 1019 44 10000 5.14 60 23:31 03.03.2022
2810 Clear 5 1018 46 10000 6.17 50 22:18 03.03.2022
2811 Clouds 5 1017 45 10000 5.66 50 21:36 03.03.2022
2812 Clouds 5 1017 45 10000 5.14 50 20:44 03.03.2022
2813 Clouds 6 1016 45 10000 5.14 60 19:22 03.03.2022
2814 Clouds 6 1015 42 10000 5.66 10 18:25 03.03.2022
2815 Clouds 6 1014 42 10000 7.72 10 17:31 03.03.2022
2816 Clouds 7 1014 43 10000 9.26 360 16:41 03.03.2022
2817 Clouds 7 1014 43 10000 9.26 360 16:41 03.03.2022
2818 Clouds 7 1013 43 10000 8.23 360 15:44 03.03.2022
2819 Clouds 8 1013 42 10000 8.75 350 14:44 03.03.2022
2820 Clouds 7 1013 41 10000 8.75 350 14:26 03.03.2022
2821 Clouds 9 1012 37 10000 1.34 296 12:35 03.03.2022
2822 Clouds 10 1011 34 10000 8.23 340 11:26 03.03.2022
2823 Clouds 11 1010 39 10000 5.14 340 10:38 03.03.2022
2824 Clouds 14 1007 52 10000 4.63 160 08:43 03.03.2022
2825 Clouds 14 1006 53 10000 5.14 160 06:58 03.03.2022
2826 Clouds 13 1007 53 10000 3.6 110 05:44 03.03.2022
2827 Clouds 8 1011 77 10000 1.54 70 00:30 03.03.2022
2828 Clouds 7 1010 82 10000 2.57 70 23:28 02.03.2022
2829 Clouds 6 1010 84 10000 2.57 10 22:44 02.03.2022
2830 Clouds 6 1010 84 10000 4.12 40 21:23 02.03.2022
2831 Clouds 6 1009 84 10000 3.6 20 20:30 02.03.2022
2832 Clouds 6 1009 84 10000 3.6 20 20:30 02.03.2022
2833 Clouds 7 1009 85 10000 5.14 40 19:45 02.03.2022
2834 Clouds 7 1009 85 10000 5.14 40 19:26 02.03.2022
2835 Clouds 7 1009 87 10000 7.2 30 18:39 02.03.2022
2836 Clouds 7 1009 87 10000 0.45 62 18:39 02.03.2022
2837 Clouds 8 1009 86 10000 6.69 20 17:45 02.03.2022
2838 Clouds 8 1009 86 10000 6.69 10 16:54 02.03.2022
2839 Clouds 8 1009 86 10000 8.23 20 16:36 02.03.2022
2840 Clouds 9 1009 81 10000 6.17 20 14:42 02.03.2022
2841 Clouds 10 1009 71 10000 4.12 80 13:23 02.03.2022
2842 Clouds 11 1009 69 10000 3.6 90 12:40 02.03.2022
2843 Clouds 11 1009 65 10000 5.14 110 11:38 02.03.2022
2844 Clouds 11 1008 65 10000 5.66 110 11:18 02.03.2022
2845 Clouds 12 1007 64 10000 5.66 100 09:41 02.03.2022
2846 Clouds 13 1007 57 10000 6.69 120 08:51 02.03.2022
2847 Clouds 14 1007 43 10000 4.12 150 07:25 02.03.2022
2848 Clouds 14 1009 37 10000 4.12 140 05:44 02.03.2022
2849 Clouds 14 1009 36 10000 4.12 140 05:44 02.03.2022
2850 Clouds 12 1010 43 10000 0.89 300 00:58 02.03.2022
2851 Clouds 9 1009 51 10000 5.14 360 23:46 01.03.2022
2852 Clouds 9 1008 57 10000 2.57 10 22:45 01.03.2022
2853 Clouds 8 1008 60 10000 3.6 10 21:56 01.03.2022
2854 Clouds 8 1008 60 10000 4.12 360 21:21 01.03.2022
2855 Clouds 9 1007 59 10000 4.63 360 20:24 01.03.2022
2856 Clouds 9 1006 57 10000 6.17 360 19:24 01.03.2022
2857 Clouds 9 1006 55 10000 5.66 340 18:37 01.03.2022
2858 Clouds 9 1006 54 10000 5.66 340 18:18 01.03.2022
2859 Clouds 10 1006 52 10000 4.12 350 16:54 01.03.2022
2860 Clouds 10 1006 51 10000 2.57 20 16:30 01.03.2022
2861 Clouds 11 1006 50 10000 3.09 40 15:32 01.03.2022
2862 Clouds 12 1006 49 10000 2.57 30 14:34 01.03.2022
2863 Clouds 12 1007 49 10000 1.03 40 13:52 01.03.2022
2864 Clouds 12 1007 45 10000 2.57 10 13:24 01.03.2022
2865 Clouds 12 1007 46 10000 3.09 40 12:30 01.03.2022
2866 Clouds 14 1008 44 10000 6.17 210 10:34 01.03.2022
2867 Clouds 15 1007 41 10000 9.26 240 08:41 01.03.2022
2868 Clouds 16 1007 37 10000 12.86 220 07:44 01.03.2022
2869 Clouds 16 1008 43 10000 6.17 190 05:49 01.03.2022
2870 Clouds 11 1014 48 10000 2.06 40 02:33 01.03.2022
2871 Clouds 8 1016 54 10000 2.57 320 00:34 01.03.2022
2872 Clouds 6 1016 59 10000 2.57 310 23:29 28.02.2022
2873 Clouds 6 1016 57 10000 2.06 310 21:59 28.02.2022
2874 Clear 7 1017 55 10000 2.06 290 21:25 28.02.2022
2875 Clear 7 1017 59 10000 2.57 330 19:55 28.02.2022
2876 Clouds 7 1017 58 10000 2.57 20 19:33 28.02.2022
2877 Clouds 8 1017 60 10000 2.57 40 18:43 28.02.2022
2878 Clouds 8 1018 62 10000 1.03 30 17:30 28.02.2022
2879 Clear 9 1018 63 10000 1.03 90 16:33 28.02.2022
2880 Clear 9 1018 61 10000 2.06 130 15:24 28.02.2022
2881 Clear 10 1019 60 10000 3.6 170 14:32 28.02.2022
2882 Clear 10 1019 55 10000 3.6 180 13:47 28.02.2022
2883 Clear 10 1019 52 10000 4.63 200 12:48 28.02.2022
2884 Clear 11 1019 48 10000 5.66 200 11:58 28.02.2022
2885 Clear 12 1019 37 10000 4.63 210 10:49 28.02.2022
2886 Clear 12 1018 34 10000 4.63 200 10:21 28.02.2022
2887 Clear 13 1018 27 10000 3.6 200 09:33 28.02.2022
2888 Clear 14 1017 25 10000 4.63 130 08:44 28.02.2022
2889 Clear 14 1017 25 10000 5.14 130 07:43 28.02.2022
2890 Clear 14 1018 36 10000 4.63 160 05:25 28.02.2022
2891 Clouds 13 1018 37 10000 4.12 150 04:27 28.02.2022
2892 Clouds 7 1020 36 10000 7.2 340 23:45 27.02.2022
2893 Clouds 6 1019 38 10000 5.14 330 22:36 27.02.2022
2894 Clouds 5 1018 40 10000 4.63 330 21:52 27.02.2022
2895 Clouds 5 1018 40 10000 4.63 330 21:27 27.02.2022
2896 Clouds 5 1018 40 10000 6.17 340 20:40 27.02.2022
2897 Clouds 5 1017 41 10000 6.17 340 19:59 27.02.2022
2898 Clouds 6 1017 39 10000 6.69 340 19:27 27.02.2022
2899 Clouds 6 1017 40 10000 8.23 340 18:56 27.02.2022
2900 Clouds 5 1017 39 10000 6.69 330 17:57 27.02.2022
2901 Clouds 6 1017 40 10000 6.17 330 17:26 27.02.2022
2902 Clouds 6 1016 40 10000 5.14 330 16:22 27.02.2022
2903 Clouds 7 1016 38 10000 5.14 330 14:28 27.02.2022
2904 Clouds 8 1014 37 10000 8.75 350 12:35 27.02.2022
2905 Clouds 9 1014 36 10000 7.72 360 11:36 27.02.2022
2906 Clouds 10 1013 30 10000 8.23 350 10:36 27.02.2022
2907 Clouds 11 1012 28 10000 8.23 340 09:52 27.02.2022
2908 Clouds 12 1011 27 10000 9.26 340 09:21 27.02.2022
2909 Clouds 14 1010 23 10000 10.29 340 08:44 27.02.2022
2910 Clouds 16 1007 25 10000 7.72 340 05:43 27.02.2022
2911 Clouds 15 1007 27 10000 10.8 230 03:26 27.02.2022
2912 Clear 6 1010 58 10000 2.06 20 23:52 26.02.2022
2913 Clouds 5 1010 59 10000 2.06 330 22:42 26.02.2022
2914 Clouds 6 1010 59 10000 2.06 330 21:27 26.02.2022
2915 Clear 6 1010 60 10000 2.06 290 20:41 26.02.2022
2916 Clear 6 1010 59 10000 2.06 270 19:56 26.02.2022
2917 Clear 6 1010 55 10000 4.12 300 19:33 26.02.2022
2918 Clear 7 1011 53 10000 6.69 250 18:33 26.02.2022
2919 Clear 8 1011 53 10000 6.17 250 17:36 26.02.2022
2920 Clear 8 1012 46 10000 6.17 240 16:39 26.02.2022
2921 Clear 9 1012 44 10000 9.26 230 15:38 26.02.2022
2922 Clear 9 1012 46 10000 8.75 240 15:19 26.02.2022
2923 Clear 9 1012 46 10000 8.75 240 14:42 26.02.2022
2924 Clouds 9 1013 46 10000 7.2 220 13:53 26.02.2022
2925 Clouds 10 1013 47 10000 0.89 196 12:53 26.02.2022
2926 Clouds 10 1014 49 10000 6.69 200 11:53 26.02.2022
2927 Clouds 11 1014 48 10000 6.69 200 11:26 26.02.2022
2928 Clouds 11 1014 49 10000 6.69 200 10:19 26.02.2022
2929 Clouds 13 1014 50 10000 7.72 170 08:35 26.02.2022
2930 Clear 13 1016 40 10000 8.23 190 06:40 26.02.2022
2931 Clouds 5 1021 45 10000 3.09 310 00:25 26.02.2022
2932 Clouds 4 1021 48 10000 4.12 320 22:44 25.02.2022
2933 Clear 4 1020 47 10000 3.6 310 21:33 25.02.2022
2934 Clear 4 1020 46 10000 4.63 320 20:57 25.02.2022
2935 Clear 5 1020 45 10000 5.14 330 20:28 25.02.2022
2936 Clouds 5 1020 44 10000 4.12 320 18:35 25.02.2022
2937 Clouds 5 1020 43 10000 4.63 330 17:21 25.02.2022
2938 Clouds 6 1020 43 10000 4.12 330 16:20 25.02.2022
2939 Clear 6 1019 41 10000 6.17 340 15:42 25.02.2022
2940 Clear 6 1020 40 10000 6.17 340 15:19 25.02.2022
2941 Clear 7 1020 38 10000 5.14 350 14:41 25.02.2022
2942 Clouds 7 1020 34 10000 6.17 340 13:36 25.02.2022
2943 Clouds 7 1020 33 10000 5.14 10 12:45 25.02.2022
2944 Clouds 9 1019 30 10000 4.12 280 11:28 25.02.2022
2945 Clouds 10 1018 32 10000 5.14 200 10:29 25.02.2022
2946 Clouds 10 1018 29 10000 5.14 190 09:57 25.02.2022
2947 Clouds 11 1017 21 10000 4.12 170 09:18 25.02.2022
2948 Clouds 12 1017 21 10000 4.12 150 07:41 25.02.2022
2949 Clouds 11 1017 20 10000 3.6 200 05:48 25.02.2022
2950 Clouds 11 1018 16 10000 3.09 170 04:32 25.02.2022
2951 Clouds 3 1020 32 10000 1.54 300 23:47 24.02.2022
2952 Clouds 2 1019 38 10000 4.12 320 21:56 24.02.2022
2953 Clouds 1 1019 38 10000 4.12 310 21:38 24.02.2022
2954 Clouds 2 1019 38 10000 4.12 310 21:19 24.02.2022
2955 Clouds 2 1019 38 10000 6.17 330 19:42 24.02.2022
2956 Clouds 2 1019 37 10000 6.17 320 18:44 24.02.2022
2957 Clouds 2 1019 38 10000 5.66 320 18:19 24.02.2022
2958 Clouds 2 1019 39 10000 4.63 320 17:34 24.02.2022
2959 Clouds 2 1019 39 10000 6.17 320 16:50 24.02.2022
2960 Clouds 3 1019 38 10000 6.17 320 16:24 24.02.2022
2961 Clouds 3 1020 37 10000 4.63 310 14:56 24.02.2022
2962 Clouds 3 1020 35 10000 6.17 330 14:36 24.02.2022
2963 Clouds 3 1020 35 10000 5.66 320 13:40 24.02.2022
2964 Clouds 4 1020 32 10000 6.69 320 12:54 24.02.2022
2965 Clouds 6 1019 26 10000 6.69 330 10:41 24.02.2022
2966 Clouds 7 1018 22 10000 6.69 340 09:24 24.02.2022
2967 Clouds 8 1017 20 10000 7.2 360 08:41 24.02.2022
2968 Clouds 9 1017 17 10000 8.23 350 05:58 24.02.2022
2969 Clouds 6 1021 27 10000 8.23 360 02:59 24.02.2022
2970 Clouds 3 1021 36 10000 9.26 350 23:40 23.02.2022
2971 Clouds 2 1020 37 10000 9.26 350 21:53 23.02.2022
2972 Clouds 2 1019 38 10000 8.23 350 20:32 23.02.2022
2973 Clouds 2 1019 38 10000 8.75 350 19:49 23.02.2022
2974 Clouds 2 1020 37 10000 8.75 350 18:57 23.02.2022
2975 Clouds 3 1020 37 10000 9.26 350 17:46 23.02.2022
2976 Clouds 3 1020 37 10000 6.69 350 15:28 23.02.2022
2977 Clouds 4 1020 32 10000 7.72 350 13:34 23.02.2022
2978 Clouds 5 1020 29 10000 8.23 10 12:28 23.02.2022
2979 Clouds 7 1020 29 10000 1.54 190 10:45 23.02.2022
2980 Clouds 7 1018 30 10000 3.6 180 09:31 23.02.2022
2981 Clouds 8 1018 29 10000 4.63 150 08:28 23.02.2022
2982 Clouds 9 1017 29 10000 4.63 150 07:19 23.02.2022
2983 Clouds 9 1017 29 10000 4.63 150 07:19 23.02.2022
2984 Clouds 5 1021 42 10000 7.2 350 01:22 23.02.2022
2985 Clouds 2 1021 46 10000 8.75 350 23:46 22.02.2022
2986 Clouds 2 1021 46 10000 8.75 350 23:28 22.02.2022
2987 Clouds 2 1020 44 10000 5.14 330 21:59 22.02.2022
2988 Clouds 1 1020 44 10000 4.63 320 21:40 22.02.2022
2989 Clouds 2 1020 44 10000 4.63 320 21:19 22.02.2022
2990 Clouds 1 1020 44 10000 5.14 320 20:31 22.02.2022
2991 Clouds 1 1019 44 10000 5.66 330 19:54 22.02.2022
2992 Clouds 1 1019 46 10000 3.6 320 19:33 22.02.2022
2993 Clouds 1 1019 44 10000 6.17 340 18:35 22.02.2022
2994 Clouds 2 1019 44 10000 3.6 330 17:27 22.02.2022
2995 Clouds 2 1019 43 10000 4.12 330 16:55 22.02.2022
2996 Clouds 2 1019 42 10000 5.14 330 16:19 22.02.2022
2997 Clouds 3 1019 41 10000 4.12 10 15:21 22.02.2022
2998 Clouds 2 1019 39 10000 6.17 350 14:19 22.02.2022
2999 Clouds 5 1018 37 10000 8.75 350 11:38 22.02.2022
3000 Clouds 7 1016 36 10000 7.2 20 09:44 22.02.2022
3001 Clouds 9 1013 31 10000 3.6 50 07:29 22.02.2022
3002 Clouds 9 1013 31 10000 3.6 110 06:54 22.02.2022
3003 Clouds 6 1016 34 10000 4.63 40 02:50 22.02.2022
3004 Clouds 1 1017 38 10000 1.54 200 23:18 21.02.2022
3005 Clouds 1 1017 39 10000 1.03 0 22:36 21.02.2022
3006 Clouds 1 1017 38 10000 4.63 320 20:52 21.02.2022
3007 Clouds 2 1017 35 10000 5.14 330 18:56 21.02.2022
3008 Clear 2 1017 34 10000 5.14 320 18:37 21.02.2022
3009 Clear 2 1017 34 10000 6.17 330 16:23 21.02.2022
3010 Clouds 3 1017 38 10000 8.23 340 14:23 21.02.2022
3011 Clouds 3 1017 36 10000 6.69 330 13:31 21.02.2022
3012 Clouds 3 1017 36 10000 0.89 294 13:31 21.02.2022
3013 Clear 3 1017 35 10000 6.17 330 12:46 21.02.2022
3014 Clear 3 1017 34 10000 6.17 330 12:21 21.02.2022
3015 Clouds 5 1015 31 10000 6.69 350 10:29 21.02.2022
3016 Clouds 8 1012 21 10000 8.23 360 07:48 21.02.2022
3017 Clouds 3 1014 33 10000 6.17 320 00:35 21.02.2022
3018 Clouds 1 1013 36 10000 10.8 330 22:32 20.02.2022
3019 Clouds 1 1012 38 10000 10.8 330 21:44 20.02.2022
3020 Clouds 1 1012 38 10000 10.8 330 21:25 20.02.2022
3021 Clouds 1 1011 38 10000 12.86 330 20:43 20.02.2022
3022 Clouds 2 1011 39 10000 12.35 330 19:51 20.02.2022
3023 Clouds 2 1010 40 10000 11.32 330 18:56 20.02.2022
3024 Clouds 2 1010 41 10000 11.83 330 18:37 20.02.2022
3025 Clouds 2 1010 42 10000 11.32 330 17:55 20.02.2022
3026 Clouds 2 1009 42 10000 12.86 330 17:24 20.02.2022
3027 Clouds 2 1009 42 10000 12.86 330 17:24 20.02.2022
3028 Clouds 3 1009 48 10000 13.38 330 15:27 20.02.2022
3029 Clouds 4 1008 48 10000 10.29 330 13:59 20.02.2022
3030 Clouds 5 1006 45 10000 9.26 340 12:47 20.02.2022
3031 Clouds 6 1005 43 10000 9.26 340 11:50 20.02.2022
3032 Clouds 7 1003 45 10000 11.32 340 10:21 20.02.2022
3033 Clouds 8 1002 46 10000 11.32 340 09:35 20.02.2022
3034 Clouds 9 998 78 10000 2.57 160 06:29 20.02.2022
3035 Clouds 5 1003 90 10000 3.6 20 00:32 20.02.2022
3036 Rain 5 1004 91 10000 4.63 30 23:33 19.02.2022
3037 Rain 5 1004 90 10000 5.14 330 22:24 19.02.2022
3038 Clouds 5 1003 91 10000 4.63 340 21:47 19.02.2022
3039 Rain 5 1004 94 7000 4.12 320 20:28 19.02.2022
3040 Mist 4 1004 92 4000 4.12 340 19:34 19.02.2022
3041 Clouds 4 1006 92 8000 6.17 340 18:40 19.02.2022
3042 Rain 4 1007 92 6000 4.63 330 17:57 19.02.2022
3043 Rain 4 1008 91 8000 8.23 340 17:21 19.02.2022
3044 Rain 5 1009 92 3000 6.69 320 15:59 19.02.2022
3045 Mist 6 1010 91 3000 4.12 350 14:54 19.02.2022
3046 Rain 6 1012 89 3000 2.57 60 13:58 19.02.2022
3047 Rain 7 1015 87 8000 2.57 80 11:53 19.02.2022
3048 Rain 7 1016 83 10000 2.57 100 10:54 19.02.2022
3049 Clouds 8 1018 70 10000 2.57 100 08:57 19.02.2022
3050 Rain 8 1019 54 10000 2.57 110 06:48 19.02.2022
3051 Clouds 3 1026 57 10000 4.63 360 00:42 19.02.2022
3052 Clouds 2 1026 60 10000 4.12 10 22:28 18.02.2022
3053 Clouds 2 1026 58 10000 3.09 310 21:22 18.02.2022
3054 Clear 3 1026 57 10000 2.06 310 20:24 18.02.2022
3055 Clear 3 1026 55 10000 3.09 300 19:25 18.02.2022
3056 Clear 3 1026 56 10000 2.06 320 18:37 18.02.2022
3057 Clear 3 1026 55 10000 2.06 320 18:18 18.02.2022
3058 Clouds 3 1026 54 10000 2.57 320 17:18 18.02.2022
3059 Clear 5 1026 46 10000 4.12 360 14:30 18.02.2022
3060 Clear 5 1027 42 10000 3.6 330 13:46 18.02.2022
3061 Clouds 6 1026 39 10000 5.14 330 12:50 18.02.2022
3062 Clouds 7 1026 37 10000 5.14 10 11:57 18.02.2022
3063 Clouds 8 1025 35 10000 6.17 360 10:45 18.02.2022
3064 Clouds 10 1023 27 10000 7.2 10 08:47 18.02.2022
3065 Clouds 11 1023 27 10000 9.77 340 06:35 18.02.2022
3066 Clouds 11 1023 28 10000 10.29 350 05:34 18.02.2022
3067 Clouds 3 1020 33 10000 5.66 270 22:39 17.02.2022
3068 Clouds 3 1019 34 10000 4.63 270 21:41 17.02.2022
3069 Clouds 3 1018 34 10000 3.09 270 20:44 17.02.2022
3070 Clouds 2 1017 34 10000 3.09 280 19:56 17.02.2022
3071 Clouds 2 1017 34 10000 3.09 270 19:26 17.02.2022
3072 Clouds 2 1017 35 10000 3.09 270 18:29 17.02.2022
3073 Clouds 2 1017 35 10000 4.12 280 17:45 17.02.2022
3074 Clouds 2 1016 35 10000 2.57 290 15:58 17.02.2022
3075 Clouds 3 1016 31 10000 3.6 300 14:30 17.02.2022
3076 Clouds 3 1015 30 10000 3.6 310 13:47 17.02.2022
3077 Clouds 4 1014 27 10000 5.14 310 11:55 17.02.2022
3078 Clouds 4 1013 27 10000 7.2 330 11:21 17.02.2022
3079 Clouds 8 1009 16 10000 8.75 330 07:57 17.02.2022
3080 Clouds 3 1008 39 10000 6.69 330 00:20 17.02.2022
3081 Clouds 2 1007 43 10000 3.09 310 22:38 16.02.2022
3082 Clouds 2 1006 39 10000 4.63 270 20:32 16.02.2022
3083 Clouds 3 1005 41 10000 2.57 330 19:27 16.02.2022
3084 Clouds 3 1005 40 10000 4.12 270 18:35 16.02.2022
3085 Clouds 4 1005 36 10000 3.6 270 17:33 16.02.2022
3086 Clouds 5 1006 45 10000 4.12 280 15:24 16.02.2022
3087 Clouds 5 1006 44 10000 5.66 330 14:29 16.02.2022
3088 Clouds 6 1006 47 10000 9.26 350 12:32 16.02.2022
3089 Clouds 7 1005 52 10000 7.2 10 11:51 16.02.2022
3090 Clouds 8 1005 49 10000 4.12 220 10:37 16.02.2022
3091 Clouds 8 1005 47 10000 4.12 220 10:18 16.02.2022
3092 Clouds 10 1004 42 10000 7.2 170 06:56 16.02.2022
3093 Clouds 10 1007 49 10000 3.6 130 03:46 16.02.2022
3094 Clouds 3 1007 77 10000 3.09 310 22:35 15.02.2022
3095 Clouds 3 1006 78 10000 4.63 320 21:59 15.02.2022
3096 Clouds 3 1006 78 10000 4.63 320 21:59 15.02.2022
3097 Clouds 2 1006 79 10000 4.12 300 21:39 15.02.2022
3098 Clouds 3 1006 79 10000 4.12 300 21:21 15.02.2022
3099 Clouds 3 1006 79 10000 2.57 320 20:48 15.02.2022
3100 Clouds 3 1005 79 10000 3.09 300 19:48 15.02.2022
3101 Clouds 3 1005 77 10000 4.12 320 18:45 15.02.2022
3102 Clouds 3 1005 78 10000 3.6 330 18:19 15.02.2022
3103 Clouds 3 1005 77 10000 4.12 360 17:47 15.02.2022
3104 Clouds 4 1006 75 10000 3.6 10 16:30 15.02.2022
3105 Clouds 5 1007 72 10000 1.54 330 14:39 15.02.2022
3106 Clouds 5 1008 68 10000 2.57 320 13:26 15.02.2022
3107 Rain 6 1008 66 10000 2.57 330 11:54 15.02.2022
3108 Rain 7 1009 64 10000 4.63 300 10:57 15.02.2022
3109 Clouds 10 1008 63 10000 6.69 190 09:28 15.02.2022
3110 Clouds 12 1010 56 10000 5.66 180 06:49 15.02.2022
3111 Clouds 4 1017 72 10000 2.06 40 00:48 15.02.2022
3112 Clouds 3 1018 75 10000 3.6 20 22:25 14.02.2022
3113 Clouds 2 1018 79 10000 2.57 340 21:27 14.02.2022
3114 Clouds 2 1018 80 10000 2.57 310 20:24 14.02.2022
3115 Clouds 3 1018 80 10000 1.54 290 19:30 14.02.2022
3116 Clouds 3 1018 76 10000 1.54 350 18:30 14.02.2022
3117 Clouds 3 1019 77 10000 1.54 20 17:58 14.02.2022
3118 Clouds 3 1019 76 10000 3.09 50 17:24 14.02.2022
3119 Clouds 3 1019 74 10000 3.09 20 15:59 14.02.2022
3120 Clouds 4 1019 72 10000 4.63 60 13:44 14.02.2022
3121 Clouds 4 1019 71 10000 4.63 70 13:23 14.02.2022
3122 Clouds 4 1018 68 10000 6.17 70 12:32 14.02.2022
3123 Clouds 5 1018 66 10000 5.66 70 11:54 14.02.2022
3124 Clouds 5 1017 59 10000 4.63 90 10:37 14.02.2022
3125 Clouds 7 1016 53 10000 4.12 80 08:43 14.02.2022
3126 Clouds 8 1016 51 10000 4.63 40 07:30 14.02.2022
3127 Clouds 3 1018 84 7000 7.72 360 01:18 14.02.2022
3128 Rain 2 1018 93 8000 7.72 10 22:42 13.02.2022
3129 Snow 2 1017 92 8000 7.72 10 22:24 13.02.2022
3130 Rain 2 1017 93 9000 9.26 20 21:32 13.02.2022
3131 Rain 2 1017 93 10000 10.29 20 20:35 13.02.2022
3132 Rain 2 1017 93 8000 10.29 20 19:31 13.02.2022
3133 Rain 2 1017 93 8000 0.45 269 18:49 13.02.2022
3134 Rain 2 1017 93 8000 8.75 10 18:28 13.02.2022
3135 Snow 1 1018 93 5000 7.72 350 15:54 13.02.2022
3136 Snow 2 1019 92 9000 7.72 360 15:24 13.02.2022
3137 Clouds 2 1019 92 9000 8.23 360 14:31 13.02.2022
3138 Clouds 3 1019 91 10000 9.77 10 12:51 13.02.2022
3139 Rain 4 1019 91 10000 8.75 20 11:44 13.02.2022
3140 Mist 5 1019 92 5000 6.69 360 10:34 13.02.2022
3141 Rain 5 1019 92 5000 5.66 360 09:46 13.02.2022
3142 Rain 5 1020 90 3000 4.12 350 07:49 13.02.2022
3143 Clouds 4 1022 70 10000 0.45 317 00:35 13.02.2022
3144 Clouds 4 1022 71 10000 2.57 20 23:53 12.02.2022
3145 Clouds 3 1022 72 10000 1.54 10 22:33 12.02.2022
3146 Clouds 3 1022 72 10000 3.09 20 21:31 12.02.2022
3147 Clouds 4 1022 70 10000 1.54 360 20:47 12.02.2022
3148 Clouds 4 1022 68 10000 1.54 320 19:47 12.02.2022
3149 Clouds 4 1022 67 10000 2.57 300 18:53 12.02.2022
3150 Clouds 4 1022 65 10000 3.09 300 18:35 12.02.2022
3151 Clouds 5 1023 64 10000 2.57 300 17:37 12.02.2022
3152 Clouds 5 1023 66 10000 2.06 300 16:43 12.02.2022
3153 Clouds 5 1023 67 10000 0.51 0 15:51 12.02.2022
3154 Clouds 6 1023 66 10000 3.09 160 14:55 12.02.2022
3155 Clouds 6 1023 66 10000 3.09 160 14:55 12.02.2022
3156 Clouds 5 1023 64 10000 4.63 140 14:25 12.02.2022
3157 Clouds 6 1023 51 10000 1.54 130 11:20 12.02.2022
3158 Clouds 7 1023 46 10000 1.03 70 10:28 12.02.2022
3159 Clouds 8 1022 42 10000 1.54 40 09:33 12.02.2022
3160 Clouds 9 1022 39 10000 3.09 170 08:46 12.02.2022
3161 Clouds 9 1022 41 10000 3.09 160 06:46 12.02.2022
3162 Clouds 8 1023 46 10000 3.6 140 04:38 12.02.2022
3163 Clouds 6 1024 59 10000 4.12 40 02:19 12.02.2022
3164 Clouds 2 1024 72 10000 5.66 10 23:20 11.02.2022
3165 Clouds 2 1024 70 10000 5.14 20 22:20 11.02.2022
3166 Clouds 2 1023 67 10000 5.66 40 21:18 11.02.2022
3167 Clouds 3 1023 67 10000 5.14 20 20:26 11.02.2022
3168 Clouds 3 1022 68 10000 6.69 30 19:28 11.02.2022
3169 Clouds 3 1022 71 10000 6.17 20 18:29 11.02.2022
3170 Clouds 3 1023 71 10000 5.14 30 17:27 11.02.2022
3171 Clouds 3 1023 73 10000 5.66 40 16:39 11.02.2022
3172 Clouds 4 1023 69 10000 5.66 30 15:19 11.02.2022
3173 Clouds 4 1023 68 10000 5.14 30 14:37 11.02.2022
3174 Clouds 4 1023 67 10000 5.14 30 14:19 11.02.2022
3175 Clouds 4 1023 66 10000 6.17 40 13:40 11.02.2022
3176 Clouds 4 1023 66 10000 6.17 40 13:21 11.02.2022
3177 Clouds 6 1022 70 10000 8.23 70 10:55 11.02.2022
3178 Clouds 7 1021 63 10000 7.2 70 09:32 11.02.2022
3179 Clouds 9 1020 51 10000 6.69 60 08:33 11.02.2022
3180 Clouds 9 1019 49 10000 0.89 109 07:45 11.02.2022
3181 Clouds 9 1018 55 10000 4.63 50 06:22 11.02.2022
3182 Clouds 5 1020 75 10000 8.23 30 02:21 11.02.2022
3183 Rain 1 1020 91 10000 9.26 30 23:45 10.02.2022
3184 Rain 1 1018 92 10000 9.26 40 22:26 10.02.2022
3185 Rain 1 1017 93 10000 8.75 20 21:41 10.02.2022
3186 Rain 1 1017 93 10000 8.23 30 20:50 10.02.2022
3187 Rain 1 1016 95 10000 8.75 20 19:56 10.02.2022
3188 Rain 1 1016 95 6000 8.75 20 19:22 10.02.2022
3189 Rain 1 1016 93 6000 7.72 10 18:32 10.02.2022
3190 Rain 1 1016 95 6000 8.23 10 17:21 10.02.2022
3191 Mist 1 1016 95 5000 9.77 360 16:43 10.02.2022
3192 Mist 1 1016 94 5000 9.77 350 15:41 10.02.2022
3193 Mist 1 1016 94 5000 9.77 350 15:21 10.02.2022
3194 Rain 1 1016 93 6000 8.75 350 14:35 10.02.2022
3195 Mist 1 1016 95 5000 9.26 350 13:59 10.02.2022
3196 Rain 1 1016 95 5000 9.26 340 13:19 10.02.2022
3197 Rain 1 1016 95 6000 9.26 340 11:57 10.02.2022
3198 Snow 1 1016 95 6000 9.26 340 11:32 10.02.2022
3199 Rain 1 1016 95 7000 9.26 350 10:25 10.02.2022
3200 Snow 1 1016 93 6000 8.75 340 09:46 10.02.2022
3201 Rain 2 1016 93 3000 8.75 350 08:42 10.02.2022
3202 Clouds 2 1016 92 4000 0.89 321 06:34 10.02.2022
3203 Mist 3 1019 91 5000 7.72 360 03:33 10.02.2022
3204 Rain 3 1021 88 8000 8.23 10 00:57 10.02.2022
3205 Mist 3 1021 88 2000 7.72 20 00:38 10.02.2022
3206 Rain 3 1021 86 10000 7.72 20 00:20 10.02.2022
3207 Clouds 4 1021 80 10000 7.72 360 22:56 09.02.2022
3208 Rain 4 1021 77 10000 6.69 350 22:33 09.02.2022
3209 Rain 4 1021 71 10000 5.66 350 21:48 09.02.2022
3210 Rain 4 1021 68 10000 6.17 360 21:27 09.02.2022
3211 Rain 5 1021 65 10000 6.17 360 20:45 09.02.2022
3212 Rain 5 1021 64 10000 6.17 360 20:23 09.02.2022
3213 Rain 5 1021 62 10000 5.66 10 19:42 09.02.2022
3214 Clouds 5 1021 62 10000 5.14 360 18:50 09.02.2022
3215 Clouds 5 1021 61 10000 6.69 40 17:24 09.02.2022
3216 Rain 6 1022 60 10000 7.2 60 16:25 09.02.2022
3217 Clouds 6 1022 60 10000 7.2 60 15:26 09.02.2022
3218 Clouds 6 1023 59 10000 6.17 70 13:32 09.02.2022
3219 Clouds 6 1023 58 10000 6.17 90 11:52 09.02.2022
3220 Clouds 7 1023 53 10000 6.17 110 10:37 09.02.2022
3221 Clouds 8 1023 48 10000 6.17 110 09:56 09.02.2022
3222 Clouds 8 1022 41 10000 6.69 110 09:22 09.02.2022
3223 Clouds 9 1021 31 10000 3.09 90 08:51 09.02.2022
3224 Clouds 10 1021 33 10000 4.63 130 06:56 09.02.2022
3225 Clouds 9 1022 31 10000 4.12 30 05:29 09.02.2022
3226 Clouds 8 1023 35 10000 6.17 10 03:49 09.02.2022
3227 Clouds 4 1025 53 10000 6.69 10 23:57 08.02.2022
3228 Clouds 4 1024 55 10000 6.17 10 23:19 08.02.2022
3229 Clear 3 1024 57 10000 5.14 20 22:39 08.02.2022
3230 Clear 3 1024 57 10000 6.69 20 22:20 08.02.2022
3231 Clear 4 1023 56 10000 8.75 350 21:38 08.02.2022
3232 Clear 4 1023 56 10000 8.75 350 21:19 08.02.2022
3233 Clear 4 1023 54 10000 6.69 360 20:41 08.02.2022
3234 Clear 4 1022 55 10000 7.2 350 19:41 08.02.2022
3235 Clouds 4 1022 65 10000 4.63 330 18:25 08.02.2022
3236 Clouds 4 1021 68 10000 4.12 320 17:33 08.02.2022
3237 Clouds 6 1022 68 10000 4.63 10 15:55 08.02.2022
3238 Clouds 6 1022 67 10000 4.63 20 15:28 08.02.2022
3239 Clouds 6 1022 69 10000 5.66 10 13:54 08.02.2022
3240 Clouds 6 1021 69 10000 0.45 84 12:40 08.02.2022
3241 Clouds 6 1020 67 10000 4.12 100 11:20 08.02.2022
3242 Clouds 7 1019 55 10000 2.06 90 09:59 08.02.2022
3243 Clouds 8 1019 51 10000 2.57 60 08:56 08.02.2022
3244 Clouds 9 1019 49 10000 3.09 40 07:27 08.02.2022
3245 Clouds 7 1021 42 10000 4.12 10 04:40 08.02.2022
3246 Clouds 6 1021 42 10000 4.12 10 04:22 08.02.2022
3247 Clouds 6 1022 40 10000 3.6 10 03:36 08.02.2022
3248 Rain 6 1022 41 10000 3.6 10 03:18 08.02.2022
3249 Rain 5 1022 43 10000 4.12 10 02:59 08.02.2022
3250 Clouds 5 1023 43 10000 4.12 10 02:37 08.02.2022
3251 Clouds 5 1023 44 10000 4.12 10 02:19 08.02.2022
3252 Clouds 4 1023 45 10000 4.12 40 01:55 08.02.2022
3253 Clouds 4 1023 44 10000 4.12 30 01:37 08.02.2022
3254 Clouds 4 1023 45 10000 4.12 30 01:19 08.02.2022
3255 Rain 3 1023 45 10000 4.63 350 00:44 08.02.2022
3256 Clouds 3 1023 46 10000 5.14 340 23:45 07.02.2022
3257 Clouds 3 1022 44 10000 3.6 330 23:18 07.02.2022
3258 Rain 3 1022 45 10000 3.6 330 23:00 07.02.2022
3259 Rain 3 1022 45 10000 4.12 350 22:19 07.02.2022
3260 Clouds 3 1022 44 10000 2.57 20 21:52 07.02.2022
3261 Clouds 3 1021 45 10000 2.57 10 21:29 07.02.2022
3262 Clouds 3 1021 45 10000 2.57 10 21:29 07.02.2022
3263 Clouds 3 1022 45 10000 3.6 10 20:56 07.02.2022
3264 Clouds 3 1021 45 10000 3.6 20 20:38 07.02.2022
3265 Clouds 3 1021 44 10000 4.63 360 19:47 07.02.2022
3266 Clouds 3 1021 43 10000 4.63 20 19:20 07.02.2022
3267 Clouds 3 1022 42 10000 4.12 30 17:41 07.02.2022
3268 Clouds 3 1022 40 10000 4.63 20 16:52 07.02.2022
3269 Clouds 4 1022 36 10000 4.12 20 15:49 07.02.2022
3270 Clouds 4 1022 35 10000 5.14 10 14:44 07.02.2022
3271 Clouds 5 1022 31 10000 5.14 320 13:27 07.02.2022
3272 Clouds 5 1022 30 10000 1.34 346 12:38 07.02.2022
3273 Clouds 5 1022 30 10000 0.89 289 11:55 07.02.2022
3274 Clouds 6 1021 30 10000 0.45 302 11:33 07.02.2022
3275 Clouds 6 1021 30 10000 0.45 296 10:47 07.02.2022
3276 Clouds 6 1021 29 10000 0.45 309 10:28 07.02.2022
3277 Clouds 7 1020 28 10000 1.54 120 09:52 07.02.2022
3278 Clouds 7 1020 28 10000 0.45 292 09:18 07.02.2022
3279 Clouds 8 1019 25 10000 4.12 120 08:20 07.02.2022
3280 Clouds 9 1019 23 10000 0.89 286 06:52 07.02.2022
3281 Clouds 9 1019 23 10000 1.34 177 06:33 07.02.2022
3282 Clouds 7 1021 25 10000 2.24 295 02:56 07.02.2022
3283 Clouds 3 1021 35 10000 1.34 281 00:44 07.02.2022
3284 Clouds 1 1021 41 10000 1.34 284 23:42 06.02.2022
3285 Clouds 1 1020 42 10000 1.79 315 22:47 06.02.2022
3286 Clouds 0 1019 46 10000 0.89 302 21:52 06.02.2022
3287 Clouds 1 1019 46 10000 0.45 293 21:30 06.02.2022
3288 Clouds 0 1019 47 10000 1.34 302 20:53 06.02.2022
3289 Clouds 0 1019 47 10000 5.66 320 20:31 06.02.2022
3290 Clear 1 1018 46 10000 0.89 310 19:37 06.02.2022
3291 Clouds 2 1018 43 10000 0.89 321 18:38 06.02.2022
3292 Clouds 2 1017 41 10000 0.89 310 17:55 06.02.2022
3293 Clouds 2 1018 43 10000 5.14 350 17:18 06.02.2022
3294 Clouds 1 1017 44 10000 0.89 309 16:38 06.02.2022
3295 Clouds 1 1018 45 10000 0.89 306 15:48 06.02.2022
3296 Clouds 1 1017 43 10000 0.89 304 15:26 06.02.2022
3297 Clouds 2 1017 44 10000 0.45 291 14:36 06.02.2022
3298 Clouds 2 1016 40 10000 0.45 315 13:25 06.02.2022
3299 Clouds 2 1016 39 10000 0.89 288 12:51 06.02.2022
3300 Clear 3 1016 36 10000 1.79 281 11:32 06.02.2022
3301 Clouds 4 1015 33 10000 0.45 48 10:30 06.02.2022
3302 Clouds 5 1013 32 10000 2.24 272 08:53 06.02.2022
3303 Clouds 6 1013 32 10000 0.89 176 07:51 06.02.2022
3304 Clouds 7 1012 29 10000 1.34 291 05:31 06.02.2022
3305 Clouds 5 1014 39 10000 0.89 355 02:49 06.02.2022
3306 Clouds 4 1014 40 10000 0.45 307 02:24 06.02.2022
3307 Clouds 1 1014 48 10000 0.89 310 00:27 06.02.2022
3308 Clouds 0 1013 52 10000 0.45 287 22:22 05.02.2022
3309 Clouds 0 1012 52 10000 0.89 329 21:32 05.02.2022
3310 Clouds 0 1011 49 10000 0.45 355 20:24 05.02.2022
3311 Clouds 0 1011 47 10000 2.06 300 19:46 05.02.2022
3312 Clouds 1 1011 45 10000 2.06 310 18:58 05.02.2022
3313 Clouds 1 1011 44 10000 1.34 297 17:39 05.02.2022
3314 Clouds 1 1011 44 10000 0.89 296 17:39 05.02.2022
3315 Clouds 1 1011 44 10000 0.89 296 17:39 05.02.2022
3316 Clouds 1 1011 44 10000 0.89 296 17:39 05.02.2022
3317 Clouds 1 1011 44 10000 0.89 256 16:58 05.02.2022
3318 Clouds 1 1012 44 10000 0.89 301 15:40 05.02.2022
3319 Clouds 1 1012 43 10000 1.34 306 15:21 05.02.2022
3320 Clouds 2 1012 39 10000 2.24 319 12:47 05.02.2022
3321 Clouds 2 1011 37 10000 2.24 292 12:27 05.02.2022
3322 Clouds 3 1010 33 10000 1.79 315 10:48 05.02.2022
3323 Clouds 3 1010 31 10000 3.58 320 10:20 05.02.2022
3324 Clouds 4 1010 30 10000 1.79 288 09:43 05.02.2022
3325 Clouds 6 1008 33 10000 3.13 286 07:51 05.02.2022
3326 Clouds 7 1007 29 10000 2.24 94 06:57 05.02.2022
3327 Clouds 7 1007 29 10000 1.34 307 04:30 05.02.2022
3328 Clouds 5 1009 40 10000 0.89 91 01:19 05.02.2022
3329 Clouds 4 1008 44 10000 0.89 300 00:53 05.02.2022
3330 Clouds 2 1008 49 10000 1.34 286 23:41 04.02.2022
3331 Clouds 2 1008 50 10000 0.89 321 23:23 04.02.2022
3332 Clouds 2 1006 52 10000 1.34 302 21:54 04.02.2022
3333 Clouds 2 1006 54 10000 1.34 277 21:36 04.02.2022
3334 Clouds 3 1006 59 10000 2.06 260 21:18 04.02.2022
3335 Clouds 3 1006 65 10000 1.34 335 19:59 04.02.2022
3336 Clouds 4 1006 57 10000 0.89 292 17:43 04.02.2022
3337 Clouds 4 1007 56 10000 0.51 0 15:42 04.02.2022
3338 Clouds 4 1007 55 10000 2.06 130 14:55 04.02.2022
3339 Clouds 5 1008 54 10000 3.6 120 13:33 04.02.2022
3340 Clouds 5 1008 51 10000 0.45 105 12:43 04.02.2022
3341 Clouds 6 1009 46 10000 3.6 130 11:42 04.02.2022
3342 Clouds 7 1009 40 10000 0.45 105 10:36 04.02.2022
3343 Clouds 7 1009 40 10000 0.45 105 10:36 04.02.2022
3344 Clouds 8 1010 38 10000 0.45 123 08:36 04.02.2022
3345 Clouds 9 1010 35 10000 0.45 333 06:57 04.02.2022
3346 Clouds 6 1014 42 10000 0.89 49 02:46 04.02.2022
3347 Clouds 5 1014 43 10000 1.34 45 01:52 04.02.2022
3348 Clouds 3 1014 48 10000 3.6 30 23:29 03.02.2022
3349 Clouds 3 1014 49 10000 1.34 307 22:40 03.02.2022
3350 Clouds 3 1014 49 10000 6.17 30 21:49 03.02.2022
3351 Clouds 3 1013 48 10000 0.89 339 20:39 03.02.2022
3352 Clouds 3 1013 47 10000 1.79 304 20:19 03.02.2022
3353 Clear 4 1014 46 10000 0.89 249 19:32 03.02.2022
3354 Clear 4 1014 45 10000 0.45 313 18:38 03.02.2022
3355 Clear 4 1015 45 10000 0.45 255 17:33 03.02.2022
3356 Clouds 5 1015 43 10000 0.89 342 16:35 03.02.2022
3357 Clouds 6 1015 37 10000 1.34 294 14:49 03.02.2022
3358 Clear 7 1014 34 10000 1.34 330 12:58 03.02.2022
3359 Clouds 8 1014 32 10000 1.34 269 11:23 03.02.2022
3360 Clouds 10 1011 28 10000 1.34 105 08:37 03.02.2022
3361 Clouds 10 1013 36 10000 0.45 108 05:26 03.02.2022
3362 Clouds 3 1016 53 10000 0.89 295 00:32 03.02.2022
3363 Clouds 2 1016 54 10000 0.45 307 23:43 02.02.2022
3364 Clouds 2 1016 53 10000 0.45 338 22:19 02.02.2022
3365 Clouds 2 1015 53 10000 0.89 297 21:34 02.02.2022
3366 Clouds 3 1016 51 10000 2.06 280 20:51 02.02.2022
3367 Clouds 3 1016 49 10000 0.45 323 19:59 02.02.2022
3368 Clouds 3 1016 50 10000 0.89 271 19:27 02.02.2022
3369 Clouds 3 1016 48 10000 0.89 313 18:46 02.02.2022
3370 Clouds 4 1017 44 10000 0.45 17 17:57 02.02.2022
3371 Clouds 4 1016 42 10000 0.45 329 17:19 02.02.2022
3372 Clouds 5 1017 42 10000 0.45 307 16:42 02.02.2022
3373 Clouds 6 1018 32 10000 4.12 40 13:35 02.02.2022
3374 Clouds 6 1018 34 10000 0.45 86 12:25 02.02.2022
3375 Clouds 6 1018 33 10000 0.89 71 11:34 02.02.2022
3376 Clouds 7 1018 30 10000 0.45 104 10:31 02.02.2022
3377 Clouds 9 1017 25 10000 1.34 322 07:37 02.02.2022
3378 Clouds 3 1017 53 10000 1.79 318 22:52 01.02.2022
3379 Clouds 3 1016 53 10000 1.79 236 21:51 01.02.2022
3380 Clear 3 1014 57 10000 1.34 281 20:36 01.02.2022
3381 Clear 4 1012 56 10000 0.45 295 17:50 01.02.2022
3382 Clear 4 1012 56 10000 0.45 304 16:40 01.02.2022
3383 Clouds 5 1011 57 10000 1.34 340 14:47 01.02.2022
3384 Clouds 6 1010 51 10000 7.2 250 12:47 01.02.2022
3385 Clouds 7 1011 49 10000 3.6 240 11:34 01.02.2022
3386 Clouds 9 1015 34 10000 1.34 314 04:53 01.02.2022
3387 Clouds 3 1019 42 10000 1.34 300 23:51 31.01.2022
3388 Clouds 2 1018 43 10000 0.89 284 23:28 31.01.2022
3389 Clouds 2 1018 41 10000 1.34 302 21:59 31.01.2022
3390 Clouds 2 1017 39 10000 1.34 304 21:32 31.01.2022
3391 Clouds 3 1018 36 10000 1.34 279 20:33 31.01.2022
3392 Clouds 3 1017 35 10000 0.89 313 19:45 31.01.2022
3393 Clouds 3 1017 34 10000 0.45 21 18:26 31.01.2022
3394 Clouds 4 1017 32 10000 1.34 294 17:43 31.01.2022
3395 Clouds 4 1017 32 10000 0.45 271 16:48 31.01.2022
3396 Clouds 3 1017 32 10000 0.45 209 15:43 31.01.2022
3397 Clouds 4 1017 31 10000 0.89 296 14:24 31.01.2022
3398 Clouds 5 1016 29 10000 1.79 276 12:39 31.01.2022
3399 Clouds 5 1016 29 10000 1.34 298 11:59 31.01.2022
3400 Clouds 6 1015 29 10000 0.45 310 10:52 31.01.2022
3401 Clouds 6 1015 27 10000 0.89 300 10:34 31.01.2022
3402 Clouds 7 1014 26 10000 0.89 339 09:27 31.01.2022
3403 Clouds 8 1014 25 10000 2.24 288 08:52 31.01.2022
3404 Clouds 8 1013 24 10000 0.89 338 08:52 31.01.2022
3405 Clouds 8 1013 24 10000 0.89 76 08:20 31.01.2022
3406 Clouds 10 1012 23 10000 2.24 329 06:21 31.01.2022
3407 Clouds 9 1012 26 10000 1.34 291 05:20 31.01.2022
3408 Clear 2 1013 44 10000 1.79 62 23:20 30.01.2022
3409 Clear 2 1013 44 10000 1.79 304 22:30 30.01.2022
3410 Clear 2 1013 44 10000 0.89 282 22:30 30.01.2022
3411 Clear 2 1013 45 10000 1.79 317 21:43 30.01.2022
3412 Clear 3 1013 45 10000 1.34 297 21:20 30.01.2022
3413 Clear 2 1013 44 10000 2.24 260 20:50 30.01.2022
3414 Clear 2 1012 44 10000 2.24 308 20:29 30.01.2022
3415 Clouds 2 1012 45 10000 0.89 31 19:53 30.01.2022
3416 Clouds 2 1012 44 10000 1.34 350 18:45 30.01.2022
3417 Clouds 3 1012 44 10000 1.79 314 18:21 30.01.2022
3418 Clouds 3 1013 44 10000 1.34 331 17:29 30.01.2022
3419 Clouds 4 1013 41 10000 2.24 38 16:41 30.01.2022
3420 Clouds 4 1013 41 10000 2.68 313 16:22 30.01.2022
3421 Clouds 4 1013 41 10000 2.24 329 15:52 30.01.2022
3422 Clouds 4 1013 41 10000 1.79 270 15:32 30.01.2022
3423 Clouds 4 1013 38 10000 2.68 345 14:47 30.01.2022
3424 Clouds 5 1013 35 10000 1.79 265 13:36 30.01.2022
3425 Clouds 6 1013 32 10000 0.89 329 12:40 30.01.2022
3426 Clouds 6 1013 29 10000 3.13 283 10:38 30.01.2022
3427 Clouds 7 1012 29 10000 1.34 266 09:57 30.01.2022
3428 Clouds 7 1012 30 10000 0.89 273 09:21 30.01.2022
3429 Clouds 8 1011 31 10000 1.34 294 07:56 30.01.2022
3430 Clouds 6 1013 40 10000 1.79 336 02:43 30.01.2022
3431 Clouds 6 1014 46 10000 0.45 311 01:52 30.01.2022
3432 Clouds 3 1013 56 10000 0.89 86 23:45 29.01.2022
3433 Clouds 3 1012 57 10000 0.89 333 22:37 29.01.2022
3434 Clouds 3 1011 57 10000 0.89 302 21:27 29.01.2022
3435 Clouds 3 1011 56 10000 0.45 305 20:50 29.01.2022
3436 Clouds 3 1010 55 10000 0.45 11 19:47 29.01.2022
3437 Clouds 3 1010 57 10000 0.89 308 19:29 29.01.2022
3438 Clouds 4 1010 55 10000 0.89 284 18:39 29.01.2022
3439 Clouds 3 1011 56 10000 0.89 295 17:46 29.01.2022
3440 Clouds 4 1010 53 10000 0.89 274 16:43 29.01.2022
3441 Clouds 5 1010 54 10000 0.45 305 15:20 29.01.2022
3442 Clouds 6 1010 56 10000 0.89 296 13:47 29.01.2022
3443 Clouds 6 1010 55 10000 0.45 294 13:26 29.01.2022
3444 Clouds 6 1010 55 10000 0.45 313 12:52 29.01.2022
3445 Clouds 7 1009 54 10000 3.6 80 11:39 29.01.2022
3446 Clouds 7 1009 49 10000 3.09 50 10:31 29.01.2022
3447 Clouds 9 1008 46 10000 2.57 140 07:57 29.01.2022
3448 Clouds 5 1014 47 10000 0.45 317 01:38 29.01.2022
3449 Clouds 5 1014 44 10000 0.45 334 00:31 29.01.2022
3450 Clouds 4 1014 46 10000 0.89 249 23:29 28.01.2022
3451 Clouds 4 1013 47 10000 1.79 328 22:46 28.01.2022
3452 Clouds 4 1013 46 10000 1.34 297 22:18 28.01.2022
3453 Clouds 4 1013 43 10000 0.89 330 20:41 28.01.2022
3454 Clouds 4 1013 44 10000 1.34 300 19:53 28.01.2022
3455 Clouds 4 1013 43 10000 0.89 329 18:51 28.01.2022
3456 Clouds 4 1013 43 10000 0.89 288 17:52 28.01.2022
3457 Clouds 5 1014 41 10000 0.89 293 15:50 28.01.2022
3458 Clouds 5 1014 40 10000 1.34 309 14:46 28.01.2022
3459 Clouds 6 1014 35 10000 0.89 319 12:40 28.01.2022
3460 Clouds 7 1014 37 10000 1.79 301 11:38 28.01.2022
3461 Clouds 8 1013 35 10000 0.89 281 10:26 28.01.2022
3462 Clouds 8 1013 36 10000 0.45 221 09:45 28.01.2022
3463 Clouds 10 1012 33 10000 0.45 120 07:40 28.01.2022
3464 Clouds 9 1013 35 10000 0.89 243 05:31 28.01.2022
3465 Clouds 8 1015 35 10000 1.34 296 03:50 28.01.2022
3466 Clouds 7 1016 40 10000 0.89 331 02:24 28.01.2022
3467 Clouds 6 1016 43 10000 0.89 281 01:35 28.01.2022
3468 Clouds 4 1016 45 10000 0.45 33 00:33 28.01.2022
3469 Clouds 5 1015 42 10000 0.89 312 21:58 27.01.2022
3470 Clouds 5 1014 42 10000 1.34 324 21:34 27.01.2022
3471 Clouds 5 1014 42 10000 1.34 324 21:34 27.01.2022
3472 Clouds 5 1014 41 10000 0.89 299 20:58 27.01.2022
3473 Clouds 5 1015 42 10000 1.79 286 19:35 27.01.2022
3474 Clouds 5 1015 41 10000 0.89 355 17:58 27.01.2022
3475 Clouds 6 1016 38 10000 3.13 309 15:43 27.01.2022
3476 Clouds 6 1016 36 10000 1.34 250 13:48 27.01.2022
3477 Rain 7 1016 34 10000 1.79 234 12:47 27.01.2022
3478 Clouds 8 1016 31 10000 1.79 297 10:59 27.01.2022
3479 Clouds 8 1015 30 10000 1.34 271 09:27 27.01.2022
3480 Clouds 9 1014 29 10000 1.34 296 08:39 27.01.2022
3481 Clouds 11 1014 28 10000 1.79 306 07:23 27.01.2022
3482 Clouds 10 1016 40 10000 2.68 321 02:59 27.01.2022
3483 Clouds 4 1016 68 10000 1.34 315 23:52 26.01.2022
3484 Clouds 4 1016 78 9000 0.89 295 22:27 26.01.2022
3485 Clouds 3 1015 79 8000 0.51 0 21:42 26.01.2022
3486 Clouds 4 1015 83 8000 1.54 280 20:42 26.01.2022
3487 Clouds 4 1015 83 8000 1.54 280 20:24 26.01.2022
3488 Clouds 4 1015 83 9000 2.06 290 19:28 26.01.2022
3489 Clouds 4 1015 82 10000 0.45 314 18:46 26.01.2022
3490 Clouds 4 1015 84 10000 2.57 270 17:52 26.01.2022
3491 Clouds 4 1015 84 10000 2.57 270 17:24 26.01.2022
3492 Clouds 4 1014 83 10000 1.54 360 16:46 26.01.2022
3493 Clouds 5 1015 84 10000 1.54 10 15:50 26.01.2022
3494 Clouds 5 1015 83 10000 2.57 30 14:30 26.01.2022
3495 Clouds 6 1015 80 10000 3.6 60 11:59 26.01.2022
3496 Clouds 7 1014 78 10000 2.06 80 10:49 26.01.2022
3497 Clouds 8 1014 76 10000 0.45 128 09:50 26.01.2022
3498 Clouds 9 1013 66 10000 0.89 135 08:32 26.01.2022
3499 Clouds 9 1012 66 10000 0.45 90 06:20 26.01.2022
3500 Clouds 9 1012 66 10000 1.34 321 06:20 26.01.2022
3501 Clouds 4 1017 80 10000 1.34 306 00:21 26.01.2022
3502 Clouds 4 1017 83 10000 0.89 315 23:34 25.01.2022
3503 Clouds 4 1017 88 10000 0.89 18 22:48 25.01.2022
3504 Clouds 4 1017 88 10000 0.89 298 22:18 25.01.2022
3505 Clouds 4 1017 90 8000 0.89 335 21:22 25.01.2022
3506 Clouds 4 1017 89 8000 5.14 350 20:44 25.01.2022
3507 Clouds 4 1017 88 10000 0.89 284 19:53 25.01.2022
3508 Clouds 5 1018 85 10000 0.89 251 18:50 25.01.2022
3509 Clouds 5 1018 81 10000 1.34 337 17:47 25.01.2022
3510 Clouds 5 1018 78 10000 0.89 196 17:18 25.01.2022
3511 Clouds 5 1018 77 10000 1.79 115 16:34 25.01.2022
3512 Rain 5 1019 77 10000 4.63 30 15:39 25.01.2022
3513 Rain 5 1019 76 10000 0.89 69 14:58 25.01.2022
3514 Rain 5 1019 74 10000 0.89 161 14:38 25.01.2022
3515 Clouds 7 1020 57 10000 0.45 119 11:52 25.01.2022
3516 Clouds 7 1019 52 10000 0.45 155 09:21 25.01.2022
3517 Clouds 8 1018 47 10000 0.89 45 07:46 25.01.2022
3518 Clouds 8 1019 45 10000 0.89 150 06:54 25.01.2022
3519 Clouds 8 1019 48 10000 0.45 343 05:23 25.01.2022
3520 Clouds 3 1021 55 10000 0.45 80 00:28 25.01.2022
3521 Clouds 2 1020 54 10000 3.09 20 23:36 24.01.2022
3522 Clouds 2 1020 54 10000 3.09 20 23:18 24.01.2022
3523 Clouds 2 1020 54 10000 3.09 20 23:18 24.01.2022
3524 Clouds 2 1020 54 10000 3.09 40 22:42 24.01.2022
3525 Clouds 2 1020 53 10000 3.09 20 21:57 24.01.2022
3526 Clouds 3 1020 53 10000 4.63 40 21:32 24.01.2022
3527 Clouds 2 1019 55 10000 4.12 30 20:38 24.01.2022
3528 Clouds 3 1019 54 10000 4.12 30 20:20 24.01.2022
3529 Clouds 2 1019 53 10000 4.12 30 19:38 24.01.2022
3530 Clouds 2 1018 55 10000 4.63 40 18:47 24.01.2022
3531 Clouds 2 1018 53 10000 4.12 40 17:25 24.01.2022
3532 Clouds 3 1018 54 10000 3.6 30 16:59 24.01.2022
3533 Clouds 3 1018 53 10000 3.6 50 16:30 24.01.2022
3534 Clouds 3 1018 52 10000 5.66 30 14:56 24.01.2022
3535 Clouds 4 1017 50 10000 0.89 107 13:58 24.01.2022
3536 Clouds 5 1016 47 10000 0.45 32 12:34 24.01.2022
3537 Clouds 6 1015 45 10000 0.89 284 11:41 24.01.2022
3538 Clouds 7 1014 43 10000 0.45 252 10:18 24.01.2022
3539 Clouds 8 1013 41 10000 0.89 54 09:44 24.01.2022
3540 Clouds 11 1011 33 10000 0.89 49 07:45 24.01.2022
3541 Clouds 8 1013 49 10000 0.45 86 01:38 24.01.2022
3542 Clouds 7 1013 52 10000 2.57 340 00:55 24.01.2022
3543 Clouds 7 1013 54 10000 0.45 314 00:30 24.01.2022
3544 Clouds 6 1012 60 10000 0.45 326 23:39 23.01.2022
3545 Clouds 5 1012 64 10000 3.6 40 21:53 23.01.2022
3546 Rain 5 1012 63 10000 3.6 30 21:29 23.01.2022
3547 Clouds 5 1012 63 10000 2.57 20 20:57 23.01.2022
3548 Clouds 5 1012 66 10000 3.09 350 20:21 23.01.2022
3549 Clouds 5 1013 69 10000 2.57 310 18:53 23.01.2022
3550 Clouds 5 1013 69 10000 0.45 321 18:23 23.01.2022
3551 Clouds 5 1013 63 10000 0.89 328 16:56 23.01.2022
3552 Rain 6 1014 62 10000 2.06 350 15:56 23.01.2022
3553 Clouds 6 1016 62 10000 1.54 310 14:50 23.01.2022
3554 Clouds 6 1016 59 10000 1.03 0 14:18 23.01.2022
3555 Rain 7 1017 50 10000 1.03 0 12:46 23.01.2022
3556 Rain 7 1018 51 10000 1.54 30 12:20 23.01.2022
3557 Rain 7 1018 50 10000 2.06 340 11:26 23.01.2022
3558 Clouds 7 1018 49 10000 1.03 350 10:57 23.01.2022
3559 Clouds 7 1018 49 10000 1.54 340 10:25 23.01.2022
3560 Clouds 7 1018 49 10000 1.54 10 09:31 23.01.2022
3561 Clouds 7 1018 49 10000 1.54 40 08:49 23.01.2022
3562 Rain 6 1021 41 10000 0.89 340 03:49 23.01.2022
3563 Clouds 4 1022 49 10000 1.34 308 01:38 23.01.2022
3564 Clouds 3 1023 49 10000 0.89 311 00:47 23.01.2022
3565 Clouds 3 1023 50 10000 5.66 350 00:18 23.01.2022
3566 Clouds 2 1023 52 10000 0.45 311 22:55 22.01.2022
3567 Clouds 2 1023 52 10000 0.45 318 22:33 22.01.2022
3568 Clouds 2 1023 52 10000 5.66 350 20:47 22.01.2022
3569 Clouds 3 1022 50 10000 0.89 332 19:46 22.01.2022
3570 Clouds 3 1023 47 10000 0.45 317 18:41 22.01.2022
3571 Clouds 4 1023 46 10000 0.89 328 17:49 22.01.2022
3572 Clouds 4 1023 45 10000 0.89 311 17:31 22.01.2022
3573 Clouds 4 1023 45 10000 3.6 320 16:55 22.01.2022
3574 Clouds 4 1023 44 10000 3.09 360 15:49 22.01.2022
3575 Clouds 5 1023 47 10000 3.6 30 14:57 22.01.2022
3576 Clouds 5 1023 47 10000 4.12 70 13:36 22.01.2022
3577 Clouds 5 1024 44 10000 0.51 0 12:40 22.01.2022
3578 Clouds 5 1024 43 10000 0.51 0 12:22 22.01.2022
3579 Clouds 6 1023 42 10000 1.54 120 10:55 22.01.2022
3580 Clouds 6 1023 41 10000 1.54 120 10:28 22.01.2022
3581 Clouds 7 1023 38 10000 2.06 130 09:46 22.01.2022
3582 Clouds 8 1023 34 10000 0.45 95 08:51 22.01.2022
3583 Clouds 9 1022 35 10000 0.89 135 07:28 22.01.2022
3584 Clouds 8 1024 35 10000 0.45 322 04:52 22.01.2022
3585 Clouds 4 1025 39 10000 1.34 295 01:32 22.01.2022
3586 Clouds 1 1024 43 10000 0.45 337 23:30 21.01.2022
3587 Clouds 1 1024 42 10000 0.45 10 22:19 21.01.2022
3588 Clouds 1 1023 38 10000 1.34 280 19:56 21.01.2022
3589 Clouds 2 1023 36 10000 0.89 339 18:23 21.01.2022
3590 Clouds 1 1023 39 10000 0.45 338 17:18 21.01.2022
3591 Clouds 2 1022 40 10000 0.45 342 15:28 21.01.2022
3592 Clouds 2 1022 43 10000 0.89 327 13:18 21.01.2022
3593 Clouds 2 1023 40 10000 0.89 324 12:28 21.01.2022
3594 Clouds 3 1021 39 10000 2.24 313 11:27 21.01.2022
3595 Clouds 3 1021 34 10000 3.13 282 10:18 21.01.2022
3596 Clouds 5 1020 26 10000 3.13 14 08:23 21.01.2022
3597 Clouds 7 1018 26 10000 3.13 281 04:49 21.01.2022
3598 Clouds 1 1019 48 10000 4.12 320 23:31 20.01.2022
3599 Clouds 1 1018 51 10000 0.45 329 22:21 20.01.2022
3600 Clear 1 1017 49 10000 0.45 332 21:42 20.01.2022
3601 Clear 1 1016 52 10000 0.45 335 20:40 20.01.2022
3602 Clear 2 1016 51 10000 0.89 314 19:19 20.01.2022
3603 Clear 2 1016 51 10000 0.89 314 19:19 20.01.2022
3604 Clear 2 1016 49 10000 0.45 330 18:44 20.01.2022
3605 Clear 2 1015 47 10000 4.02 297 16:58 20.01.2022
3606 Clear 2 1015 47 10000 4.02 279 15:43 20.01.2022
3607 Clear 2 1015 50 10000 2.68 271 15:19 20.01.2022
3608 Clouds 3 1014 51 10000 1.34 321 13:41 20.01.2022
3609 Clouds 3 1014 47 10000 2.24 355 12:35 20.01.2022
3610 Clouds 4 1013 45 10000 3.58 0 11:50 20.01.2022
3611 Clouds 5 1012 37 10000 2.24 337 10:40 20.01.2022
3612 Clouds 6 1011 32 10000 2.68 262 09:37 20.01.2022
3613 Clouds 8 1010 30 10000 3.58 275 07:51 20.01.2022
3614 Clouds 7 1009 39 10000 2.24 300 05:32 20.01.2022
3615 Clouds 1 1012 59 10000 0.45 323 23:28 19.01.2022
3616 Clouds 1 1011 61 10000 3.6 340 22:32 19.01.2022
3617 Clouds 1 1011 58 10000 0.45 324 21:24 19.01.2022
3618 Clouds 1 1011 55 10000 0.89 309 20:50 19.01.2022
3619 Clouds 1 1012 57 10000 3.09 290 19:54 19.01.2022
3620 Clouds 2 1013 56 10000 3.09 300 18:40 19.01.2022
3621 Clouds 2 1013 56 10000 0.89 286 17:45 19.01.2022
3622 Clouds 2 1013 55 10000 2.06 280 16:57 19.01.2022
3623 Clouds 3 1013 53 10000 0.45 334 14:42 19.01.2022
3624 Clouds 4 1014 47 10000 1.03 0 12:43 19.01.2022
3625 Clouds 5 1014 43 10000 2.06 150 11:42 19.01.2022
3626 Clouds 5 1014 40 10000 2.57 170 10:37 19.01.2022
3627 Clouds 6 1014 38 10000 3.09 150 09:34 19.01.2022
3628 Clouds 7 1014 33 10000 1.34 281 07:18 19.01.2022
3629 Clouds 7 1015 30 10000 0.89 5 05:18 19.01.2022
3630 Clouds 1 1017 37 10000 0.89 308 23:20 18.01.2022
3631 Clouds 1 1017 36 10000 0.89 272 22:44 18.01.2022
3632 Clouds 2 1016 34 10000 2.68 316 21:20 18.01.2022
3633 Clouds 2 1016 38 10000 2.24 295 19:55 18.01.2022
3634 Clouds 2 1017 38 10000 1.34 286 19:37 18.01.2022
3635 Clouds 1 1017 39 10000 1.34 290 18:57 18.01.2022
3636 Clouds 1 1017 38 10000 0.89 335 17:58 18.01.2022
3637 Clouds 2 1016 37 10000 0.89 349 16:59 18.01.2022
3638 Clouds 3 1016 33 10000 1.34 297 15:50 18.01.2022
3639 Clouds 3 1016 31 10000 1.34 280 15:22 18.01.2022
3640 Clouds 3 1015 30 10000 2.24 322 13:26 18.01.2022
3641 Clouds 4 1012 29 10000 2.68 292 10:48 18.01.2022
3642 Clouds 5 1011 28 10000 3.58 249 09:39 18.01.2022
3643 Clouds 7 1010 28 10000 3.58 330 07:58 18.01.2022
3644 Clouds 7 1010 28 10000 3.13 322 07:21 18.01.2022
3645 Clouds 4 1010 44 10000 1.34 329 00:21 18.01.2022
3646 Clouds 3 1010 45 10000 2.24 306 22:30 17.01.2022
3647 Clouds 3 1009 43 10000 2.68 338 21:36 17.01.2022
3648 Clouds 4 1008 44 10000 3.13 342 20:29 17.01.2022
3649 Clouds 4 1007 48 10000 1.34 325 18:42 17.01.2022
3650 Clouds 4 1007 55 10000 0.89 338 17:55 17.01.2022
3651 Clouds 4 1006 55 10000 0.45 323 16:53 17.01.2022
3652 Clouds 5 1007 52 10000 0.89 309 15:24 17.01.2022
3653 Clouds 5 1007 51 10000 0.45 340 14:57 17.01.2022
3654 Clouds 6 1008 49 10000 0.45 316 13:30 17.01.2022
3655 Clouds 7 1008 50 10000 0.89 339 12:57 17.01.2022
3656 Clouds 7 1008 47 10000 0.89 351 11:50 17.01.2022
3657 Clouds 8 1008 47 10000 0.89 343 10:38 17.01.2022
3658 Clouds 9 1008 43 10000 1.34 333 09:35 17.01.2022
3659 Clouds 10 1008 43 10000 0.45 356 07:47 17.01.2022
3660 Clouds 11 1008 42 10000 0.89 21 07:19 17.01.2022
3661 Clouds 6 1013 61 10000 1.03 0 00:57 17.01.2022
3662 Clouds 4 1013 65 10000 1.54 260 22:53 16.01.2022
3663 Clouds 4 1012 65 10000 0.45 28 20:40 16.01.2022
3664 Clouds 4 1013 59 10000 1.54 250 18:53 16.01.2022
3665 Clouds 4 1013 59 10000 2.06 280 18:18 16.01.2022
3666 Clouds 4 1013 60 10000 2.06 280 17:45 16.01.2022
3667 Clouds 5 1013 61 10000 0.89 328 16:48 16.01.2022
3668 Clouds 5 1013 59 10000 0.45 304 15:19 16.01.2022
3669 Clouds 5 1013 58 10000 0.45 302 14:28 16.01.2022
3670 Clouds 6 1013 57 10000 3.6 360 12:51 16.01.2022
3671 Clouds 7 1013 58 10000 3.6 20 11:48 16.01.2022
3672 Clouds 8 1013 59 10000 0.45 18 10:58 16.01.2022
3673 Clouds 8 1013 59 10000 0.45 12 10:26 16.01.2022
3674 Clouds 8 1013 61 10000 0.45 328 09:56 16.01.2022
3675 Clouds 9 1012 61 10000 0.45 26 09:22 16.01.2022
3676 Clouds 10 1013 56 10000 0.89 31 08:47 16.01.2022
3677 Clouds 8 1017 44 10000 0.89 128 03:58 16.01.2022
3678 Clouds 2 1020 63 10000 0.45 271 23:50 15.01.2022
3679 Clouds 2 1019 61 10000 0.45 37 22:35 15.01.2022
3680 Clouds 3 1019 54 10000 3.6 20 21:20 15.01.2022
3681 Clouds 3 1019 53 10000 4.63 20 20:40 15.01.2022
3682 Clouds 3 1019 53 10000 0.45 319 19:30 15.01.2022
3683 Clouds 3 1019 52 10000 4.63 350 18:47 15.01.2022
3684 Clouds 4 1019 52 10000 5.66 350 17:30 15.01.2022
3685 Clouds 4 1020 51 10000 0.45 338 16:37 15.01.2022
3686 Clear 5 1019 45 10000 0.89 336 13:57 15.01.2022
3687 Clear 6 1019 40 10000 1.34 322 12:20 15.01.2022
3688 Clear 7 1018 38 10000 0.45 343 10:43 15.01.2022
3689 Clear 9 1017 32 10000 1.34 288 08:32 15.01.2022
3690 Clouds 4 1017 35 10000 2.68 296 00:49 15.01.2022
3691 Clouds 2 1015 39 10000 0.45 308 21:56 14.01.2022
3692 Clouds 2 1014 38 10000 0.45 354 20:41 14.01.2022
3693 Clouds 3 1014 35 10000 2.57 320 20:21 14.01.2022
3694 Clouds 2 1014 39 10000 2.06 290 19:40 14.01.2022
3695 Clouds 3 1013 34 10000 0.89 2 18:27 14.01.2022
3696 Clouds 3 1012 32 10000 5.14 320 16:50 14.01.2022
3697 Clouds 3 1012 32 10000 3.13 304 15:48 14.01.2022
3698 Clouds 4 1012 31 10000 2.24 277 14:46 14.01.2022
3699 Clouds 4 1011 30 10000 2.68 304 13:37 14.01.2022
3700 Clouds 4 1011 29 10000 2.24 283 12:29 14.01.2022
3701 Clouds 5 1010 26 10000 3.58 295 10:57 14.01.2022
3702 Clouds 6 1009 24 10000 3.58 282 09:44 14.01.2022
3703 Clouds 7 1008 21 10000 4.02 242 08:44 14.01.2022
3704 Clouds 9 1006 18 10000 5.36 272 06:57 14.01.2022
3705 Clouds 4 1007 37 10000 2.24 303 01:33 14.01.2022
3706 Clouds 1 1006 41 10000 1.34 331 23:19 13.01.2022
3707 Clouds 2 1005 42 10000 2.24 6 21:38 13.01.2022
3708 Clouds 2 1005 42 10000 2.24 347 21:19 13.01.2022
3709 Clouds 2 1004 53 10000 2.24 315 19:40 13.01.2022
3710 Clouds 2 1003 55 10000 1.34 337 19:22 13.01.2022
3711 Clouds 3 1003 53 10000 2.24 293 17:52 13.01.2022
3712 Clouds 3 1002 55 10000 1.34 231 16:21 13.01.2022
3713 Clouds 4 1001 52 10000 3.13 356 15:37 13.01.2022
3714 Clouds 4 1001 53 10000 3.58 7 14:46 13.01.2022
3715 Clouds 4 1000 54 10000 2.68 310 12:45 13.01.2022
3716 Clouds 7 998 36 10000 0.45 152 10:25 13.01.2022
3717 Clouds 8 996 34 10000 2.68 293 09:20 13.01.2022
3718 Clouds 8 996 34 10000 2.68 293 09:20 13.01.2022
3719 Clouds 9 995 29 10000 4.02 285 08:27 13.01.2022
3720 Clouds 10 995 31 10000 3.58 291 07:24 13.01.2022
3721 Clouds 10 996 38 10000 1.34 146 05:59 13.01.2022
3722 Clouds 10 996 38 10000 1.34 146 05:59 13.01.2022
3723 Clouds 10 997 39 10000 2.24 153 05:19 13.01.2022
3724 Clouds 7 1002 38 10000 0.89 149 02:33 13.01.2022
3725 Clouds 4 1003 41 10000 0.45 170 00:55 13.01.2022
3726 Clouds 3 1003 39 10000 0.45 332 23:49 12.01.2022
3727 Clouds 3 1003 39 10000 0.45 332 23:49 12.01.2022
3728 Clouds 3 1003 38 10000 1.34 15 23:20 12.01.2022
3729 Clouds 4 1003 38 10000 2.24 17 21:57 12.01.2022
3730 Clouds 3 1003 38 10000 1.34 30 21:23 12.01.2022
3731 Clouds 3 1003 38 10000 1.34 15 20:56 12.01.2022
3732 Clouds 3 1004 38 10000 2.24 300 19:45 12.01.2022
3733 Clouds 3 1004 36 10000 1.34 61 18:42 12.01.2022
3734 Clouds 3 1004 36 10000 1.34 20 17:38 12.01.2022
3735 Clouds 3 1005 35 10000 2.24 315 16:33 12.01.2022
3736 Clouds 3 1006 36 10000 0.89 16 14:48 12.01.2022
3737 Clouds 4 1006 34 10000 1.34 290 13:32 12.01.2022
3738 Clouds 4 1005 33 10000 0.89 307 11:59 12.01.2022
3739 Clouds 6 1003 28 10000 1.79 321 08:43 12.01.2022
3740 Clouds 8 1003 27 10000 2.24 360 07:52 12.01.2022
3741 Clouds 8 1002 26 10000 1.34 259 07:32 12.01.2022
3742 Clouds 4 1001 59 10000 1.79 292 23:53 11.01.2022
3743 Clouds 3 1001 61 10000 1.79 304 22:57 11.01.2022
3744 Clouds 3 1001 63 10000 0.45 294 22:23 11.01.2022
3745 Clouds 4 1000 63 10000 5.14 320 21:25 11.01.2022
3746 Clouds 4 1000 64 10000 0.89 283 20:21 11.01.2022
3747 Clouds 5 999 63 10000 0.89 248 18:48 11.01.2022
3748 Clouds 6 998 70 10000 2.24 340 17:42 11.01.2022
3749 Clouds 6 997 80 10000 0.45 298 16:38 11.01.2022
3750 Clouds 6 997 81 10000 0.89 277 15:59 11.01.2022
3751 Clouds 7 997 86 10000 1.34 318 14:43 11.01.2022
3752 Clouds 6 996 89 10000 0.45 292 13:58 11.01.2022
3753 Clouds 6 996 90 10000 1.34 311 13:39 11.01.2022
3754 Clouds 6 996 91 10000 2.57 310 13:21 11.01.2022
3755 Clouds 6 996 91 8000 1.54 330 12:22 11.01.2022
3756 Rain 6 997 91 7000 2.57 300 10:25 11.01.2022
3757 Rain 6 998 93 5000 0.45 292 07:35 11.01.2022
3758 Mist 5 1009 91 4500 1.79 340 01:47 11.01.2022
3759 Rain 5 1012 88 10000 0.45 297 00:22 11.01.2022
3760 Rain 5 1012 87 10000 0.45 34 23:37 10.01.2022
3761 Rain 6 1013 77 10000 0.45 323 22:19 10.01.2022
3762 Rain 6 1013 73 10000 0.45 316 21:55 10.01.2022
3763 Clouds 7 1013 67 10000 0.45 304 21:32 10.01.2022
3764 Clouds 7 1013 66 10000 5.14 360 20:58 10.01.2022
3765 Clouds 7 1015 66 10000 0.45 342 20:29 10.01.2022
3766 Rain 7 1015 65 10000 0.45 342 19:47 10.01.2022
3767 Clouds 7 1016 66 10000 0.45 304 19:23 10.01.2022
3768 Clouds 7 1016 65 10000 0.45 314 18:55 10.01.2022
3769 Clouds 7 1016 65 10000 0.45 314 18:36 10.01.2022
3770 Clouds 7 1017 64 10000 3.6 360 16:48 10.01.2022
3771 Clouds 7 1018 64 10000 3.6 10 16:18 10.01.2022
3772 Clouds 7 1019 66 10000 3.6 40 14:41 10.01.2022
3773 Clouds 8 1020 63 10000 4.12 50 12:43 10.01.2022
3774 Clouds 8 1020 63 10000 4.63 60 11:55 10.01.2022
3775 Clouds 8 1019 62 10000 0.45 74 10:46 10.01.2022
3776 Clouds 9 1018 62 10000 0.89 102 08:59 10.01.2022
3777 Clouds 9 1018 54 10000 0.89 315 05:51 10.01.2022
3778 Clouds 7 1019 54 10000 0.45 304 01:35 10.01.2022
3779 Clouds 7 1019 54 10000 0.45 304 00:44 10.01.2022
3780 Clouds 7 1019 55 10000 0.89 112 00:19 10.01.2022
3781 Clouds 7 1018 55 10000 0.89 281 22:44 09.01.2022
3782 Clouds 6 1018 55 10000 1.34 328 21:57 09.01.2022
3783 Clouds 7 1018 55 10000 0.89 310 21:37 09.01.2022
3784 Clouds 7 1017 55 10000 0.89 329 21:18 09.01.2022
3785 Clouds 7 1017 56 10000 0.89 311 20:45 09.01.2022
3786 Clouds 7 1017 56 10000 0.89 314 20:26 09.01.2022
3787 Clouds 7 1017 56 10000 0.89 302 19:38 09.01.2022
3788 Clouds 7 1016 56 10000 0.89 333 19:20 09.01.2022
3789 Clouds 7 1017 55 10000 0.89 298 18:37 09.01.2022
3790 Clouds 7 1017 54 10000 1.34 342 18:18 09.01.2022
3791 Clouds 7 1017 54 10000 0.45 311 17:30 09.01.2022
3792 Clouds 7 1017 57 10000 0.89 277 16:49 09.01.2022
3793 Clouds 7 1017 58 10000 1.34 328 15:46 09.01.2022
3794 Clouds 7 1017 56 10000 0.89 304 15:25 09.01.2022
3795 Clouds 8 1018 54 10000 0.45 293 14:39 09.01.2022
3796 Clouds 8 1018 50 10000 0.45 297 13:48 09.01.2022
3797 Clouds 8 1017 48 10000 3.09 350 12:19 09.01.2022
3798 Clouds 8 1016 46 10000 0.51 0 11:38 09.01.2022
3799 Clouds 10 1015 45 10000 1.03 360 09:55 09.01.2022
3800 Clouds 10 1015 40 10000 0.51 0 09:24 09.01.2022
3801 Clear 11 1015 36 10000 1.54 170 08:18 09.01.2022
3802 Clouds 5 1017 60 10000 1.54 10 01:31 09.01.2022
3803 Clouds 5 1017 60 10000 1.03 0 00:53 09.01.2022
3804 Clouds 3 1017 59 10000 2.57 320 23:37 08.01.2022
3805 Clouds 4 1017 58 10000 2.06 260 22:58 08.01.2022
3806 Clouds 3 1017 58 10000 2.06 220 21:32 08.01.2022
3807 Clouds 3 1016 57 10000 2.57 290 20:44 08.01.2022
3808 Clouds 3 1016 56 10000 2.57 290 20:23 08.01.2022
3809 Clouds 3 1017 58 10000 3.6 310 19:46 08.01.2022
3810 Clouds 4 1017 60 10000 0.45 323 17:49 08.01.2022
3811 Clouds 5 1018 60 10000 0.45 293 16:57 08.01.2022
3812 Clouds 5 1019 63 10000 0.45 317 15:37 08.01.2022
3813 Clouds 5 1019 66 10000 3.09 150 14:38 08.01.2022
3814 Clouds 5 1020 59 10000 2.57 130 12:36 08.01.2022
3815 Clouds 6 1020 50 10000 2.57 120 10:49 08.01.2022
3816 Clouds 6 1020 49 10000 2.57 130 10:24 08.01.2022
3817 Clouds 7 1020 45 10000 1.54 130 09:34 08.01.2022
3818 Clouds 9 1020 41 10000 0.89 103 07:18 08.01.2022
3819 Clouds 6 1023 45 10000 0.45 307 02:33 08.01.2022
3820 Clouds 4 1023 50 10000 0.45 83 00:40 08.01.2022
3821 Clouds 2 1023 52 10000 3.6 40 22:40 07.01.2022
3822 Clouds 2 1022 45 10000 0.45 320 20:56 07.01.2022
3823 Clouds 3 1022 42 10000 0.45 317 19:56 07.01.2022
3824 Clouds 3 1022 42 10000 0.45 317 19:56 07.01.2022
3825 Clouds 3 1022 44 10000 1.34 296 18:54 07.01.2022
3826 Clouds 3 1022 44 10000 1.79 296 18:34 07.01.2022
3827 Clouds 4 1021 43 10000 0.45 328 17:25 07.01.2022
3828 Clouds 4 1022 43 10000 0.89 333 16:23 07.01.2022
3829 Clouds 4 1022 42 10000 8.75 330 13:53 07.01.2022
3830 Clouds 4 1022 43 10000 0.45 139 13:21 07.01.2022
3831 Clouds 4 1022 43 10000 10.29 340 12:48 07.01.2022
3832 Clouds 5 1020 40 10000 0.89 294 09:21 07.01.2022
3833 Clear 6 1019 49 10000 0.89 287 02:54 07.01.2022
3834 Clear 4 1020 55 10000 2.24 294 01:53 07.01.2022
3835 Clear 4 1020 60 10000 1.34 286 01:27 07.01.2022
3836 Clear 3 1020 62 10000 0.45 324 00:57 07.01.2022
3837 Clouds -1 1018 86 10000 2.57 280 22:46 06.01.2022
3838 Clouds -2 1017 80 10000 3.6 320 21:28 06.01.2022
3839 Clouds -2 1017 86 10000 3.09 310 20:21 06.01.2022
3840 Clouds -1 1017 86 10000 2.57 280 19:44 06.01.2022
3841 Clouds -1 1018 93 10000 2.57 280 17:54 06.01.2022
3842 Clouds -1 1018 93 10000 4.12 280 17:34 06.01.2022
3843 Clouds 0 1017 89 10000 2.57 300 16:44 06.01.2022
3844 Clouds 0 1018 88 10000 2.06 320 15:47 06.01.2022
3845 Clouds 0 1018 87 10000 0.45 294 15:26 06.01.2022
3846 Clouds 0 1019 88 10000 0.45 311 14:45 06.01.2022
3847 Clouds 1 1019 90 10000 4.12 10 14:18 06.01.2022
3848 Clouds 1 1019 90 10000 4.12 10 12:50 06.01.2022
3849 Clouds 1 1020 91 8000 6.17 360 11:43 06.01.2022
3850 Snow 0 1020 91 8000 6.17 360 11:22 06.01.2022
3851 Snow 0 1021 91 1000 3.09 360 08:52 06.01.2022
3852 Rain 2 1025 46 10000 0.89 296 01:24 06.01.2022
3853 Snow 1 1025 46 10000 0.89 304 23:38 05.01.2022
3854 Clouds 1 1025 47 10000 0.45 321 22:57 05.01.2022
3855 Clouds 1 1025 47 10000 0.89 316 22:33 05.01.2022
3856 Clouds 1 1025 47 10000 1.34 313 21:49 05.01.2022
3857 Clouds 1 1025 46 10000 0.45 291 21:20 05.01.2022
3858 Snow 2 1025 46 10000 1.34 303 20:19 05.01.2022
3859 Clouds 1 1025 45 10000 0.89 298 18:50 05.01.2022
3860 Clouds 2 1025 47 10000 0.89 304 17:44 05.01.2022
3861 Clouds 2 1025 48 10000 0.89 290 16:51 05.01.2022
3862 Clouds 2 1025 44 10000 4.12 30 15:43 05.01.2022
3863 Clouds 3 1025 40 10000 0.45 13 14:24 05.01.2022
3864 Clouds 3 1025 34 10000 0.89 313 13:25 05.01.2022
3865 Clouds 3 1024 35 10000 1.34 321 11:45 05.01.2022
3866 Clouds 6 1022 30 10000 0.89 292 08:20 05.01.2022
3867 Clouds 8 1020 23 10000 1.79 342 06:25 05.01.2022
3868 Clouds 4 1021 31 10000 0.45 324 00:59 05.01.2022
3869 Clouds 2 1020 37 10000 0.45 314 23:29 04.01.2022
3870 Clouds 3 1019 33 10000 0.89 311 22:58 04.01.2022
3871 Clouds 2 1019 38 10000 0.45 330 21:31 04.01.2022
3872 Clouds 3 1017 37 10000 0.89 356 19:22 04.01.2022
3873 Clouds 3 1017 41 10000 1.34 328 18:19 04.01.2022
3874 Clouds 3 1017 44 10000 0.89 326 16:53 04.01.2022
3875 Clouds 3 1017 46 10000 0.45 221 16:30 04.01.2022
3876 Clouds 3 1016 49 10000 1.79 296 14:58 04.01.2022
3877 Clouds 3 1016 51 10000 2.68 7 14:36 04.01.2022
3878 Clouds 3 1016 50 10000 3.13 12 13:48 04.01.2022
3879 Clouds 5 1014 45 10000 2.68 21 10:59 04.01.2022
3880 Clouds 6 1014 42 10000 3.13 356 10:18 04.01.2022
3881 Clouds 7 1012 36 10000 4.02 65 08:36 04.01.2022
3882 Clouds 11 1010 42 10000 0.89 332 04:24 04.01.2022
3883 Clouds 5 1011 66 10000 0.45 157 00:42 04.01.2022
3884 Clouds 3 1012 68 10000 2.57 260 23:44 03.01.2022
3885 Clouds 3 1012 68 10000 2.57 300 22:21 03.01.2022
3886 Clouds 3 1011 68 10000 1.54 280 21:38 03.01.2022
3887 Clouds 3 1011 67 10000 1.54 280 20:40 03.01.2022
3888 Clouds 3 1011 68 10000 1.54 300 18:55 03.01.2022
3889 Clouds 4 1011 68 10000 0.89 294 18:30 03.01.2022
3890 Clouds 4 1011 68 10000 2.06 280 18:30 03.01.2022
3891 Clouds 4 1012 66 10000 0.89 286 17:20 03.01.2022
3892 Clouds 5 1012 69 10000 2.57 280 16:31 03.01.2022
3893 Clouds 6 1013 66 10000 3.09 140 14:31 03.01.2022
3894 Clouds 6 1013 64 10000 3.6 130 12:52 03.01.2022
3895 Clouds 6 1014 60 10000 3.09 130 11:50 03.01.2022
3896 Clouds 7 1015 55 10000 0.89 128 10:38 03.01.2022
3897 Clouds 7 1015 53 10000 2.06 120 09:28 03.01.2022
3898 Clouds 7 1015 53 10000 2.06 120 09:28 03.01.2022
3899 Clouds 10 1015 43 10000 1.34 178 07:53 03.01.2022
3900 Clouds 8 1018 39 10000 2.24 339 03:22 03.01.2022
3901 Clouds 3 1018 49 10000 0.89 0 23:24 02.01.2022
3902 Clouds 3 1018 50 10000 1.34 42 22:56 02.01.2022
3903 Clouds 3 1017 53 10000 1.34 22 21:58 02.01.2022
3904 Clouds 4 1016 54 10000 1.34 13 20:52 02.01.2022
3905 Clouds 4 1016 54 10000 1.34 28 20:30 02.01.2022
3906 Clouds 3 1016 58 10000 0.89 356 19:32 02.01.2022
3907 Clouds 4 1017 56 10000 1.34 294 18:56 02.01.2022
3908 Clear 3 1017 57 10000 0.89 325 18:23 02.01.2022
3909 Clouds 3 1016 57 10000 0.89 342 17:42 02.01.2022
3910 Clouds 4 1017 56 10000 1.34 346 17:21 02.01.2022
3911 Clear 4 1017 51 10000 3.09 310 16:28 02.01.2022
3912 Clouds 4 1016 53 10000 0.45 282 15:39 02.01.2022
3913 Clouds 4 1016 54 10000 4.12 330 13:57 02.01.2022
3914 Clouds 5 1016 58 10000 0.89 295 12:32 02.01.2022
3915 Clouds 5 1015 66 10000 0.45 23 11:55 02.01.2022
3916 Clouds 5 1015 67 10000 3.09 240 10:55 02.01.2022
3917 Clouds 6 1015 65 10000 2.06 230 10:18 02.01.2022
3918 Clouds 8 1017 49 10000 3.6 180 07:44 02.01.2022
3919 Clouds 4 1023 43 10000 0.45 132 02:57 02.01.2022
3920 Clouds 1 1024 51 10000 1.34 24 23:54 01.01.2022
3921 Clouds 1 1024 50 10000 0.89 37 23:35 01.01.2022
3922 Clouds 1 1023 49 10000 0.45 88 22:39 01.01.2022
3923 Clouds 1 1023 48 10000 0.89 55 22:18 01.01.2022
3924 Clouds 1 1023 47 10000 0.89 36 22:18 01.01.2022
3925 Clouds 1 1023 47 10000 0.89 65 21:42 01.01.2022
3926 Clouds 1 1023 42 10000 0.45 327 20:36 01.01.2022
3927 Clouds 1 1023 40 10000 0.45 56 19:45 01.01.2022
3928 Clouds 2 1023 38 10000 0.45 355 18:52 01.01.2022
3929 Clouds 3 1023 34 10000 1.34 20 17:45 01.01.2022
3930 Clouds 3 1023 30 10000 1.34 307 16:35 01.01.2022
3931 Clouds 3 1023 29 10000 3.58 324 15:45 01.01.2022
3932 Clouds 3 1023 27 10000 4.02 289 14:40 01.01.2022
3933 Clouds 3 1023 27 10000 2.24 288 13:42 01.01.2022
3934 Clouds 4 1022 27 10000 2.24 310 12:26 01.01.2022
3935 Clouds 4 1022 28 10000 2.24 351 11:30 01.01.2022
3936 Clouds 4 1022 27 10000 0.89 357 10:59 01.01.2022
3937 Clouds 4 1022 26 10000 3.13 12 09:48 01.01.2022
3938 Clouds 5 1020 21 10000 4.47 338 08:45 01.01.2022
3939 Clouds 6 1020 21 10000 3.58 20 08:18 01.01.2022
3940 Clouds 7 1019 20 10000 3.58 289 07:39 01.01.2022
3941 Clouds 7 1018 21 10000 4.47 10 06:44 01.01.2022
3942 Clouds 8 1018 22 10000 4.02 342 05:25 01.01.2022
3943 Clouds 7 1018 23 10000 4.02 336 04:36 01.01.2022
3944 Clouds 1 1018 35 10000 3.13 294 00:25 01.01.2022
3945 Clouds 0 1016 38 10000 0.89 340 22:34 31.12.2021
3946 Clear 0 1016 39 10000 0.45 53 21:49 31.12.2021
3947 Clear 0 1015 41 10000 0.89 355 19:56 31.12.2021
3948 Clear 0 1015 40 10000 1.34 325 19:28 31.12.2021
3949 Clouds -2 1015 43 10000 6.17 330 18:24 31.12.2021
3950 Clouds 0 1015 39 10000 2.68 6 17:37 31.12.2021
3951 Clouds 0 1015 39 10000 2.68 6 17:18 31.12.2021
3952 Clouds 0 1015 41 10000 2.68 354 16:19 31.12.2021
3953 Clouds 0 1014 41 10000 2.68 353 15:51 31.12.2021
3954 Clouds 1 1014 42 10000 2.24 75 15:28 31.12.2021
3955 Clouds 1 1014 46 10000 2.24 42 14:41 31.12.2021
3956 Clouds 1 1014 44 10000 2.68 46 13:58 31.12.2021
3957 Clouds 1 1014 45 10000 2.24 348 13:35 31.12.2021
3958 Clouds 1 1014 47 10000 2.68 317 12:44 31.12.2021
3959 Clouds 1 1013 48 10000 3.13 315 11:43 31.12.2021
3960 Clouds 2 1013 48 10000 2.68 261 11:20 31.12.2021
3961 Clouds 2 1012 43 10000 0.89 338 10:32 31.12.2021
3962 Clouds 3 1011 40 10000 4.02 343 09:35 31.12.2021
3963 Clouds 4 1010 39 10000 4.02 0 08:56 31.12.2021
3964 Clouds 4 1010 38 10000 3.13 345 08:25 31.12.2021
3965 Clouds 5 1010 38 10000 3.13 27 07:30 31.12.2021
3966 Clouds 3 1009 61 10000 1.34 40 23:23 30.12.2021
3967 Clouds 4 1008 59 10000 2.24 284 22:33 30.12.2021
3968 Clouds 4 1008 61 10000 1.79 323 21:51 30.12.2021
3969 Clouds 4 1008 61 10000 1.34 271 21:33 30.12.2021
3970 Clouds 4 1007 61 10000 0.45 302 20:45 30.12.2021
3971 Clouds 4 1006 63 10000 0.45 104 20:24 30.12.2021
3972 Clouds 4 1006 64 10000 0.89 67 19:44 30.12.2021
3973 Clouds 4 1006 66 10000 0.89 11 18:29 30.12.2021
3974 Clouds 4 1006 65 10000 2.24 296 17:52 30.12.2021
3975 Clouds 5 1006 55 10000 2.68 348 16:19 30.12.2021
3976 Clouds 5 1006 56 10000 1.34 5 15:42 30.12.2021
3977 Clouds 6 1006 56 10000 0.45 302 14:38 30.12.2021
3978 Clouds 6 1006 56 10000 0.45 114 13:49 30.12.2021
3979 Clouds 6 1006 52 10000 1.34 18 12:40 30.12.2021
3980 Clouds 8 1006 47 10000 1.34 26 10:58 30.12.2021
3981 Clouds 9 1005 41 10000 2.68 210 09:58 30.12.2021
3982 Clouds 11 1004 28 10000 3.13 320 08:58 30.12.2021
3983 Clouds 14 1002 28 10000 2.24 2 06:52 30.12.2021
3984 Clouds 11 1004 45 10000 0.89 135 03:43 30.12.2021
3985 Clouds 11 1004 45 10000 0.45 149 03:23 30.12.2021
3986 Clouds 3 1006 70 10000 1.54 360 23:50 29.12.2021
3987 Clouds 3 1006 70 10000 1.54 360 23:23 29.12.2021
3988 Clouds 3 1006 70 10000 2.57 30 22:22 29.12.2021
3989 Clouds 3 1006 70 10000 2.57 30 22:22 29.12.2021
3990 Clouds 3 1006 65 10000 0.51 0 21:45 29.12.2021
3991 Clouds 3 1008 61 10000 1.54 360 20:39 29.12.2021
3992 Clouds 3 1009 60 10000 1.54 360 19:50 29.12.2021
3993 Clouds 4 1009 58 10000 0.45 300 18:57 29.12.2021
3994 Clouds 3 1010 55 10000 3.6 20 17:57 29.12.2021
3995 Clouds 4 1011 56 10000 0.45 308 17:28 29.12.2021
3996 Clouds 4 1011 55 10000 0.45 309 16:49 29.12.2021
3997 Clouds 5 1012 55 10000 0.45 308 16:19 29.12.2021
3998 Clouds 5 1013 55 10000 3.09 280 14:40 29.12.2021
3999 Clouds 6 1015 57 10000 0.45 313 12:48 29.12.2021
4000 Clouds 6 1015 53 10000 0 0 12:27 29.12.2021
4001 Clouds 6 1016 54 10000 3.09 340 10:36 29.12.2021
4002 Clouds 8 1016 44 10000 0.89 38 08:24 29.12.2021
4003 Clouds 9 1017 45 10000 0.89 319 06:48 29.12.2021
4004 Clouds 8 1017 45 10000 1.34 71 06:27 29.12.2021
4005 Clouds 8 1018 45 10000 0.89 303 05:43 29.12.2021
4006 Clouds 6 1021 47 10000 1.34 345 03:20 29.12.2021
4007 Clouds 3 1024 49 10000 0.89 294 00:25 29.12.2021
4008 Clouds 3 1024 50 10000 0.89 301 23:49 28.12.2021
4009 Clouds 2 1024 51 10000 0.45 37 22:50 28.12.2021
4010 Clouds 2 1024 51 10000 0.45 32 22:24 28.12.2021
4011 Clouds 3 1024 53 10000 0.45 28 21:54 28.12.2021
4012 Clouds 2 1024 50 10000 0.45 325 20:54 28.12.2021
4013 Clouds 2 1023 52 10000 0.45 53 19:50 28.12.2021
4014 Clouds 3 1023 50 10000 0.45 39 18:50 28.12.2021
4015 Clouds 3 1024 50 10000 0.45 13 18:23 28.12.2021
4016 Clouds 3 1023 48 10000 0.45 309 17:25 28.12.2021
4017 Clouds 3 1023 51 10000 0.45 28 15:53 28.12.2021
4018 Clouds 3 1024 51 10000 0.45 315 15:29 28.12.2021
4019 Clouds 3 1023 51 10000 0.89 34 14:54 28.12.2021
4020 Clouds 3 1023 47 10000 0.89 45 14:22 28.12.2021
4021 Clouds 3 1023 47 10000 1.34 22 13:58 28.12.2021
4022 Clouds 4 1023 46 10000 0.89 27 13:33 28.12.2021
4023 Clouds 4 1023 45 10000 0.89 356 12:55 28.12.2021
4024 Clouds 4 1023 43 10000 0.45 323 12:19 28.12.2021
4025 Clouds 6 1022 35 10000 1.34 352 09:32 28.12.2021
4026 Clouds 8 1021 28 10000 2.24 28 07:33 28.12.2021
4027 Clouds 7 1021 35 10000 2.24 85 03:35 28.12.2021
4028 Clouds 1 1020 63 10000 0.45 215 23:39 27.12.2021
4029 Clouds 1 1019 63 10000 3.6 10 22:21 27.12.2021
4030 Clouds 1 1018 57 10000 0.89 298 21:30 27.12.2021
4031 Clouds 1 1017 55 10000 4.63 320 20:39 27.12.2021
4032 Clouds 2 1016 54 10000 0.45 94 19:48 27.12.2021
4033 Clouds 2 1015 50 10000 6.17 10 19:27 27.12.2021
4034 Clouds 2 1016 47 10000 0.45 20 17:52 27.12.2021
4035 Clouds 2 1014 47 10000 1.34 270 17:28 27.12.2021
4036 Clouds 3 1015 44 10000 0.45 351 16:23 27.12.2021
4037 Clouds 3 1014 43 10000 0.89 267 15:44 27.12.2021
4038 Clouds 3 1014 43 10000 0.89 284 14:24 27.12.2021
4039 Clouds 4 1014 41 10000 0.45 354 12:56 27.12.2021
4040 Clouds 5 1014 40 10000 0.89 100 10:56 27.12.2021
4041 Clouds 5 1014 40 10000 0.89 100 10:27 27.12.2021
4042 Clouds 6 1014 36 10000 0.45 92 09:19 27.12.2021
4043 Clouds 7 1013 26 10000 0.89 105 07:34 27.12.2021
4044 Clouds 7 1013 25 10000 0.89 85 06:29 27.12.2021
4045 Clouds 4 1016 31 10000 0.45 331 01:57 27.12.2021
4046 Clouds 1 1017 33 10000 0.89 302 23:50 26.12.2021
4047 Clouds 1 1017 37 10000 0.89 298 23:20 26.12.2021
4048 Clouds 0 1016 40 10000 0.45 294 21:41 26.12.2021
4049 Clouds 0 1016 41 10000 0.45 190 19:57 26.12.2021
4050 Clouds 0 1015 42 10000 0.89 294 18:53 26.12.2021
4051 Clouds 0 1016 38 10000 1.34 292 18:22 26.12.2021
4052 Clouds 1 1014 45 10000 2.24 341 15:54 26.12.2021
4053 Clouds 1 1014 40 10000 2.24 25 13:51 26.12.2021
4054 Clouds 2 1014 39 10000 2.68 77 13:32 26.12.2021
4055 Clouds 2 1014 35 10000 3.13 314 12:37 26.12.2021
4056 Clouds 2 1013 34 10000 3.13 343 11:57 26.12.2021
4057 Clouds 4 1012 31 10000 3.58 356 09:44 26.12.2021
4058 Clouds 4 1011 32 10000 2.68 344 08:59 26.12.2021
4059 Clouds 4 1011 31 10000 3.13 1 08:38 26.12.2021
4060 Clouds 6 1010 24 10000 2.68 84 06:47 26.12.2021
4061 Clouds 3 1012 35 10000 2.68 334 00:58 26.12.2021
4062 Clouds 2 1011 38 10000 2.24 319 23:50 25.12.2021
4063 Clouds 2 1011 39 10000 1.34 341 23:26 25.12.2021
4064 Clouds 2 1011 40 10000 2.68 26 22:22 25.12.2021
4065 Clouds 3 1010 39 10000 3.58 358 20:48 25.12.2021
4066 Clouds 3 1010 38 10000 3.13 355 19:22 25.12.2021
4067 Clouds 4 1010 38 10000 3.13 346 18:54 25.12.2021
4068 Clouds 4 1010 41 10000 3.13 9 17:28 25.12.2021
4069 Clouds 5 1010 39 10000 3.13 331 16:18 25.12.2021
4070 Clouds 6 1010 41 10000 3.58 0 14:38 25.12.2021
4071 Rain 7 1009 43 10000 2.68 14 12:49 25.12.2021
4072 Clouds 7 1008 38 10000 3.13 32 11:45 25.12.2021
4073 Clouds 9 1007 39 10000 2.68 5 09:50 25.12.2021
4074 Clouds 11 1005 49 10000 3.13 351 08:19 25.12.2021
4075 Clouds 11 1005 76 8000 1.34 344 02:59 25.12.2021
4076 Clouds 8 1005 88 9000 0.45 340 00:33 25.12.2021
4077 Rain 7 1005 89 7000 0.89 134 23:39 24.12.2021
4078 Clouds 7 1008 87 7000 3.09 40 19:45 24.12.2021
4079 Rain 7 1008 86 7000 3.09 40 19:23 24.12.2021
4080 Clouds 7 1011 76 10000 0.45 63 16:53 24.12.2021
4081 Rain 8 1011 76 10000 4.63 10 16:21 24.12.2021
4082 Clouds 8 1012 69 10000 0.89 6 15:48 24.12.2021
4083 Clouds 9 1013 59 10000 1.34 298 14:47 24.12.2021
4084 Clouds 9 1013 60 10000 0.89 323 14:26 24.12.2021
4085 Clouds 9 1013 61 10000 0.45 290 13:41 24.12.2021
4086 Clouds 9 1013 57 10000 0.89 264 12:48 24.12.2021
4087 Clouds 10 1013 57 10000 0.45 341 12:20 24.12.2021
4088 Clouds 10 1014 56 10000 1.54 360 11:29 24.12.2021
4089 Clouds 10 1014 55 10000 1.03 0 10:59 24.12.2021
4090 Clouds 10 1014 54 10000 0.45 302 10:28 24.12.2021
4091 Clouds 12 1015 48 10000 1.03 0 08:28 24.12.2021
4092 Clouds 12 1015 46 10000 0.45 107 07:57 24.12.2021
4093 Clouds 13 1015 45 10000 0.89 140 06:18 24.12.2021
4094 Clouds 6 1020 55 10000 0.89 304 00:19 24.12.2021
4095 Clouds 5 1019 59 10000 4.63 350 23:23 23.12.2021
4096 Clouds 5 1018 59 10000 3.6 10 22:44 23.12.2021
4097 Clouds 5 1019 59 10000 0.45 301 22:21 23.12.2021
4098 Clouds 5 1020 58 10000 1.34 317 21:34 23.12.2021
4099 Clouds 5 1018 58 10000 3.09 310 20:21 23.12.2021
4100 Clouds 7 1019 57 10000 2.57 300 19:27 23.12.2021
4101 Clouds 8 1020 59 10000 1.34 291 17:57 23.12.2021
4102 Clouds 8 1020 59 10000 1.34 309 17:18 23.12.2021
4103 Clouds 8 1020 56 10000 5.66 160 16:26 23.12.2021
4104 Clouds 9 1020 53 10000 0.89 155 15:32 23.12.2021
4105 Clouds 9 1020 52 10000 0.89 110 14:56 23.12.2021
4106 Clouds 9 1020 52 10000 0.45 175 14:38 23.12.2021
4107 Clouds 9 1021 53 10000 0.89 116 13:23 23.12.2021
4108 Clouds 9 1021 49 10000 0.89 90 10:54 23.12.2021
4109 Clouds 10 1021 38 10000 0.89 213 09:52 23.12.2021
4110 Clouds 10 1021 33 10000 4.12 80 09:31 23.12.2021
4111 Clouds 11 1020 30 10000 1.54 20 08:25 23.12.2021
4112 Clouds 11 1020 27 10000 0.89 316 04:39 23.12.2021
4113 Clouds 7 1021 38 10000 2.24 319 00:34 23.12.2021
4114 Clouds 5 1021 43 10000 0.89 282 22:49 22.12.2021
4115 Clouds 5 1020 44 10000 1.34 303 21:57 22.12.2021
4116 Clouds 6 1019 43 10000 2.24 292 21:30 22.12.2021
4117 Clouds 6 1019 42 10000 1.79 288 20:58 22.12.2021
4118 Clouds 6 1019 43 10000 1.79 325 20:40 22.12.2021
4119 Clouds 6 1018 46 10000 2.24 355 19:42 22.12.2021
4120 Clouds 6 1018 45 10000 1.34 340 18:25 22.12.2021
4121 Clouds 6 1017 43 10000 2.68 334 17:38 22.12.2021
4122 Clouds 6 1017 46 10000 2.24 306 15:50 22.12.2021
4123 Clouds 6 1017 46 10000 1.79 265 13:57 22.12.2021
4124 Clouds 7 1017 44 10000 1.34 293 12:48 22.12.2021
4125 Clouds 8 1017 39 10000 3.13 214 11:39 22.12.2021
4126 Clouds 9 1016 37 10000 1.79 131 09:52 22.12.2021
4127 Clouds 11 1013 35 10000 1.34 13 07:56 22.12.2021
4128 Clouds 13 1012 36 10000 1.34 338 05:51 22.12.2021
4129 Clouds 13 1012 36 10000 2.24 292 05:33 22.12.2021
4130 Clouds 13 1012 39 10000 2.24 285 04:55 22.12.2021
4131 Clouds 13 1012 39 10000 1.79 298 04:35 22.12.2021
4132 Clouds 12 1012 42 10000 2.68 349 03:37 22.12.2021
4133 Clouds 12 1012 45 10000 2.24 322 03:18 22.12.2021
4134 Clouds 8 1012 58 10000 0.89 302 23:47 21.12.2021
4135 Clear 8 1011 61 10000 0.89 257 22:36 21.12.2021
4136 Clear 8 1011 61 10000 0.89 301 21:55 21.12.2021
4137 Clear 7 1011 63 10000 1.79 293 21:32 21.12.2021
4138 Clear 7 1011 63 10000 0.89 292 20:24 21.12.2021
4139 Clear 8 1010 63 10000 0.89 292 19:55 21.12.2021
4140 Clear 8 1010 66 10000 0.89 310 19:33 21.12.2021
4141 Clear 8 1010 66 10000 1.54 320 18:23 21.12.2021
4142 Clear 8 1010 66 10000 1.54 320 17:58 21.12.2021
4143 Clear 8 1010 67 10000 1.03 210 17:29 21.12.2021
4144 Clear 9 1010 69 10000 0.45 306 15:34 21.12.2021
4145 Clear 10 1010 71 10000 2.06 320 14:21 21.12.2021
4146 Clear 10 1010 74 10000 3.09 190 13:42 21.12.2021
4147 Clear 10 1010 73 10000 3.09 170 12:26 21.12.2021
4148 Clear 11 1010 66 10000 3.6 190 10:38 21.12.2021
4149 Clear 11 1010 64 10000 4.63 190 09:50 21.12.2021
4150 Clouds 12 1009 60 10000 1.54 180 08:55 21.12.2021
4151 Clouds 14 1009 57 10000 0.45 113 07:44 21.12.2021
4152 Clouds 14 1009 55 10000 0.89 101 07:22 21.12.2021
4153 Clear 11 1011 57 10000 0.45 97 03:26 21.12.2021
4154 Clear 8 1013 59 10000 0.51 0 01:25 21.12.2021
4155 Clouds 6 1014 64 10000 1.03 0 23:54 20.12.2021
4156 Clouds 5 1013 64 10000 1.54 160 22:35 20.12.2021
4157 Clouds 6 1013 64 10000 2.57 280 21:59 20.12.2021
4158 Clouds 5 1013 62 10000 2.06 290 21:27 20.12.2021
4159 Clouds 5 1014 62 10000 2.06 270 20:54 20.12.2021
4160 Clouds 5 1013 63 10000 0.89 293 20:23 20.12.2021
4161 Clouds 5 1014 61 10000 0.89 281 19:38 20.12.2021
4162 Clouds 5 1014 61 10000 0.45 275 19:19 20.12.2021
4163 Clouds 6 1015 62 10000 0.45 296 18:33 20.12.2021
4164 Clouds 6 1014 63 10000 0.89 282 17:50 20.12.2021
4165 Clouds 7 1015 62 10000 0.89 314 16:47 20.12.2021
4166 Clouds 7 1015 62 10000 0.89 298 16:18 20.12.2021
4167 Clouds 8 1015 62 10000 1.34 289 15:40 20.12.2021
4168 Clouds 8 1015 60 10000 2.57 110 13:49 20.12.2021
4169 Clouds 8 1015 61 10000 0.45 113 12:40 20.12.2021
4170 Clouds 9 1016 51 10000 4.63 160 10:50 20.12.2021
4171 Clouds 9 1016 44 10000 0.89 130 09:40 20.12.2021
4172 Clouds 10 1015 41 10000 2.57 120 08:50 20.12.2021
4173 Clouds 10 1015 41 10000 0.45 107 08:32 20.12.2021
4174 Clouds 11 1015 39 10000 0.89 88 07:38 20.12.2021
4175 Clouds 11 1015 45 10000 0.89 113 06:39 20.12.2021
4176 Clouds 4 1017 68 10000 0.45 298 00:26 20.12.2021
4177 Clouds 2 1017 73 10000 0.45 292 23:28 19.12.2021
4178 Clouds 3 1016 69 10000 0.89 294 22:44 19.12.2021
4179 Clouds 3 1016 72 10000 0.45 301 21:32 19.12.2021
4180 Clouds 3 1015 66 10000 0.89 304 20:44 19.12.2021
4181 Clouds 3 1015 66 10000 0.89 300 20:23 19.12.2021
4182 Clouds 4 1014 64 10000 0.89 261 19:42 19.12.2021
4183 Clouds 4 1014 64 10000 1.34 296 18:46 19.12.2021
4184 Clouds 4 1014 60 10000 0.89 295 17:54 19.12.2021
4185 Clouds 5 1014 58 10000 0.89 302 17:35 19.12.2021
4186 Clouds 5 1013 57 10000 0.89 292 16:45 19.12.2021
4187 Clouds 5 1013 55 10000 0.45 259 15:56 19.12.2021
4188 Clouds 5 1013 55 10000 0.89 315 15:25 19.12.2021
4189 Clouds 5 1013 55 10000 0.45 301 15:25 19.12.2021
4190 Clouds 5 1013 57 10000 3.6 310 14:45 19.12.2021
4191 Clouds 6 1013 54 10000 0.45 319 13:35 19.12.2021
4192 Clouds 6 1012 55 10000 3.6 320 12:59 19.12.2021
4193 Clouds 7 1012 53 10000 0.45 306 12:31 19.12.2021
4194 Clouds 7 1011 52 10000 0.45 331 11:38 19.12.2021
4195 Clouds 7 1011 54 10000 1.54 290 10:50 19.12.2021
4196 Clouds 7 1010 52 10000 0.45 59 10:22 19.12.2021
4197 Clouds 8 1009 46 10000 0.45 36 08:51 19.12.2021
4198 Clouds 10 1009 44 10000 0.45 50 06:51 19.12.2021
4199 Clouds 5 1012 47 10000 0.45 304 02:30 19.12.2021
4200 Clouds 4 1014 53 10000 0.45 65 00:55 19.12.2021
4201 Clouds 2 1014 53 10000 1.03 0 23:21 18.12.2021
4202 Clouds 2 1013 53 10000 1.54 280 22:28 18.12.2021
4203 Clouds 2 1013 53 10000 1.54 280 21:44 18.12.2021
4204 Clouds 2 1014 52 10000 1.54 290 21:26 18.12.2021
4205 Clouds 2 1014 51 10000 2.57 290 20:43 18.12.2021
4206 Clouds 2 1015 46 10000 1.34 295 19:40 18.12.2021
4207 Clouds 3 1015 46 10000 3.6 310 18:26 18.12.2021
4208 Clouds 3 1015 43 10000 0.45 298 17:49 18.12.2021
4209 Clouds 3 1014 38 10000 0.45 292 16:50 18.12.2021
4210 Clear 3 1014 39 10000 0.89 290 16:21 18.12.2021
4211 Clear 3 1015 40 10000 0.45 11 15:24 18.12.2021
4212 Clouds 3 1016 38 10000 0.45 5 13:58 18.12.2021
4213 Clouds 4 1016 38 10000 2.24 32 11:59 18.12.2021
4214 Clouds 4 1015 36 10000 2.68 299 10:42 18.12.2021
4215 Clouds 5 1014 34 10000 1.34 339 09:32 18.12.2021
4216 Clouds 6 1013 32 10000 2.24 333 08:36 18.12.2021
4217 Clouds 7 1013 28 10000 3.13 18 07:41 18.12.2021
4218 Clouds 5 1012 37 10000 1.34 312 01:47 18.12.2021
4219 Clouds 3 1011 46 10000 0.89 342 23:56 17.12.2021
4220 Clouds 2 1010 50 10000 0.89 331 22:51 17.12.2021
4221 Clouds 3 1009 50 10000 0.89 328 21:50 17.12.2021
4222 Clouds 3 1008 47 10000 2.68 285 20:48 17.12.2021
4223 Clouds 4 1007 46 10000 2.68 278 19:58 17.12.2021
4224 Clouds 5 1005 43 10000 5.81 298 18:40 17.12.2021
4225 Clouds 5 1005 44 10000 3.58 336 18:18 17.12.2021
4226 Clouds 5 1003 46 10000 6.26 265 17:20 17.12.2021
4227 Clouds 5 1002 50 10000 5.81 213 16:28 17.12.2021
4228 Clouds 6 1000 51 10000 5.36 304 15:51 17.12.2021
4229 Rain 6 998 58 10000 5.81 270 14:43 17.12.2021
4230 Clouds 7 997 56 10000 6.26 305 13:56 17.12.2021
4231 Clouds 11 993 65 10000 1.34 358 12:38 17.12.2021
4232 Clouds 11 993 82 10000 0.45 333 10:49 17.12.2021
4233 Clouds 11 993 83 10000 0.45 135 09:51 17.12.2021
4234 Clouds 11 994 80 10000 2.57 100 08:58 17.12.2021
4235 Clouds 12 994 78 10000 0.45 78 08:18 17.12.2021
4236 Clouds 11 994 77 10000 0.45 144 04:58 17.12.2021
4237 Rain 7 1000 86 4500 2.24 68 00:58 17.12.2021
4238 Mist 8 1001 81 4500 0.89 5 22:50 16.12.2021
4239 Rain 9 1003 76 8000 0.89 72 22:22 16.12.2021
4240 Rain 9 1004 73 10000 0.45 27 21:44 16.12.2021
4241 Rain 9 1005 71 10000 0.45 124 20:48 16.12.2021
4242 Rain 9 1006 69 10000 0.45 328 20:21 16.12.2021
4243 Rain 9 1007 69 10000 0.45 117 19:31 16.12.2021
4244 Rain 9 1008 66 10000 1.34 350 18:33 16.12.2021
4245 Rain 9 1009 67 10000 0.89 23 17:47 16.12.2021
4246 Rain 9 1009 67 10000 0.89 1 16:26 16.12.2021
4247 Clouds 10 1010 67 10000 0.45 51 15:50 16.12.2021
4248 Clear 11 1012 66 10000 6.69 230 13:46 16.12.2021
4249 Clear 12 1013 64 10000 0.45 286 12:30 16.12.2021
4250 Clouds 12 1013 64 10000 0.45 83 11:19 16.12.2021
4251 Clouds 12 1014 65 10000 0.45 162 10:41 16.12.2021
4252 Clouds 12 1014 68 10000 0.45 159 09:43 16.12.2021
4253 Clouds 14 1016 55 10000 0.89 233 07:18 16.12.2021
4254 Clouds 14 1015 50 10000 0.89 82 06:18 16.12.2021
4255 Clouds 7 1022 76 10000 3.6 300 23:59 15.12.2021
4256 Clouds 6 1022 66 10000 1.79 253 23:18 15.12.2021
4257 Clear 6 1022 68 10000 0.45 315 22:21 15.12.2021
4258 Clear 7 1021 73 10000 0.89 300 21:44 15.12.2021
4259 Clear 7 1021 74 10000 2.06 70 21:24 15.12.2021
4260 Clear 7 1022 70 10000 1.54 330 19:54 15.12.2021
4261 Clear 7 1022 72 10000 2.57 320 19:18 15.12.2021
4262 Clear 8 1022 69 10000 1.54 290 18:24 15.12.2021
4263 Clear 8 1022 67 10000 1.03 0 17:46 15.12.2021
4264 Clear 8 1021 67 10000 1.54 260 17:21 15.12.2021
4265 Clear 8 1021 66 10000 2.57 280 15:59 15.12.2021
4266 Clear 9 1021 63 10000 2.06 290 15:41 15.12.2021
4267 Clear 9 1021 64 10000 2.06 290 15:23 15.12.2021
4268 Clear 9 1020 70 10000 2.57 270 13:48 15.12.2021
4269 Clouds 9 1019 66 10000 0 0 11:52 15.12.2021
4270 Clouds 10 1017 62 10000 1.03 20 10:22 15.12.2021
4271 Clouds 12 1016 50 10000 0.45 104 08:27 15.12.2021
4272 Clouds 13 1015 52 10000 0.45 77 05:59 15.12.2021
4273 Clouds 6 1018 72 10000 2.57 300 00:45 15.12.2021
4274 Clouds 4 1018 78 10000 2.06 290 23:32 14.12.2021
4275 Clouds 4 1018 76 10000 1.54 290 22:45 14.12.2021
4276 Clouds 5 1017 76 10000 0.45 311 21:48 14.12.2021
4277 Clouds 4 1017 82 10000 2.57 310 20:24 14.12.2021
4278 Clouds 5 1017 80 10000 1.54 290 19:39 14.12.2021
4279 Clouds 6 1018 78 10000 1.54 280 18:42 14.12.2021
4280 Clouds 5 1018 76 10000 1.54 270 17:58 14.12.2021
4281 Clouds 5 1018 79 10000 2.06 270 16:58 14.12.2021
4282 Clouds 5 1017 79 10000 1.54 300 16:35 14.12.2021
4283 Clouds 6 1018 78 10000 2.06 260 14:39 14.12.2021
4284 Clouds 6 1018 80 10000 2.57 270 13:24 14.12.2021
4285 Clouds 6 1018 80 10000 2.06 20 11:56 14.12.2021
4286 Clouds 6 1018 82 10000 0.45 25 11:22 14.12.2021
4287 Clouds 6 1018 81 10000 0.89 215 09:55 14.12.2021
4288 Clouds 6 1018 81 10000 0.45 128 09:22 14.12.2021
4289 Clouds 6 1018 81 10000 0.89 125 08:23 14.12.2021
4290 Clouds 6 1018 81 10000 0.89 125 08:23 14.12.2021
4291 Mist 6 1018 83 5000 0.89 110 07:42 14.12.2021
4292 Clouds 6 1023 51 10000 0.89 8 01:46 14.12.2021
4293 Clouds 5 1021 51 10000 0.89 96 22:49 13.12.2021
4294 Clouds 5 1020 52 10000 0.89 64 21:52 13.12.2021
4295 Clouds 5 1020 52 10000 0.89 64 21:52 13.12.2021
4296 Clouds 5 1020 51 10000 1.34 79 20:59 13.12.2021
4297 Clouds 5 1020 51 10000 1.34 30 20:31 13.12.2021
4298 Clouds 6 1020 50 10000 1.34 95 19:52 13.12.2021
4299 Clouds 6 1019 49 10000 1.34 87 17:56 13.12.2021
4300 Clouds 6 1019 48 10000 2.24 169 17:23 13.12.2021
4301 Clouds 6 1019 48 10000 1.34 27 15:49 13.12.2021
4302 Clouds 6 1019 48 10000 2.68 357 15:19 13.12.2021
4303 Clouds 6 1018 47 10000 3.13 338 13:38 13.12.2021
4304 Clouds 7 1018 45 10000 3.13 326 12:42 13.12.2021
4305 Clouds 7 1017 43 10000 3.13 351 11:54 13.12.2021
4306 Clouds 7 1017 42 10000 3.13 338 11:35 13.12.2021
4307 Clouds 8 1016 42 10000 3.13 352 10:43 13.12.2021
4308 Clouds 10 1015 36 10000 3.58 12 08:57 13.12.2021
4309 Clouds 12 1013 30 10000 3.13 2 07:46 13.12.2021
4310 Clouds 13 1011 30 10000 3.13 348 05:35 13.12.2021
4311 Clouds 10 1011 46 10000 3.13 319 00:43 13.12.2021
4312 Clouds 9 1009 50 10000 2.24 36 22:23 12.12.2021
4313 Clouds 10 1008 51 10000 3.13 347 21:38 12.12.2021
4314 Clouds 11 1006 61 10000 2.68 36 19:47 12.12.2021
4315 Clouds 10 1006 73 10000 0.89 68 18:36 12.12.2021
4316 Clouds 10 1005 75 10000 0.45 136 17:31 12.12.2021
4317 Clouds 10 1006 70 10000 4.63 290 16:27 12.12.2021
4318 Clouds 11 1006 69 10000 3.09 300 15:45 12.12.2021
4319 Clouds 11 1006 67 10000 0.45 318 15:25 12.12.2021
4320 Clouds 12 1005 68 10000 4.63 320 14:34 12.12.2021
4321 Clouds 13 1006 62 10000 0.89 7 13:26 12.12.2021
4322 Clouds 14 1006 63 10000 0.45 23 12:30 12.12.2021
4323 Clouds 14 1006 62 10000 0.89 303 11:44 12.12.2021
4324 Clouds 14 1007 61 10000 0.89 278 11:20 12.12.2021
4325 Clouds 15 1007 63 10000 0.45 192 10:22 12.12.2021
4326 Clouds 15 1007 62 10000 0.45 129 09:38 12.12.2021
4327 Clouds 16 1008 58 10000 0.89 139 07:57 12.12.2021
4328 Clouds 16 1010 60 6000 0.89 141 05:57 12.12.2021
4329 Clouds 14 1012 61 6000 0.89 96 04:56 12.12.2021
4330 Clouds 12 1014 64 6000 0.45 134 03:31 12.12.2021
4331 Clouds 9 1017 78 10000 0.89 15 23:44 11.12.2021
4332 Clouds 9 1018 77 10000 0.45 323 22:22 11.12.2021
4333 Clouds 9 1018 79 10000 0.89 1 21:52 11.12.2021
4334 Clouds 9 1018 77 10000 0.45 19 20:51 11.12.2021
4335 Clouds 10 1019 72 10000 1.03 360 19:27 11.12.2021
4336 Clouds 9 1019 69 10000 1.03 280 18:52 11.12.2021
4337 Clouds 9 1020 68 10000 1.54 270 18:25 11.12.2021
4338 Clouds 10 1020 68 10000 1.54 250 17:21 11.12.2021
4339 Clear 10 1020 68 10000 1.03 0 15:55 11.12.2021
4340 Clear 11 1021 66 10000 1.54 280 15:28 11.12.2021
4341 Clear 11 1021 65 10000 0.45 158 12:59 11.12.2021
4342 Clear 11 1021 61 10000 2.06 200 11:26 11.12.2021
4343 Clear 13 1020 55 10000 0.45 155 09:47 11.12.2021
4344 Clear 14 1020 51 10000 0.45 135 08:28 11.12.2021
4345 Clouds 11 1023 67 9000 0.45 146 02:40 11.12.2021
4346 Clouds 7 1023 77 10000 1.03 0 00:40 11.12.2021
4347 Clouds 5 1023 80 10000 1.03 250 23:23 10.12.2021
4348 Clouds 5 1022 81 10000 3.09 20 21:57 10.12.2021
4349 Clouds 6 1022 80 10000 2.57 10 21:36 10.12.2021
4350 Clouds 7 1023 78 10000 0.89 311 19:22 10.12.2021
4351 Clouds 7 1022 78 10000 0.45 316 18:39 10.12.2021
4352 Clouds 7 1022 77 10000 2.06 340 16:57 10.12.2021
4353 Clouds 7 1022 74 10000 0.89 317 16:30 10.12.2021
4354 Clouds 8 1023 70 10000 2.06 330 15:42 10.12.2021
4355 Clouds 8 1023 68 10000 3.09 360 15:22 10.12.2021
4356 Clouds 8 1023 67 10000 3.6 360 13:52 10.12.2021
4357 Clouds 8 1023 68 10000 3.09 10 13:26 10.12.2021
4358 Clouds 9 1024 66 10000 3.6 10 12:47 10.12.2021
4359 Clouds 9 1023 65 10000 3.6 10 11:34 10.12.2021
4360 Clouds 9 1022 63 10000 4.12 20 10:38 10.12.2021
4361 Clouds 10 1022 60 10000 0.89 43 09:19 10.12.2021
4362 Clouds 12 1022 56 10000 1.34 78 07:21 10.12.2021
4363 Clouds 10 1026 60 10000 2.24 10 02:51 10.12.2021
4364 Clouds 8 1027 65 10000 1.34 349 00:57 10.12.2021
4365 Clouds 7 1026 70 10000 0.89 3 23:38 09.12.2021
4366 Clouds 7 1026 70 10000 0.45 92 22:41 09.12.2021
4367 Clouds 7 1027 70 10000 0.89 114 22:20 09.12.2021
4368 Clouds 8 1026 69 10000 1.34 3 21:20 09.12.2021
4369 Clouds 8 1026 69 10000 0.89 357 20:34 09.12.2021
4370 Clouds 8 1027 68 10000 0.89 325 19:22 09.12.2021
4371 Clouds 8 1027 68 10000 1.34 95 18:59 09.12.2021
4372 Clouds 8 1027 68 10000 1.34 50 17:58 09.12.2021
4373 Clouds 8 1027 67 10000 0.89 71 17:29 09.12.2021
4374 Clouds 9 1027 65 10000 0.89 8 16:57 09.12.2021
4375 Clouds 9 1027 65 10000 0.89 354 16:20 09.12.2021
4376 Clouds 9 1027 63 10000 1.34 97 14:59 09.12.2021
4377 Clouds 9 1028 64 10000 1.34 90 13:52 09.12.2021
4378 Clouds 9 1028 65 10000 0.89 117 12:47 09.12.2021
4379 Clouds 10 1028 64 10000 0.45 126 11:29 09.12.2021
4380 Clouds 10 1027 61 10000 0.89 123 10:20 09.12.2021
4381 Clouds 13 1026 51 10000 1.34 65 06:59 09.12.2021
4382 Clouds 13 1027 55 10000 1.34 62 03:55 09.12.2021
4383 Clouds 9 1027 73 10000 1.34 31 00:25 09.12.2021
4384 Clouds 9 1027 77 10000 1.34 67 23:37 08.12.2021
4385 Clouds 9 1026 77 10000 1.34 6 22:57 08.12.2021
4386 Clouds 9 1026 79 10000 1.34 76 22:25 08.12.2021
4387 Clouds 9 1026 78 10000 1.34 29 21:33 08.12.2021
4388 Clouds 9 1025 78 10000 2.24 26 20:48 08.12.2021
4389 Rain 9 1025 78 10000 1.34 106 19:56 08.12.2021
4390 Rain 9 1025 78 10000 1.34 112 18:58 08.12.2021
4391 Rain 9 1025 80 10000 1.34 82 18:22 08.12.2021
4392 Rain 9 1023 79 10000 2.24 2 16:53 08.12.2021
4393 Clouds 9 1023 80 10000 1.34 47 15:41 08.12.2021
4394 Rain 9 1023 81 10000 1.34 12 15:22 08.12.2021
4395 Rain 9 1022 86 10000 2.24 77 13:21 08.12.2021
4396 Clouds 9 1021 87 10000 2.24 340 10:44 08.12.2021
4397 Clouds 9 1020 88 10000 2.24 139 09:32 08.12.2021
4398 Rain 10 1020 86 10000 3.13 20 08:32 08.12.2021
4399 Clouds 10 1018 85 10000 3.58 21 06:22 08.12.2021
4400 Rain 9 1017 91 7000 3.58 300 00:41 08.12.2021
4401 Rain 10 1017 90 7000 3.13 18 23:22 07.12.2021
4402 Clouds 10 1015 91 6000 2.68 344 21:25 07.12.2021
4403 Clouds 10 1015 92 9000 3.13 343 20:25 07.12.2021
4404 Clouds 10 1015 92 10000 4.47 26 19:21 07.12.2021
4405 Clouds 10 1014 92 10000 4.02 15 18:23 07.12.2021
4406 Rain 11 1015 91 10000 3.13 56 17:27 07.12.2021
4407 Rain 11 1015 92 8000 3.13 144 16:53 07.12.2021
4408 Clouds 11 1015 93 8000 3.13 325 16:25 07.12.2021
4409 Rain 11 1016 93 10000 3.13 19 14:38 07.12.2021
4410 Rain 11 1017 93 10000 2.24 344 13:41 07.12.2021
4411 Rain 12 1017 92 4000 2.24 32 12:22 07.12.2021
4412 Clouds 12 1017 88 10000 1.34 76 11:19 07.12.2021
4413 Rain 14 1016 77 10000 2.24 49 09:40 07.12.2021
4414 Clouds 15 1016 72 10000 2.24 13 07:50 07.12.2021
4415 Rain 15 1017 69 10000 2.24 9 05:52 07.12.2021
4416 Clouds 15 1017 69 10000 1.34 14 05:26 07.12.2021
4417 Rain 10 1021 84 10000 1.34 338 23:38 06.12.2021
4418 Rain 10 1021 85 10000 0.45 54 22:41 06.12.2021
4419 Rain 10 1021 84 10000 0.89 86 21:59 06.12.2021
4420 Clouds 10 1021 84 10000 0.89 66 21:36 06.12.2021
4421 Rain 10 1021 84 10000 1.34 350 20:33 06.12.2021
4422 Clouds 10 1021 84 10000 1.34 332 19:25 06.12.2021
4423 Clouds 10 1022 83 10000 1.34 70 18:55 06.12.2021
4424 Clouds 10 1023 82 10000 0.45 101 17:55 06.12.2021
4425 Clouds 10 1023 81 10000 0.45 338 17:34 06.12.2021
4426 Clouds 10 1024 78 10000 0.89 24 15:52 06.12.2021
4427 Clouds 11 1026 76 10000 1.34 357 14:46 06.12.2021
4428 Clouds 10 1026 76 10000 1.34 356 13:36 06.12.2021
4429 Rain 10 1026 74 10000 1.34 0 12:39 06.12.2021
4430 Rain 10 1027 68 10000 1.34 354 10:30 06.12.2021
4431 Clouds 10 1027 59 10000 2.24 338 07:41 06.12.2021
4432 Clouds 10 1029 55 10000 2.24 324 03:52 06.12.2021
4433 Clouds 7 1030 62 10000 1.34 347 22:28 05.12.2021
4434 Clouds 7 1030 62 10000 1.34 5 21:26 05.12.2021
4435 Clouds 7 1030 63 10000 1.34 48 20:58 05.12.2021
4436 Clouds 8 1031 61 10000 1.34 304 20:18 05.12.2021
4437 Clouds 7 1031 61 10000 1.34 243 19:26 05.12.2021
4438 Clouds 8 1031 61 10000 1.34 315 18:39 05.12.2021
4439 Clouds 8 1031 62 10000 1.34 315 18:18 05.12.2021
4440 Clouds 8 1031 62 10000 0.89 295 17:45 05.12.2021
4441 Clouds 9 1030 61 10000 1.34 27 16:41 05.12.2021
4442 Clouds 9 1030 60 10000 1.34 21 16:22 05.12.2021
4443 Clouds 9 1031 59 10000 0.45 118 14:48 05.12.2021
4444 Clouds 9 1031 59 10000 0.89 115 14:30 05.12.2021
4445 Clouds 9 1031 59 10000 0.45 111 13:38 05.12.2021
4446 Clouds 9 1031 60 10000 0.45 100 12:55 05.12.2021
4447 Clouds 9 1031 61 10000 0.45 99 12:29 05.12.2021
4448 Clouds 9 1030 60 10000 0.89 111 11:49 05.12.2021
4449 Clouds 9 1030 59 10000 0.89 127 10:51 05.12.2021
4450 Clouds 9 1029 56 10000 0.89 106 09:53 05.12.2021
4451 Clouds 11 1028 43 10000 0.45 123 07:33 05.12.2021
4452 Clouds 9 1028 46 10000 2.24 228 02:25 05.12.2021
4453 Clouds 6 1026 54 10000 2.24 21 23:28 04.12.2021
4454 Clouds 6 1024 51 10000 2.68 7 21:54 04.12.2021
4455 Clouds 7 1022 49 10000 2.68 36 20:50 04.12.2021
4456 Clouds 7 1022 46 10000 3.58 10 19:54 04.12.2021
4457 Clouds 7 1021 47 10000 3.13 359 19:31 04.12.2021
4458 Clouds 8 1020 47 10000 2.68 355 17:59 04.12.2021
4459 Clouds 8 1020 46 10000 2.68 335 17:38 04.12.2021
4460 Clouds 8 1019 46 10000 2.24 11 16:48 04.12.2021
4461 Clouds 8 1019 46 10000 2.24 11 16:48 04.12.2021
4462 Clouds 8 1019 45 10000 3.13 322 16:30 04.12.2021
4463 Clouds 9 1018 44 10000 2.24 346 15:18 04.12.2021
4464 Clouds 12 1013 48 10000 1.34 2 11:50 04.12.2021
4465 Clouds 12 1013 48 10000 1.34 45 11:32 04.12.2021
4466 Clouds 12 1013 54 10000 2.06 60 10:43 04.12.2021
4467 Clouds 13 1010 45 10000 0.45 118 08:46 04.12.2021
4468 Clouds 15 1009 42 10000 0.45 138 06:26 04.12.2021
4469 Clouds 14 1009 46 10000 0.89 240 04:42 04.12.2021
4470 Clouds 10 1011 62 10000 0.45 308 00:18 04.12.2021
4471 Clouds 8 1011 63 10000 2.06 280 23:20 03.12.2021
4472 Clouds 8 1011 66 10000 0.45 300 22:41 03.12.2021
4473 Clouds 8 1010 60 10000 1.03 220 21:25 03.12.2021
4474 Clouds 8 1010 59 10000 2.06 280 20:52 03.12.2021
4475 Clouds 8 1009 61 10000 0.89 299 19:50 03.12.2021
4476 Clouds 9 1010 58 10000 2.06 280 18:34 03.12.2021
4477 Clouds 9 1010 61 10000 2.06 290 17:59 03.12.2021
4478 Clouds 10 1010 57 10000 0.45 337 15:47 03.12.2021
4479 Clouds 11 1010 57 10000 0.89 302 12:54 03.12.2021
4480 Clouds 12 1009 51 10000 2.06 190 11:49 03.12.2021
4481 Clouds 12 1009 48 10000 3.6 250 10:55 03.12.2021
4482 Clouds 15 1008 41 10000 1.34 313 08:27 03.12.2021
4483 Clouds 16 1008 38 10000 1.34 89 07:43 03.12.2021
4484 Clouds 14 1010 49 10000 1.34 173 04:43 03.12.2021
4485 Clouds 9 1015 56 10000 0.45 105 00:48 03.12.2021
4486 Clouds 7 1015 63 10000 3.09 310 23:47 02.12.2021
4487 Clouds 7 1015 66 10000 2.57 350 22:36 02.12.2021
4488 Clouds 7 1016 57 10000 1.03 0 21:41 02.12.2021
4489 Clouds 7 1016 61 10000 2.57 310 20:44 02.12.2021
4490 Clouds 7 1016 61 10000 2.57 310 20:20 02.12.2021
4491 Clouds 6 1017 61 10000 4.12 300 18:35 02.12.2021
4492 Clouds 11 1018 66 10000 3.09 360 16:33 02.12.2021
4493 Clouds 10 1018 62 10000 4.12 40 15:37 02.12.2021
4494 Clouds 11 1017 62 10000 0.45 98 14:51 02.12.2021
4495 Clouds 11 1018 60 10000 0.45 115 13:26 02.12.2021
4496 Clouds 11 1018 55 10000 0.45 104 12:23 02.12.2021
4497 Clouds 11 1017 43 10000 0.45 136 10:42 02.12.2021
4498 Clouds 11 1016 37 10000 0.45 123 09:25 02.12.2021
4499 Clouds 13 1015 28 10000 0.89 134 06:59 02.12.2021
4500 Clear 10 1014 40 10000 1.34 358 00:59 02.12.2021
4501 Clouds 8 1012 47 10000 0.45 118 23:34 01.12.2021
4502 Clouds 8 1011 46 10000 0.89 56 22:25 01.12.2021
4503 Clear 8 1010 44 10000 1.34 7 21:43 01.12.2021
4504 Clear 8 1008 43 10000 1.34 21 20:23 01.12.2021
4505 Clear 9 1007 42 10000 2.24 358 19:40 01.12.2021
4506 Clouds 9 1006 39 10000 2.24 45 18:42 01.12.2021
4507 Clouds 10 1004 39 10000 0.45 181 16:59 01.12.2021
4508 Clouds 10 1004 39 10000 1.34 319 16:21 01.12.2021
4509 Clouds 11 1003 38 10000 1.34 283 14:30 01.12.2021
4510 Clouds 12 1002 37 10000 1.34 325 13:37 01.12.2021
4511 Clouds 14 1000 36 10000 0.89 83 10:44 01.12.2021
4512 Clouds 15 999 35 10000 0.89 56 10:22 01.12.2021
4513 Clouds 17 998 37 10000 2.24 36 08:52 01.12.2021
4514 Clouds 18 996 39 10000 2.24 71 07:58 01.12.2021
4515 Clouds 19 996 40 10000 1.34 55 07:27 01.12.2021
4516 Clouds 19 995 64 10000 0.89 97 03:55 01.12.2021
4517 Clouds 17 995 78 10000 0.89 6 03:20 01.12.2021
4518 Mist 18 995 95 10000 7.2 220 00:34 01.12.2021
4519 Mist 17 995 95 4000 2.24 124 23:29 30.11.2021
4520 Mist 17 997 94 3000 2.24 171 22:32 30.11.2021
4521 Rain 17 1000 92 4800 4.02 145 20:47 30.11.2021
4522 Rain 17 1001 90 4800 3.58 145 20:25 30.11.2021
4523 Clouds 16 1002 92 8000 2.24 167 19:39 30.11.2021
4524 Rain 16 1004 91 10000 2.68 134 18:54 30.11.2021
4525 Clouds 16 1006 94 10000 0.89 152 17:46 30.11.2021
4526 Rain 15 1009 92 10000 1.79 153 16:25 30.11.2021
4527 Rain 14 1012 85 10000 0.45 162 14:35 30.11.2021
4528 Rain 14 1014 85 10000 0.45 142 13:41 30.11.2021
4529 Clouds 15 1014 80 10000 0.45 109 12:54 30.11.2021
4530 Rain 15 1015 76 10000 0.89 140 12:21 30.11.2021
4531 Clouds 15 1015 76 10000 0.89 138 11:26 30.11.2021
4532 Clouds 15 1016 74 10000 2.24 150 10:36 30.11.2021
4533 Clouds 16 1017 72 10000 1.34 153 08:59 30.11.2021
4534 Clouds 16 1017 71 10000 1.34 138 08:40 30.11.2021
4535 Clouds 16 1017 69 10000 2.24 139 08:19 30.11.2021
4536 Clouds 17 1018 56 10000 2.24 164 06:39 30.11.2021
4537 Clouds 9 1024 55 10000 0.89 232 01:52 30.11.2021
4538 Clouds 9 1024 56 10000 0.89 188 01:28 30.11.2021
4539 Clouds 6 1025 63 10000 1.54 10 23:54 29.11.2021
4540 Clouds 5 1025 70 10000 2.06 320 23:20 29.11.2021
4541 Clouds 6 1025 68 10000 2.57 310 22:44 29.11.2021
4542 Clouds 7 1025 66 10000 3.09 10 22:25 29.11.2021
4543 Clouds 6 1025 68 10000 4.12 20 21:21 29.11.2021
4544 Clouds 7 1025 66 10000 4.12 20 20:55 29.11.2021
4545 Clouds 6 1025 65 10000 0.51 0 20:22 29.11.2021
4546 Clouds 6 1024 63 10000 1.54 300 19:44 29.11.2021
4547 Clouds 7 1024 63 10000 1.54 300 19:25 29.11.2021
4548 Clouds 10 1026 37 10000 1.81 341 18:45 29.11.2021
4549 Clouds 10 1027 38 10000 1.96 341 17:22 29.11.2021
4550 Clouds 10 1027 38 10000 1.96 341 16:56 29.11.2021
4551 Clouds 11 1027 39 10000 1.88 345 16:25 29.11.2021
4552 Clouds 11 1027 40 10000 1.73 345 15:24 29.11.2021
4553 Clouds 11 1027 40 10000 1.73 345 14:41 29.11.2021
4554 Clouds 11 1027 41 10000 2.49 356 13:25 29.11.2021
4555 Clouds 12 1028 42 10000 3.04 344 12:20 29.11.2021
4556 Clouds 12 1028 42 10000 3.04 344 11:31 29.11.2021
4557 Clouds 13 1027 47 10000 1.88 315 10:27 29.11.2021
4558 Clouds 11 1026 57 10000 1.54 140 08:30 29.11.2021
4559 Clouds 12 1027 51 10000 2.06 140 05:54 29.11.2021
4560 Clouds 7 1031 54 10000 3.09 330 01:31 29.11.2021
4561 Clouds 7 1031 61 10000 4.12 340 00:35 29.11.2021
4562 Clouds 4 1031 70 10000 3.6 320 23:41 28.11.2021
4563 Clouds 4 1031 65 10000 3.09 310 22:29 28.11.2021
4564 Clouds 4 1031 65 10000 3.09 350 21:41 28.11.2021
4565 Clouds 6 1030 57 10000 4.63 10 20:51 28.11.2021
4566 Clouds 7 1031 57 10000 5.14 20 19:54 28.11.2021
4567 Clouds 7 1031 53 10000 3.6 10 18:42 28.11.2021
4568 Clouds 7 1031 53 10000 3.6 10 18:23 28.11.2021
4569 Clouds 7 1031 53 10000 3.6 10 17:46 28.11.2021
4570 Clouds 7 1031 53 10000 3.09 10 17:27 28.11.2021
4571 Clouds 7 1031 57 10000 4.63 10 16:28 28.11.2021
4572 Clouds 8 1031 53 10000 4.63 20 15:52 28.11.2021
4573 Clouds 8 1031 50 10000 4.12 10 14:56 28.11.2021
4574 Clouds 8 1031 50 10000 4.63 20 14:30 28.11.2021
4575 Clouds 9 1031 43 10000 6.17 360 12:55 28.11.2021
4576 Clouds 9 1031 46 10000 5.66 330 11:56 28.11.2021
4577 Clouds 10 1030 40 10000 6.17 340 10:37 28.11.2021
4578 Clouds 10 1030 40 10000 7.72 350 10:19 28.11.2021
4579 Clouds 11 1029 40 10000 5.14 360 09:36 28.11.2021
4580 Clouds 14 1028 33 10000 3.6 330 05:50 28.11.2021
4581 Clouds 6 1030 61 10000 4.12 50 23:23 27.11.2021
4582 Clouds 5 1027 57 10000 4.12 310 20:33 27.11.2021
4583 Clouds 6 1027 49 10000 5.66 330 18:47 27.11.2021
4584 Clouds 6 1026 49 10000 5.66 330 16:31 27.11.2021
4585 Clouds 7 1026 49 10000 6.17 320 15:32 27.11.2021
4586 Clouds 6 1026 49 10000 7.72 330 13:46 27.11.2021
4587 Clouds 7 1025 49 10000 7.2 320 12:29 27.11.2021
4588 Clouds 8 1024 43 10000 10.8 330 10:32 27.11.2021
4589 Clouds 10 1023 37 10000 9.26 340 09:43 27.11.2021
4590 Clouds 12 1021 31 10000 6.17 310 07:44 27.11.2021
4591 Clouds 13 1020 37 10000 5.66 320 04:58 27.11.2021
4592 Clouds 11 1021 46 10000 4.63 330 01:53 27.11.2021
4593 Clouds 8 1019 53 10000 7.2 360 23:35 26.11.2021
4594 Clouds 8 1019 53 10000 5.66 320 22:25 26.11.2021
4595 Clouds 8 1017 50 10000 6.69 330 21:35 26.11.2021
4596 Clouds 8 1016 54 10000 7.72 340 20:46 26.11.2021
4597 Clouds 8 1016 54 10000 7.72 340 20:19 26.11.2021
4598 Clouds 8 1016 53 10000 7.72 340 19:47 26.11.2021
4599 Clouds 9 1015 54 10000 7.2 330 18:33 26.11.2021
4600 Clouds 9 1015 58 10000 3.6 310 17:23 26.11.2021
4601 Clouds 10 1014 66 10000 3.6 260 15:57 26.11.2021
4602 Clear 12 1014 69 10000 1.03 0 13:36 26.11.2021
4603 Clouds 13 1013 68 10000 0.45 191 12:34 26.11.2021
4604 Clouds 14 1013 61 10000 3.6 120 10:38 26.11.2021
4605 Clouds 15 1013 50 10000 0.89 181 08:59 26.11.2021
4606 Clouds 16 1013 47 10000 0.89 173 08:21 26.11.2021
4607 Clouds 16 1012 42 10000 0.89 136 07:33 26.11.2021
4608 Clouds 16 1012 41 10000 1.34 148 06:28 26.11.2021
4609 Clouds 16 1013 43 10000 0.89 101 04:51 26.11.2021
4610 Clouds 16 1014 42 10000 0.89 320 03:25 26.11.2021
4611 Clouds 10 1015 59 10000 0.89 286 23:27 25.11.2021
4612 Clouds 10 1014 59 10000 0.45 279 21:50 25.11.2021
4613 Clouds 10 1013 61 10000 0.89 314 20:37 25.11.2021
4614 Clouds 11 1012 52 10000 1.54 260 18:48 25.11.2021
4615 Clouds 12 1012 51 10000 0.89 330 17:48 25.11.2021
4616 Clouds 12 1012 51 10000 2.06 330 17:26 25.11.2021
4617 Clouds 12 1011 53 10000 4.12 260 16:34 25.11.2021
4618 Clouds 12 1011 50 10000 0.45 292 15:58 25.11.2021
4619 Clouds 13 1010 47 10000 1.34 179 14:19 25.11.2021
4620 Clouds 13 1010 45 10000 0.89 105 12:47 25.11.2021
4621 Clouds 14 1009 44 10000 1.34 103 11:52 25.11.2021
4622 Clouds 15 1009 45 10000 0.45 131 09:56 25.11.2021
4623 Clouds 18 1007 42 10000 0.45 153 06:24 25.11.2021
4624 Clouds 15 1011 46 10000 1.34 189 02:53 25.11.2021
4625 Clouds 8 1012 63 10000 1.54 290 23:39 24.11.2021
4626 Clouds 8 1013 58 10000 0.51 0 22:28 24.11.2021
4627 Clouds 9 1012 55 10000 0.45 22 21:45 24.11.2021
4628 Clouds 9 1011 57 10000 0.45 14 20:58 24.11.2021
4629 Clouds 9 1011 56 10000 2.57 280 20:26 24.11.2021
4630 Clouds 10 1011 49 10000 2.06 10 18:58 24.11.2021
4631 Clouds 10 1011 48 10000 0.45 313 18:18 24.11.2021
4632 Clouds 11 1011 44 10000 3.6 30 16:20 24.11.2021
4633 Clouds 11 1011 39 10000 3.09 20 14:56 24.11.2021
4634 Clouds 12 1011 39 10000 3.6 20 14:21 24.11.2021
4635 Clouds 12 1011 43 10000 0.45 124 12:51 24.11.2021
4636 Clouds 12 1010 44 10000 0.89 110 11:22 24.11.2021
4637 Clouds 12 1010 46 10000 0.45 349 10:50 24.11.2021
4638 Clouds 13 1009 44 10000 0.89 132 10:27 24.11.2021
4639 Clouds 15 1007 40 10000 1.34 194 07:59 24.11.2021
4640 Clouds 16 1006 38 10000 0.45 188 06:59 24.11.2021
4641 Clouds 16 1006 37 10000 1.34 159 03:59 24.11.2021
4642 Clouds 13 1007 45 10000 1.34 49 01:36 24.11.2021
4643 Clouds 10 1006 49 10000 1.34 136 23:30 23.11.2021
4644 Clouds 9 1006 51 10000 1.34 127 22:34 23.11.2021
4645 Clouds 9 1005 52 10000 0.89 162 21:45 23.11.2021
4646 Clouds 10 1005 48 10000 0.89 185 20:21 23.11.2021
4647 Clouds 9 1005 49 10000 0.45 304 19:22 23.11.2021
4648 Clouds 10 1005 51 10000 1.34 261 18:33 23.11.2021
4649 Clouds 10 1005 51 10000 0.45 257 17:23 23.11.2021
4650 Clouds 11 1005 54 10000 0.89 302 16:35 23.11.2021
4651 Clouds 11 1005 50 10000 1.34 292 15:25 23.11.2021
4652 Clouds 11 1005 51 10000 5.14 260 14:44 23.11.2021
4653 Clouds 12 1004 61 10000 0.89 340 12:53 23.11.2021
4654 Clouds 14 1003 54 10000 0.45 137 10:28 23.11.2021
4655 Clouds 14 1003 54 10000 1.34 154 09:45 23.11.2021
4656 Clouds 16 1002 47 10000 0.89 155 07:51 23.11.2021
4657 Clouds 15 1003 43 10000 0.89 265 04:53 23.11.2021
4658 Clouds 15 1003 44 10000 0.89 319 03:29 23.11.2021
4659 Clouds 12 1003 52 10000 2.24 91 23:35 22.11.2021
4660 Clouds 12 1003 52 10000 2.24 303 22:57 22.11.2021
4661 Clouds 12 1002 52 10000 2.68 90 22:30 22.11.2021
4662 Clouds 13 1002 53 10000 1.34 336 21:44 22.11.2021
4663 Rain 13 1001 54 10000 3.13 323 21:19 22.11.2021
4664 Clouds 13 1000 56 10000 2.68 351 20:26 22.11.2021
4665 Rain 14 1000 60 10000 3.13 332 19:20 22.11.2021
4666 Rain 14 1000 64 10000 2.68 277 18:40 22.11.2021
4667 Rain 14 999 70 10000 4.02 103 17:48 22.11.2021
4668 Clouds 14 998 80 10000 0.89 281 16:31 22.11.2021
4669 Clouds 14 998 85 10000 2.24 241 15:29 22.11.2021
4670 Rain 13 998 93 7000 2.24 6 12:51 22.11.2021
4671 Rain 14 998 100 8000 4.63 300 11:34 22.11.2021
4672 Rain 17 999 94 4000 6.17 180 10:22 22.11.2021
4673 Rain 16 1000 96 4500 0.45 162 08:43 22.11.2021
4674 Rain 16 1001 94 4500 0.45 71 08:23 22.11.2021
4675 Mist 13 1012 94 4500 0.45 313 01:36 22.11.2021
4676 Rain 12 1013 94 10000 1.34 7 23:21 21.11.2021
4677 Clouds 12 1013 94 10000 0.89 28 22:43 21.11.2021
4678 Mist 12 1014 94 5000 1.34 39 20:55 21.11.2021
4679 Clouds 12 1015 95 7000 1.34 332 20:34 21.11.2021
4680 Clouds 12 1016 95 8000 0.45 101 18:55 21.11.2021
4681 Rain 12 1017 95 4000 0.89 35 17:57 21.11.2021
4682 Rain 12 1017 95 8000 0.89 35 17:36 21.11.2021
4683 Rain 12 1019 95 3500 0.89 15 14:56 21.11.2021
4684 Mist 12 1020 95 4000 0.89 150 14:38 21.11.2021
4685 Rain 13 1021 94 3000 0.89 333 12:59 21.11.2021
4686 Rain 13 1021 92 5000 0.89 9 12:27 21.11.2021
4687 Rain 13 1021 92 5000 0.89 101 11:38 21.11.2021
4688 Rain 13 1021 86 7000 0.45 277 10:19 21.11.2021
4689 Rain 14 1021 82 8000 0.45 2 09:47 21.11.2021
4690 Clouds 14 1021 73 10000 0.45 115 08:33 21.11.2021
4691 Clouds 15 1021 69 10000 0.89 309 07:53 21.11.2021
4692 Rain 15 1021 64 10000 0.45 141 06:37 21.11.2021
4693 Clouds 15 1021 63 10000 0.45 129 05:42 21.11.2021
4694 Clouds 15 1022 66 10000 0.89 9 03:26 21.11.2021
4695 Clouds 14 1023 69 10000 0.89 120 02:56 21.11.2021
4696 Clouds 14 1023 69 10000 0.89 271 02:32 21.11.2021
4697 Clouds 12 1023 74 10000 0.89 188 00:50 21.11.2021
4698 Clouds 11 1023 75 10000 4.63 360 22:55 20.11.2021
4699 Clouds 12 1022 74 10000 0.45 273 21:34 20.11.2021
4700 Clouds 12 1023 73 10000 0.89 310 20:33 20.11.2021
4701 Clouds 12 1022 74 10000 0.89 299 18:45 20.11.2021
4702 Clouds 12 1022 74 10000 0.89 299 18:45 20.11.2021
4703 Clouds 12 1021 74 10000 0.45 295 18:24 20.11.2021
4704 Clouds 12 1022 72 10000 4.63 360 17:22 20.11.2021
4705 Clouds 13 1022 72 10000 0.45 111 15:54 20.11.2021
4706 Clouds 13 1022 72 10000 0.45 88 14:39 20.11.2021
4707 Clouds 13 1022 72 10000 0.45 90 14:21 20.11.2021
4708 Clear 14 1021 69 10000 0.89 157 11:56 20.11.2021
4709 Clear 14 1020 67 10000 2.24 104 10:28 20.11.2021
4710 Clouds 16 1018 60 10000 1.34 254 08:55 20.11.2021
4711 Clouds 18 1018 55 10000 1.34 141 07:19 20.11.2021
4712 Clouds 18 1017 51 10000 0.89 161 05:25 20.11.2021
4713 Clouds 18 1017 52 10000 1.34 97 04:50 20.11.2021
4714 Clouds 14 1018 63 10000 0.89 329 01:41 20.11.2021
4715 Clouds 12 1019 69 10000 0.89 290 00:38 20.11.2021
4716 Clouds 11 1018 74 10000 0.45 328 22:55 19.11.2021
4717 Clouds 11 1017 67 10000 0.45 294 21:58 19.11.2021
4718 Clouds 11 1017 68 10000 0.89 301 20:57 19.11.2021
4719 Clouds 11 1016 68 10000 2.06 50 20:36 19.11.2021
4720 Clouds 11 1016 67 10000 3.09 40 19:50 19.11.2021
4721 Clouds 12 1016 69 10000 0.45 319 18:53 19.11.2021
4722 Clouds 12 1016 66 10000 1.54 340 18:22 19.11.2021
4723 Clouds 12 1015 63 10000 2.57 30 16:47 19.11.2021
4724 Clouds 13 1016 64 10000 2.57 300 15:32 19.11.2021
4725 Clouds 14 1016 66 10000 0.45 109 13:25 19.11.2021
4726 Clouds 15 1014 66 10000 2.57 200 10:27 19.11.2021
4727 Clouds 15 1013 61 10000 3.09 180 09:37 19.11.2021
4728 Clear 17 1014 54 10000 0.89 321 07:41 19.11.2021
4729 Clear 17 1015 51 10000 1.34 186 04:29 19.11.2021
4730 Clouds 14 1017 62 10000 1.34 327 02:27 19.11.2021
4731 Clouds 11 1017 74 10000 3.6 330 23:51 18.11.2021
4732 Clouds 10 1018 76 10000 0.45 281 21:55 18.11.2021
4733 Clouds 10 1018 75 10000 1.34 313 20:49 18.11.2021
4734 Clouds 10 1018 74 10000 0.89 306 20:30 18.11.2021
4735 Clouds 11 1018 74 10000 1.34 336 19:52 18.11.2021
4736 Clouds 11 1018 76 10000 0.89 317 19:33 18.11.2021
4737 Clouds 11 1018 72 10000 1.34 289 18:33 18.11.2021
4738 Clouds 11 1018 73 10000 3.09 310 17:51 18.11.2021
4739 Clouds 11 1018 72 10000 0.89 295 16:44 18.11.2021
4740 Clouds 12 1018 72 10000 0.89 287 15:46 18.11.2021
4741 Clouds 13 1019 69 10000 0.89 284 13:40 18.11.2021
4742 Clouds 14 1018 66 10000 3.6 10 12:34 18.11.2021
4743 Clouds 14 1018 66 10000 3.09 20 11:43 18.11.2021
4744 Clouds 14 1018 66 10000 3.09 20 11:24 18.11.2021
4745 Clouds 14 1018 66 10000 0.45 360 11:24 18.11.2021
4746 Clouds 14 1017 64 10000 0.45 293 09:59 18.11.2021
4747 Clouds 15 1017 61 10000 0.89 27 07:35 18.11.2021
4748 Clouds 16 1016 59 10000 2.24 0 05:57 18.11.2021
4749 Clouds 16 1016 58 10000 2.24 10 05:38 18.11.2021
4750 Clouds 14 1020 66 10000 1.34 78 01:24 18.11.2021
4751 Clouds 14 1020 66 10000 1.34 78 01:24 18.11.2021
4752 Clouds 11 1020 76 10000 2.06 290 23:19 17.11.2021
4753 Clouds 11 1021 77 10000 1.34 311 22:34 17.11.2021
4754 Clouds 11 1021 77 10000 0.89 296 21:54 17.11.2021
4755 Clouds 11 1020 75 10000 0.89 281 21:34 17.11.2021
4756 Clouds 11 1021 74 10000 0.45 269 19:22 17.11.2021
4757 Clouds 13 1021 69 10000 3.6 40 17:31 17.11.2021
4758 Clouds 13 1021 66 10000 5.14 60 15:23 17.11.2021
4759 Clouds 14 1021 64 10000 5.66 80 12:51 17.11.2021
4760 Clouds 14 1021 62 10000 0.45 123 12:25 17.11.2021
4761 Clouds 14 1021 62 10000 0.45 118 10:50 17.11.2021
4762 Clouds 15 1020 57 10000 0.89 131 09:29 17.11.2021
4763 Clouds 17 1019 49 10000 0.45 135 07:46 17.11.2021
4764 Clouds 17 1019 48 10000 0.89 135 06:42 17.11.2021
4765 Clouds 15 1021 51 10000 0.89 110 02:43 17.11.2021
4766 Clouds 12 1022 61 10000 1.34 289 23:27 16.11.2021
4767 Clouds 12 1022 61 10000 5.14 350 22:20 16.11.2021
4768 Clouds 12 1021 59 10000 1.34 333 20:19 16.11.2021
4769 Clouds 13 1020 61 10000 0.89 339 19:37 16.11.2021
4770 Clouds 13 1020 59 10000 0.45 48 18:43 16.11.2021
4771 Clouds 13 1020 56 10000 0.89 53 17:56 16.11.2021
4772 Clouds 13 1020 57 10000 0.89 118 16:59 16.11.2021
4773 Clouds 13 1020 59 10000 0.45 154 16:19 16.11.2021
4774 Clouds 13 1020 61 10000 0.89 85 15:42 16.11.2021
4775 Clouds 14 1020 66 10000 0.45 105 13:42 16.11.2021
4776 Clouds 15 1019 67 10000 0.45 135 10:27 16.11.2021
4777 Clouds 16 1018 67 10000 0.89 115 09:41 16.11.2021
4778 Clouds 17 1017 61 10000 0.89 97 07:47 16.11.2021
4779 Clouds 17 1016 61 10000 0.89 43 06:43 16.11.2021
4780 Clouds 13 1018 70 10000 0.89 359 23:53 15.11.2021
4781 Clouds 13 1018 69 10000 1.34 48 22:41 15.11.2021
4782 Clouds 13 1018 69 10000 0.89 347 22:19 15.11.2021
4783 Clouds 13 1018 68 10000 0.89 61 21:31 15.11.2021
4784 Clouds 13 1018 69 10000 0.45 65 20:43 15.11.2021
4785 Clouds 13 1018 69 10000 0.45 131 19:26 15.11.2021
4786 Clouds 14 1018 65 10000 0.45 294 17:35 15.11.2021
4787 Clouds 14 1018 59 10000 1.34 289 15:55 15.11.2021
4788 Clouds 15 1018 64 10000 0.89 290 15:36 15.11.2021
4789 Clouds 15 1018 73 10000 3.09 30 14:32 15.11.2021
4790 Clouds 15 1018 52 10000 3.6 280 12:39 15.11.2021
4791 Clouds 16 1017 45 10000 2.57 190 10:33 15.11.2021
4792 Clouds 17 1015 45 10000 0.45 162 09:23 15.11.2021
4793 Clouds 20 1014 41 10000 0.45 130 07:23 15.11.2021
4794 Clear 17 1017 47 10000 0.89 7 02:34 15.11.2021
4795 Clouds 10 1017 68 10000 3.09 310 22:47 14.11.2021
4796 Clouds 11 1017 69 10000 2.57 270 22:27 14.11.2021
4797 Clouds 11 1016 67 10000 2.06 320 19:36 14.11.2021
4798 Clouds 12 1016 66 10000 0.89 302 19:18 14.11.2021
4799 Clouds 12 1016 65 10000 1.34 305 18:54 14.11.2021
4800 Clouds 12 1016 65 10000 0.45 306 18:36 14.11.2021
4801 Clouds 12 1016 64 10000 0.45 323 18:18 14.11.2021
4802 Clouds 12 1016 63 10000 0.45 313 17:54 14.11.2021
4803 Clouds 12 1016 65 10000 0.45 344 17:36 14.11.2021
4804 Clouds 12 1015 64 10000 0.45 299 17:18 14.11.2021
4805 Clouds 12 1016 64 10000 0.45 293 16:43 14.11.2021
4806 Clouds 13 1016 64 10000 0.89 248 16:19 14.11.2021
4807 Clouds 13 1016 62 10000 1.34 285 15:21 14.11.2021
4808 Clouds 13 1016 61 10000 0.45 312 14:45 14.11.2021
4809 Clouds 14 1016 61 10000 1.34 296 14:23 14.11.2021
4810 Clouds 14 1016 60 10000 2.57 280 13:53 14.11.2021
4811 Clouds 14 1016 61 10000 0.45 306 13:32 14.11.2021
4812 Clouds 15 1016 60 10000 0.45 290 12:26 14.11.2021
4813 Clouds 15 1015 55 10000 0.45 292 11:40 14.11.2021
4814 Clouds 16 1014 54 10000 2.57 190 10:40 14.11.2021
4815 Clouds 17 1014 52 10000 0.45 70 09:42 14.11.2021
4816 Clear 18 1013 46 10000 0.89 71 08:52 14.11.2021
4817 Clouds 20 1013 43 10000 1.34 154 06:54 14.11.2021
4818 Clouds 11 1019 66 10000 3.09 330 23:28 13.11.2021
4819 Clouds 10 1018 70 10000 4.12 290 22:22 13.11.2021
4820 Clouds 10 1018 70 10000 5.14 280 21:50 13.11.2021
4821 Clouds 10 1018 71 10000 4.63 280 21:18 13.11.2021
4822 Clouds 12 1018 65 10000 1.34 292 19:38 13.11.2021
4823 Clouds 13 1019 63 10000 0.89 296 18:33 13.11.2021
4824 Clouds 13 1019 62 10000 0.45 302 17:50 13.11.2021
4825 Clouds 14 1019 65 10000 3.6 160 16:35 13.11.2021
4826 Clouds 14 1020 61 10000 3.6 170 15:20 13.11.2021
4827 Clouds 14 1019 59 10000 0.89 172 14:20 13.11.2021
4828 Clear 14 1019 58 10000 0.89 156 12:56 13.11.2021
4829 Clear 14 1019 56 10000 0.89 138 12:20 13.11.2021
4830 Clouds 14 1019 53 10000 0.45 94 11:33 13.11.2021
4831 Clouds 14 1018 49 10000 0.89 161 10:44 13.11.2021
4832 Clouds 15 1018 44 10000 0.89 152 09:56 13.11.2021
4833 Clouds 15 1018 42 10000 1.34 156 09:34 13.11.2021
4834 Clouds 16 1017 42 10000 1.34 141 08:56 13.11.2021
4835 Clouds 16 1017 41 10000 1.34 149 08:22 13.11.2021
4836 Clouds 18 1015 39 10000 0.89 152 04:47 13.11.2021
4837 Clouds 17 1015 40 10000 1.34 301 04:28 13.11.2021
4838 Clouds 13 1017 52 10000 0.89 9 01:30 13.11.2021
4839 Clouds 10 1016 59 10000 0.45 299 22:46 12.11.2021
4840 Clouds 11 1014 58 10000 0.89 264 21:45 12.11.2021
4841 Clouds 11 1014 58 10000 0.89 284 21:45 12.11.2021
4842 Clouds 11 1013 56 10000 0.45 298 19:46 12.11.2021
4843 Clouds 11 1012 52 10000 0.89 311 19:27 12.11.2021
4844 Clouds 13 1012 46 10000 0.45 336 18:28 12.11.2021
4845 Clouds 13 1012 48 10000 0.45 120 16:34 12.11.2021
4846 Clouds 13 1012 48 10000 0.45 90 15:32 12.11.2021
4847 Clouds 15 1011 37 10000 1.79 320 11:54 12.11.2021
4848 Clouds 16 1010 36 10000 0.89 279 10:51 12.11.2021
4849 Clouds 17 1009 37 10000 0.45 186 09:44 12.11.2021
4850 Clouds 18 1007 33 10000 0.89 169 08:38 12.11.2021
4851 Clouds 18 1008 40 10000 1.34 326 02:32 12.11.2021
4852 Clouds 13 1009 64 10000 0.89 286 23:42 11.11.2021
4853 Clouds 13 1008 58 10000 0.89 307 22:36 11.11.2021
4854 Clear 12 1008 59 10000 3.6 250 21:27 11.11.2021
4855 Clear 13 1008 57 10000 0.45 313 20:42 11.11.2021
4856 Clear 14 1007 54 10000 4.12 180 19:24 11.11.2021
4857 Clear 14 1007 51 10000 2.57 260 17:44 11.11.2021
4858 Clear 14 1007 51 10000 3.6 250 16:58 11.11.2021
4859 Clear 14 1007 47 10000 0.45 271 15:18 11.11.2021
4860 Clear 15 1006 47 10000 3.6 260 14:30 11.11.2021
4861 Clear 15 1006 45 10000 0.45 224 13:40 11.11.2021
4862 Clear 16 1006 43 10000 0.45 107 12:51 11.11.2021
4863 Clear 17 1005 42 10000 0.45 244 10:58 11.11.2021
4864 Clouds 18 1004 42 10000 1.34 125 09:49 11.11.2021
4865 Clouds 19 1003 38 10000 0.89 109 08:19 11.11.2021
4866 Clouds 21 1002 37 10000 0.45 250 05:55 11.11.2021
4867 Clouds 14 1005 48 10000 1.79 293 00:34 11.11.2021
4868 Clouds 13 1004 50 10000 0.45 295 22:32 10.11.2021
4869 Clouds 14 1003 48 10000 0.45 323 21:33 10.11.2021
4870 Clouds 14 1003 45 10000 0.45 260 20:51 10.11.2021
4871 Clouds 15 1003 44 10000 0.89 214 19:47 10.11.2021
4872 Clouds 15 1003 43 10000 0.45 74 19:28 10.11.2021
4873 Clouds 15 1002 38 10000 0.45 173 16:40 10.11.2021
4874 Clouds 15 1003 39 10000 1.79 200 15:46 10.11.2021
4875 Clouds 15 1003 40 10000 0.89 213 14:22 10.11.2021
4876 Clouds 15 1003 38 10000 0.89 77 13:26 10.11.2021
4877 Clouds 16 1003 38 10000 1.34 143 11:38 10.11.2021
4878 Clouds 17 1001 37 10000 1.34 102 09:18 10.11.2021
4879 Clouds 18 1000 36 10000 2.24 337 08:40 10.11.2021
4880 Clouds 20 999 36 10000 1.34 43 06:43 10.11.2021
4881 Clouds 21 998 36 10000 2.68 154 05:53 10.11.2021
4882 Clouds 17 1000 62 10000 2.24 163 01:31 10.11.2021
4883 Clouds 15 998 79 10000 1.54 30 21:59 09.11.2021
4884 Clouds 16 998 81 10000 0.45 338 20:32 09.11.2021
4885 Clouds 16 998 86 10000 1.54 300 19:26 09.11.2021
4886 Clouds 16 998 86 10000 1.54 350 18:47 09.11.2021
4887 Clouds 17 997 88 10000 0.45 137 16:29 09.11.2021
4888 Clouds 17 998 91 10000 0.45 132 14:59 09.11.2021
4889 Clouds 17 999 92 10000 3.09 310 13:25 09.11.2021
4890 Clouds 17 1000 94 9000 2.57 300 12:24 09.11.2021
4891 Clouds 17 1000 96 8000 0.89 52 10:53 09.11.2021
4892 Clouds 18 1000 94 10000 0.89 21 09:43 09.11.2021
4893 Clouds 18 1000 95 8000 1.34 12 08:53 09.11.2021
4894 Clouds 19 1001 96 6000 0.89 164 06:59 09.11.2021
4895 Mist 16 1007 100 3000 1.54 340 02:32 09.11.2021
4896 Rain 16 1007 96 2500 1.03 0 01:50 09.11.2021
4897 Clouds 16 1008 94 6000 0.45 125 00:30 09.11.2021
4898 Clouds 16 1008 94 6000 0.45 125 00:30 09.11.2021
4899 Mist 16 1008 94 5000 0.45 154 00:30 09.11.2021
4900 Rain 15 1009 94 7000 0.45 207 23:29 08.11.2021
4901 Rain 15 1010 94 2500 0.89 100 22:36 08.11.2021
4902 Mist 15 1011 95 7000 0.89 54 21:31 08.11.2021
4903 Rain 15 1013 91 5000 0.45 290 20:33 08.11.2021
4904 Clouds 15 1013 89 10000 1.79 288 19:20 08.11.2021
4905 Clouds 15 1014 88 10000 0.45 278 17:39 08.11.2021
4906 Clouds 15 1014 88 10000 0.45 278 17:39 08.11.2021
4907 Clouds 15 1015 86 10000 1.34 8 15:49 08.11.2021
4908 Clouds 16 1016 85 10000 1.34 322 14:56 08.11.2021
4909 Clouds 16 1017 81 10000 0.89 353 14:24 08.11.2021
4910 Clouds 17 1017 73 10000 0.45 199 12:59 08.11.2021
4911 Clouds 18 1018 65 10000 0.89 127 11:54 08.11.2021
4912 Clouds 18 1019 60 10000 0.45 131 10:42 08.11.2021
4913 Clouds 19 1019 54 10000 0.89 112 08:57 08.11.2021
4914 Clouds 20 1019 52 10000 0.89 177 08:18 08.11.2021
4915 Clouds 20 1019 57 10000 1.34 128 06:56 08.11.2021
4916 Clouds 19 1023 70 10000 0.45 109 03:35 08.11.2021
4917 Clouds 14 1025 86 10000 2.24 17 00:20 08.11.2021
4918 Clouds 13 1025 90 10000 1.34 311 22:58 07.11.2021
4919 Clouds 13 1024 90 10000 1.34 7 21:25 07.11.2021
4920 Clouds 13 1024 90 10000 1.34 7 21:25 07.11.2021
4921 Clouds 13 1024 90 10000 1.34 283 20:25 07.11.2021
4922 Clouds 14 1024 93 10000 1.34 292 18:35 07.11.2021
4923 Clouds 14 1023 91 10000 1.34 8 17:42 07.11.2021
4924 Clouds 15 1023 86 10000 0.89 74 16:22 07.11.2021
4925 Clouds 16 1023 81 10000 1.34 1 15:25 07.11.2021
4926 Clouds 16 1024 80 10000 1.34 70 14:27 07.11.2021
4927 Clouds 16 1024 77 10000 1.34 47 12:50 07.11.2021
4928 Clouds 17 1024 74 10000 1.34 111 11:41 07.11.2021
4929 Clouds 18 1023 67 10000 0.89 80 08:59 07.11.2021
4930 Clouds 17 1023 62 10000 1.34 352 02:58 07.11.2021
4931 Clouds 16 1023 66 10000 1.34 334 02:22 07.11.2021
4932 Clouds 13 1022 76 10000 0.89 94 22:56 06.11.2021
4933 Rain 14 1021 74 10000 1.34 358 21:58 06.11.2021
4934 Rain 14 1021 74 10000 1.34 313 21:22 06.11.2021
4935 Clouds 14 1020 76 10000 0.89 71 20:29 06.11.2021
4936 Clouds 14 1020 76 10000 0.89 339 17:32 06.11.2021
4937 Clouds 15 1020 74 10000 0.89 100 16:35 06.11.2021
4938 Clouds 16 1020 70 10000 0.45 109 13:45 06.11.2021
4939 Clouds 16 1020 69 10000 0.45 123 12:58 06.11.2021
4940 Clouds 16 1021 67 10000 0.89 144 11:24 06.11.2021
4941 Clouds 17 1019 53 10000 0.89 104 09:20 06.11.2021
4942 Clouds 19 1019 47 10000 1.34 51 04:52 06.11.2021
4943 Clouds 14 1021 64 10000 2.24 176 00:43 06.11.2021
4944 Clouds 12 1022 67 10000 0.89 323 23:31 05.11.2021
4945 Clouds 12 1021 68 10000 1.34 255 22:33 05.11.2021
4946 Clouds 13 1021 70 10000 1.34 307 20:41 05.11.2021
4947 Clouds 13 1020 69 10000 1.34 288 20:18 05.11.2021
4948 Clouds 14 1020 69 10000 0.45 284 18:56 05.11.2021
4949 Clouds 14 1020 71 10000 4.63 10 18:37 05.11.2021
4950 Clouds 14 1020 68 10000 0.89 270 16:50 05.11.2021
4951 Clouds 15 1019 66 10000 0.45 110 14:41 05.11.2021
4952 Clouds 16 1019 63 10000 0.45 118 12:50 05.11.2021
4953 Clouds 18 1017 46 10000 0.45 93 09:51 05.11.2021
4954 Clouds 19 1016 43 10000 0.89 137 08:38 05.11.2021
4955 Clouds 20 1015 41 10000 1.34 36 06:50 05.11.2021
4956 Clouds 20 1016 43 10000 1.34 353 04:42 05.11.2021
4957 Clouds 18 1017 48 10000 1.34 1 02:22 05.11.2021
4958 Clouds 15 1017 60 10000 0.89 82 00:30 05.11.2021
4959 Clouds 13 1017 62 10000 5.14 350 22:57 04.11.2021
4960 Clouds 13 1016 65 10000 5.66 350 22:18 04.11.2021
4961 Clouds 13 1016 67 10000 4.63 350 21:30 04.11.2021
4962 Clouds 13 1016 67 10000 0.45 290 20:30 04.11.2021
4963 Clouds 14 1016 65 10000 0.45 345 19:50 04.11.2021
4964 Clouds 14 1015 67 10000 3.6 360 19:28 04.11.2021
4965 Clouds 14 1015 65 10000 3.6 10 18:42 04.11.2021
4966 Clouds 15 1015 66 10000 5.14 360 17:28 04.11.2021
4967 Clouds 14 1015 66 10000 3.09 320 16:23 04.11.2021
4968 Clouds 15 1014 63 10000 0.89 325 14:19 04.11.2021
4969 Clouds 16 1013 61 10000 0.45 87 11:42 04.11.2021
4970 Clouds 18 1012 44 10000 0.89 159 09:29 04.11.2021
4971 Clouds 19 1012 41 10000 0.45 119 08:29 04.11.2021
4972 Clouds 20 1012 40 10000 0.89 159 07:34 04.11.2021
4973 Clouds 14 1014 52 10000 1.34 44 23:52 03.11.2021
4974 Clouds 14 1013 54 10000 5.66 10 22:49 03.11.2021
4975 Clouds 14 1013 54 10000 4.63 20 21:45 03.11.2021
4976 Clouds 14 1013 53 10000 6.69 360 21:19 03.11.2021
4977 Clouds 14 1012 52 10000 0.89 45 20:33 03.11.2021
4978 Clouds 15 1013 52 10000 0.45 357 19:40 03.11.2021
4979 Clouds 15 1013 50 10000 5.14 10 18:51 03.11.2021
4980 Clouds 15 1013 53 10000 0.45 320 18:18 03.11.2021
4981 Clouds 16 1013 51 10000 4.63 20 17:20 03.11.2021
4982 Clouds 16 1013 51 10000 6.17 10 15:56 03.11.2021
4983 Clouds 16 1013 53 10000 6.69 10 15:38 03.11.2021
4984 Clouds 17 1012 50 10000 1.34 32 13:49 03.11.2021
4985 Clouds 18 1011 53 10000 0.89 355 11:39 03.11.2021
4986 Clouds 18 1011 49 10000 1.34 316 10:53 03.11.2021
4987 Clouds 19 1010 51 10000 1.34 16 10:18 03.11.2021
4988 Clouds 19 1010 51 10000 0.45 129 09:28 03.11.2021
4989 Clouds 21 1010 45 10000 0.45 110 08:21 03.11.2021
4990 Clouds 22 1009 42 10000 1.34 352 07:38 03.11.2021
4991 Clouds 21 1010 44 10000 2.68 23 04:24 03.11.2021
4992 Clouds 18 1012 57 10000 1.34 7 01:45 03.11.2021
4993 Clouds 15 1013 69 10000 5.14 350 23:33 02.11.2021
4994 Clouds 15 1012 72 10000 3.6 20 22:29 02.11.2021
4995 Clouds 15 1011 79 10000 2.57 310 20:54 02.11.2021
4996 Clouds 15 1011 78 10000 2.57 360 20:23 02.11.2021
4997 Clouds 15 1011 75 10000 4.63 360 19:46 02.11.2021
4998 Clouds 15 1012 75 10000 3.6 10 18:43 02.11.2021
4999 Clouds 15 1012 73 10000 3.6 360 17:58 02.11.2021
5000 Clouds 16 1012 73 10000 3.6 20 17:32 02.11.2021
5001 Clouds 16 1012 72 10000 3.6 20 16:29 02.11.2021
5002 Clouds 16 1012 75 10000 0.45 80 14:59 02.11.2021
5003 Clouds 17 1013 76 10000 0.45 134 13:50 02.11.2021
5004 Clouds 17 1013 74 10000 0.45 135 13:26 02.11.2021
5005 Clouds 17 1012 72 10000 0.45 112 12:33 02.11.2021
5006 Clouds 17 1012 71 10000 0.45 108 11:31 02.11.2021
5007 Clouds 18 1012 71 10000 2.57 70 10:51 02.11.2021
5008 Clouds 18 1012 71 10000 3.6 80 10:23 02.11.2021
5009 Clouds 20 1011 58 10000 0.89 102 08:43 02.11.2021
5010 Clouds 21 1012 59 10000 0.89 118 06:43 02.11.2021
5011 Clouds 20 1014 69 10000 1.34 136 03:34 02.11.2021
5012 Clouds 17 1016 80 8000 1.34 29 01:24 02.11.2021
5013 Clouds 16 1016 87 8000 0.89 90 22:39 01.11.2021
5014 Clouds 16 1016 87 6000 0.89 34 20:52 01.11.2021
5015 Clouds 16 1015 87 6000 0.89 37 20:33 01.11.2021
5016 Clouds 16 1015 89 6000 0.89 87 19:48 01.11.2021
5017 Clouds 17 1016 89 8000 0.89 18 18:58 01.11.2021
5018 Clouds 16 1016 90 10000 1.34 7 18:20 01.11.2021
5019 Clouds 17 1016 90 10000 0.45 91 17:19 01.11.2021
5020 Clouds 17 1017 88 10000 0.45 112 16:37 01.11.2021
5021 Clouds 17 1017 87 10000 0.45 52 15:46 01.11.2021
5022 Clouds 17 1017 87 10000 0.89 59 15:20 01.11.2021
5023 Rain 18 1017 87 10000 1.54 50 14:41 01.11.2021
5024 Clouds 18 1018 87 10000 1.54 50 14:19 01.11.2021
5025 Clouds 18 1018 87 10000 3.09 100 13:18 01.11.2021
5026 Rain 18 1018 85 10000 0.45 152 11:56 01.11.2021
5027 Rain 19 1018 81 10000 0.89 145 10:23 01.11.2021
5028 Clouds 20 1018 73 10000 0.45 118 08:53 01.11.2021
5029 Clouds 20 1018 68 10000 0.45 127 07:47 01.11.2021
5030 Clouds 21 1017 65 10000 0.89 100 05:53 01.11.2021
5031 Clouds 19 1019 64 10000 0.89 99 03:40 01.11.2021
5032 Clouds 15 1021 76 10000 0.89 38 00:23 01.11.2021
5033 Clouds 14 1020 79 10000 0.45 101 21:37 31.10.2021
5034 Clouds 15 1020 77 10000 0.89 73 20:25 31.10.2021
5035 Clouds 15 1020 77 10000 0.89 73 20:25 31.10.2021
5036 Clouds 15 1020 80 10000 4.63 360 18:51 31.10.2021
5037 Clouds 15 1021 79 10000 3.6 10 18:25 31.10.2021
5038 Clouds 15 1021 81 10000 0.89 329 16:49 31.10.2021
5039 Clouds 15 1021 83 10000 0.45 44 15:29 31.10.2021
5040 Clouds 15 1022 85 10000 3.6 20 13:27 31.10.2021
5041 Clouds 14 1022 87 10000 0.45 32 12:30 31.10.2021
5042 Clouds 14 1023 85 10000 3.6 360 10:53 31.10.2021
5043 Rain 14 1022 84 10000 3.6 10 09:54 31.10.2021
5044 Rain 15 1022 83 7000 0.45 326 08:48 31.10.2021
5045 Rain 15 1023 67 10000 1.54 340 04:55 31.10.2021
5046 Clouds 14 1025 63 10000 1.34 306 00:48 31.10.2021
5047 Clouds 13 1025 65 10000 0.45 319 22:31 30.10.2021
5048 Clouds 13 1025 64 10000 0.89 323 21:33 30.10.2021
5049 Clouds 13 1024 64 10000 2.61 355 20:19 30.10.2021
5050 Clouds 14 1025 66 10000 4.12 10 18:33 30.10.2021
5051 Clouds 15 1026 64 10000 3.6 10 16:20 30.10.2021
5052 Clouds 16 1025 64 10000 2.06 110 14:25 30.10.2021
5053 Clouds 16 1024 63 10000 2.57 120 13:39 30.10.2021
5054 Clouds 16 1024 63 10000 2.57 120 13:20 30.10.2021
5055 Clouds 16 1024 58 10000 0.45 115 11:50 30.10.2021
5056 Clouds 17 1024 57 10000 0.45 124 11:31 30.10.2021
5057 Clouds 18 1023 51 10000 0.45 148 10:24 30.10.2021
5058 Clouds 19 1023 41 10000 0.89 122 08:48 30.10.2021
5059 Clear 19 1023 42 10000 0.89 81 05:50 30.10.2021
5060 Clear 19 1023 43 10000 1.34 64 05:19 30.10.2021
5061 Clouds 11 1025 63 10000 0.45 315 23:52 29.10.2021
5062 Clouds 11 1025 63 10000 0.45 287 22:36 29.10.2021
5063 Clouds 12 1024 61 10000 3.6 320 21:23 29.10.2021
5064 Clouds 12 1024 61 10000 0.45 315 20:42 29.10.2021
5065 Clouds 12 1023 58 10000 0.45 298 19:44 29.10.2021
5066 Clear 14 1023 54 10000 0.45 307 18:26 29.10.2021
5067 Clouds 14 1022 61 10000 0.45 134 16:50 29.10.2021
5068 Clouds 14 1021 65 10000 0.45 120 14:32 29.10.2021
5069 Clouds 17 1019 52 10000 1.34 101 10:57 29.10.2021
5070 Clouds 17 1018 48 10000 0.89 87 10:34 29.10.2021
5071 Clouds 20 1017 36 10000 4.02 357 07:25 29.10.2021
5072 Clouds 13 1019 54 10000 2.68 358 00:36 29.10.2021
5073 Clouds 13 1019 54 10000 2.24 45 22:54 28.10.2021
5074 Clouds 13 1019 53 10000 2.24 352 21:52 28.10.2021
5075 Clouds 14 1018 51 10000 1.34 40 20:29 28.10.2021
5076 Clouds 14 1019 52 10000 0.89 288 19:46 28.10.2021
5077 Clouds 15 1018 48 10000 1.34 126 18:18 28.10.2021
5078 Clouds 15 1018 49 10000 2.24 24 16:58 28.10.2021
5079 Clouds 17 1017 43 10000 2.68 11 15:20 28.10.2021
5080 Clouds 17 1016 40 10000 1.34 86 13:45 28.10.2021
5081 Clouds 18 1016 39 10000 2.24 65 13:21 28.10.2021
5082 Clouds 18 1016 38 10000 2.68 27 12:39 28.10.2021
5083 Clouds 20 1014 37 10000 3.58 3 10:54 28.10.2021
5084 Clouds 21 1013 51 10000 2.68 345 09:38 28.10.2021
5085 Clouds 22 1013 49 10000 2.68 354 08:58 28.10.2021
5086 Clouds 22 1012 49 10000 1.34 290 08:34 28.10.2021
5087 Clouds 21 1014 52 10000 2.24 332 04:48 28.10.2021
5088 Clouds 14 1014 87 9000 0.89 33 23:50 27.10.2021
5089 Clouds 14 1014 92 10000 0.45 357 22:31 27.10.2021
5090 Clouds 15 1013 90 7000 0.45 62 21:33 27.10.2021
5091 Mist 14 1014 90 5000 3.09 20 20:53 27.10.2021
5092 Mist 15 1014 89 5000 1.03 0 20:33 27.10.2021
5093 Mist 14 1014 89 5000 0.89 322 19:40 27.10.2021
5094 Clouds 15 1014 87 10000 2.06 20 18:52 27.10.2021
5095 Clouds 15 1014 87 10000 0.45 62 16:27 27.10.2021
5096 Clouds 15 1014 88 8000 3.09 320 15:32 27.10.2021
5097 Clouds 15 1015 86 8000 2.57 10 14:40 27.10.2021
5098 Clouds 15 1015 86 10000 1.34 3 12:33 27.10.2021
5099 Clouds 16 1014 85 10000 0.89 246 10:58 27.10.2021
5100 Clouds 16 1014 86 8000 1.34 39 09:51 27.10.2021
5101 Clouds 16 1014 86 8000 0.89 66 08:36 27.10.2021
5102 Clouds 16 1014 84 8000 0.89 82 07:31 27.10.2021
5103 Clouds 15 1018 76 10000 0.89 346 02:30 27.10.2021
5104 Clouds 14 1018 81 10000 0.45 81 00:57 27.10.2021
5105 Clouds 14 1017 83 10000 3.6 20 00:30 27.10.2021
5106 Clouds 14 1017 86 10000 0.45 48 23:43 26.10.2021
5107 Clouds 14 1016 87 10000 0.45 68 22:39 26.10.2021
5108 Clouds 14 1016 85 10000 0.45 38 21:59 26.10.2021
5109 Clouds 14 1016 86 10000 2.06 60 20:51 26.10.2021
5110 Clouds 15 1016 84 10000 2.06 110 19:32 26.10.2021
5111 Clouds 15 1016 85 10000 2.57 110 18:41 26.10.2021
5112 Clouds 16 1015 81 10000 2.57 120 16:42 26.10.2021
5113 Clouds 16 1015 79 10000 2.57 120 14:56 26.10.2021
5114 Clouds 17 1014 74 10000 4.12 60 11:47 26.10.2021
5115 Clouds 18 1013 74 10000 0.89 152 10:33 26.10.2021
5116 Clouds 21 1012 60 10000 0.89 55 07:51 26.10.2021
5117 Clouds 20 1012 61 10000 1.79 91 07:21 26.10.2021
5118 Rain 12 1014 92 10000 2.24 323 23:51 25.10.2021
5119 Clouds 12 1014 92 10000 0.45 95 22:55 25.10.2021
5120 Clouds 12 1014 92 10000 0.45 149 22:21 25.10.2021
5121 Rain 12 1014 93 7000 1.79 285 21:39 25.10.2021
5122 Mist 12 1015 93 5000 1.34 280 20:19 25.10.2021
5123 Clouds 13 1015 93 7000 1.79 303 19:26 25.10.2021
5124 Clouds 13 1016 93 6000 1.34 335 18:59 25.10.2021
5125 Rain 13 1017 93 4500 8.23 350 18:22 25.10.2021
5126 Rain 14 1018 87 7000 0.45 312 16:27 25.10.2021
5127 Rain 15 1020 67 10000 7.72 360 14:36 25.10.2021
5128 Clouds 16 1022 59 10000 1.34 303 12:31 25.10.2021
5129 Clouds 16 1021 61 10000 0.45 312 10:25 25.10.2021
5130 Rain 17 1023 56 10000 2.57 360 08:37 25.10.2021
5131 Rain 17 1023 54 10000 2.57 10 06:26 25.10.2021
5132 Clouds 15 1025 62 10000 0.89 318 02:42 25.10.2021
5133 Clouds 13 1026 67 10000 4.12 350 00:47 25.10.2021
5134 Clouds 12 1025 71 10000 6.17 350 23:47 24.10.2021
5135 Clouds 12 1025 71 10000 5.14 350 23:19 24.10.2021
5136 Clouds 12 1026 67 10000 0.45 315 22:37 24.10.2021
5137 Clouds 12 1026 71 10000 5.66 350 22:18 24.10.2021
5138 Clouds 12 1026 76 10000 5.66 340 20:46 24.10.2021
5139 Clear 12 1026 76 10000 4.12 330 20:27 24.10.2021
5140 Clear 13 1027 76 10000 3.09 300 19:22 24.10.2021
5141 Clear 13 1027 76 10000 2.57 310 18:27 24.10.2021
5142 Clear 14 1027 67 10000 1.54 50 17:29 24.10.2021
5143 Clear 14 1027 64 10000 1.54 120 15:49 24.10.2021
5144 Clouds 15 1027 61 10000 2.57 120 13:58 24.10.2021
5145 Clouds 15 1026 59 10000 3.09 110 12:57 24.10.2021
5146 Clouds 16 1026 54 10000 5.14 120 11:44 24.10.2021
5147 Clouds 16 1026 48 10000 5.14 130 10:55 24.10.2021
5148 Clouds 17 1026 41 10000 1.54 190 09:59 24.10.2021
5149 Clouds 19 1025 42 10000 3.6 140 07:41 24.10.2021
5150 Clouds 11 1027 66 10000 3.6 50 00:57 24.10.2021
5151 Clouds 10 1026 65 10000 4.63 20 23:47 23.10.2021
5152 Clouds 10 1025 65 10000 5.66 20 22:18 23.10.2021
5153 Clouds 11 1025 61 10000 4.12 40 20:36 23.10.2021
5154 Clouds 12 1025 55 10000 0.45 89 18:59 23.10.2021
5155 Clouds 12 1025 49 10000 4.63 360 18:29 23.10.2021
5156 Clouds 12 1025 52 10000 4.63 20 17:43 23.10.2021
5157 Clouds 13 1024 50 10000 6.69 360 16:23 23.10.2021
5158 Clouds 13 1024 46 10000 0.89 314 14:32 23.10.2021
5159 Clouds 17 1018 53 10000 0.89 307 03:34 23.10.2021
5160 Clouds 11 1017 83 10000 3.6 360 00:19 23.10.2021
5161 Clouds 10 1016 87 10000 3.6 20 23:18 22.10.2021
5162 Clouds 11 1015 86 10000 5.66 360 20:50 22.10.2021
5163 Clouds 11 1014 88 10000 6.69 340 18:45 22.10.2021
5164 Clouds 11 1014 87 10000 0.45 353 17:43 22.10.2021
5165 Clouds 11 1014 91 10000 8.23 350 15:37 22.10.2021
5166 Clouds 11 1014 92 10000 7.2 350 13:54 22.10.2021
5167 Clouds 12 1014 90 10000 1.79 337 11:26 22.10.2021
5168 Clouds 11 1014 91 10000 1.34 315 10:48 22.10.2021
5169 Clouds 12 1014 90 8000 2.24 269 09:56 22.10.2021
5170 Clouds 12 1014 90 8000 0.89 315 08:36 22.10.2021
5171 Rain 11 1015 92 8000 0.89 180 07:23 22.10.2021
5172 Rain 11 1017 88 10000 0.89 336 03:32 22.10.2021
5173 Clouds 11 1017 88 8000 0.89 351 00:19 22.10.2021
5174 Mist 11 1017 88 5000 0.89 76 23:39 21.10.2021
5175 Rain 12 1017 80 10000 1.34 58 22:21 21.10.2021
5176 Rain 13 1017 76 10000 0.89 42 20:53 21.10.2021
5177 Clouds 13 1017 76 10000 0.89 32 20:19 21.10.2021
5178 Clouds 14 1017 70 10000 0.89 109 19:30 21.10.2021
5179 Clouds 14 1017 65 10000 0.89 101 18:52 21.10.2021
5180 Clouds 15 1017 60 10000 0.89 77 18:19 21.10.2021
5181 Clouds 15 1017 57 10000 1.34 336 17:39 21.10.2021
5182 Clouds 16 1017 57 10000 0.45 111 16:18 21.10.2021
5183 Clouds 16 1017 58 10000 0.45 120 15:21 21.10.2021
5184 Clouds 16 1017 56 10000 0.45 120 14:39 21.10.2021
5185 Clouds 16 1016 52 10000 0.45 113 13:20 21.10.2021
5186 Clouds 17 1016 49 10000 0.45 151 11:27 21.10.2021
5187 Clouds 18 1015 41 10000 0.45 112 08:59 21.10.2021
5188 Clouds 18 1014 41 10000 1.34 153 07:29 21.10.2021
5189 Clouds 16 1016 45 10000 2.68 66 03:49 21.10.2021
5190 Clouds 12 1014 53 10000 3.58 341 23:31 20.10.2021
5191 Clouds 12 1014 50 10000 2.24 32 22:21 20.10.2021
5192 Clouds 12 1013 49 10000 2.24 317 21:43 20.10.2021
5193 Clouds 13 1013 48 10000 4.47 14 20:56 20.10.2021
5194 Clouds 13 1012 47 10000 2.68 4 20:35 20.10.2021
5195 Clear 13 1012 48 10000 3.58 125 19:59 20.10.2021
5196 Clear 14 1012 44 10000 4.02 354 18:56 20.10.2021
5197 Clear 14 1012 44 10000 2.68 32 17:51 20.10.2021
5198 Clouds 14 1011 46 10000 2.68 15 15:44 20.10.2021
5199 Clouds 16 1008 44 10000 3.13 309 11:42 20.10.2021
5200 Clouds 21 1006 31 10000 4.47 29 08:54 20.10.2021
5201 Clouds 22 1005 36 10000 4.02 327 05:23 20.10.2021
5202 Clouds 14 1005 91 10000 0.89 331 00:48 20.10.2021
5203 Clouds 14 1006 93 10000 0.45 304 00:48 20.10.2021
5204 Clouds 13 1006 94 10000 0.45 303 00:22 20.10.2021
5205 Clouds 13 1004 92 10000 0.45 59 21:45 19.10.2021
5206 Clouds 13 1004 91 10000 0.45 128 20:56 19.10.2021
5207 Clouds 13 1005 91 10000 0.45 317 20:25 19.10.2021
5208 Clouds 13 1005 93 8000 0.89 292 19:44 19.10.2021
5209 Clouds 13 1005 92 8000 1.54 310 19:20 19.10.2021
5210 Clouds 13 1008 93 8000 3.6 200 17:59 19.10.2021
5211 Clouds 13 1009 86 10000 0.45 295 15:57 19.10.2021
5212 Rain 14 1010 86 10000 0.89 288 15:20 19.10.2021
5213 Clouds 14 1009 77 10000 4.12 330 14:27 19.10.2021
5214 Clouds 15 1009 68 10000 0.89 23 13:36 19.10.2021
5215 Clouds 15 1010 61 10000 1.34 24 11:37 19.10.2021
5216 Clouds 15 1010 62 10000 1.34 351 10:39 19.10.2021
5217 Clouds 15 1011 61 10000 1.34 327 08:59 19.10.2021
5218 Rain 15 1012 60 10000 2.24 24 07:50 19.10.2021
5219 Rain 13 1020 72 10000 1.34 17 00:27 19.10.2021
5220 Rain 13 1020 70 10000 1.34 38 23:56 18.10.2021
5221 Rain 13 1020 70 10000 0.89 354 23:20 18.10.2021
5222 Rain 13 1020 72 10000 1.34 7 22:54 18.10.2021
5223 Clouds 13 1021 70 10000 1.34 34 21:54 18.10.2021
5224 Rain 13 1021 67 10000 1.34 5 20:42 18.10.2021
5225 Clouds 13 1021 67 10000 1.34 347 20:20 18.10.2021
5226 Clouds 13 1021 65 10000 1.34 12 19:30 18.10.2021
5227 Rain 13 1022 64 10000 0.89 23 18:58 18.10.2021
5228 Clouds 14 1023 61 10000 0.89 336 16:30 18.10.2021
5229 Clouds 14 1024 60 10000 0.45 102 14:33 18.10.2021
5230 Clouds 15 1024 54 10000 0.89 123 11:44 18.10.2021
5231 Clouds 16 1023 50 10000 0.45 85 09:47 18.10.2021
5232 Clouds 17 1022 43 10000 1.34 87 06:39 18.10.2021
5233 Clouds 11 1023 64 10000 0.45 287 23:52 17.10.2021
5234 Clouds 11 1022 63 10000 8.23 30 22:27 17.10.2021
5235 Clouds 12 1021 62 10000 0.45 169 21:44 17.10.2021
5236 Clouds 12 1021 61 10000 0.45 314 20:49 17.10.2021
5237 Clouds 12 1021 61 10000 0.89 76 19:56 17.10.2021
5238 Clouds 12 1021 61 10000 1.79 51 19:38 17.10.2021
5239 Clouds 12 1020 63 10000 0.45 100 18:28 17.10.2021
5240 Clouds 12 1020 63 10000 1.34 42 18:28 17.10.2021
5241 Clouds 12 1020 66 10000 0.45 100 16:38 17.10.2021
5242 Clouds 13 1019 70 10000 1.79 18 14:39 17.10.2021
5243 Clouds 14 1019 70 10000 0.45 94 14:20 17.10.2021
5244 Clouds 14 1018 70 10000 0.89 113 13:33 17.10.2021
5245 Clouds 14 1016 77 10000 0.45 54 11:31 17.10.2021
5246 Clouds 14 1015 83 10000 0.45 86 10:19 17.10.2021
5247 Clouds 14 1014 88 10000 0.89 60 08:47 17.10.2021
5248 Mist 16 1011 91 4000 0.89 349 03:21 17.10.2021
5249 Rain 20 1008 70 10000 0.45 301 00:35 17.10.2021
5250 Clouds 20 1007 65 10000 0.89 335 23:22 16.10.2021
5251 Clouds 21 1006 89 10000 4.63 330 20:55 16.10.2021
5252 Clouds 21 1006 89 10000 4.63 330 20:29 16.10.2021
5253 Clouds 21 1006 85 10000 5.14 220 19:41 16.10.2021
5254 Clouds 21 1006 86 10000 5.14 220 19:20 16.10.2021
5255 Clouds 21 1006 86 10000 4.63 210 18:45 16.10.2021
5256 Clouds 21 1006 86 10000 0.45 315 18:24 16.10.2021
5257 Clouds 22 1007 87 10000 5.66 230 17:35 16.10.2021
5258 Clouds 22 1007 89 10000 0.89 115 16:28 16.10.2021
5259 Clouds 22 1009 91 10000 5.66 200 13:45 16.10.2021
5260 Clouds 22 1010 83 10000 1.34 139 11:25 16.10.2021
5261 Clouds 23 1011 77 10000 4.12 170 09:38 16.10.2021
5262 Clouds 23 1012 72 10000 0.45 128 06:48 16.10.2021
5263 Clouds 21 1016 86 10000 2.57 160 01:24 16.10.2021
5264 Clouds 21 1015 82 10000 3.09 200 23:27 15.10.2021
5265 Clouds 21 1016 83 10000 4.12 210 22:22 15.10.2021
5266 Clouds 21 1016 85 10000 0.45 227 21:50 15.10.2021
5267 Clouds 21 1016 84 10000 0.89 103 21:20 15.10.2021
5268 Clouds 21 1015 84 10000 2.06 200 20:44 15.10.2021
5269 Clouds 20 1016 84 10000 1.54 120 19:21 15.10.2021
5270 Clouds 21 1016 82 10000 0.45 107 18:29 15.10.2021
5271 Clouds 21 1016 81 10000 1.54 110 16:26 15.10.2021
5272 Clouds 21 1016 80 10000 2.57 120 15:22 15.10.2021
5273 Clouds 23 1016 72 10000 0.45 184 12:28 15.10.2021
5274 Clouds 23 1016 72 10000 0.89 154 12:28 15.10.2021
5275 Clouds 23 1016 67 10000 0.45 119 11:20 15.10.2021
5276 Clouds 23 1015 68 10000 0.45 207 10:42 15.10.2021
5277 Clouds 24 1014 62 10000 1.34 159 08:57 15.10.2021
5278 Clouds 24 1014 66 10000 3.09 140 05:31 15.10.2021
5279 Clouds 19 1016 82 10000 0.45 103 00:38 15.10.2021
5280 Clouds 19 1016 83 10000 2.57 70 23:45 14.10.2021
5281 Clouds 19 1016 84 10000 2.06 80 22:49 14.10.2021
5282 Clouds 19 1015 83 10000 0.45 291 21:43 14.10.2021
5283 Clouds 19 1015 84 10000 1.54 130 20:36 14.10.2021
5284 Clouds 19 1015 85 10000 1.54 130 20:18 14.10.2021
5285 Clouds 18 1015 85 10000 2.06 130 19:26 14.10.2021
5286 Clouds 19 1016 81 10000 2.06 130 17:26 14.10.2021
5287 Clouds 19 1016 80 10000 0.89 116 16:46 14.10.2021
5288 Clouds 20 1017 78 10000 2.57 120 15:33 14.10.2021
5289 Clouds 20 1017 80 10000 0.89 107 14:40 14.10.2021
5290 Clouds 20 1017 79 10000 0.89 119 13:35 14.10.2021
5291 Clouds 21 1016 72 10000 0.89 136 11:43 14.10.2021
5292 Clouds 23 1015 62 10000 0.45 225 09:55 14.10.2021
5293 Clouds 24 1016 60 10000 0.89 81 06:54 14.10.2021
5294 Clouds 17 1020 85 10000 1.34 351 00:57 14.10.2021
5295 Clouds 17 1020 87 10000 0.45 9 00:22 14.10.2021
5296 Clouds 17 1020 88 10000 0.45 289 21:45 13.10.2021
5297 Clouds 17 1020 88 10000 1.34 292 21:27 13.10.2021
5298 Clouds 16 1019 92 10000 0.89 214 19:48 13.10.2021
5299 Clouds 17 1019 92 10000 0.89 347 18:49 13.10.2021
5300 Clouds 16 1020 94 10000 0.89 5 17:49 13.10.2021
5301 Clouds 17 1021 93 10000 0.89 18 15:32 13.10.2021
5302 Clouds 17 1021 92 6000 0.89 30 14:45 13.10.2021
5303 Clouds 17 1021 91 10000 0.89 101 12:58 13.10.2021
5304 Mist 17 1021 91 4000 0.89 45 11:59 13.10.2021
5305 Clouds 18 1021 90 10000 1.34 20 10:47 13.10.2021
5306 Clouds 18 1021 90 8000 1.34 338 08:29 13.10.2021
5307 Clouds 18 1022 87 10000 1.34 23 06:42 13.10.2021
5308 Clouds 17 1024 91 10000 1.34 153 02:27 13.10.2021
5309 Clouds 17 1024 92 10000 1.34 81 01:37 13.10.2021
5310 Mist 17 1024 93 3500 1.34 92 23:29 12.10.2021
5311 Mist 18 1024 92 2800 1.34 62 22:45 12.10.2021
5312 Rain 18 1023 90 7000 1.34 25 21:30 12.10.2021
5313 Clouds 18 1023 89 10000 1.34 26 20:34 12.10.2021
5314 Clouds 18 1023 89 10000 1.34 26 20:34 12.10.2021
5315 Clouds 18 1023 89 10000 1.34 22 19:57 12.10.2021
5316 Clouds 18 1023 90 10000 0.89 84 18:36 12.10.2021
5317 Clouds 18 1024 89 10000 0.89 87 17:51 12.10.2021
5318 Drizzle 19 1024 91 10000 1.34 83 16:39 12.10.2021
5319 Drizzle 19 1024 90 10000 1.34 29 15:58 12.10.2021
5320 Clouds 19 1024 90 10000 0.89 44 14:45 12.10.2021
5321 Drizzle 20 1024 89 10000 1.34 123 13:43 12.10.2021
5322 Clouds 19 1024 91 10000 1.34 255 12:35 12.10.2021
5323 Clouds 20 1023 89 10000 1.34 67 09:46 12.10.2021
5324 Clouds 20 1023 91 7000 1.34 353 08:43 12.10.2021
5325 Clouds 20 1022 88 10000 2.24 104 07:25 12.10.2021
5326 Mist 21 1023 82 10000 1.34 94 05:31 12.10.2021
5327 Clouds 22 1023 80 10000 0.89 111 04:32 12.10.2021
5328 Clouds 22 1022 80 10000 1.34 169 00:28 12.10.2021
5329 Clouds 22 1021 82 10000 1.34 172 23:40 11.10.2021
5330 Clouds 22 1021 82 10000 1.34 172 23:40 11.10.2021
5331 Clouds 22 1021 83 10000 1.34 30 22:57 11.10.2021
5332 Clouds 22 1020 85 10000 1.34 116 21:46 11.10.2021
5333 Clouds 22 1019 86 10000 0.45 93 20:47 11.10.2021
5334 Clouds 23 1019 85 10000 1.34 88 19:45 11.10.2021
5335 Clouds 23 1019 85 10000 0.45 5 18:42 11.10.2021
5336 Clouds 23 1018 85 10000 0.89 64 17:49 11.10.2021
5337 Clouds 24 1018 85 10000 2.06 190 16:39 11.10.2021
5338 Clouds 24 1018 83 10000 2.57 180 15:51 11.10.2021
5339 Clouds 24 1018 81 10000 0.45 80 14:55 11.10.2021
5340 Clouds 24 1017 79 10000 0.45 56 14:33 11.10.2021
5341 Clouds 25 1017 78 10000 0.45 146 13:36 11.10.2021
5342 Clouds 25 1016 75 10000 1.34 148 11:51 11.10.2021
5343 Clouds 26 1015 70 10000 2.24 148 10:34 11.10.2021
5344 Clouds 27 1015 66 10000 2.24 158 09:22 11.10.2021
5345 Clouds 29 1014 61 10000 2.24 205 07:27 11.10.2021
5346 Clouds 25 1018 70 10000 0.89 143 01:40 11.10.2021
5347 Clouds 23 1018 77 10000 0.89 80 00:48 11.10.2021
5348 Clouds 22 1018 80 10000 1.34 246 00:23 11.10.2021
5349 Clouds 21 1018 86 10000 0.45 161 21:54 10.10.2021
5350 Clouds 21 1018 86 10000 0.45 227 21:32 10.10.2021
5351 Clouds 21 1018 86 10000 4.63 190 20:47 10.10.2021
5352 Clouds 21 1018 86 10000 0.45 86 20:21 10.10.2021
5353 Clouds 21 1018 84 10000 0.45 126 19:59 10.10.2021
5354 Clouds 22 1018 84 10000 0.45 142 19:35 10.10.2021
5355 Clouds 22 1019 82 10000 1.34 152 18:35 10.10.2021
5356 Clouds 22 1020 81 10000 2.24 167 16:46 10.10.2021
5357 Clouds 23 1021 80 10000 1.34 160 15:46 10.10.2021
5358 Clouds 23 1021 79 10000 0.89 156 13:57 10.10.2021
5359 Clouds 23 1021 77 10000 0.89 161 13:33 10.10.2021
5360 Clouds 24 1021 76 10000 1.34 171 12:35 10.10.2021
5361 Clouds 25 1021 71 10000 2.24 171 10:43 10.10.2021
5362 Clouds 26 1022 69 10000 2.24 148 09:30 10.10.2021
5363 Clouds 26 1021 70 10000 1.34 141 08:53 10.10.2021
5364 Clouds 26 1022 71 10000 0.89 142 07:28 10.10.2021
5365 Clouds 22 1026 79 10000 0.89 94 02:45 10.10.2021
5366 Clouds 21 1026 78 10000 0.89 125 00:57 10.10.2021
5367 Clouds 21 1026 80 10000 0.89 24 00:23 10.10.2021
5368 Clouds 20 1025 81 10000 0.89 115 22:52 09.10.2021
5369 Clouds 20 1025 79 10000 0.89 75 21:45 09.10.2021
5370 Clouds 20 1025 79 10000 0.89 102 21:26 09.10.2021
5371 Clouds 20 1026 80 10000 2.24 8 19:44 09.10.2021
5372 Clouds 20 1026 81 10000 1.34 347 19:19 09.10.2021
5373 Clouds 20 1026 80 10000 1.34 30 18:33 09.10.2021
5374 Clouds 21 1027 81 10000 2.24 61 16:43 09.10.2021
5375 Clouds 21 1027 79 10000 1.34 73 15:33 09.10.2021
5376 Clouds 22 1027 81 10000 1.34 1 13:44 09.10.2021
5377 Clouds 22 1026 81 10000 2.24 80 12:40 09.10.2021
5378 Clouds 23 1026 78 10000 1.34 82 11:48 09.10.2021
5379 Clouds 23 1025 74 10000 2.24 100 10:42 09.10.2021
5380 Clouds 24 1025 70 10000 2.24 85 09:40 09.10.2021
5381 Clouds 25 1025 69 10000 1.34 265 08:30 09.10.2021
5382 Clouds 25 1025 68 10000 0.89 140 07:48 09.10.2021
5383 Clouds 26 1025 70 10000 1.34 96 05:29 09.10.2021
5384 Mist 24 1025 81 10000 0.89 116 02:59 09.10.2021
5385 Mist 24 1025 82 10000 0.89 118 02:40 09.10.2021
5386 Clouds 21 1024 87 9000 0.89 41 23:51 08.10.2021
5387 Clouds 21 1023 87 10000 0.89 109 22:55 08.10.2021
5388 Clouds 21 1023 85 10000 0.45 108 22:24 08.10.2021
5389 Clouds 21 1022 84 10000 1.34 304 21:18 08.10.2021
5390 Clouds 23 1022 83 10000 0.45 292 18:59 08.10.2021
5391 Clouds 23 1021 82 10000 0.89 137 17:36 08.10.2021
5392 Clouds 23 1021 81 10000 0.89 181 16:51 08.10.2021
5393 Clouds 24 1021 80 10000 0.89 149 16:23 08.10.2021
5394 Clouds 25 1021 78 10000 2.24 160 13:58 08.10.2021
5395 Clouds 25 1021 78 10000 1.34 164 13:35 08.10.2021
5396 Clouds 25 1020 74 10000 1.34 117 11:33 08.10.2021
5397 Clouds 26 1019 69 10000 1.34 147 10:41 08.10.2021
5398 Clouds 27 1019 64 10000 1.34 162 09:44 08.10.2021
5399 Clouds 22 1020 78 10000 0.45 97 00:34 08.10.2021
5400 Clouds 21 1020 82 10000 0.89 67 23:21 07.10.2021
5401 Clouds 21 1019 82 10000 1.34 26 21:46 07.10.2021
5402 Clouds 21 1019 82 10000 1.34 85 21:26 07.10.2021
5403 Clouds 21 1019 84 10000 0.89 265 20:28 07.10.2021
5404 Clouds 21 1019 84 10000 0.89 5 19:30 07.10.2021
5405 Clouds 21 1019 83 10000 0.89 43 18:24 07.10.2021
5406 Clouds 21 1019 83 10000 5.66 180 17:27 07.10.2021
5407 Clouds 21 1019 83 10000 0.89 30 15:53 07.10.2021
5408 Clouds 22 1019 80 10000 0.89 50 14:24 07.10.2021
5409 Clouds 22 1019 79 10000 0.89 53 13:43 07.10.2021
5410 Clouds 22 1019 78 10000 0.89 12 12:48 07.10.2021
5411 Clouds 23 1018 76 10000 1.34 347 10:57 07.10.2021
5412 Clouds 23 1018 73 10000 0.45 82 10:20 07.10.2021
5413 Clouds 23 1018 72 10000 0.45 339 09:34 07.10.2021
5414 Clouds 24 1018 70 10000 0.89 304 08:52 07.10.2021
5415 Clouds 23 1019 71 10000 0.89 131 07:56 07.10.2021
5416 Clouds 23 1018 70 10000 0.89 149 07:36 07.10.2021
5417 Clouds 21 1021 76 10000 0.89 110 03:54 07.10.2021
5418 Clouds 20 1020 79 10000 0.89 337 00:29 07.10.2021
5419 Clouds 19 1020 81 10000 0.45 122 22:51 06.10.2021
5420 Clouds 20 1020 80 10000 0.89 135 22:23 06.10.2021
5421 Clouds 20 1019 74 10000 0.45 83 20:43 06.10.2021
5422 Clouds 20 1019 74 10000 0.89 68 20:20 06.10.2021
5423 Clouds 21 1020 71 10000 0.89 119 18:42 06.10.2021
5424 Clouds 21 1020 72 10000 0.45 102 16:58 06.10.2021
5425 Clouds 21 1020 72 10000 0.45 102 16:58 06.10.2021
5426 Clouds 21 1020 72 10000 0.89 83 15:32 06.10.2021
5427 Clouds 21 1020 73 10000 1.34 104 14:30 06.10.2021
5428 Clouds 21 1019 71 10000 1.34 110 13:23 06.10.2021
5429 Clouds 21 1019 73 10000 1.34 138 12:44 06.10.2021
5430 Clouds 21 1019 73 10000 1.34 33 12:22 06.10.2021
5431 Clouds 23 1017 71 10000 2.24 119 10:23 06.10.2021
5432 Clouds 24 1016 69 10000 2.24 106 09:39 06.10.2021
5433 Clouds 24 1016 68 10000 2.24 125 08:52 06.10.2021
5434 Clouds 26 1015 65 10000 2.68 109 07:53 06.10.2021
5435 Clouds 28 1015 62 10000 1.34 133 05:27 06.10.2021
5436 Clouds 28 1015 62 10000 1.34 126 05:27 06.10.2021
5437 Clouds 24 1015 70 10000 2.68 337 01:23 06.10.2021
5438 Clouds 22 1015 77 10000 0.45 73 00:20 06.10.2021
5439 Clouds 22 1014 79 10000 0.45 118 23:48 05.10.2021
5440 Clouds 21 1014 82 10000 0.89 303 23:29 05.10.2021
5441 Clouds 22 1014 80 10000 0.51 350 22:30 05.10.2021
5442 Clouds 22 1014 81 10000 1.54 340 21:50 05.10.2021
5443 Clouds 22 1014 81 10000 1.54 300 20:50 05.10.2021
5444 Clouds 22 1014 80 10000 5.14 230 20:25 05.10.2021
5445 Clouds 22 1014 80 10000 0.45 300 19:50 05.10.2021
5446 Clouds 23 1014 78 10000 0.89 59 19:21 05.10.2021
5447 Clouds 23 1015 76 10000 0.89 112 17:23 05.10.2021
5448 Clouds 24 1016 73 10000 0.45 152 15:22 05.10.2021
5449 Clouds 25 1017 71 10000 2.24 144 13:44 05.10.2021
5450 Clouds 25 1018 73 10000 1.34 178 12:57 05.10.2021
5451 Clouds 25 1018 74 10000 0.45 207 12:32 05.10.2021
5452 Clouds 25 1017 72 10000 0.89 108 11:22 05.10.2021
5453 Clouds 26 1017 67 10000 0.89 132 10:21 05.10.2021
5454 Clouds 29 1018 57 10000 1.79 125 06:59 05.10.2021
5455 Clouds 23 1023 77 10000 0.89 269 00:58 05.10.2021
5456 Clouds 21 1022 84 10000 3.09 290 22:51 04.10.2021
5457 Clear 22 1022 79 10000 0.89 322 20:51 04.10.2021
5458 Clouds 23 1023 75 10000 0.89 258 18:48 04.10.2021
5459 Clouds 23 1023 76 10000 0.89 117 16:55 04.10.2021
5460 Clouds 24 1024 77 10000 0.89 110 15:32 04.10.2021
5461 Clouds 24 1023 76 10000 0.89 123 14:45 04.10.2021
5462 Clouds 24 1024 75 10000 0.89 106 13:58 04.10.2021
5463 Clouds 24 1024 78 10000 0.45 97 13:31 04.10.2021
5464 Clouds 24 1024 77 10000 0.89 112 12:38 04.10.2021
5465 Clouds 25 1023 74 10000 1.34 194 11:33 04.10.2021
5466 Clouds 25 1023 72 10000 0.89 140 10:44 04.10.2021
5467 Clouds 27 1023 65 10000 0.89 242 09:33 04.10.2021
5468 Clouds 28 1023 61 10000 1.79 99 07:53 04.10.2021
5469 Clouds 28 1024 64 10000 2.68 117 06:42 04.10.2021
5470 Clouds 20 1026 80 10000 1.03 0 22:48 03.10.2021
5471 Clouds 21 1026 79 10000 0.51 40 21:52 03.10.2021
5472 Clouds 21 1026 81 10000 0.51 110 21:29 03.10.2021
5473 Clouds 21 1025 80 10000 1.03 120 20:44 03.10.2021
5474 Clouds 21 1026 81 10000 0.89 299 19:42 03.10.2021
5475 Clouds 21 1026 82 10000 1.03 0 18:29 03.10.2021
5476 Clouds 21 1026 76 10000 0.45 123 17:36 03.10.2021
5477 Clouds 22 1027 74 10000 1.03 40 14:50 03.10.2021
5478 Clouds 22 1027 72 10000 1.03 340 14:29 03.10.2021
5479 Clouds 22 1027 70 10000 1.54 350 13:35 03.10.2021
5480 Clouds 23 1026 65 10000 2.06 150 12:45 03.10.2021
5481 Clouds 23 1026 61 10000 1.54 140 11:19 03.10.2021
5482 Clouds 25 1024 59 10000 0.89 214 09:57 03.10.2021
5483 Clouds 26 1023 62 10000 0.45 98 05:25 03.10.2021
5484 Clouds 19 1021 87 10000 0.89 313 22:52 02.10.2021
5485 Clouds 20 1020 86 10000 0.89 349 21:51 02.10.2021
5486 Clouds 20 1018 85 10000 0.45 277 20:30 02.10.2021
5487 Clouds 20 1017 82 10000 0.89 319 18:56 02.10.2021
5488 Clouds 21 1016 82 10000 0.89 279 18:20 02.10.2021
5489 Clouds 21 1016 79 10000 0.89 281 17:37 02.10.2021
5490 Clouds 21 1014 79 10000 0.89 298 16:39 02.10.2021
5491 Clouds 28 1008 56 10000 0.45 245 07:30 02.10.2021
5492 Rain 23 1008 82 10000 3.09 60 15:37 30.09.2021
5493 Rain 24 1009 79 10000 2.57 60 13:57 30.09.2021
5494 Rain 24 1009 75 10000 0.89 103 11:58 30.09.2021
5495 Rain 24 1008 78 10000 0.89 150 10:55 30.09.2021
5496 Clouds 24 1009 81 10000 1.34 163 10:25 30.09.2021
5497 Clouds 27 1008 64 10000 0.89 90 08:31 30.09.2021
5498 Clouds 27 1008 64 10000 0.89 128 07:36 30.09.2021
5499 Clouds 27 1009 65 10000 1.34 92 05:25 30.09.2021
5500 Clouds 27 1009 65 10000 1.34 92 05:25 30.09.2021
5501 Clouds 24 1011 74 10000 0.45 132 02:33 30.09.2021
5502 Clouds 22 1012 83 10000 0.89 320 00:31 30.09.2021
5503 Clouds 20 1011 87 10000 1.54 40 22:41 29.09.2021
5504 Clouds 21 1012 87 10000 2.06 350 21:28 29.09.2021
5505 Clouds 21 1012 84 10000 1.03 50 20:30 29.09.2021
5506 Clouds 21 1012 84 10000 1.03 60 19:58 29.09.2021
5507 Clouds 21 1012 83 10000 1.54 90 19:18 29.09.2021
5508 Clouds 22 1013 81 10000 1.03 40 17:58 29.09.2021
5509 Clouds 23 1014 79 10000 1.03 120 16:55 29.09.2021
5510 Clouds 23 1014 79 10000 1.03 100 16:22 29.09.2021
5511 Clouds 23 1015 79 10000 2.57 90 14:42 29.09.2021
5512 Clouds 22 1014 79 10000 2.57 90 14:20 29.09.2021
5513 Clouds 23 1015 79 10000 0.45 123 13:32 29.09.2021
5514 Clouds 23 1015 79 10000 3.09 130 12:38 29.09.2021
5515 Clouds 23 1014 79 10000 0.89 144 11:18 29.09.2021
5516 Clouds 24 1014 75 10000 0.89 92 10:27 29.09.2021
5517 Clouds 25 1014 70 10000 1.34 122 09:40 29.09.2021
5518 Clouds 26 1014 63 10000 1.34 169 07:48 29.09.2021
5519 Clouds 26 1015 58 10000 0.89 92 05:52 29.09.2021
5520 Clouds 19 1017 81 10000 0.45 284 23:59 28.09.2021
5521 Clouds 19 1017 83 10000 0.89 315 22:25 28.09.2021
5522 Clouds 19 1016 82 10000 0.89 294 21:46 28.09.2021
5523 Clouds 19 1016 83 10000 5.14 10 20:48 28.09.2021
5524 Clouds 19 1017 83 10000 4.63 20 19:48 28.09.2021
5525 Clouds 19 1017 83 10000 0.45 336 19:27 28.09.2021
5526 Clouds 20 1017 82 10000 3.6 20 18:40 28.09.2021
5527 Clouds 20 1017 80 10000 0.45 44 16:54 28.09.2021
5528 Clouds 21 1017 77 10000 0.45 308 15:19 28.09.2021
5529 Clouds 22 1018 71 10000 0.89 77 13:25 28.09.2021
5530 Clouds 22 1017 71 10000 0.89 80 12:24 28.09.2021
5531 Clouds 23 1017 69 10000 0.89 334 11:47 28.09.2021
5532 Clouds 23 1016 68 10000 0.89 81 11:26 28.09.2021
5533 Clouds 24 1016 65 10000 0.89 331 10:27 28.09.2021
5534 Clouds 25 1016 60 10000 0.89 360 09:29 28.09.2021
5535 Clouds 25 1015 60 10000 0.89 123 08:43 28.09.2021
5536 Clouds 25 1015 60 10000 0.89 92 08:18 28.09.2021
5537 Clouds 25 1016 61 10000 2.24 288 06:46 28.09.2021
5538 Clouds 21 1019 69 10000 0.89 298 01:38 28.09.2021
5539 Clouds 19 1019 73 10000 1.34 325 00:32 28.09.2021
5540 Clouds 19 1019 74 10000 1.79 310 23:49 27.09.2021
5541 Clouds 18 1018 76 10000 0.89 293 23:24 27.09.2021
5542 Clouds 18 1018 75 10000 0.45 308 22:31 27.09.2021
5543 Clouds 18 1018 75 10000 1.34 296 21:38 27.09.2021
5544 Clouds 19 1018 75 10000 0.45 292 20:29 27.09.2021
5545 Clouds 19 1018 76 10000 0.89 302 19:40 27.09.2021
5546 Clouds 19 1018 76 10000 0.45 315 18:54 27.09.2021
5547 Clouds 19 1018 76 10000 0.89 292 17:41 27.09.2021
5548 Clouds 19 1018 76 10000 0.89 345 17:41 27.09.2021
5549 Clouds 20 1018 76 10000 0.89 298 17:21 27.09.2021
5550 Clouds 20 1019 77 10000 1.34 296 16:35 27.09.2021
5551 Clouds 20 1019 78 10000 0.89 5 15:39 27.09.2021
5552 Clouds 20 1019 75 10000 0.89 39 13:57 27.09.2021
5553 Clouds 21 1018 70 10000 2.24 42 12:26 27.09.2021
5554 Clouds 23 1017 65 10000 0.89 123 10:51 27.09.2021
5555 Clouds 23 1017 60 10000 1.79 26 09:42 27.09.2021
5556 Clouds 24 1017 63 10000 1.79 19 07:57 27.09.2021
5557 Clouds 23 1018 67 10000 2.57 20 04:51 27.09.2021
5558 Clouds 18 1020 82 10000 2.24 312 00:21 27.09.2021
5559 Clouds 18 1019 80 10000 1.34 331 22:18 26.09.2021
5560 Clouds 18 1019 79 10000 2.24 342 21:31 26.09.2021
5561 Clouds 18 1019 80 10000 0.45 312 20:38 26.09.2021
5562 Clouds 18 1019 80 10000 2.24 322 20:18 26.09.2021
5563 Clouds 18 1019 79 10000 1.34 284 19:36 26.09.2021
5564 Clouds 18 1019 80 10000 2.68 298 18:45 26.09.2021
5565 Clouds 18 1020 80 10000 1.34 296 17:49 26.09.2021
5566 Clouds 18 1020 80 10000 0.45 298 17:20 26.09.2021
5567 Clouds 19 1021 78 10000 0.45 322 16:28 26.09.2021
5568 Clouds 19 1020 78 10000 1.34 323 15:56 26.09.2021
5569 Clouds 19 1021 77 10000 1.34 338 14:26 26.09.2021
5570 Clouds 19 1021 77 10000 0.89 325 13:45 26.09.2021
5571 Clouds 19 1021 74 10000 0.45 323 12:32 26.09.2021
5572 Clouds 20 1021 74 10000 0.45 278 11:59 26.09.2021
5573 Clouds 20 1021 72 10000 0.45 12 11:37 26.09.2021
5574 Clouds 20 1021 69 10000 0.89 333 10:21 26.09.2021
5575 Clouds 21 1021 69 10000 0.45 90 08:55 26.09.2021
5576 Rain 21 1024 69 10000 0.89 310 03:26 26.09.2021
5577 Rain 20 1023 72 10000 0.89 341 00:20 26.09.2021
5578 Clouds 20 1023 74 10000 0.45 321 23:23 25.09.2021
5579 Clouds 20 1024 74 10000 0.45 338 22:37 25.09.2021
5580 Rain 20 1024 73 10000 0.89 38 21:55 25.09.2021
5581 Clouds 20 1024 73 10000 0.45 273 21:30 25.09.2021
5582 Clouds 20 1024 72 10000 0.89 323 20:37 25.09.2021
5583 Clouds 21 1024 71 10000 0.45 71 18:47 25.09.2021
5584 Rain 21 1024 72 10000 0.89 44 17:47 25.09.2021
5585 Clouds 21 1025 72 10000 1.79 111 15:41 25.09.2021
5586 Clouds 21 1025 71 10000 0.89 112 13:57 25.09.2021
5587 Clouds 21 1025 71 10000 1.34 109 13:27 25.09.2021
5588 Clouds 22 1025 74 10000 1.34 77 11:54 25.09.2021
5589 Clouds 23 1024 72 10000 1.34 102 10:33 25.09.2021
5590 Clouds 23 1023 69 10000 1.34 101 09:26 25.09.2021
5591 Clouds 24 1023 67 10000 1.34 30 07:55 25.09.2021
5592 Clouds 24 1024 70 10000 0.45 109 05:19 25.09.2021
5593 Rain 21 1023 79 10000 0.89 61 23:50 24.09.2021
5594 Clouds 22 1023 78 10000 0.89 332 21:42 24.09.2021
5595 Clouds 23 1022 74 10000 0.89 109 20:33 24.09.2021
5596 Clouds 23 1022 75 10000 1.34 275 19:47 24.09.2021
5597 Clouds 23 1021 71 10000 1.34 115 18:32 24.09.2021
5598 Clouds 24 1021 70 10000 0.45 53 17:54 24.09.2021
5599 Clouds 24 1021 71 10000 0.89 290 17:36 24.09.2021
5600 Clouds 24 1021 69 10000 1.34 269 17:18 24.09.2021
5601 Clouds 25 1020 69 10000 0.45 245 13:57 24.09.2021
5602 Clouds 25 1019 66 10000 0.89 279 12:58 24.09.2021
5603 Clouds 26 1019 66 10000 0.89 148 12:39 24.09.2021
5604 Clouds 26 1019 66 10000 0.45 131 12:20 24.09.2021
5605 Clouds 28 1017 50 10000 1.34 205 10:25 24.09.2021
5606 Clouds 30 1016 42 10000 1.34 113 08:29 24.09.2021
5607 Clouds 30 1017 45 10000 1.34 98 07:33 24.09.2021
5608 Clouds 30 1017 43 10000 0.89 267 06:44 24.09.2021
5609 Clouds 29 1018 45 10000 0.89 236 04:54 24.09.2021
5610 Clouds 23 1017 60 10000 1.34 238 23:57 23.09.2021
5611 Clouds 23 1017 73 10000 0.45 284 22:22 23.09.2021
5612 Clouds 23 1016 72 10000 0.89 293 21:52 23.09.2021
5613 Clouds 23 1016 73 10000 0.45 274 20:34 23.09.2021
5614 Clouds 24 1015 73 10000 0.89 284 19:30 23.09.2021
5615 Clouds 24 1014 78 10000 0.45 9 17:46 23.09.2021
5616 Clouds 26 1013 72 10000 0.89 253 15:30 23.09.2021
5617 Clouds 26 1013 71 10000 0.45 314 14:59 23.09.2021
5618 Clouds 27 1012 69 10000 5.14 190 13:45 23.09.2021
5619 Clouds 27 1012 69 10000 0.45 78 13:19 23.09.2021
5620 Clouds 27 1012 69 10000 0.89 109 12:50 23.09.2021
5621 Clouds 28 1012 67 10000 5.66 170 12:22 23.09.2021
5622 Clouds 29 1011 60 10000 0.45 105 11:32 23.09.2021
5623 Clouds 30 1011 53 10000 0.89 84 10:25 23.09.2021
5624 Clouds 31 1010 48 10000 0.45 111 09:51 23.09.2021
5625 Clouds 31 1010 46 10000 1.34 128 07:54 23.09.2021
5626 Clouds 30 1012 60 10000 1.54 160 03:50 23.09.2021
5627 Clouds 25 1011 84 10000 5.14 200 23:24 22.09.2021
5628 Clouds 25 1010 84 10000 0.45 299 22:29 22.09.2021
5629 Clouds 25 1010 84 10000 0.45 251 21:55 22.09.2021
5630 Clouds 25 1010 84 10000 7.72 230 21:33 22.09.2021
5631 Clouds 25 1010 82 10000 0.45 167 20:52 22.09.2021
5632 Clouds 26 1009 81 10000 0.89 221 19:29 22.09.2021
5633 Clouds 26 1009 81 10000 1.34 222 18:39 22.09.2021
5634 Clouds 26 1009 79 10000 1.34 328 17:47 22.09.2021
5635 Clouds 27 1009 80 10000 1.34 236 16:37 22.09.2021
5636 Clouds 27 1010 81 10000 1.34 67 15:19 22.09.2021
5637 Clouds 27 1010 81 10000 1.34 225 13:48 22.09.2021
5638 Clouds 27 1009 75 10000 0.89 260 11:59 22.09.2021
5639 Clouds 28 1008 71 10000 1.34 201 10:52 22.09.2021
5640 Clouds 29 1009 69 10000 1.34 107 09:25 22.09.2021
5641 Clouds 29 1008 73 10000 1.79 84 08:29 22.09.2021
5642 Clouds 28 1009 73 10000 1.34 136 07:19 22.09.2021
5643 Clouds 27 1009 77 10000 1.34 119 05:56 22.09.2021
5644 Rain 27 1010 77 10000 0.89 70 05:34 22.09.2021
5645 Clouds 27 1011 73 10000 1.34 85 03:50 22.09.2021
5646 Clouds 22 1012 86 10000 0.89 295 00:22 22.09.2021
5647 Clouds 22 1012 83 7000 2.06 130 22:56 21.09.2021
5648 Clouds 23 1012 78 10000 1.54 70 21:36 21.09.2021
5649 Clouds 23 1012 76 10000 1.2 189 20:26 21.09.2021
5650 Clouds 23 1013 77 10000 1.54 70 19:22 21.09.2021
5651 Clouds 23 1014 73 10000 1.46 173 17:39 21.09.2021
5652 Clouds 24 1014 73 10000 2.06 100 16:38 21.09.2021
5653 Clouds 24 1014 73 10000 0.45 83 15:44 21.09.2021
5654 Clouds 24 1014 71 10000 0.89 74 14:58 21.09.2021
5655 Clouds 24 1014 70 10000 0.89 36 13:57 21.09.2021
5656 Clouds 24 1015 70 10000 3.6 100 13:36 21.09.2021
5657 Clouds 25 1015 68 10000 0.89 134 12:36 21.09.2021
5658 Clouds 25 1014 73 10000 4.12 120 10:32 21.09.2021
5659 Clouds 27 1014 60 10000 4.12 140 08:40 21.09.2021
5660 Clouds 27 1014 65 10000 2.57 60 07:18 21.09.2021
5661 Clouds 22 1017 73 10000 5.14 360 00:48 21.09.2021
5662 Clouds 21 1017 83 10000 5.14 360 22:37 20.09.2021
5663 Clouds 19 1017 83 10000 5.66 360 21:41 20.09.2021
5664 Clouds 19 1017 83 10000 5.14 10 20:55 20.09.2021
5665 Clouds 20 1018 80 10000 1.34 294 19:33 20.09.2021
5666 Clouds 21 1019 79 10000 5.14 10 17:52 20.09.2021
5667 Clouds 21 1019 77 10000 0.89 327 16:50 20.09.2021
5668 Clouds 21 1019 76 10000 0.45 42 15:57 20.09.2021
5669 Clouds 21 1019 74 10000 5.14 50 15:32 20.09.2021
5670 Clouds 22 1019 69 10000 0.89 321 14:25 20.09.2021
5671 Clouds 23 1019 63 10000 0.89 123 12:39 20.09.2021
5672 Clouds 23 1018 63 10000 0.45 87 12:20 20.09.2021
5673 Clouds 25 1017 56 10000 1.34 24 10:36 20.09.2021
5674 Clouds 26 1017 50 10000 1.34 344 09:44 20.09.2021
5675 Clouds 27 1016 50 10000 1.34 63 09:25 20.09.2021
5676 Clouds 28 1016 49 10000 0.89 249 08:31 20.09.2021
5677 Clouds 24 1017 57 10000 1.34 63 02:27 20.09.2021
5678 Clouds 19 1016 78 10000 0.45 286 22:47 19.09.2021
5679 Clouds 20 1016 77 10000 0.45 323 21:47 19.09.2021
5680 Clouds 20 1016 76 10000 0.89 279 20:58 19.09.2021
5681 Clouds 20 1016 74 10000 3.6 20 19:41 19.09.2021
5682 Clouds 20 1016 76 10000 0.89 5 18:42 19.09.2021
5683 Clear 21 1016 77 10000 6.17 360 17:23 19.09.2021
5684 Clear 21 1016 76 10000 1.34 289 16:32 19.09.2021
5685 Clouds 21 1016 76 10000 0.45 338 15:31 19.09.2021
5686 Clouds 22 1016 72 10000 5.66 50 14:48 19.09.2021
5687 Clear 22 1015 68 10000 0.45 306 13:49 19.09.2021
5688 Clear 23 1015 63 10000 1.34 138 12:52 19.09.2021
5689 Clouds 24 1014 54 10000 0.45 15 11:42 19.09.2021
5690 Clouds 24 1014 52 10000 0.45 345 11:21 19.09.2021
5691 Clouds 26 1013 51 10000 2.24 327 09:51 19.09.2021
5692 Clouds 27 1012 50 10000 1.34 57 09:21 19.09.2021
5693 Clouds 28 1012 43 10000 0.89 101 06:48 19.09.2021
5694 Clouds 23 1012 87 10000 0.45 124 00:40 19.09.2021
5695 Clouds 23 1011 90 10000 8.75 40 22:54 18.09.2021
5696 Clouds 23 1009 91 10000 1.34 37 21:56 18.09.2021
5697 Clouds 23 1008 92 10000 0.45 354 20:46 18.09.2021
5698 Clouds 23 1008 93 10000 7.2 10 19:42 18.09.2021
5699 Clouds 23 1008 93 10000 7.2 10 19:22 18.09.2021
5700 Clouds 23 1007 93 10000 7.26 358 18:52 18.09.2021
5701 Clouds 23 1008 93 10000 5.66 360 18:29 18.09.2021
5702 Mist 23 1007 94 4000 3.09 360 16:34 18.09.2021
5703 Mist 23 1007 93 5000 0.45 323 13:51 18.09.2021
5704 Clouds 24 1007 94 10000 0.89 303 13:31 18.09.2021
5705 Clouds 24 1007 93 10000 0.45 328 12:52 18.09.2021
5706 Mist 25 1006 90 4000 4.12 160 11:59 18.09.2021
5707 Clouds 25 1005 90 10000 5.14 170 11:29 18.09.2021
5708 Clouds 26 1005 89 10000 1.79 106 10:22 18.09.2021
5709 Clouds 25 1005 91 10000 0.45 97 09:23 18.09.2021
5710 Clouds 26 1005 90 8000 4.12 190 08:24 18.09.2021
5711 Rain 23 1008 94 10000 9.94 187 00:42 18.09.2021
5712 Rain 22 1008 93 9328 0.89 355 23:53 17.09.2021
5713 Clouds 22 1008 94 10000 1.79 50 22:45 17.09.2021
5714 Clouds 23 1009 93 10000 0.89 78 22:22 17.09.2021
5715 Rain 23 1009 93 4000 1.79 61 21:31 17.09.2021
5716 Rain 22 1010 91 10000 0.89 292 19:31 17.09.2021
5717 Rain 23 1011 82 10000 0.45 56 18:30 17.09.2021
5718 Rain 23 1012 80 10000 0.89 127 16:34 17.09.2021
5719 Clouds 23 1014 78 10000 0.89 93 14:34 17.09.2021
5720 Clouds 24 1014 74 10000 0.89 130 11:48 17.09.2021
5721 Rain 25 1014 70 10000 0.45 106 09:57 17.09.2021
5722 Clouds 25 1015 68 10000 1.34 226 07:42 17.09.2021
5723 Clouds 24 1016 67 10000 1.34 86 05:27 17.09.2021
5724 Rain 20 1018 77 10000 0.89 340 00:31 17.09.2021
5725 Clouds 20 1018 78 10000 0.45 292 22:41 16.09.2021
5726 Clouds 20 1017 78 10000 0.89 289 22:23 16.09.2021
5727 Clouds 20 1018 77 10000 0.89 294 21:35 16.09.2021
5728 Clouds 20 1018 76 10000 0.89 315 20:29 16.09.2021
5729 Clouds 21 1018 74 10000 5.14 20 18:46 16.09.2021
5730 Clouds 21 1018 74 10000 1.34 324 18:18 16.09.2021
5731 Clouds 21 1018 76 10000 0.89 110 16:37 16.09.2021
5732 Clouds 22 1018 74 10000 7.2 50 14:49 16.09.2021
5733 Clouds 22 1019 73 10000 0.89 86 13:33 16.09.2021
5734 Clouds 22 1018 73 10000 0.89 331 12:42 16.09.2021
5735 Clouds 23 1017 70 10000 2.68 105 11:49 16.09.2021
5736 Clouds 23 1017 68 10000 1.34 115 10:54 16.09.2021
5737 Clouds 24 1017 67 10000 1.34 117 10:21 16.09.2021
5738 Clouds 25 1016 61 10000 1.34 39 09:20 16.09.2021
5739 Clouds 26 1016 59 10000 2.68 315 07:48 16.09.2021
5740 Clouds 26 1016 59 10000 2.24 49 06:57 16.09.2021
5741 Clouds 26 1016 57 10000 2.24 139 06:38 16.09.2021
5742 Clouds 24 1017 65 10000 0.89 70 03:22 16.09.2021
5743 Clouds 22 1017 72 10000 0.89 313 00:49 16.09.2021
5744 Clouds 21 1017 75 10000 0.89 347 23:26 15.09.2021
5745 Clouds 20 1016 77 10000 0.89 132 22:28 15.09.2021
5746 Clouds 21 1016 77 10000 0.45 348 21:31 15.09.2021
5747 Clouds 21 1015 78 10000 0.89 283 20:42 15.09.2021
5748 Clouds 22 1015 76 10000 0.45 309 19:33 15.09.2021
5749 Clouds 22 1016 75 10000 1.34 299 18:44 15.09.2021
5750 Clouds 22 1015 73 10000 0.45 277 17:39 15.09.2021
5751 Clouds 22 1016 72 10000 0.45 329 16:30 15.09.2021
5752 Clouds 23 1016 73 10000 0.89 298 15:22 15.09.2021
5753 Clouds 23 1015 75 10000 0.89 97 14:41 15.09.2021
5754 Clouds 23 1015 75 10000 0.89 332 13:45 15.09.2021
5755 Clouds 23 1015 75 10000 6.69 70 13:27 15.09.2021
5756 Clouds 23 1014 73 10000 0.89 109 12:33 15.09.2021
5757 Clouds 24 1014 72 10000 0.89 192 11:51 15.09.2021
5758 Clouds 25 1013 69 10000 1.79 72 10:57 15.09.2021
5759 Clouds 25 1013 67 10000 0.45 9 10:33 15.09.2021
5760 Clouds 28 1012 59 10000 0.89 270 08:50 15.09.2021
5761 Clouds 27 1012 61 10000 4.63 80 07:26 15.09.2021
5762 Clouds 21 1014 88 10000 0.89 306 00:55 15.09.2021
5763 Clouds 20 1014 93 10000 0.45 83 22:24 14.09.2021
5764 Clouds 20 1014 93 10000 2.57 50 21:21 14.09.2021
5765 Rain 20 1014 93 8000 2.57 80 20:21 14.09.2021
5766 Clouds 20 1015 92 10000 0.45 124 19:23 14.09.2021
5767 Clouds 20 1016 93 8000 0.45 80 17:33 14.09.2021
5768 Clouds 20 1016 92 7000 0.45 130 16:39 14.09.2021
5769 Mist 21 1016 91 5000 0.89 106 15:24 14.09.2021
5770 Mist 22 1017 90 5000 0.89 67 14:19 14.09.2021
5771 Rain 23 1016 85 10000 3.6 160 11:47 14.09.2021
5772 Clouds 23 1016 80 10000 3.6 190 10:44 14.09.2021
5773 Clouds 24 1016 77 10000 0.89 79 09:49 14.09.2021
5774 Clouds 25 1016 75 10000 2.06 140 07:53 14.09.2021
5775 Clouds 24 1019 72 10000 0.89 38 02:20 14.09.2021
5776 Clouds 23 1019 75 10000 0.45 341 23:29 13.09.2021
5777 Clouds 23 1018 75 10000 0.45 304 22:28 13.09.2021
5778 Clouds 23 1018 74 10000 2.57 360 21:55 13.09.2021
5779 Clouds 23 1018 74 10000 0.45 138 21:32 13.09.2021
5780 Clouds 24 1019 73 10000 0.45 76 19:35 13.09.2021
5781 Clouds 24 1019 71 10000 2.57 70 18:45 13.09.2021
5782 Clouds 24 1019 69 10000 0.89 137 17:28 13.09.2021
5783 Clouds 25 1018 67 10000 0.45 76 16:49 13.09.2021
5784 Clouds 24 1018 68 10000 0.45 62 14:45 13.09.2021
5785 Clouds 25 1017 69 10000 0.89 236 11:44 13.09.2021
5786 Clouds 27 1017 70 10000 1.79 161 10:41 13.09.2021
5787 Clouds 29 1015 57 10000 1.79 114 08:23 13.09.2021
5788 Clouds 24 1015 74 10000 0.45 269 00:38 13.09.2021
5789 Clouds 23 1014 85 10000 1.03 250 22:51 12.09.2021
5790 Clouds 23 1014 85 10000 0.89 304 22:22 12.09.2021
5791 Clouds 23 1013 87 10000 1.03 210 20:57 12.09.2021
5792 Clouds 23 1013 88 10000 1.03 0 20:19 12.09.2021
5793 Rain 23 1012 85 10000 1.54 260 19:36 12.09.2021
5794 Clouds 23 1012 85 10000 1.54 260 19:18 12.09.2021
5795 Clouds 24 1012 85 10000 2.06 270 18:18 12.09.2021
5796 Clouds 24 1012 83 10000 4.12 260 15:56 12.09.2021
5797 Clouds 25 1012 80 10000 5.66 230 14:47 12.09.2021
5798 Clouds 25 1012 81 10000 0.89 193 12:43 12.09.2021
5799 Clouds 25 1011 80 6000 1.34 92 10:32 12.09.2021
5800 Clouds 26 1010 80 6000 1.34 138 08:39 12.09.2021
5801 Mist 26 1011 80 5000 0.89 215 07:30 12.09.2021
5802 Clouds 24 1012 90 8000 0.45 93 00:47 12.09.2021
5803 Rain 24 1012 88 7000 0.45 333 22:58 11.09.2021
5804 Clouds 24 1011 87 8000 0.89 325 21:39 11.09.2021
5805 Clouds 24 1010 87 10000 0.45 84 19:41 11.09.2021
5806 Clouds 24 1010 87 10000 0.45 287 18:28 11.09.2021
5807 Clouds 25 1011 86 10000 0.45 5 17:29 11.09.2021
5808 Clouds 25 1011 84 10000 0.89 292 15:37 11.09.2021
5809 Clouds 26 1011 81 10000 2.57 190 13:25 11.09.2021
5810 Clouds 27 1011 75 10000 0.45 97 11:44 11.09.2021
5811 Clouds 28 1010 72 10000 0.89 121 10:40 11.09.2021
5812 Clouds 29 1010 67 10000 1.34 274 08:54 11.09.2021
5813 Clouds 27 1010 76 10000 2.57 140 07:44 11.09.2021
5814 Clouds 25 1013 83 10000 0.45 332 04:23 11.09.2021
5815 Clouds 23 1013 87 10000 0.45 69 22:47 10.09.2021
5816 Clouds 24 1013 85 10000 0.45 355 22:18 10.09.2021
5817 Clouds 24 1013 86 10000 2.57 120 21:40 10.09.2021
5818 Clouds 24 1013 85 10000 1.54 100 19:32 10.09.2021
5819 Clouds 24 1013 84 10000 0.89 73 17:59 10.09.2021
5820 Clouds 24 1013 78 10000 0.45 129 16:28 10.09.2021
5821 Clouds 26 1014 73 10000 0.45 107 13:32 10.09.2021
5822 Clouds 27 1013 72 10000 1.34 238 11:36 10.09.2021
5823 Clouds 30 1012 58 10000 0.89 32 08:27 10.09.2021
5824 Clouds 30 1012 54 10000 1.34 130 07:44 10.09.2021
5825 Clouds 22 1014 90 10000 0.45 319 00:41 10.09.2021
5826 Clouds 21 1013 93 10000 2.57 330 21:56 09.09.2021
5827 Clouds 21 1013 93 10000 0.45 305 20:48 09.09.2021
5828 Clouds 21 1013 93 10000 0.89 264 20:30 09.09.2021
5829 Clouds 22 1012 91 10000 0.45 250 18:50 09.09.2021
5830 Clouds 22 1012 93 8000 0.89 298 17:51 09.09.2021
5831 Mist 22 1013 94 3500 0.45 329 16:39 09.09.2021
5832 Mist 22 1013 94 5000 4.63 360 15:26 09.09.2021
5833 Clouds 22 1012 92 10000 5.14 360 12:34 09.09.2021
5834 Clouds 22 1012 91 10000 4.63 20 11:33 09.09.2021
5835 Clouds 22 1012 91 8000 0.45 321 09:39 09.09.2021
5836 Clouds 22 1012 93 7000 0.45 45 07:57 09.09.2021
5837 Clouds 21 1012 92 6000 2.06 40 06:20 09.09.2021
5838 Mist 19 1014 91 4000 1.34 298 01:31 09.09.2021
5839 Mist 19 1014 91 4000 1.34 298 01:31 09.09.2021
5840 Mist 19 1014 91 4000 0.89 272 01:31 09.09.2021
5841 Clouds 20 1014 81 10000 0.89 340 21:50 08.09.2021
5842 Clouds 20 1013 83 10000 4.12 10 20:57 08.09.2021
5843 Clouds 20 1013 82 10000 3.6 340 19:47 08.09.2021
5844 Clouds 20 1013 84 10000 0.89 299 18:49 08.09.2021
5845 Clouds 20 1013 84 10000 1.79 342 18:27 08.09.2021
5846 Clouds 20 1013 84 10000 0.89 304 17:52 08.09.2021
5847 Clouds 20 1014 84 10000 1.34 241 16:24 08.09.2021
5848 Clouds 21 1014 85 10000 1.54 110 13:53 08.09.2021
5849 Clouds 20 1014 84 10000 1.54 80 12:42 08.09.2021
5850 Clouds 20 1014 85 10000 0.45 65 12:24 08.09.2021
5851 Clouds 20 1013 84 10000 2.57 160 11:26 08.09.2021
5852 Clouds 21 1014 80 10000 0.45 332 10:32 08.09.2021
5853 Clouds 22 1014 77 10000 0.45 229 09:57 08.09.2021
5854 Clouds 23 1014 72 10000 0.45 226 07:55 08.09.2021
5855 Clouds 23 1014 72 10000 0.45 231 07:55 08.09.2021
5856 Clouds 23 1014 72 10000 0.45 226 07:55 08.09.2021
5857 Clouds 23 1014 72 10000 0.45 231 07:55 08.09.2021
5858 Clouds 23 1014 69 10000 0.89 106 07:30 08.09.2021
5859 Clouds 20 1016 72 10000 0.45 295 00:33 08.09.2021
5860 Clouds 18 1016 77 10000 0.89 305 22:35 07.09.2021
5861 Clouds 19 1016 77 10000 0.45 50 21:38 07.09.2021
5862 Clouds 19 1017 74 10000 0.89 286 19:40 07.09.2021
5863 Clouds 20 1017 72 10000 0.89 313 18:39 07.09.2021
5864 Clouds 20 1018 70 10000 4.12 30 17:43 07.09.2021
5865 Clouds 20 1018 71 10000 0.45 65 15:57 07.09.2021
5866 Clouds 20 1018 72 10000 0.89 101 15:33 07.09.2021
5867 Clouds 20 1018 71 10000 0.89 69 14:38 07.09.2021
5868 Clouds 21 1018 65 10000 0.89 19 12:28 07.09.2021
5869 Clouds 22 1017 60 10000 0.89 119 11:33 07.09.2021
5870 Clouds 23 1017 57 10000 0.89 115 10:40 07.09.2021
5871 Clouds 24 1016 59 10000 0.45 108 08:18 07.09.2021
5872 Clouds 24 1016 58 10000 0.89 67 06:43 07.09.2021
5873 Clouds 23 1017 62 10000 0.89 40 04:47 07.09.2021
5874 Clouds 22 1018 66 10000 1.34 316 02:28 07.09.2021
5875 Clouds 20 1018 75 10000 0.89 117 00:23 07.09.2021
5876 Clouds 18 1017 79 10000 0.89 73 23:31 06.09.2021
5877 Clouds 18 1017 80 10000 0.45 350 22:53 06.09.2021
5878 Clouds 18 1017 80 10000 0.89 325 22:28 06.09.2021
5879 Clouds 18 1017 78 10000 0.89 164 20:55 06.09.2021
5880 Clouds 19 1017 80 10000 0.89 319 19:22 06.09.2021
5881 Clouds 19 1017 80 10000 0.89 319 19:22 06.09.2021
5882 Clouds 19 1017 80 10000 1.34 300 19:22 06.09.2021
5883 Clouds 19 1017 80 10000 0.45 293 18:46 06.09.2021
5884 Clouds 19 1017 80 10000 0.45 322 18:18 06.09.2021
5885 Clouds 19 1017 80 10000 1.34 306 17:35 06.09.2021
5886 Clouds 19 1018 84 10000 1.34 338 15:43 06.09.2021
5887 Clouds 20 1017 86 10000 0.45 355 13:47 06.09.2021
5888 Clouds 20 1017 86 10000 0.89 311 12:46 06.09.2021
5889 Clouds 20 1015 83 10000 0.89 327 10:44 06.09.2021
5890 Clouds 20 1015 87 10000 4.63 30 07:59 06.09.2021
5891 Clouds 21 1017 79 10000 0.45 323 04:44 06.09.2021
5892 Clouds 20 1017 80 10000 1.79 286 23:27 05.09.2021
5893 Clouds 20 1017 80 10000 0.89 267 22:47 05.09.2021
5894 Rain 20 1017 81 10000 0.89 297 21:57 05.09.2021
5895 Clouds 20 1017 80 10000 0.89 283 21:29 05.09.2021
5896 Clouds 21 1017 78 10000 0.45 278 19:56 05.09.2021
5897 Clouds 21 1018 80 10000 0.89 124 18:41 05.09.2021
5898 Clouds 21 1018 79 10000 0.45 129 17:29 05.09.2021
5899 Clouds 21 1018 79 10000 0.45 332 15:27 05.09.2021
5900 Clouds 22 1018 79 10000 0.45 308 13:54 05.09.2021
5901 Clouds 22 1018 77 10000 1.79 35 12:26 05.09.2021
5902 Clouds 24 1017 68 10000 1.34 313 10:48 05.09.2021
5903 Clouds 24 1016 66 10000 0.89 350 10:23 05.09.2021
5904 Clouds 24 1017 67 10000 0.45 37 10:23 05.09.2021
5905 Clouds 24 1016 71 10000 6.17 50 09:21 05.09.2021
5906 Clouds 24 1016 78 10000 3.6 30 07:43 05.09.2021
5907 Clouds 19 1017 93 10000 0.89 330 00:48 05.09.2021
5908 Clouds 19 1017 93 10000 0.89 319 00:22 05.09.2021
5909 Clouds 19 1017 93 10000 0.89 319 00:22 05.09.2021
5910 Clouds 19 1016 93 7000 1.34 273 23:32 04.09.2021
5911 Mist 19 1016 94 4000 0.89 309 22:35 04.09.2021
5912 Mist 19 1016 94 4000 1.34 10 22:35 04.09.2021
5913 Mist 19 1016 94 4000 0.89 213 21:55 04.09.2021
5914 Clouds 19 1015 94 10000 0.89 304 19:41 04.09.2021
5915 Rain 19 1015 94 8000 0.89 269 18:39 04.09.2021
5916 Rain 19 1016 94 10000 0.89 324 15:54 04.09.2021
5917 Rain 20 1015 93 4500 0.45 325 13:18 04.09.2021
5918 Rain 21 1014 89 10000 0.45 27 11:19 04.09.2021
5919 Clouds 22 1013 90 10000 0.45 333 08:58 04.09.2021
5920 Clouds 22 1013 92 10000 0.45 308 04:50 04.09.2021
5921 Clouds 20 1013 93 10000 0.45 325 00:24 04.09.2021
5922 Clouds 20 1013 93 10000 0.89 294 23:31 03.09.2021
5923 Clouds 20 1013 91 10000 3.6 10 21:59 03.09.2021
5924 Clouds 20 1012 93 10000 0.45 340 21:34 03.09.2021
5925 Clouds 20 1012 93 10000 0.45 299 20:42 03.09.2021
5926 Clouds 20 1012 92 10000 0.89 292 19:49 03.09.2021
5927 Clouds 20 1011 93 10000 0.89 286 18:59 03.09.2021
5928 Clouds 20 1012 94 8000 0.89 355 17:42 03.09.2021
5929 Clouds 20 1013 94 6000 0.89 277 16:25 03.09.2021
5930 Clouds 20 1012 94 10000 0.45 286 14:53 03.09.2021
5931 Rain 20 1011 95 7000 0.45 142 11:57 03.09.2021
5932 Mist 20 1012 94 2500 0.89 276 10:27 03.09.2021
5933 Rain 21 1011 91 10000 0.45 310 08:44 03.09.2021
5934 Drizzle 21 1011 89 10000 1.34 288 07:39 03.09.2021
5935 Mist 19 1011 95 3500 0.45 302 01:39 03.09.2021
5936 Clouds 19 1010 94 10000 0.89 262 22:55 02.09.2021
5937 Rain 19 1010 94 10000 0.89 342 21:31 02.09.2021
5938 Mist 19 1009 94 5000 0.89 269 19:55 02.09.2021
5939 Mist 20 1010 94 4000 0.45 300 17:32 02.09.2021
5940 Clouds 20 1010 94 10000 0.89 314 15:50 02.09.2021
5941 Clouds 19 1010 94 10000 0.45 277 13:57 02.09.2021
5942 Mist 20 1010 93 5000 0.45 127 12:42 02.09.2021
5943 Rain 20 1009 93 10000 0.45 89 11:34 02.09.2021
5944 Mist 20 1008 94 4000 0.89 336 09:40 02.09.2021
5945 Rain 20 1008 93 6000 0.45 122 07:47 02.09.2021
5946 Rain 20 1008 93 8000 1.34 344 06:58 02.09.2021
5947 Mist 20 1009 94 4000 1.34 281 02:54 02.09.2021
5948 Mist 19 1009 93 5000 2.06 360 01:55 02.09.2021
5949 Rain 19 1009 93 10000 0.89 329 01:23 02.09.2021
5950 Clouds 19 1009 93 10000 0.45 131 23:37 01.09.2021
5951 Clouds 19 1009 93 10000 4.12 350 22:39 01.09.2021
5952 Clouds 19 1009 93 10000 0.45 308 21:35 01.09.2021
5953 Clouds 19 1009 92 10000 0.45 348 20:29 01.09.2021
5954 Clouds 19 1009 91 10000 0.89 299 18:33 01.09.2021
5955 Clouds 19 1010 91 10000 0.45 349 17:38 01.09.2021
5956 Clouds 19 1010 92 7000 4.12 350 16:47 01.09.2021
5957 Mist 19 1011 91 3400 1.34 309 15:27 01.09.2021
5958 Clouds 20 1012 86 10000 0.45 294 12:19 01.09.2021
5959 Rain 19 1012 87 10000 0.45 83 11:44 01.09.2021
5960 Mist 20 1012 89 4000 0.89 90 08:47 01.09.2021
5961 Rain 21 1012 90 5000 0.89 148 07:51 01.09.2021
5962 Drizzle 23 1013 83 10000 0.89 258 03:27 01.09.2021
5963 Clouds 23 1013 88 10000 2.57 20 22:39 31.08.2021
5964 Clouds 23 1013 88 10000 3.09 100 21:23 31.08.2021
5965 Rain 22 1013 90 10000 4.12 70 19:45 31.08.2021
5966 Rain 22 1013 90 10000 4.12 40 18:29 31.08.2021
5967 Clouds 22 1013 90 10000 5.66 50 17:36 31.08.2021
5968 Rain 23 1013 90 10000 4.63 80 16:53 31.08.2021
5969 Rain 23 1014 80 10000 5.14 50 16:24 31.08.2021
5970 Clouds 25 1015 76 10000 0.89 61 13:20 31.08.2021
5971 Clouds 28 1012 63 10000 1.34 239 11:27 31.08.2021
5972 Clouds 28 1012 61 10000 0.89 83 10:52 31.08.2021
5973 Clouds 29 1012 60 10000 1.79 156 09:44 31.08.2021
5974 Clouds 29 1012 64 10000 0.89 256 08:38 31.08.2021
5975 Clouds 32 1012 58 10000 0.89 5 05:59 31.08.2021
5976 Clouds 29 1014 66 10000 0.89 294 02:40 31.08.2021
5977 Clouds 27 1013 78 10000 0.45 257 23:35 30.08.2021
5978 Clouds 26 1013 79 10000 0.45 53 21:45 30.08.2021
5979 Clouds 26 1013 79 10000 0.45 97 21:27 30.08.2021
5980 Clouds 26 1012 82 10000 1.34 273 20:20 30.08.2021
5981 Mist 26 1013 84 5000 0.89 210 19:29 30.08.2021
5982 Clouds 27 1012 78 10000 0.89 49 18:30 30.08.2021
5983 Clouds 28 1011 77 10000 0.45 96 17:44 30.08.2021
5984 Clouds 29 1011 78 10000 0.45 34 16:22 30.08.2021
5985 Clouds 30 1011 76 10000 6.17 180 15:38 30.08.2021
5986 Clouds 30 1011 76 10000 0.89 192 13:35 30.08.2021
5987 Clouds 30 1011 74 10000 0.89 148 12:24 30.08.2021
5988 Clouds 33 1010 66 10000 1.34 210 08:58 30.08.2021
5989 Clouds 27 1013 80 10000 0.89 141 22:28 29.08.2021
5990 Clouds 27 1013 79 10000 0.45 192 21:32 29.08.2021
5991 Clouds 27 1013 80 10000 0.51 0 19:59 29.08.2021
5992 Clouds 27 1013 79 10000 0.45 141 19:19 29.08.2021
5993 Clouds 28 1013 75 10000 0.51 0 17:47 29.08.2021
5994 Clouds 28 1013 68 10000 0.45 96 15:47 29.08.2021
5995 Clouds 29 1013 65 10000 0.45 142 14:19 29.08.2021
5996 Clouds 29 1014 64 10000 0.89 50 13:43 29.08.2021
5997 Clouds 29 1013 62 10000 0.89 95 12:32 29.08.2021
5998 Clouds 29 1013 62 10000 1.34 119 11:48 29.08.2021
5999 Clouds 30 1012 62 10000 0.45 44 11:22 29.08.2021
6000 Clouds 30 1012 63 10000 0.45 203 10:42 29.08.2021
6001 Clouds 30 1012 64 10000 0.89 115 10:23 29.08.2021
6002 Clouds 31 1011 63 10000 1.34 85 07:47 29.08.2021
6003 Clouds 28 1012 80 10000 0.89 325 00:21 29.08.2021
6004 Clouds 28 1010 77 10000 1.34 84 21:53 28.08.2021
6005 Clouds 28 1010 75 10000 0.45 100 20:22 28.08.2021
6006 Clouds 29 1009 68 10000 1.34 62 18:33 28.08.2021
6007 Clouds 29 1010 69 10000 0.45 308 17:59 28.08.2021
6008 Clouds 29 1010 71 10000 0.89 97 16:59 28.08.2021
6009 Clouds 30 1009 65 10000 0.45 45 15:39 28.08.2021
6010 Clouds 31 1009 61 10000 0.45 97 14:20 28.08.2021
6011 Clouds 31 1010 59 10000 0.89 111 13:44 28.08.2021
6012 Clouds 31 1009 58 10000 0.45 146 12:42 28.08.2021
6013 Clouds 32 1008 56 10000 0.89 139 11:53 28.08.2021
6014 Clouds 33 1008 55 10000 0.89 117 10:41 28.08.2021
6015 Clouds 34 1008 49 10000 0.89 189 08:40 28.08.2021
6016 Clouds 35 1008 55 10000 0.89 13 07:24 28.08.2021
6017 Clouds 28 1011 84 7000 0.45 65 22:29 27.08.2021
6018 Clouds 29 1011 81 8000 0.45 74 20:59 27.08.2021
6019 Clouds 29 1011 82 8000 0.51 0 20:30 27.08.2021
6020 Clouds 29 1011 81 10000 0.89 108 18:58 27.08.2021
6021 Clouds 29 1011 81 10000 0.89 17 18:37 27.08.2021
6022 Clouds 29 1012 79 10000 1.34 63 16:56 27.08.2021
6023 Clouds 29 1012 76 10000 0.89 60 15:46 27.08.2021
6024 Clouds 30 1012 75 10000 0.45 207 14:43 27.08.2021
6025 Clouds 31 1011 72 10000 0.89 36 12:30 27.08.2021
6026 Clouds 31 1010 68 10000 1.34 360 11:25 27.08.2021
6027 Clouds 32 1010 65 10000 2.24 135 10:43 27.08.2021
6028 Clouds 33 1010 61 10000 2.24 90 09:31 27.08.2021
6029 Clouds 34 1010 58 10000 1.34 94 08:44 27.08.2021
6030 Clouds 35 1010 57 10000 1.34 150 06:37 27.08.2021
6031 Clouds 33 1012 57 10000 1.79 325 03:48 27.08.2021
6032 Clouds 29 1012 76 10000 1.34 288 00:33 27.08.2021
6033 Clouds 28 1012 79 10000 0.89 134 22:43 26.08.2021
6034 Clouds 28 1011 79 10000 0.45 268 22:18 26.08.2021
6035 Mist 29 1011 78 10000 0.89 291 20:35 26.08.2021
6036 Mist 29 1010 76 10000 0.51 0 18:50 26.08.2021
6037 Mist 30 1011 74 10000 2.06 180 17:44 26.08.2021
6038 Clouds 30 1011 72 10000 0.45 101 16:33 26.08.2021
6039 Clouds 31 1011 70 10000 0.45 119 15:54 26.08.2021
6040 Clouds 31 1011 69 10000 0.45 114 13:48 26.08.2021
6041 Clouds 32 1011 67 10000 0.89 64 12:52 26.08.2021
6042 Clouds 32 1010 66 10000 0.89 77 12:24 26.08.2021
6043 Clouds 34 1010 60 10000 1.34 105 10:18 26.08.2021
6044 Clouds 34 1010 57 10000 0.89 70 08:34 26.08.2021
6045 Clouds 32 1011 66 10000 2.57 90 03:27 26.08.2021
6046 Clouds 28 1012 82 10000 0.45 351 22:49 25.08.2021
6047 Clouds 28 1011 82 10000 0.51 0 22:30 25.08.2021
6048 Clouds 28 1011 83 10000 0.89 311 21:29 25.08.2021
6049 Clouds 28 1010 81 10000 0.45 71 20:46 25.08.2021
6050 Clouds 28 1010 82 10000 0.89 286 20:26 25.08.2021
6051 Clouds 29 1010 78 10000 1.03 70 18:42 25.08.2021
6052 Clouds 29 1010 78 10000 1.03 0 17:29 25.08.2021
6053 Clouds 30 1010 75 10000 1.54 0 15:44 25.08.2021
6054 Clouds 30 1010 74 10000 3.6 190 14:48 25.08.2021
6055 Clouds 30 1010 74 10000 4.63 190 14:26 25.08.2021
6056 Clouds 30 1009 72 10000 0.89 86 12:55 25.08.2021
6057 Clear 32 1008 67 10000 0.89 112 11:26 25.08.2021
6058 Clear 32 1008 67 10000 0.45 121 11:26 25.08.2021
6059 Clouds 32 1008 65 10000 0.89 178 10:40 25.08.2021
6060 Clouds 32 1007 61 10000 0.45 124 09:51 25.08.2021
6061 Clouds 33 1007 60 10000 1.34 234 08:42 25.08.2021
6062 Clouds 33 1007 61 10000 0.89 321 08:21 25.08.2021
6063 Clouds 31 1008 68 10000 4.12 220 03:49 25.08.2021
6064 Clouds 27 1008 78 10000 0.89 271 23:43 24.08.2021
6065 Clouds 27 1008 76 10000 1.34 242 21:48 24.08.2021
6066 Clouds 27 1008 76 10000 1.34 212 21:48 24.08.2021
6067 Clouds 27 1008 76 10000 1.34 213 20:46 24.08.2021
6068 Rain 27 1008 75 10000 1.34 171 19:45 24.08.2021
6069 Rain 27 1009 76 10000 1.79 217 17:58 24.08.2021
6070 Rain 27 1009 76 10000 1.79 217 17:58 24.08.2021
6071 Clouds 27 1009 76 10000 0.89 242 17:58 24.08.2021
6072 Rain 27 1009 77 10000 1.34 213 17:27 24.08.2021
6073 Clouds 27 1009 75 10000 1.79 182 16:56 24.08.2021
6074 Clouds 29 1009 67 10000 1.34 186 14:29 24.08.2021
6075 Clouds 29 1009 66 10000 0.45 238 13:24 24.08.2021
6076 Clouds 29 1008 68 10000 1.79 116 11:46 24.08.2021
6077 Clouds 29 1008 73 10000 0.89 91 10:48 24.08.2021
6078 Rain 29 1008 73 10000 0.89 88 10:26 24.08.2021
6079 Clouds 30 1008 70 10000 1.34 32 08:50 24.08.2021
6080 Rain 31 1009 67 10000 0.45 123 06:51 24.08.2021
6081 Rain 30 1010 67 10000 1.34 84 04:54 24.08.2021
6082 Clouds 28 1011 75 10000 0.89 78 00:47 24.08.2021
6083 Clouds 26 1011 81 10000 1.03 160 23:19 23.08.2021
6084 Clouds 26 1011 81 10000 0.45 315 22:39 23.08.2021
6085 Clouds 26 1010 82 10000 3.6 100 20:39 23.08.2021
6086 Clouds 26 1010 83 10000 0.89 85 19:19 23.08.2021
6087 Clouds 27 1011 77 10000 2.57 190 16:39 23.08.2021
6088 Clouds 28 1011 78 10000 0.45 207 14:49 23.08.2021
6089 Clouds 28 1011 77 10000 0.89 75 13:23 23.08.2021
6090 Clouds 28 1010 74 10000 0.45 332 12:19 23.08.2021
6091 Clouds 30 1009 68 10000 0.89 121 10:38 23.08.2021
6092 Rain 30 1009 66 10000 0.89 209 09:41 23.08.2021
6093 Rain 30 1009 66 10000 0.89 96 08:33 23.08.2021
6094 Clouds 30 1009 67 10000 0.89 326 06:50 23.08.2021
6095 Clouds 29 1009 69 10000 1.34 100 06:30 23.08.2021
6096 Clouds 27 1011 82 10000 0.89 66 00:54 23.08.2021
6097 Clouds 27 1009 84 10000 0.89 94 22:45 22.08.2021
6098 Rain 26 1009 85 10000 0.45 128 22:26 22.08.2021
6099 Rain 27 1009 84 10000 2.57 70 20:23 22.08.2021
6100 Clouds 27 1009 82 10000 0.89 82 19:40 22.08.2021
6101 Clouds 29 1010 74 10000 0.45 81 16:48 22.08.2021
6102 Clouds 29 1009 74 10000 0.45 145 15:22 22.08.2021
6103 Clouds 29 1010 72 10000 0.45 67 14:37 22.08.2021
6104 Clouds 30 1010 72 10000 0.45 75 13:21 22.08.2021
6105 Clouds 30 1010 67 10000 4.63 190 12:55 22.08.2021
6106 Clouds 30 1010 67 10000 0.45 69 12:26 22.08.2021
6107 Clouds 31 1010 66 10000 0.89 92 11:42 22.08.2021
6108 Clouds 31 1009 63 10000 0.45 219 10:31 22.08.2021
6109 Rain 32 1009 58 10000 0.89 211 08:19 22.08.2021
6110 Clouds 32 1012 61 10000 1.34 313 04:57 22.08.2021
6111 Clouds 32 1011 60 10000 1.34 165 04:57 22.08.2021
6112 Clouds 27 1013 79 10000 0.89 170 23:58 21.08.2021
6113 Clouds 27 1012 79 10000 0.45 169 22:34 21.08.2021
6114 Clouds 27 1013 77 10000 0.45 171 20:38 21.08.2021
6115 Rain 27 1013 78 10000 0.45 250 18:46 21.08.2021
6116 Rain 27 1014 78 10000 1.79 207 17:59 21.08.2021
6117 Clouds 27 1014 77 10000 6.17 200 16:54 21.08.2021
6118 Rain 27 1014 77 10000 0.45 235 16:28 21.08.2021
6119 Rain 28 1014 78 10000 0.89 221 15:36 21.08.2021
6120 Rain 28 1014 73 10000 1.34 111 14:47 21.08.2021
6121 Rain 28 1014 73 10000 0.89 133 13:32 21.08.2021
6122 Clouds 29 1014 74 10000 0.89 93 12:38 21.08.2021
6123 Clouds 30 1013 67 10000 1.34 268 09:30 21.08.2021
6124 Clouds 31 1014 64 10000 1.34 144 06:19 21.08.2021
6125 Clouds 27 1017 79 10000 1.34 242 23:45 20.08.2021
6126 Clouds 26 1016 78 10000 0.45 281 21:53 20.08.2021
6127 Clouds 27 1016 73 10000 0.89 165 18:27 20.08.2021
6128 Clouds 28 1017 72 10000 0.89 219 16:26 20.08.2021
6129 Clouds 28 1017 72 10000 1.79 304 13:48 20.08.2021
6130 Clouds 29 1016 63 10000 1.79 114 11:41 20.08.2021
6131 Clouds 30 1016 64 10000 1.34 126 10:55 20.08.2021
6132 Clouds 31 1016 64 10000 1.34 355 09:43 20.08.2021
6133 Clouds 32 1016 62 10000 1.34 222 08:51 20.08.2021
6134 Clouds 32 1016 61 10000 2.24 102 07:56 20.08.2021
6135 Clouds 32 1017 59 10000 1.79 166 04:23 20.08.2021
6136 Clouds 28 1018 69 10000 6.69 200 00:36 20.08.2021
6137 Clouds 26 1018 76 10000 6.17 210 23:20 19.08.2021
6138 Clouds 26 1017 77 10000 0.45 124 22:35 19.08.2021
6139 Clouds 26 1017 77 10000 0.45 124 22:35 19.08.2021
6140 Clouds 26 1016 78 10000 0.45 208 20:55 19.08.2021
6141 Clouds 26 1016 82 10000 1.34 226 19:52 19.08.2021
6142 Clouds 27 1016 77 10000 1.79 226 17:28 19.08.2021
6143 Clouds 27 1016 76 10000 0.45 274 16:34 19.08.2021
6144 Clouds 28 1016 78 10000 0.89 288 14:23 19.08.2021
6145 Clouds 28 1016 71 10000 1.34 280 12:39 19.08.2021
6146 Clouds 29 1016 64 10000 1.79 188 11:37 19.08.2021
6147 Clouds 30 1016 62 10000 1.79 188 10:42 19.08.2021
6148 Clouds 31 1015 60 10000 1.34 117 09:48 19.08.2021
6149 Clouds 31 1015 59 10000 2.24 176 09:24 19.08.2021
6150 Clouds 33 1014 56 10000 2.24 92 07:46 19.08.2021
6151 Clouds 30 1015 65 10000 1.34 63 02:53 19.08.2021
6152 Clouds 29 1015 71 10000 1.34 278 01:55 19.08.2021
6153 Clouds 26 1015 83 10000 1.34 163 23:20 18.08.2021
6154 Clouds 25 1015 82 10000 1.34 256 21:44 18.08.2021
6155 Clouds 26 1014 84 10000 0.89 252 20:35 18.08.2021
6156 Clouds 26 1013 82 10000 2.24 184 19:59 18.08.2021
6157 Clouds 26 1013 80 10000 0.89 188 18:57 18.08.2021
6158 Clouds 26 1013 80 10000 1.79 177 18:32 18.08.2021
6159 Clouds 26 1013 77 10000 0.89 126 16:40 18.08.2021
6160 Clouds 27 1013 75 10000 0.89 101 15:39 18.08.2021
6161 Clouds 27 1013 74 10000 1.34 230 15:20 18.08.2021
6162 Clouds 27 1012 73 10000 1.34 210 12:44 18.08.2021
6163 Clouds 27 1012 72 10000 1.79 206 12:26 18.08.2021
6164 Clouds 28 1011 74 10000 1.79 245 11:22 18.08.2021
6165 Clouds 28 1011 75 10000 1.34 244 07:49 18.08.2021
6166 Clouds 28 1012 80 10000 1.79 202 00:48 18.08.2021
6167 Clouds 26 1011 89 10000 0.89 126 22:32 17.08.2021
6168 Clouds 26 1011 89 10000 0.45 180 21:46 17.08.2021
6169 Clouds 26 1010 89 10000 0.89 155 20:47 17.08.2021
6170 Clouds 25 1011 90 10000 0.89 83 19:20 17.08.2021
6171 Clouds 25 1012 93 10000 0.89 190 17:33 17.08.2021
6172 Clouds 25 1012 93 10000 1.34 84 16:50 17.08.2021
6173 Clouds 25 1012 93 10000 1.34 181 15:41 17.08.2021
6174 Clouds 25 1012 94 10000 0.45 87 14:47 17.08.2021
6175 Clouds 25 1013 89 10000 1.79 202 12:37 17.08.2021
6176 Clouds 25 1013 89 10000 0.89 217 09:27 17.08.2021
6177 Clouds 25 1013 89 10000 0.89 95 08:36 17.08.2021
6178 Clouds 24 1014 90 10000 0.89 113 06:41 17.08.2021
6179 Clouds 21 1017 93 10000 2.57 20 23:24 16.08.2021
6180 Clouds 21 1017 92 10000 2.06 20 22:52 16.08.2021
6181 Clouds 21 1017 92 10000 2.06 20 22:34 16.08.2021
6182 Clouds 21 1017 92 10000 2.57 40 21:38 16.08.2021
6183 Clouds 21 1017 92 10000 2.57 40 20:51 16.08.2021
6184 Clouds 22 1017 92 10000 2.06 30 19:29 16.08.2021
6185 Clouds 22 1017 92 10000 3.09 30 18:25 16.08.2021
6186 Clouds 22 1017 92 10000 3.09 30 18:25 16.08.2021
6187 Clouds 22 1017 92 10000 4.12 40 17:53 16.08.2021
6188 Rain 22 1018 91 10000 2.57 40 16:25 16.08.2021
6189 Clouds 22 1018 92 10000 3.6 50 15:22 16.08.2021
6190 Clouds 22 1018 91 10000 0.45 301 13:43 16.08.2021
6191 Rain 22 1017 91 10000 0.45 297 12:59 16.08.2021
6192 Rain 22 1017 91 10000 0.45 296 11:31 16.08.2021
6193 Rain 22 1016 92 10000 0.45 299 09:33 16.08.2021
6194 Clouds 22 1016 92 7000 1.79 290 08:42 16.08.2021
6195 Rain 22 1016 94 10000 0.89 235 07:30 16.08.2021
6196 Clouds 22 1017 92 10000 0.89 302 05:54 16.08.2021
6197 Clouds 20 1018 91 10000 0.89 51 01:21 16.08.2021
6198 Rain 20 1017 93 10000 4.63 340 21:34 15.08.2021
6199 Clouds 20 1016 94 10000 4.12 360 19:35 15.08.2021
6200 Clouds 20 1016 94 10000 0.45 350 18:41 15.08.2021
6201 Clouds 20 1016 94 10000 0.89 333 17:48 15.08.2021
6202 Clouds 20 1016 94 10000 0.89 281 16:43 15.08.2021
6203 Clouds 20 1016 94 10000 0.45 307 15:35 15.08.2021
6204 Mist 20 1016 95 4500 0.45 349 14:36 15.08.2021
6205 Clouds 20 1016 94 7000 4.12 360 13:34 15.08.2021
6206 Mist 20 1013 96 4000 0.89 302 10:41 15.08.2021
6207 Mist 20 1012 95 5000 0.45 344 08:34 15.08.2021
6208 Mist 19 1011 95 5000 1.34 295 01:22 15.08.2021
6209 Rain 19 1010 96 4000 1.34 321 00:32 15.08.2021
6210 Rain 19 1008 96 6000 0.45 306 21:26 14.08.2021
6211 Rain 19 1008 96 4000 0.45 286 20:28 14.08.2021
6212 Rain 19 1007 95 10000 0.89 348 19:31 14.08.2021
6213 Rain 20 1008 95 4500 0.89 351 18:23 14.08.2021
6214 Rain 21 1008 94 7000 0.89 316 16:39 14.08.2021
6215 Clouds 21 1007 94 6000 0.45 337 15:34 14.08.2021
6216 Clouds 21 1008 95 7000 1.34 73 13:49 14.08.2021
6217 Rain 21 1006 94 8000 3.6 340 10:58 14.08.2021
6218 Rain 21 1006 94 10000 0.89 230 09:53 14.08.2021
6219 Rain 25 1004 91 8000 0.89 118 05:26 14.08.2021
6220 Mist 22 1007 93 10000 0.45 74 23:51 13.08.2021
6221 Rain 22 1007 93 10000 5.14 300 22:18 13.08.2021
6222 Clouds 24 1005 93 6000 0.89 312 20:22 13.08.2021
6223 Rain 25 1005 92 7000 0.89 222 18:46 13.08.2021
6224 Clouds 25 1005 91 10000 1.79 230 17:22 13.08.2021
6225 Rain 24 1006 93 10000 1.79 48 15:55 13.08.2021
6226 Clouds 22 1009 93 10000 7.2 130 11:56 13.08.2021
6227 Rain 22 1009 93 10000 0.45 65 11:18 13.08.2021
6228 Rain 22 1011 90 10000 0.45 70 08:40 13.08.2021
6229 Rain 22 1012 90 10000 0.45 288 07:59 13.08.2021
6230 Rain 22 1012 90 10000 0.89 101 06:35 13.08.2021
6231 Rain 23 1012 87 10000 0.45 314 02:27 13.08.2021
6232 Rain 23 1011 90 10000 0.45 346 21:51 12.08.2021
6233 Clouds 23 1010 89 10000 0.89 267 20:42 12.08.2021
6234 Clouds 24 1010 89 10000 5.14 60 19:50 12.08.2021
6235 Clouds 24 1010 86 10000 0.45 122 18:35 12.08.2021
6236 Clouds 25 1010 85 10000 0.89 295 16:51 12.08.2021
6237 Clouds 25 1010 85 10000 0.45 304 16:27 12.08.2021
6238 Clouds 26 1009 84 10000 0.89 232 13:52 12.08.2021
6239 Rain 26 1009 79 10000 1.34 130 11:42 12.08.2021
6240 Rain 27 1010 80 10000 0.45 96 09:43 12.08.2021
6241 Clouds 28 1011 74 10000 0.89 65 07:52 12.08.2021
6242 Clouds 25 1013 82 10000 0.89 71 23:25 11.08.2021
6243 Clouds 26 1012 82 10000 1.34 121 21:53 11.08.2021
6244 Rain 26 1013 81 10000 3.6 70 19:25 11.08.2021
6245 Clouds 27 1012 75 10000 0.45 315 18:27 11.08.2021
6246 Rain 28 1012 69 10000 1.34 98 15:38 11.08.2021
6247 Clouds 28 1012 68 10000 0.89 89 15:19 11.08.2021
6248 Clouds 29 1012 67 10000 0.45 129 14:20 11.08.2021
6249 Rain 29 1011 64 10000 0.89 128 12:29 11.08.2021
6250 Clouds 29 1011 61 10000 0.89 112 11:45 11.08.2021
6251 Clouds 30 1011 60 10000 1.34 205 11:21 11.08.2021
6252 Clouds 32 1010 54 10000 1.79 55 09:21 11.08.2021
6253 Clouds 32 1010 54 10000 0.45 110 07:23 11.08.2021
6254 Clouds 28 1010 60 10000 0.89 132 22:48 10.08.2021
6255 Clouds 28 1009 60 10000 0.89 112 22:27 10.08.2021
6256 Clouds 28 1008 60 10000 1.34 335 20:56 10.08.2021
6257 Clouds 28 1007 58 10000 0.45 217 19:33 10.08.2021
6258 Clouds 29 1007 56 10000 0.45 295 18:29 10.08.2021
6259 Clouds 30 1005 50 10000 1.34 343 15:48 10.08.2021
6260 Clouds 31 1005 50 10000 2.24 311 14:41 10.08.2021
6261 Clouds 33 1002 46 10000 1.34 328 11:33 10.08.2021
6262 Clouds 36 1000 42 10000 0.89 9 09:48 10.08.2021
6263 Clouds 36 998 48 10000 0.89 113 06:47 10.08.2021
6264 Clouds 36 997 49 10000 1.34 296 04:58 10.08.2021
6265 Clouds 28 995 65 10000 1.34 196 23:41 09.08.2021
6266 Clouds 28 995 68 10000 2.68 244 21:54 09.08.2021
6267 Clouds 28 994 67 10000 3.13 12 21:32 09.08.2021
6268 Clouds 28 993 66 10000 2.68 299 19:35 09.08.2021
6269 Clouds 29 993 69 10000 2.24 214 17:19 09.08.2021
6270 Clouds 28 994 75 10000 1.34 135 15:33 09.08.2021
6271 Clouds 29 994 76 10000 3.13 159 13:37 09.08.2021
6272 Clouds 29 994 75 9000 4.02 139 12:51 09.08.2021
6273 Clouds 29 994 74 10000 2.68 206 10:43 09.08.2021
6274 Clouds 31 995 70 10000 2.24 75 08:26 09.08.2021
6275 Clouds 28 1002 79 10000 0.89 149 23:26 08.08.2021
6276 Clouds 27 1002 83 10000 7.2 190 21:25 08.08.2021
6277 Clouds 27 1002 85 10000 5.14 230 19:29 08.08.2021
6278 Clouds 28 1002 85 10000 0.89 104 16:54 08.08.2021
6279 Clouds 28 1002 80 10000 3.6 160 15:33 08.08.2021
6280 Clouds 29 1002 75 10000 2.57 270 13:23 08.08.2021
6281 Clouds 29 1000 74 10000 0.45 322 11:25 08.08.2021
6282 Rain 26 998 94 6000 1.79 323 06:45 08.08.2021
6283 Rain 26 998 94 6000 1.34 328 05:37 08.08.2021
6284 Mist 25 1000 94 4500 0.89 236 00:31 08.08.2021
6285 Rain 25 1001 94 8000 0.45 85 22:20 07.08.2021
6286 Rain 25 1001 94 2000 0.45 339 21:41 07.08.2021
6287 Rain 25 1002 95 3000 0.45 69 20:35 07.08.2021
6288 Rain 27 1003 85 10000 0.89 300 17:38 07.08.2021
6289 Rain 28 1004 83 10000 0.89 39 16:43 07.08.2021
6290 Clouds 28 1005 80 10000 0.89 246 14:28 07.08.2021
6291 Clouds 29 1005 78 10000 0.89 85 13:31 07.08.2021
6292 Rain 29 1004 76 10000 0.89 98 10:24 07.08.2021
6293 Clouds 29 1005 87 10000 3.09 90 06:21 07.08.2021
6294 Clouds 30 1006 72 10000 0.89 153 01:50 07.08.2021
6295 Clouds 27 1005 83 10000 0.45 79 21:38 06.08.2021
6296 Clouds 27 1006 80 10000 0.45 163 20:31 06.08.2021
6297 Clouds 27 1006 80 10000 0.89 67 19:56 06.08.2021
6298 Clouds 28 1006 79 10000 0.89 144 18:31 06.08.2021
6299 Clouds 28 1007 75 10000 2.24 159 15:48 06.08.2021
6300 Clouds 32 1005 65 10000 2.24 169 10:42 06.08.2021
6301 Clouds 33 1005 62 10000 2.24 150 09:56 06.08.2021
6302 Clouds 35 1005 52 10000 2.24 138 07:21 06.08.2021
6303 Clouds 27 1006 79 10000 0.89 354 23:33 05.08.2021
6304 Clouds 27 1006 82 10000 0.45 330 21:32 05.08.2021
6305 Clouds 27 1006 81 10000 1.54 50 20:43 05.08.2021
6306 Clouds 27 1006 81 10000 0.45 124 19:24 05.08.2021
6307 Clouds 27 1007 80 10000 1.34 150 16:25 05.08.2021
6308 Clouds 29 1007 67 10000 1.34 160 14:19 05.08.2021
6309 Clouds 33 1004 56 10000 2.24 142 10:56 05.08.2021
6310 Clouds 35 1006 52 10000 2.24 160 08:35 05.08.2021
6311 Clouds 34 1007 54 10000 1.34 59 04:48 05.08.2021
6312 Clouds 27 1008 80 10000 0.89 323 23:20 04.08.2021
6313 Clouds 26 1008 83 10000 0.89 313 21:44 04.08.2021
6314 Clouds 26 1008 82 10000 0.45 8 21:21 04.08.2021
6315 Clouds 27 1009 80 10000 2.24 158 17:25 04.08.2021
6316 Clouds 27 1009 78 10000 0.89 140 16:40 04.08.2021
6317 Clouds 28 1009 69 10000 1.34 143 14:42 04.08.2021
6318 Clouds 32 1007 61 10000 2.24 112 10:51 04.08.2021
6319 Clouds 30 1012 74 10000 0.45 96 01:46 04.08.2021
6320 Clouds 27 1012 84 10000 0.45 113 20:35 03.08.2021
6321 Clouds 27 1012 82 10000 0.89 225 19:56 03.08.2021
6322 Clouds 28 1012 81 10000 2.24 177 17:50 03.08.2021
6323 Clouds 28 1012 80 10000 2.68 145 14:59 03.08.2021
6324 Clouds 30 1011 67 10000 2.24 156 11:44 03.08.2021
6325 Clouds 32 1011 62 10000 3.13 150 10:39 03.08.2021
6326 Clouds 30 1012 74 10000 1.34 164 01:44 03.08.2021
6327 Clouds 28 1010 84 10000 2.24 164 17:34 02.08.2021
6328 Clouds 27 1010 84 10000 0.89 138 16:38 02.08.2021
6329 Clouds 28 1010 83 10000 0.89 156 14:44 02.08.2021
6330 Clouds 29 1009 78 10000 1.34 154 11:59 02.08.2021
6331 Clouds 29 1009 77 10000 1.34 149 11:34 02.08.2021
6332 Rain 29 1008 79 10000 2.68 159 09:49 02.08.2021
6333 Clouds 27 1007 84 10000 0.89 144 22:33 01.08.2021
6334 Clouds 27 1005 79 10000 2.68 170 18:19 01.08.2021
6335 Clouds 29 1003 73 10000 2.68 152 13:38 01.08.2021
6336 Clouds 30 1002 68 10000 2.24 143 11:38 01.08.2021
6337 Clouds 33 1001 56 10000 2.68 142 08:36 01.08.2021
6338 Clouds 32 1002 65 10000 2.24 160 03:47 01.08.2021
6339 Clouds 26 1002 83 10000 0.45 226 22:52 31.07.2021
6340 Clouds 26 1001 83 10000 0.45 139 20:52 31.07.2021
6341 Clouds 27 1001 77 10000 1.34 154 17:28 31.07.2021
6342 Clouds 27 1001 78 10000 1.34 161 16:22 31.07.2021
6343 Clouds 28 1001 64 10000 1.34 121 12:31 31.07.2021
6344 Clouds 32 1000 56 10000 1.34 110 08:34 31.07.2021
6345 Clouds 26 1002 80 10000 0.89 105 00:23 31.07.2021
6346 Clouds 25 1002 87 10000 0.45 105 20:28 30.07.2021
6347 Clouds 25 1001 86 10000 0.45 130 19:22 30.07.2021
6348 Clouds 26 1002 86 10000 0.89 35 23:30 29.07.2021
6349 Rain 28 1001 75 10000 3.13 165 12:35 29.07.2021
6350 Clouds 32 1001 64 10000 2.68 127 05:31 29.07.2021
6351 Clouds 31 1002 64 10000 2.24 164 04:29 29.07.2021
6352 Clouds 26 1001 82 10000 0.45 88 21:18 28.07.2021
6353 Clouds 27 1001 76 10000 2.24 271 17:20 28.07.2021
6354 Clouds 29 999 72 10000 3.13 156 11:25 28.07.2021
6355 Clouds 31 999 66 10000 3.13 172 07:44 28.07.2021
6356 Clouds 25 999 85 10000 0.45 166 21:46 27.07.2021
6357 Clouds 25 999 85 10000 0.89 103 21:27 27.07.2021
6358 Clouds 28 998 66 10000 0.45 126 14:52 27.07.2021
6359 Clouds 31 995 59 10000 2.24 333 10:45 27.07.2021
6360 Clouds 27 996 78 10000 1.34 38 07:38 27.07.2021
6361 Clouds 27 999 61 10000 2.24 106 15:48 26.07.2021
6362 Clouds 27 1000 63 10000 2.68 325 14:48 26.07.2021
6363 Clouds 31 1004 54 10000 2.24 28 04:51 26.07.2021
6364 Clouds 26 1007 76 10000 0.89 98 20:55 25.07.2021
6365 Clouds 27 1007 75 10000 0.89 126 18:24 25.07.2021
6366 Clouds 27 1008 76 10000 0.89 126 15:45 25.07.2021
6367 Clouds 31 1007 59 10000 2.24 183 10:55 25.07.2021
6368 Clouds 32 1008 58 10000 2.24 118 08:19 25.07.2021
6369 Clouds 26 1010 81 10000 1.34 305 20:24 24.07.2021
6370 Clouds 26 1010 81 10000 0.45 302 19:55 24.07.2021
6371 Clouds 28 1011 70 10000 1.34 145 13:44 24.07.2021
6372 Clouds 28 1011 77 10000 0.45 5 00:18 24.07.2021
6373 Rain 28 1011 71 10000 2.24 153 14:36 23.07.2021
6374 Clouds 29 1010 67 10000 2.24 165 12:41 23.07.2021
6375 Clouds 32 1011 54 10000 1.34 159 04:48 23.07.2021
6376 Clouds 26 1011 78 10000 2.24 133 18:23 22.07.2021
6377 Clouds 30 1010 59 10000 1.34 123 11:21 22.07.2021
6378 Clouds 33 1010 53 10000 2.24 195 08:34 22.07.2021
6379 Clouds 30 1013 66 10000 0.89 261 02:39 22.07.2021
6380 Clouds 26 1012 84 10000 0.89 134 21:43 21.07.2021
6381 Clouds 26 1012 84 10000 0.89 175 21:25 21.07.2021
6382 Clouds 29 1013 65 10000 1.34 166 12:38 21.07.2021
6383 Clouds 33 1012 50 10000 1.34 158 09:24 21.07.2021
6384 Clouds 34 1013 48 10000 2.24 176 06:54 21.07.2021
6385 Clouds 27 1015 80 10000 1.34 158 23:24 20.07.2021
6386 Clouds 27 1014 75 10000 0.89 136 16:37 20.07.2021
6387 Clouds 27 1015 72 10000 1.34 159 15:28 20.07.2021
6388 Clouds 29 1014 61 10000 2.24 146 12:59 20.07.2021
6389 Clouds 31 1013 56 10000 2.24 85 10:21 20.07.2021
6390 Clouds 33 1015 60 10000 1.34 217 04:47 20.07.2021
6391 Clouds 26 1015 85 10000 1.34 148 21:29 19.07.2021
6392 Clouds 29 1015 74 10000 2.24 168 12:53 19.07.2021
6393 Clouds 32 1013 63 10000 2.24 148 10:28 19.07.2021
6394 Clouds 27 1014 80 10000 0.45 130 19:25 18.07.2021
6395 Clouds 28 1014 80 10000 2.24 151 13:49 18.07.2021
6396 Clouds 31 1013 64 10000 2.24 138 10:18 18.07.2021
6397 Clouds 25 1015 86 10000 0.45 110 22:25 17.07.2021
6398 Clouds 25 1016 86 10000 0.89 150 21:44 17.07.2021
6399 Clouds 25 1015 84 10000 0.45 113 21:23 17.07.2021
6400 Clouds 28 1015 69 10000 2.24 141 12:27 17.07.2021
6401 Clouds 33 1015 54 10000 2.24 157 08:55 17.07.2021
6402 Clouds 29 1018 69 10000 0.89 126 02:46 17.07.2021
6403 Clouds 28 1019 71 10000 1.34 128 13:22 16.07.2021
6404 Clouds 33 1018 58 10000 2.24 132 07:32 16.07.2021
6405 Clouds 26 1020 82 10000 0.89 62 00:36 16.07.2021
6406 Clouds 27 1019 74 10000 0.89 143 13:53 15.07.2021
6407 Clouds 29 1018 68 10000 1.34 153 11:50 15.07.2021
6408 Clouds 29 1018 71 10000 2.24 39 07:27 15.07.2021
6409 Clouds 23 1017 89 10000 0.89 94 19:39 14.07.2021
6410 Clouds 25 1017 83 10000 0.45 150 15:55 14.07.2021
6411 Clouds 28 1015 73 10000 1.34 121 07:52 14.07.2021
6412 Clouds 24 1016 87 10000 0.45 71 23:19 13.07.2021
6413 Clouds 24 1015 85 10000 1.54 40 19:57 13.07.2021
6414 Clouds 24 1015 86 10000 1.54 30 19:28 13.07.2021
6415 Clouds 24 1014 86 10000 3.09 40 18:49 13.07.2021
6416 Rain 24 1014 86 10000 0.45 90 18:31 13.07.2021
6417 Rain 24 1014 85 10000 0.89 133 17:56 13.07.2021
6418 Clouds 26 1014 80 10000 0.45 124 13:21 13.07.2021
6419 Rain 26 1012 79 10000 0.89 98 08:50 13.07.2021
6420 Rain 24 1011 84 10000 0.89 302 20:24 12.07.2021
6421 Rain 25 1012 77 10000 0.89 326 16:46 12.07.2021
6422 Rain 27 1011 79 10000 0.45 61 12:21 12.07.2021
6423 Rain 27 1011 79 10000 0.45 298 12:21 12.07.2021
6424 Clouds 23 1012 91 10000 2.06 160 23:21 11.07.2021
6425 Clouds 23 1011 87 10000 0.51 0 19:56 11.07.2021
6426 Clouds 24 1012 84 10000 3.6 40 12:41 11.07.2021
6427 Clouds 25 1011 90 10000 2.06 80 23:48 10.07.2021
6428 Clouds 25 1010 88 10000 1.34 83 14:28 10.07.2021
6429 Clouds 33 1007 63 10000 0.89 102 07:50 10.07.2021
6430 Fog 28 1008 87 5000 3.09 140 02:18 10.07.2021
6431 Mist 24 1007 96 4500 0.45 288 18:20 09.07.2021
6432 Mist 24 1007 93 5000 2.57 200 14:49 09.07.2021
6433 Rain 25 1007 92 7000 0.51 0 10:26 09.07.2021
6434 Rain 23 1008 96 2000 3.09 10 23:51 08.07.2021
6435 Mist 22 1008 96 3500 2.06 360 22:48 08.07.2021
6436 Drizzle 22 1008 94 8000 4.12 30 18:57 08.07.2021
6437 Mist 23 1008 96 5000 0.45 107 17:43 08.07.2021
6438 Mist 23 1008 95 4500 0.45 114 13:32 08.07.2021
6439 Clouds 23 1007 94 10000 0.45 207 12:45 08.07.2021
6440 Clouds 24 1007 94 10000 0.45 80 11:50 08.07.2021
6441 Rain 24 1007 93 6000 1.03 0 10:30 08.07.2021
6442 Clouds 24 1009 89 7000 2.06 70 05:30 08.07.2021
6443 Clouds 24 1009 86 10000 0.89 22 02:22 08.07.2021
6444 Clouds 24 1008 89 10000 4.12 70 22:56 07.07.2021
6445 Clouds 24 1008 89 10000 0.89 104 22:19 07.07.2021
6446 Clouds 24 1008 85 10000 0.89 90 21:42 07.07.2021
6447 Rain 24 1008 85 10000 0.45 114 21:42 07.07.2021
6448 Clouds 24 1008 85 10000 0.45 124 21:23 07.07.2021
6449 Rain 24 1007 84 10000 3.6 60 19:57 07.07.2021
6450 Clouds 24 1007 83 10000 3.09 50 19:29 07.07.2021
6451 Clouds 25 1007 82 10000 0.89 50 17:36 07.07.2021
6452 Rain 25 1007 80 10000 0.89 106 15:45 07.07.2021
6453 Clouds 26 1007 79 10000 0.89 106 15:45 07.07.2021
6454 Rain 27 1006 76 10000 1.34 213 12:27 07.07.2021
6455 Clouds 30 1005 73 8000 1.34 142 08:39 07.07.2021
6456 Mist 29 1005 74 5000 1.34 87 06:46 07.07.2021
6457 Mist 28 1006 78 4500 1.34 93 05:48 07.07.2021
6458 Mist 24 1006 92 3500 0.45 113 23:47 06.07.2021
6459 Mist 24 1006 90 3000 0.89 162 19:30 06.07.2021
6460 Rain 24 1006 90 4000 0.45 144 18:48 06.07.2021
6461 Rain 24 1007 90 4000 2.06 160 18:30 06.07.2021
6462 Rain 25 1009 86 5000 0.45 140 14:58 06.07.2021
6463 Rain 26 1009 81 7000 0.89 175 12:58 06.07.2021
6464 Clouds 27 1008 75 10000 1.34 155 09:42 06.07.2021
6465 Rain 27 1008 74 10000 0.45 120 08:35 06.07.2021
6466 Rain 28 1008 71 6000 0.45 103 07:34 06.07.2021
6467 Rain 25 1009 88 4000 0.45 15 01:53 06.07.2021
6468 Mist 23 1008 93 5000 1.03 10 22:44 05.07.2021
6469 Mist 23 1008 91 3000 1.03 20 21:24 05.07.2021
6470 Clouds 23 1008 88 6000 1.03 0 16:50 05.07.2021
6471 Clouds 24 1008 86 10000 0.89 211 08:48 05.07.2021
6472 Clouds 24 1009 87 10000 1.34 337 05:47 05.07.2021
6473 Clouds 23 1010 87 8000 0.45 95 04:41 05.07.2021
6474 Mist 20 1010 96 1500 0.45 86 23:21 04.07.2021
6475 Mist 20 1011 95 4000 0 0 20:42 04.07.2021
6476 Drizzle 20 1012 95 10000 2.06 40 17:35 04.07.2021
6477 Mist 20 1014 95 2500 0.45 104 13:51 04.07.2021
6478 Rain 21 1014 94 2500 0.45 86 09:35 04.07.2021
6479 Clouds 20 1015 95 6000 0.89 131 01:30 04.07.2021
6480 Clouds 20 1015 95 6000 0.89 131 01:30 04.07.2021
6481 Clouds 20 1014 93 10000 0.45 121 22:44 03.07.2021
6482 Rain 21 1012 87 10000 0.45 5 17:23 03.07.2021
6483 Clouds 23 1011 83 10000 1.34 117 12:39 03.07.2021
6484 Clouds 25 1009 81 10000 0.89 118 10:23 03.07.2021
6485 Clouds 25 1009 82 10000 1.34 106 09:26 03.07.2021
6486 Clouds 26 1009 81 10000 0.89 85 08:45 03.07.2021
6487 Rain 21 1009 96 4000 1.34 65 21:31 02.07.2021
6488 Rain 22 1010 96 6000 0.45 342 08:28 02.07.2021
6489 Rain 22 1010 96 5000 0.51 0 07:28 02.07.2021
6490 Rain 21 1012 96 4500 0.45 107 23:45 01.07.2021
6491 Rain 21 1012 96 6000 0.45 80 22:30 01.07.2021
6492 Rain 21 1012 96 7000 3.09 130 21:34 01.07.2021
6493 Clouds 21 1012 95 7000 0.45 102 19:39 01.07.2021
6494 Mist 21 1012 95 4500 2.57 30 19:19 01.07.2021
6495 Rain 21 1011 95 10000 2.57 40 18:47 01.07.2021
6496 Rain 21 1012 95 7000 2.06 80 17:33 01.07.2021
6497 Rain 21 1012 95 6000 1.03 0 15:57 01.07.2021
6498 Rain 21 1013 95 6000 1.03 0 15:22 01.07.2021
6499 Rain 22 1011 92 10000 3.09 60 12:31 01.07.2021
6500 Rain 23 1011 84 10000 0.45 49 09:40 01.07.2021
6501 Rain 21 1014 96 6000 0.45 59 00:30 01.07.2021
6502 Rain 21 1014 94 3500 2.57 70 23:18 30.06.2021
6503 Rain 21 1014 94 4000 0.45 153 21:58 30.06.2021
6504 Rain 21 1013 95 8000 3.6 120 21:19 30.06.2021
6505 Clouds 21 1013 93 6000 3.09 90 20:21 30.06.2021
6506 Rain 22 1014 87 10000 0.45 114 16:45 30.06.2021
6507 Clouds 21 1014 89 10000 0.45 92 13:27 30.06.2021
6508 Clouds 22 1014 85 10000 0.45 128 10:43 30.06.2021
6509 Rain 21 1012 84 10000 0.89 90 00:53 30.06.2021
6510 Clouds 19 1009 92 10000 0.45 120 20:30 29.06.2021
6511 Clouds 19 1008 93 6000 1.34 87 17:48 29.06.2021
6512 Clouds 19 1008 93 8000 0.89 107 17:28 29.06.2021
6513 Clouds 20 1008 92 10000 1.34 130 15:51 29.06.2021
6514 Clouds 21 1007 93 10000 1.79 100 14:55 29.06.2021
6515 Clouds 23 1005 85 10000 0.89 99 13:26 29.06.2021
6516 Clouds 27 1001 69 10000 2.68 18 06:25 29.06.2021
6517 Rain 20 1001 94 6000 2.24 341 23:52 28.06.2021
6518 Rain 20 1002 93 10000 3.13 50 21:32 28.06.2021
6519 Rain 20 1004 91 10000 1.34 56 18:52 28.06.2021
6520 Rain 22 1005 89 10000 0.45 101 17:21 28.06.2021
6521 Rain 24 1006 73 10000 0.89 112 14:32 28.06.2021
6522 Clouds 25 1005 73 10000 1.34 126 12:57 28.06.2021
6523 Clouds 24 1006 72 10000 0.89 329 00:20 28.06.2021
6524 Clouds 22 1006 81 10000 0.45 302 22:52 27.06.2021
6525 Clouds 21 1005 81 10000 0.45 70 19:45 27.06.2021
6526 Clouds 22 1005 80 10000 0.45 106 18:56 27.06.2021
6527 Rain 22 1006 78 10000 0.89 17 15:50 27.06.2021
6528 Clouds 24 1006 72 10000 0.89 92 11:26 27.06.2021
6529 Clouds 26 1011 78 10000 4.63 120 02:52 27.06.2021
6530 Clouds 23 1011 83 10000 0.45 44 22:40 26.06.2021
6531 Clouds 23 1011 83 10000 1.54 110 20:56 26.06.2021
6532 Clouds 23 1011 83 10000 1.54 110 20:35 26.06.2021
6533 Rain 23 1012 80 10000 0.45 135 17:33 26.06.2021
6534 Rain 24 1013 77 10000 0.89 134 14:49 26.06.2021
6535 Clouds 25 1012 71 10000 0.45 146 12:27 26.06.2021
6536 Clouds 25 1012 71 10000 0.45 146 12:27 26.06.2021
6537 Rain 28 1012 53 10000 0.89 124 07:47 26.06.2021
6538 Clouds 24 1013 73 10000 0.89 323 00:19 26.06.2021
6539 Clouds 22 1012 77 10000 0.89 84 20:39 25.06.2021
6540 Clouds 22 1012 77 10000 0.45 98 19:31 25.06.2021
6541 Clouds 23 1012 75 10000 0.45 130 17:45 25.06.2021
6542 Clouds 23 1013 75 10000 0.89 149 16:43 25.06.2021
6543 Clouds 23 1013 73 10000 0.89 137 14:22 25.06.2021
6544 Clouds 25 1011 66 10000 1.34 75 10:52 25.06.2021
6545 Clouds 27 1012 60 10000 1.34 112 07:58 25.06.2021
6546 Clouds 27 1012 62 10000 1.34 136 07:19 25.06.2021
6547 Clouds 24 1013 75 10000 0.89 39 03:46 25.06.2021
6548 Clouds 21 1013 83 10000 0.89 44 21:49 24.06.2021
6549 Clouds 22 1012 81 10000 0.89 41 20:59 24.06.2021
6550 Clouds 22 1012 80 10000 0.89 337 20:39 24.06.2021
6551 Clouds 22 1012 78 10000 0.89 151 18:43 24.06.2021
6552 Clouds 23 1013 76 10000 0.89 156 15:29 24.06.2021
6553 Clouds 23 1013 75 10000 1.34 179 14:55 24.06.2021
6554 Clouds 23 1013 78 10000 5.14 150 14:25 24.06.2021
6555 Clouds 25 1010 62 10000 2.68 133 10:57 24.06.2021
6556 Clouds 26 1010 64 10000 1.34 116 09:27 24.06.2021
6557 Clouds 25 1011 67 10000 0.89 149 08:22 24.06.2021
6558 Clouds 23 1013 76 10000 1.34 226 02:50 24.06.2021
6559 Clouds 20 1012 87 10000 0.45 343 22:36 23.06.2021
6560 Clouds 20 1012 86 10000 0.45 98 21:44 23.06.2021
6561 Clouds 20 1012 86 10000 0.89 112 20:37 23.06.2021
6562 Clouds 21 1012 86 10000 0.45 303 18:34 23.06.2021
6563 Clouds 21 1012 87 10000 0.45 328 17:32 23.06.2021
6564 Clouds 21 1012 82 10000 1.79 74 15:47 23.06.2021
6565 Clouds 22 1011 78 10000 0.45 64 12:58 23.06.2021
6566 Clouds 23 1010 76 10000 0.45 192 11:56 23.06.2021
6567 Clouds 23 1009 77 10000 1.79 80 09:55 23.06.2021
6568 Clouds 23 1009 79 10000 0.89 32 08:46 23.06.2021
6569 Rain 23 1009 77 10000 1.34 102 07:51 23.06.2021
6570 Rain 24 1010 76 10000 0.45 103 06:58 23.06.2021
6571 Rain 24 1010 67 10000 0.45 356 04:25 23.06.2021
6572 Clouds 22 1010 78 10000 0.89 285 00:44 23.06.2021
6573 Clouds 22 1011 80 10000 0.45 236 23:56 22.06.2021
6574 Clouds 22 1010 80 10000 0.45 28 22:44 22.06.2021
6575 Clouds 22 1010 80 10000 4.12 20 22:22 22.06.2021
6576 Clouds 22 1010 80 10000 1.34 104 21:37 22.06.2021
6577 Clouds 22 1009 77 10000 0.89 82 19:43 22.06.2021
6578 Clouds 22 1010 76 10000 1.54 10 18:54 22.06.2021
6579 Clouds 22 1009 76 10000 1.03 0 18:24 22.06.2021
6580 Clouds 22 1010 76 10000 0.45 112 17:22 22.06.2021
6581 Clouds 22 1010 75 10000 0.45 131 16:30 22.06.2021
6582 Clouds 23 1010 74 10000 1.34 171 14:36 22.06.2021
6583 Clouds 23 1010 74 10000 0.45 69 13:50 22.06.2021
6584 Clouds 24 1009 73 10000 1.34 111 12:53 22.06.2021
6585 Clouds 24 1008 68 10000 0.89 124 11:18 22.06.2021
6586 Clouds 25 1008 66 10000 0.89 132 09:57 22.06.2021
6587 Clouds 28 1008 60 10000 1.79 127 06:46 22.06.2021
6588 Clouds 23 1008 75 10000 0.45 119 00:44 22.06.2021
6589 Clouds 22 1008 82 10000 0.45 102 23:19 21.06.2021
6590 Clouds 21 1007 86 10000 3.09 130 21:54 21.06.2021
6591 Clouds 21 1007 85 10000 0.45 150 20:55 21.06.2021
6592 Clouds 21 1007 83 10000 3.6 160 20:30 21.06.2021
6593 Clouds 21 1007 83 10000 0.45 67 19:51 21.06.2021
6594 Clouds 22 1007 78 10000 0.45 114 18:33 21.06.2021
6595 Clouds 22 1007 78 10000 0.89 198 17:23 21.06.2021
6596 Clouds 22 1007 78 10000 0.45 194 16:40 21.06.2021
6597 Clouds 22 1007 78 10000 0.45 105 16:19 21.06.2021
6598 Clouds 22 1006 76 10000 0.45 219 15:42 21.06.2021
6599 Clouds 23 1006 72 10000 0.89 280 13:59 21.06.2021
6600 Clouds 23 1006 73 10000 0.45 207 13:32 21.06.2021
6601 Clouds 23 1006 69 10000 1.79 159 12:36 21.06.2021
6602 Clouds 24 1005 68 10000 0.45 283 11:46 21.06.2021
6603 Clouds 25 1005 64 10000 3.13 127 10:29 21.06.2021
6604 Clouds 26 1004 68 10000 6.17 180 09:19 21.06.2021
6605 Clouds 27 1004 61 10000 1.79 95 08:20 21.06.2021
6606 Clouds 27 1004 64 10000 0.89 221 06:45 21.06.2021
6607 Clouds 21 1005 83 10000 3.09 60 23:59 20.06.2021
6608 Clouds 21 1005 84 10000 0.45 91 23:35 20.06.2021
6609 Clouds 20 1005 85 10000 3.6 70 22:57 20.06.2021
6610 Clouds 21 1004 84 10000 0.45 93 21:57 20.06.2021
6611 Clouds 21 1003 83 10000 0.45 101 21:20 20.06.2021
6612 Clouds 22 1002 68 10000 0.45 323 19:41 20.06.2021
6613 Clouds 22 1002 65 10000 0.45 326 19:21 20.06.2021
6614 Rain 23 1002 65 10000 0.89 331 17:48 20.06.2021
6615 Clouds 24 1002 65 10000 0.89 285 16:49 20.06.2021
6616 Clouds 24 1002 81 10000 4.12 190 15:49 20.06.2021
6617 Clouds 24 1002 81 10000 4.12 190 15:31 20.06.2021
6618 Clouds 24 1002 79 10000 0.89 345 14:45 20.06.2021
6619 Clouds 25 1001 77 10000 0.89 133 13:36 20.06.2021
6620 Clouds 25 1001 75 10000 0.89 179 12:49 20.06.2021
6621 Clouds 25 1000 72 10000 0.45 232 11:46 20.06.2021
6622 Clouds 26 998 64 10000 1.34 119 10:28 20.06.2021
6623 Clouds 27 998 61 10000 0.45 129 09:44 20.06.2021
6624 Clouds 28 997 62 10000 0.89 305 06:57 20.06.2021
6625 Mist 20 998 96 2400 1.34 304 23:38 19.06.2021
6626 Mist 20 998 96 4000 0.45 351 22:59 19.06.2021
6627 Mist 20 998 96 2500 0.45 329 21:52 19.06.2021
6628 Mist 20 998 96 3000 0.45 86 21:22 19.06.2021
6629 Rain 20 999 95 3300 0.45 100 18:55 19.06.2021
6630 Mist 20 999 95 3500 3.6 50 18:22 19.06.2021
6631 Rain 20 1000 95 8000 2.57 130 17:27 19.06.2021
6632 Mist 20 1000 94 5000 1.54 130 16:48 19.06.2021
6633 Clouds 20 1001 90 10000 4.12 210 15:40 19.06.2021
6634 Clouds 21 1001 87 10000 0.89 161 12:55 19.06.2021
6635 Clouds 21 1001 84 10000 2.24 211 11:54 19.06.2021
6636 Clouds 21 1001 85 10000 1.79 197 10:47 19.06.2021
6637 Clouds 21 1001 86 10000 0.89 228 10:26 19.06.2021
6638 Clouds 21 1001 86 10000 0.89 228 10:26 19.